<?xml version="1.0" encoding="UTF-8" standalone="no" ?>
<gpx xmlns="http://www.topografix.com/GPX/1/1" xmlns:xsi="http://www.w3.org/2001/XMLSchema-instance" xsi:schemaLocation="http://www.topografix.com/GPX/1/1 http://www.topografix.com/GPX/1/1/gpx.xsd" version="1.1" creator="VisuGPX - https://www.visugpx.com">
  <metadata>
    <name>pic du cabaliros</name>
    <desc><![CDATA[Rando haute montagne avec 1h30 de portage mais très jolie descente sur cauterets]]></desc>
  </metadata>
  <trk>
    <name><![CDATA[2012-06-24T07_1]]></name>
    <trkseg>
      <trkpt lat="42.95578" lon="-0.07266">
        <ele>490.878</ele>
        <time>2012-06-24T07:18:14Z</time>
      </trkpt>
      <trkpt lat="42.95583" lon="-0.0728">
        <ele>497.088</ele>
        <time>2012-06-24T07:18:20Z</time>
      </trkpt>
      <trkpt lat="42.95589" lon="-0.0729">
        <ele>497.638</ele>
        <time>2012-06-24T07:18:26Z</time>
      </trkpt>
      <trkpt lat="42.95606" lon="-0.07316">
        <ele>495.158</ele>
        <time>2012-06-24T07:18:36Z</time>
      </trkpt>
      <trkpt lat="42.95622" lon="-0.07338">
        <ele>494.988</ele>
        <time>2012-06-24T07:18:44Z</time>
      </trkpt>
      <trkpt lat="42.95633" lon="-0.07357">
        <ele>495.678</ele>
        <time>2012-06-24T07:18:51Z</time>
      </trkpt>
      <trkpt lat="42.95646" lon="-0.07378">
        <ele>495.188</ele>
        <time>2012-06-24T07:18:59Z</time>
      </trkpt>
      <trkpt lat="42.95658" lon="-0.074">
        <ele>495.048</ele>
        <time>2012-06-24T07:19:07Z</time>
      </trkpt>
      <trkpt lat="42.95669" lon="-0.0742">
        <ele>494.708</ele>
        <time>2012-06-24T07:19:15Z</time>
      </trkpt>
      <trkpt lat="42.95681" lon="-0.07453">
        <ele>500.139</ele>
        <time>2012-06-24T07:19:24Z</time>
      </trkpt>
      <trkpt lat="42.95689" lon="-0.0749">
        <ele>509.989</ele>
        <time>2012-06-24T07:19:34Z</time>
      </trkpt>
      <trkpt lat="42.95694" lon="-0.0751">
        <ele>514.56</ele>
        <time>2012-06-24T07:19:40Z</time>
      </trkpt>
      <trkpt lat="42.95706" lon="-0.07522">
        <ele>518.431</ele>
        <time>2012-06-24T07:19:46Z</time>
      </trkpt>
      <trkpt lat="42.95724" lon="-0.0752">
        <ele>512.347</ele>
        <time>2012-06-24T07:19:52Z</time>
      </trkpt>
      <trkpt lat="42.9574" lon="-0.07517">
        <ele>509.647</ele>
        <time>2012-06-24T07:19:57Z</time>
      </trkpt>
      <trkpt lat="42.95764" lon="-0.0751">
        <ele>506.045</ele>
        <time>2012-06-24T07:20:02Z</time>
      </trkpt>
      <trkpt lat="42.95786" lon="-0.07501">
        <ele>505.737</ele>
        <time>2012-06-24T07:20:06Z</time>
      </trkpt>
      <trkpt lat="42.95821" lon="-0.07489">
        <ele>507.43</ele>
        <time>2012-06-24T07:20:13Z</time>
      </trkpt>
      <trkpt lat="42.95857" lon="-0.07467">
        <ele>509.66</ele>
        <time>2012-06-24T07:20:20Z</time>
      </trkpt>
      <trkpt lat="42.95903" lon="-0.07455">
        <ele>503.146</ele>
        <time>2012-06-24T07:20:28Z</time>
      </trkpt>
      <trkpt lat="42.95947" lon="-0.07453">
        <ele>498.515</ele>
        <time>2012-06-24T07:20:34Z</time>
      </trkpt>
      <trkpt lat="42.95987" lon="-0.0745">
        <ele>493.005</ele>
        <time>2012-06-24T07:20:39Z</time>
      </trkpt>
      <trkpt lat="42.96" lon="-0.07451">
        <ele>491.254</ele>
        <time>2012-06-24T07:20:41Z</time>
      </trkpt>
      <trkpt lat="42.96053" lon="-0.07451">
        <ele>490.307</ele>
        <time>2012-06-24T07:20:48Z</time>
      </trkpt>
      <trkpt lat="42.9611" lon="-0.0745">
        <ele>484.005</ele>
        <time>2012-06-24T07:20:54Z</time>
      </trkpt>
      <trkpt lat="42.9617" lon="-0.0745">
        <ele>480.356</ele>
        <time>2012-06-24T07:21:01Z</time>
      </trkpt>
      <trkpt lat="42.96211" lon="-0.0745">
        <ele>478.739</ele>
        <time>2012-06-24T07:21:07Z</time>
      </trkpt>
      <trkpt lat="42.9627" lon="-0.07451">
        <ele>476.858</ele>
        <time>2012-06-24T07:21:16Z</time>
      </trkpt>
      <trkpt lat="42.96343" lon="-0.07448">
        <ele>474.118</ele>
        <time>2012-06-24T07:21:26Z</time>
      </trkpt>
      <trkpt lat="42.96375" lon="-0.07442">
        <ele>475.889</ele>
        <time>2012-06-24T07:21:31Z</time>
      </trkpt>
      <trkpt lat="42.96422" lon="-0.07429">
        <ele>475.769</ele>
        <time>2012-06-24T07:21:38Z</time>
      </trkpt>
      <trkpt lat="42.96445" lon="-0.07419">
        <ele>475.699</ele>
        <time>2012-06-24T07:21:43Z</time>
      </trkpt>
      <trkpt lat="42.96453" lon="-0.07416">
        <ele>475.97</ele>
        <time>2012-06-24T07:21:47Z</time>
      </trkpt>
      <trkpt lat="42.96455" lon="-0.07415">
        <ele>474.57</ele>
        <time>2012-06-24T07:21:52Z</time>
      </trkpt>
      <trkpt lat="42.9646" lon="-0.07411">
        <ele>472.031</ele>
        <time>2012-06-24T07:22:03Z</time>
      </trkpt>
      <trkpt lat="42.96475" lon="-0.07407">
        <ele>470.361</ele>
        <time>2012-06-24T07:22:08Z</time>
      </trkpt>
      <trkpt lat="42.96491" lon="-0.07405">
        <ele>469.061</ele>
        <time>2012-06-24T07:22:12Z</time>
      </trkpt>
      <trkpt lat="42.96528" lon="-0.07394">
        <ele>467.021</ele>
        <time>2012-06-24T07:22:19Z</time>
      </trkpt>
      <trkpt lat="42.96575" lon="-0.07379">
        <ele>464.921</ele>
        <time>2012-06-24T07:22:27Z</time>
      </trkpt>
      <trkpt lat="42.966" lon="-0.07357">
        <ele>464.04</ele>
        <time>2012-06-24T07:22:32Z</time>
      </trkpt>
      <trkpt lat="42.96603" lon="-0.0735">
        <ele>464.031</ele>
        <time>2012-06-24T07:22:33Z</time>
      </trkpt>
      <trkpt lat="42.96621" lon="-0.0733">
        <ele>462.87</ele>
        <time>2012-06-24T07:22:37Z</time>
      </trkpt>
      <trkpt lat="42.96633" lon="-0.07337">
        <ele>462.811</ele>
        <time>2012-06-24T07:22:39Z</time>
      </trkpt>
      <trkpt lat="42.96662" lon="-0.07354">
        <ele>462.361</ele>
        <time>2012-06-24T07:22:44Z</time>
      </trkpt>
      <trkpt lat="42.96712" lon="-0.07365">
        <ele>460.29</ele>
        <time>2012-06-24T07:22:51Z</time>
      </trkpt>
      <trkpt lat="42.9679" lon="-0.07388">
        <ele>457.96</ele>
        <time>2012-06-24T07:23:01Z</time>
      </trkpt>
      <trkpt lat="42.96859" lon="-0.07407">
        <ele>456.621</ele>
        <time>2012-06-24T07:23:10Z</time>
      </trkpt>
      <trkpt lat="42.96926" lon="-0.07427">
        <ele>455.272</ele>
        <time>2012-06-24T07:23:19Z</time>
      </trkpt>
      <trkpt lat="42.96988" lon="-0.07445">
        <ele>453.674</ele>
        <time>2012-06-24T07:23:27Z</time>
      </trkpt>
      <trkpt lat="42.9706" lon="-0.07465">
        <ele>451.213</ele>
        <time>2012-06-24T07:23:36Z</time>
      </trkpt>
      <trkpt lat="42.9712" lon="-0.07481">
        <ele>449.643</ele>
        <time>2012-06-24T07:23:43Z</time>
      </trkpt>
      <trkpt lat="42.97161" lon="-0.07498">
        <ele>448.282</ele>
        <time>2012-06-24T07:23:49Z</time>
      </trkpt>
      <trkpt lat="42.97176" lon="-0.07504">
        <ele>447.783</ele>
        <time>2012-06-24T07:23:53Z</time>
      </trkpt>
      <trkpt lat="42.97178" lon="-0.07505">
        <ele>447.603</ele>
        <time>2012-06-24T07:23:54Z</time>
      </trkpt>
      <trkpt lat="42.97176" lon="-0.07516">
        <ele>447.58</ele>
        <time>2012-06-24T07:23:58Z</time>
      </trkpt>
      <trkpt lat="42.9717" lon="-0.07532">
        <ele>448.455</ele>
        <time>2012-06-24T07:24:04Z</time>
      </trkpt>
      <trkpt lat="42.97162" lon="-0.07546">
        <ele>450.596</ele>
        <time>2012-06-24T07:24:11Z</time>
      </trkpt>
      <trkpt lat="42.97161" lon="-0.07547">
        <ele>451.138</ele>
        <time>2012-06-24T07:24:12Z</time>
      </trkpt>
      <trkpt lat="42.97153" lon="-0.07554">
        <ele>455.126</ele>
        <time>2012-06-24T07:24:22Z</time>
      </trkpt>
      <trkpt lat="42.97152" lon="-0.07561">
        <ele>455.797</ele>
        <time>2012-06-24T07:24:26Z</time>
      </trkpt>
      <trkpt lat="42.97151" lon="-0.07565">
        <ele>456.297</ele>
        <time>2012-06-24T07:24:29Z</time>
      </trkpt>
      <trkpt lat="42.97152" lon="-0.07581">
        <ele>456.501</ele>
        <time>2012-06-24T07:24:37Z</time>
      </trkpt>
      <trkpt lat="42.97156" lon="-0.07591">
        <ele>457.894</ele>
        <time>2012-06-24T07:24:44Z</time>
      </trkpt>
      <trkpt lat="42.97157" lon="-0.07595">
        <ele>458.63</ele>
        <time>2012-06-24T07:24:47Z</time>
      </trkpt>
      <trkpt lat="42.9716" lon="-0.07604">
        <ele>457.847</ele>
        <time>2012-06-24T07:24:52Z</time>
      </trkpt>
      <trkpt lat="42.97165" lon="-0.07617">
        <ele>460.671</ele>
        <time>2012-06-24T07:25:01Z</time>
      </trkpt>
      <trkpt lat="42.97165" lon="-0.07619">
        <ele>460.744</ele>
        <time>2012-06-24T07:25:02Z</time>
      </trkpt>
      <trkpt lat="42.97163" lon="-0.07627">
        <ele>465.142</ele>
        <time>2012-06-24T07:25:09Z</time>
      </trkpt>
      <trkpt lat="42.9716" lon="-0.07634">
        <ele>467.345</ele>
        <time>2012-06-24T07:25:15Z</time>
      </trkpt>
      <trkpt lat="42.9716" lon="-0.07638">
        <ele>467.525</ele>
        <time>2012-06-24T07:25:17Z</time>
      </trkpt>
      <trkpt lat="42.97157" lon="-0.0765">
        <ele>471.717</ele>
        <time>2012-06-24T07:25:27Z</time>
      </trkpt>
      <trkpt lat="42.97157" lon="-0.07655">
        <ele>472.805</ele>
        <time>2012-06-24T07:25:31Z</time>
      </trkpt>
      <trkpt lat="42.97156" lon="-0.07665">
        <ele>476.256</ele>
        <time>2012-06-24T07:25:37Z</time>
      </trkpt>
      <trkpt lat="42.97155" lon="-0.07668">
        <ele>478.549</ele>
        <time>2012-06-24T07:25:41Z</time>
      </trkpt>
      <trkpt lat="42.97151" lon="-0.07674">
        <ele>484.826</ele>
        <time>2012-06-24T07:25:48Z</time>
      </trkpt>
      <trkpt lat="42.97148" lon="-0.07678">
        <ele>489.561</ele>
        <time>2012-06-24T07:25:54Z</time>
      </trkpt>
      <trkpt lat="42.97146" lon="-0.0768">
        <ele>491.577</ele>
        <time>2012-06-24T07:25:57Z</time>
      </trkpt>
      <trkpt lat="42.97142" lon="-0.07691">
        <ele>490.549</ele>
        <time>2012-06-24T07:26:04Z</time>
      </trkpt>
      <trkpt lat="42.97143" lon="-0.07705">
        <ele>489.354</ele>
        <time>2012-06-24T07:26:12Z</time>
      </trkpt>
      <trkpt lat="42.97142" lon="-0.07706">
        <ele>490.264</ele>
        <time>2012-06-24T07:26:14Z</time>
      </trkpt>
      <trkpt lat="42.97139" lon="-0.07714">
        <ele>490.365</ele>
        <time>2012-06-24T07:26:20Z</time>
      </trkpt>
      <trkpt lat="42.97131" lon="-0.07726">
        <ele>493.276</ele>
        <time>2012-06-24T07:26:29Z</time>
      </trkpt>
      <trkpt lat="42.97126" lon="-0.07736">
        <ele>494.711</ele>
        <time>2012-06-24T07:26:36Z</time>
      </trkpt>
      <trkpt lat="42.97124" lon="-0.07744">
        <ele>494.782</ele>
        <time>2012-06-24T07:26:42Z</time>
      </trkpt>
      <trkpt lat="42.97123" lon="-0.07757">
        <ele>495.464</ele>
        <time>2012-06-24T07:26:48Z</time>
      </trkpt>
      <trkpt lat="42.9712" lon="-0.07765">
        <ele>496.764</ele>
        <time>2012-06-24T07:26:53Z</time>
      </trkpt>
      <trkpt lat="42.9712" lon="-0.07769">
        <ele>496.433</ele>
        <time>2012-06-24T07:26:55Z</time>
      </trkpt>
      <trkpt lat="42.97119" lon="-0.07782">
        <ele>496.104</ele>
        <time>2012-06-24T07:27:02Z</time>
      </trkpt>
      <trkpt lat="42.97119" lon="-0.07794">
        <ele>497.644</ele>
        <time>2012-06-24T07:27:09Z</time>
      </trkpt>
      <trkpt lat="42.97117" lon="-0.07804">
        <ele>501.045</ele>
        <time>2012-06-24T07:27:15Z</time>
      </trkpt>
      <trkpt lat="42.97117" lon="-0.07806">
        <ele>501.235</ele>
        <time>2012-06-24T07:27:16Z</time>
      </trkpt>
      <trkpt lat="42.97118" lon="-0.07817">
        <ele>499.75</ele>
        <time>2012-06-24T07:27:21Z</time>
      </trkpt>
      <trkpt lat="42.9712" lon="-0.07829">
        <ele>496.562</ele>
        <time>2012-06-24T07:27:27Z</time>
      </trkpt>
      <trkpt lat="42.97121" lon="-0.07838">
        <ele>497.923</ele>
        <time>2012-06-24T07:27:34Z</time>
      </trkpt>
      <trkpt lat="42.97122" lon="-0.07844">
        <ele>500.414</ele>
        <time>2012-06-24T07:27:49Z</time>
      </trkpt>
      <trkpt lat="42.97121" lon="-0.07848">
        <ele>500.843</ele>
        <time>2012-06-24T07:27:58Z</time>
      </trkpt>
      <trkpt lat="42.9713" lon="-0.07853">
        <ele>500.293</ele>
        <time>2012-06-24T07:29:12Z</time>
      </trkpt>
      <trkpt lat="42.97131" lon="-0.07856">
        <ele>500.694</ele>
        <time>2012-06-24T07:29:15Z</time>
      </trkpt>
      <trkpt lat="42.97144" lon="-0.07872">
        <ele>499.913</ele>
        <time>2012-06-24T07:29:21Z</time>
      </trkpt>
      <trkpt lat="42.97146" lon="-0.07876">
        <ele>499.243</ele>
        <time>2012-06-24T07:29:22Z</time>
      </trkpt>
      <trkpt lat="42.97156" lon="-0.07914">
        <ele>491.318</ele>
        <time>2012-06-24T07:29:29Z</time>
      </trkpt>
      <trkpt lat="42.97156" lon="-0.07918">
        <ele>490.128</ele>
        <time>2012-06-24T07:29:30Z</time>
      </trkpt>
      <trkpt lat="42.97159" lon="-0.07947">
        <ele>481.226</ele>
        <time>2012-06-24T07:29:36Z</time>
      </trkpt>
      <trkpt lat="42.97163" lon="-0.07956">
        <ele>479.977</ele>
        <time>2012-06-24T07:29:38Z</time>
      </trkpt>
      <trkpt lat="42.9718" lon="-0.0797">
        <ele>480.659</ele>
        <time>2012-06-24T07:29:44Z</time>
      </trkpt>
      <trkpt lat="42.97193" lon="-0.07985">
        <ele>480.099</ele>
        <time>2012-06-24T07:29:48Z</time>
      </trkpt>
      <trkpt lat="42.97197" lon="-0.07996">
        <ele>475.889</ele>
        <time>2012-06-24T07:29:51Z</time>
      </trkpt>
      <trkpt lat="42.97216" lon="-0.08004">
        <ele>478.351</ele>
        <time>2012-06-24T07:29:56Z</time>
      </trkpt>
      <trkpt lat="42.97231" lon="-0.08013">
        <ele>483.513</ele>
        <time>2012-06-24T07:30:03Z</time>
      </trkpt>
      <trkpt lat="42.97235" lon="-0.08019">
        <ele>483.632</ele>
        <time>2012-06-24T07:30:07Z</time>
      </trkpt>
      <trkpt lat="42.97243" lon="-0.08025">
        <ele>482.402</ele>
        <time>2012-06-24T07:30:12Z</time>
      </trkpt>
      <trkpt lat="42.9725" lon="-0.08031">
        <ele>484.583</ele>
        <time>2012-06-24T07:30:17Z</time>
      </trkpt>
      <trkpt lat="42.97256" lon="-0.08039">
        <ele>486.093</ele>
        <time>2012-06-24T07:30:21Z</time>
      </trkpt>
      <trkpt lat="42.9726" lon="-0.08046">
        <ele>484.142</ele>
        <time>2012-06-24T07:30:23Z</time>
      </trkpt>
      <trkpt lat="42.97281" lon="-0.08072">
        <ele>480.31</ele>
        <time>2012-06-24T07:30:27Z</time>
      </trkpt>
      <trkpt lat="42.97301" lon="-0.08095">
        <ele>478.751</ele>
        <time>2012-06-24T07:30:32Z</time>
      </trkpt>
      <trkpt lat="42.9731" lon="-0.08101">
        <ele>476.21</ele>
        <time>2012-06-24T07:30:35Z</time>
      </trkpt>
      <trkpt lat="42.9732" lon="-0.08093">
        <ele>473.7</ele>
        <time>2012-06-24T07:30:39Z</time>
      </trkpt>
      <trkpt lat="42.97336" lon="-0.08063">
        <ele>466.989</ele>
        <time>2012-06-24T07:30:46Z</time>
      </trkpt>
      <trkpt lat="42.97339" lon="-0.0806">
        <ele>465.779</ele>
        <time>2012-06-24T07:30:47Z</time>
      </trkpt>
      <trkpt lat="42.97349" lon="-0.0805">
        <ele>461.48</ele>
        <time>2012-06-24T07:30:52Z</time>
      </trkpt>
      <trkpt lat="42.97351" lon="-0.08049">
        <ele>459.848</ele>
        <time>2012-06-24T07:30:54Z</time>
      </trkpt>
      <trkpt lat="42.97353" lon="-0.08052">
        <ele>458.403</ele>
        <time>2012-06-24T07:31:02Z</time>
      </trkpt>
      <trkpt lat="42.97354" lon="-0.08053">
        <ele>458.123</ele>
        <time>2012-06-24T07:31:07Z</time>
      </trkpt>
      <trkpt lat="42.97365" lon="-0.08059">
        <ele>455.701</ele>
        <time>2012-06-24T07:31:12Z</time>
      </trkpt>
      <trkpt lat="42.97373" lon="-0.08074">
        <ele>452.971</ele>
        <time>2012-06-24T07:31:15Z</time>
      </trkpt>
      <trkpt lat="42.97394" lon="-0.08114">
        <ele>449.271</ele>
        <time>2012-06-24T07:31:21Z</time>
      </trkpt>
      <trkpt lat="42.974" lon="-0.0812">
        <ele>448.281</ele>
        <time>2012-06-24T07:31:22Z</time>
      </trkpt>
      <trkpt lat="42.9743" lon="-0.08153">
        <ele>443.05</ele>
        <time>2012-06-24T07:31:28Z</time>
      </trkpt>
      <trkpt lat="42.97445" lon="-0.08171">
        <ele>445.882</ele>
        <time>2012-06-24T07:31:33Z</time>
      </trkpt>
      <trkpt lat="42.97452" lon="-0.0818">
        <ele>444.822</ele>
        <time>2012-06-24T07:31:35Z</time>
      </trkpt>
      <trkpt lat="42.97462" lon="-0.08187">
        <ele>445.123</ele>
        <time>2012-06-24T07:31:37Z</time>
      </trkpt>
      <trkpt lat="42.97491" lon="-0.08212">
        <ele>446.194</ele>
        <time>2012-06-24T07:31:42Z</time>
      </trkpt>
      <trkpt lat="42.97518" lon="-0.08241">
        <ele>444.943</ele>
        <time>2012-06-24T07:31:46Z</time>
      </trkpt>
      <trkpt lat="42.97541" lon="-0.08266">
        <ele>447.044</ele>
        <time>2012-06-24T07:31:51Z</time>
      </trkpt>
      <trkpt lat="42.97563" lon="-0.08285">
        <ele>447.925</ele>
        <time>2012-06-24T07:31:57Z</time>
      </trkpt>
      <trkpt lat="42.97573" lon="-0.08294">
        <ele>449.495</ele>
        <time>2012-06-24T07:32:01Z</time>
      </trkpt>
      <trkpt lat="42.9758" lon="-0.08303">
        <ele>448.154</ele>
        <time>2012-06-24T07:32:05Z</time>
      </trkpt>
      <trkpt lat="42.97592" lon="-0.08318">
        <ele>444.512</ele>
        <time>2012-06-24T07:32:10Z</time>
      </trkpt>
      <trkpt lat="42.97618" lon="-0.08336">
        <ele>442.744</ele>
        <time>2012-06-24T07:32:17Z</time>
      </trkpt>
      <trkpt lat="42.97632" lon="-0.08346">
        <ele>441.524</ele>
        <time>2012-06-24T07:32:23Z</time>
      </trkpt>
      <trkpt lat="42.9764" lon="-0.08358">
        <ele>441.171</ele>
        <time>2012-06-24T07:32:27Z</time>
      </trkpt>
      <trkpt lat="42.97642" lon="-0.08375">
        <ele>441.065</ele>
        <time>2012-06-24T07:32:32Z</time>
      </trkpt>
      <trkpt lat="42.97651" lon="-0.08389">
        <ele>442.315</ele>
        <time>2012-06-24T07:32:38Z</time>
      </trkpt>
      <trkpt lat="42.97663" lon="-0.08401">
        <ele>445.106</ele>
        <time>2012-06-24T07:32:44Z</time>
      </trkpt>
      <trkpt lat="42.97674" lon="-0.08416">
        <ele>446.905</ele>
        <time>2012-06-24T07:32:52Z</time>
      </trkpt>
      <trkpt lat="42.9768" lon="-0.08426">
        <ele>448.676</ele>
        <time>2012-06-24T07:32:59Z</time>
      </trkpt>
      <trkpt lat="42.97686" lon="-0.08435">
        <ele>451.376</ele>
        <time>2012-06-24T07:33:05Z</time>
      </trkpt>
      <trkpt lat="42.97687" lon="-0.08439">
        <ele>452.175</ele>
        <time>2012-06-24T07:33:07Z</time>
      </trkpt>
      <trkpt lat="42.9769" lon="-0.08452">
        <ele>450.874</ele>
        <time>2012-06-24T07:33:13Z</time>
      </trkpt>
      <trkpt lat="42.97695" lon="-0.08459">
        <ele>453.264</ele>
        <time>2012-06-24T07:33:18Z</time>
      </trkpt>
      <trkpt lat="42.97699" lon="-0.08466">
        <ele>455.325</ele>
        <time>2012-06-24T07:33:22Z</time>
      </trkpt>
      <trkpt lat="42.97704" lon="-0.08478">
        <ele>456.815</ele>
        <time>2012-06-24T07:33:30Z</time>
      </trkpt>
      <trkpt lat="42.97708" lon="-0.08487">
        <ele>460.655</ele>
        <time>2012-06-24T07:33:37Z</time>
      </trkpt>
      <trkpt lat="42.97713" lon="-0.08496">
        <ele>464.526</ele>
        <time>2012-06-24T07:33:43Z</time>
      </trkpt>
      <trkpt lat="42.97714" lon="-0.08505">
        <ele>464.915</ele>
        <time>2012-06-24T07:33:50Z</time>
      </trkpt>
      <trkpt lat="42.97716" lon="-0.08512">
        <ele>464.844</ele>
        <time>2012-06-24T07:33:55Z</time>
      </trkpt>
      <trkpt lat="42.97719" lon="-0.08519">
        <ele>463.124</ele>
        <time>2012-06-24T07:34:00Z</time>
      </trkpt>
      <trkpt lat="42.97721" lon="-0.08524">
        <ele>463.124</ele>
        <time>2012-06-24T07:34:04Z</time>
      </trkpt>
      <trkpt lat="42.97726" lon="-0.08532">
        <ele>465.274</ele>
        <time>2012-06-24T07:34:11Z</time>
      </trkpt>
      <trkpt lat="42.97728" lon="-0.08535">
        <ele>465.774</ele>
        <time>2012-06-24T07:34:13Z</time>
      </trkpt>
      <trkpt lat="42.97732" lon="-0.08542">
        <ele>469.595</ele>
        <time>2012-06-24T07:34:20Z</time>
      </trkpt>
      <trkpt lat="42.97736" lon="-0.08548">
        <ele>469.353</ele>
        <time>2012-06-24T07:34:24Z</time>
      </trkpt>
      <trkpt lat="42.97741" lon="-0.0856">
        <ele>469.382</ele>
        <time>2012-06-24T07:34:31Z</time>
      </trkpt>
      <trkpt lat="42.97747" lon="-0.0857">
        <ele>468.992</ele>
        <time>2012-06-24T07:34:37Z</time>
      </trkpt>
      <trkpt lat="42.97754" lon="-0.08584">
        <ele>470.093</ele>
        <time>2012-06-24T07:34:44Z</time>
      </trkpt>
      <trkpt lat="42.97758" lon="-0.08589">
        <ele>469.693</ele>
        <time>2012-06-24T07:34:48Z</time>
      </trkpt>
      <trkpt lat="42.97766" lon="-0.086">
        <ele>470.813</ele>
        <time>2012-06-24T07:34:54Z</time>
      </trkpt>
      <trkpt lat="42.97767" lon="-0.08608">
        <ele>472.774</ele>
        <time>2012-06-24T07:34:58Z</time>
      </trkpt>
      <trkpt lat="42.97772" lon="-0.08617">
        <ele>474.525</ele>
        <time>2012-06-24T07:35:03Z</time>
      </trkpt>
      <trkpt lat="42.97781" lon="-0.08623">
        <ele>478.916</ele>
        <time>2012-06-24T07:35:09Z</time>
      </trkpt>
      <trkpt lat="42.97789" lon="-0.08628">
        <ele>480.046</ele>
        <time>2012-06-24T07:35:14Z</time>
      </trkpt>
      <trkpt lat="42.97796" lon="-0.08635">
        <ele>483.005</ele>
        <time>2012-06-24T07:35:22Z</time>
      </trkpt>
      <trkpt lat="42.97797" lon="-0.08636">
        <ele>482.595</ele>
        <time>2012-06-24T07:35:23Z</time>
      </trkpt>
      <trkpt lat="42.97803" lon="-0.08651">
        <ele>482.254</ele>
        <time>2012-06-24T07:35:32Z</time>
      </trkpt>
      <trkpt lat="42.97804" lon="-0.08654">
        <ele>482.054</ele>
        <time>2012-06-24T07:35:34Z</time>
      </trkpt>
      <trkpt lat="42.97811" lon="-0.08661">
        <ele>487.166</ele>
        <time>2012-06-24T07:35:41Z</time>
      </trkpt>
      <trkpt lat="42.97816" lon="-0.08672">
        <ele>487.405</ele>
        <time>2012-06-24T07:35:47Z</time>
      </trkpt>
      <trkpt lat="42.97822" lon="-0.08682">
        <ele>485.594</ele>
        <time>2012-06-24T07:35:52Z</time>
      </trkpt>
      <trkpt lat="42.97826" lon="-0.08689">
        <ele>483.683</ele>
        <time>2012-06-24T07:35:56Z</time>
      </trkpt>
      <trkpt lat="42.97832" lon="-0.08701">
        <ele>483.313</ele>
        <time>2012-06-24T07:36:03Z</time>
      </trkpt>
      <trkpt lat="42.97837" lon="-0.08712">
        <ele>483.263</ele>
        <time>2012-06-24T07:36:09Z</time>
      </trkpt>
      <trkpt lat="42.9784" lon="-0.08722">
        <ele>487.044</ele>
        <time>2012-06-24T07:36:17Z</time>
      </trkpt>
      <trkpt lat="42.97845" lon="-0.08731">
        <ele>487.484</ele>
        <time>2012-06-24T07:36:24Z</time>
      </trkpt>
      <trkpt lat="42.9785" lon="-0.08735">
        <ele>487.454</ele>
        <time>2012-06-24T07:36:27Z</time>
      </trkpt>
      <trkpt lat="42.97856" lon="-0.08745">
        <ele>491.404</ele>
        <time>2012-06-24T07:36:35Z</time>
      </trkpt>
      <trkpt lat="42.97862" lon="-0.08752">
        <ele>493.924</ele>
        <time>2012-06-24T07:36:43Z</time>
      </trkpt>
      <trkpt lat="42.97865" lon="-0.08758">
        <ele>494.335</ele>
        <time>2012-06-24T07:36:48Z</time>
      </trkpt>
      <trkpt lat="42.97869" lon="-0.08762">
        <ele>494.485</ele>
        <time>2012-06-24T07:36:52Z</time>
      </trkpt>
      <trkpt lat="42.97875" lon="-0.08773">
        <ele>495.624</ele>
        <time>2012-06-24T07:36:59Z</time>
      </trkpt>
      <trkpt lat="42.97875" lon="-0.08774">
        <ele>496.325</ele>
        <time>2012-06-24T07:37:00Z</time>
      </trkpt>
      <trkpt lat="42.9788" lon="-0.08782">
        <ele>496.174</ele>
        <time>2012-06-24T07:37:06Z</time>
      </trkpt>
      <trkpt lat="42.97881" lon="-0.08785">
        <ele>497.204</ele>
        <time>2012-06-24T07:37:08Z</time>
      </trkpt>
      <trkpt lat="42.97885" lon="-0.08797">
        <ele>501.535</ele>
        <time>2012-06-24T07:37:15Z</time>
      </trkpt>
      <trkpt lat="42.97891" lon="-0.08804">
        <ele>507.086</ele>
        <time>2012-06-24T07:37:22Z</time>
      </trkpt>
      <trkpt lat="42.97895" lon="-0.08815">
        <ele>505.134</ele>
        <time>2012-06-24T07:37:27Z</time>
      </trkpt>
      <trkpt lat="42.97903" lon="-0.08829">
        <ele>502.383</ele>
        <time>2012-06-24T07:37:35Z</time>
      </trkpt>
      <trkpt lat="42.97907" lon="-0.08838">
        <ele>505.614</ele>
        <time>2012-06-24T07:37:41Z</time>
      </trkpt>
      <trkpt lat="42.97911" lon="-0.08847">
        <ele>505.924</ele>
        <time>2012-06-24T07:37:47Z</time>
      </trkpt>
      <trkpt lat="42.97915" lon="-0.08854">
        <ele>509.057</ele>
        <time>2012-06-24T07:37:54Z</time>
      </trkpt>
      <trkpt lat="42.97917" lon="-0.08857">
        <ele>510.056</ele>
        <time>2012-06-24T07:37:58Z</time>
      </trkpt>
      <trkpt lat="42.97921" lon="-0.08868">
        <ele>513.827</ele>
        <time>2012-06-24T07:38:05Z</time>
      </trkpt>
      <trkpt lat="42.97924" lon="-0.08877">
        <ele>513.405</ele>
        <time>2012-06-24T07:38:11Z</time>
      </trkpt>
      <trkpt lat="42.97926" lon="-0.08889">
        <ele>515.815</ele>
        <time>2012-06-24T07:38:25Z</time>
      </trkpt>
      <trkpt lat="42.97925" lon="-0.08892">
        <ele>518.407</ele>
        <time>2012-06-24T07:38:32Z</time>
      </trkpt>
      <trkpt lat="42.97923" lon="-0.08897">
        <ele>521.616</ele>
        <time>2012-06-24T07:38:39Z</time>
      </trkpt>
      <trkpt lat="42.97922" lon="-0.08899">
        <ele>521.723</ele>
        <time>2012-06-24T07:38:41Z</time>
      </trkpt>
      <trkpt lat="42.97919" lon="-0.08905">
        <ele>521.776</ele>
        <time>2012-06-24T07:38:48Z</time>
      </trkpt>
      <trkpt lat="42.97917" lon="-0.08907">
        <ele>528.317</ele>
        <time>2012-06-24T07:38:55Z</time>
      </trkpt>
      <trkpt lat="42.97915" lon="-0.0891">
        <ele>531.576</ele>
        <time>2012-06-24T07:39:00Z</time>
      </trkpt>
      <trkpt lat="42.97913" lon="-0.08911">
        <ele>534.077</ele>
        <time>2012-06-24T07:39:03Z</time>
      </trkpt>
      <trkpt lat="42.9791" lon="-0.08918">
        <ele>533.975</ele>
        <time>2012-06-24T07:39:10Z</time>
      </trkpt>
      <trkpt lat="42.97908" lon="-0.0892">
        <ele>533.135</ele>
        <time>2012-06-24T07:39:14Z</time>
      </trkpt>
      <trkpt lat="42.97907" lon="-0.08924">
        <ele>532.334</ele>
        <time>2012-06-24T07:39:18Z</time>
      </trkpt>
      <trkpt lat="42.97905" lon="-0.08933">
        <ele>532.476</ele>
        <time>2012-06-24T07:39:25Z</time>
      </trkpt>
      <trkpt lat="42.97904" lon="-0.0894">
        <ele>532.305</ele>
        <time>2012-06-24T07:39:31Z</time>
      </trkpt>
      <trkpt lat="42.97903" lon="-0.08945">
        <ele>532.165</ele>
        <time>2012-06-24T07:39:37Z</time>
      </trkpt>
      <trkpt lat="42.97901" lon="-0.08951">
        <ele>532.535</ele>
        <time>2012-06-24T07:39:43Z</time>
      </trkpt>
      <trkpt lat="42.97901" lon="-0.08962">
        <ele>533.875</ele>
        <time>2012-06-24T07:39:51Z</time>
      </trkpt>
      <trkpt lat="42.979" lon="-0.0897">
        <ele>534.015</ele>
        <time>2012-06-24T07:39:57Z</time>
      </trkpt>
      <trkpt lat="42.97898" lon="-0.08972">
        <ele>534.385</ele>
        <time>2012-06-24T07:40:00Z</time>
      </trkpt>
      <trkpt lat="42.97892" lon="-0.0897">
        <ele>535.235</ele>
        <time>2012-06-24T07:40:06Z</time>
      </trkpt>
      <trkpt lat="42.97888" lon="-0.08967">
        <ele>536.195</ele>
        <time>2012-06-24T07:40:12Z</time>
      </trkpt>
      <trkpt lat="42.9789" lon="-0.0897">
        <ele>536.144</ele>
        <time>2012-06-24T07:40:17Z</time>
      </trkpt>
      <trkpt lat="42.97891" lon="-0.0897">
        <ele>535.314</ele>
        <time>2012-06-24T07:40:26Z</time>
      </trkpt>
      <trkpt lat="42.97893" lon="-0.08972">
        <ele>535.814</ele>
        <time>2012-06-24T07:42:45Z</time>
      </trkpt>
      <trkpt lat="42.97897" lon="-0.0898">
        <ele>536.414</ele>
        <time>2012-06-24T07:42:51Z</time>
      </trkpt>
      <trkpt lat="42.97912" lon="-0.08992">
        <ele>537.214</ele>
        <time>2012-06-24T07:42:59Z</time>
      </trkpt>
      <trkpt lat="42.9793" lon="-0.09004">
        <ele>537.814</ele>
        <time>2012-06-24T07:43:07Z</time>
      </trkpt>
      <trkpt lat="42.97954" lon="-0.09022">
        <ele>540.575</ele>
        <time>2012-06-24T07:43:18Z</time>
      </trkpt>
      <trkpt lat="42.97967" lon="-0.0903">
        <ele>541.534</ele>
        <time>2012-06-24T07:43:25Z</time>
      </trkpt>
      <trkpt lat="42.97977" lon="-0.09032">
        <ele>542.195</ele>
        <time>2012-06-24T07:43:31Z</time>
      </trkpt>
      <trkpt lat="42.97988" lon="-0.09033">
        <ele>545.636</ele>
        <time>2012-06-24T07:43:37Z</time>
      </trkpt>
      <trkpt lat="42.98004" lon="-0.09036">
        <ele>546.635</ele>
        <time>2012-06-24T07:43:45Z</time>
      </trkpt>
      <trkpt lat="42.98019" lon="-0.09042">
        <ele>547.595</ele>
        <time>2012-06-24T07:43:53Z</time>
      </trkpt>
      <trkpt lat="42.98033" lon="-0.09052">
        <ele>548.385</ele>
        <time>2012-06-24T07:44:01Z</time>
      </trkpt>
      <trkpt lat="42.98035" lon="-0.0907">
        <ele>549.074</ele>
        <time>2012-06-24T07:44:07Z</time>
      </trkpt>
      <trkpt lat="42.98033" lon="-0.09084">
        <ele>549.944</ele>
        <time>2012-06-24T07:44:12Z</time>
      </trkpt>
      <trkpt lat="42.98035" lon="-0.09106">
        <ele>552.925</ele>
        <time>2012-06-24T07:44:19Z</time>
      </trkpt>
      <trkpt lat="42.98033" lon="-0.09124">
        <ele>555.355</ele>
        <time>2012-06-24T07:44:25Z</time>
      </trkpt>
      <trkpt lat="42.9803" lon="-0.09149">
        <ele>556.965</ele>
        <time>2012-06-24T07:44:33Z</time>
      </trkpt>
      <trkpt lat="42.98028" lon="-0.09168">
        <ele>558.305</ele>
        <time>2012-06-24T07:44:39Z</time>
      </trkpt>
      <trkpt lat="42.98028" lon="-0.09191">
        <ele>558.005</ele>
        <time>2012-06-24T07:44:47Z</time>
      </trkpt>
      <trkpt lat="42.98028" lon="-0.09215">
        <ele>559.975</ele>
        <time>2012-06-24T07:44:55Z</time>
      </trkpt>
      <trkpt lat="42.98029" lon="-0.09243">
        <ele>563.676</ele>
        <time>2012-06-24T07:45:04Z</time>
      </trkpt>
      <trkpt lat="42.98035" lon="-0.09276">
        <ele>565.166</ele>
        <time>2012-06-24T07:45:15Z</time>
      </trkpt>
      <trkpt lat="42.98046" lon="-0.09303">
        <ele>564.814</ele>
        <time>2012-06-24T07:45:25Z</time>
      </trkpt>
      <trkpt lat="42.98065" lon="-0.09327">
        <ele>562.725</ele>
        <time>2012-06-24T07:45:35Z</time>
      </trkpt>
      <trkpt lat="42.98084" lon="-0.09352">
        <ele>564.185</ele>
        <time>2012-06-24T07:45:45Z</time>
      </trkpt>
      <trkpt lat="42.981" lon="-0.09376">
        <ele>565.345</ele>
        <time>2012-06-24T07:45:55Z</time>
      </trkpt>
      <trkpt lat="42.98116" lon="-0.09401">
        <ele>568.286</ele>
        <time>2012-06-24T07:46:06Z</time>
      </trkpt>
      <trkpt lat="42.98133" lon="-0.09425">
        <ele>570.065</ele>
        <time>2012-06-24T07:46:17Z</time>
      </trkpt>
      <trkpt lat="42.98146" lon="-0.0944">
        <ele>570.595</ele>
        <time>2012-06-24T07:46:25Z</time>
      </trkpt>
      <trkpt lat="42.98159" lon="-0.09454">
        <ele>572.845</ele>
        <time>2012-06-24T07:46:33Z</time>
      </trkpt>
      <trkpt lat="42.98178" lon="-0.09468">
        <ele>575.444</ele>
        <time>2012-06-24T07:46:43Z</time>
      </trkpt>
      <trkpt lat="42.98189" lon="-0.09467">
        <ele>577.524</ele>
        <time>2012-06-24T07:46:49Z</time>
      </trkpt>
      <trkpt lat="42.98205" lon="-0.09468">
        <ele>581.116</ele>
        <time>2012-06-24T07:46:57Z</time>
      </trkpt>
      <trkpt lat="42.98217" lon="-0.0947">
        <ele>585.356</ele>
        <time>2012-06-24T07:47:03Z</time>
      </trkpt>
      <trkpt lat="42.98232" lon="-0.0948">
        <ele>587.626</ele>
        <time>2012-06-24T07:47:11Z</time>
      </trkpt>
      <trkpt lat="42.98245" lon="-0.09488">
        <ele>586.074</ele>
        <time>2012-06-24T07:47:18Z</time>
      </trkpt>
      <trkpt lat="42.9826" lon="-0.095">
        <ele>583.634</ele>
        <time>2012-06-24T07:47:26Z</time>
      </trkpt>
      <trkpt lat="42.98276" lon="-0.09513">
        <ele>583.194</ele>
        <time>2012-06-24T07:47:35Z</time>
      </trkpt>
      <trkpt lat="42.98291" lon="-0.09526">
        <ele>584.425</ele>
        <time>2012-06-24T07:47:44Z</time>
      </trkpt>
      <trkpt lat="42.98302" lon="-0.09536">
        <ele>585.034</ele>
        <time>2012-06-24T07:47:51Z</time>
      </trkpt>
      <trkpt lat="42.98311" lon="-0.09544">
        <ele>585.564</ele>
        <time>2012-06-24T07:47:57Z</time>
      </trkpt>
      <trkpt lat="42.98323" lon="-0.09554">
        <ele>586.584</ele>
        <time>2012-06-24T07:48:04Z</time>
      </trkpt>
      <trkpt lat="42.98334" lon="-0.09569">
        <ele>587.095</ele>
        <time>2012-06-24T07:48:12Z</time>
      </trkpt>
      <trkpt lat="42.98344" lon="-0.09591">
        <ele>587.015</ele>
        <time>2012-06-24T07:48:21Z</time>
      </trkpt>
      <trkpt lat="42.98351" lon="-0.09611">
        <ele>588.095</ele>
        <time>2012-06-24T07:48:29Z</time>
      </trkpt>
      <trkpt lat="42.98361" lon="-0.09635">
        <ele>589.844</ele>
        <time>2012-06-24T07:48:39Z</time>
      </trkpt>
      <trkpt lat="42.9837" lon="-0.09658">
        <ele>591.384</ele>
        <time>2012-06-24T07:48:48Z</time>
      </trkpt>
      <trkpt lat="42.98376" lon="-0.09673">
        <ele>593.224</ele>
        <time>2012-06-24T07:48:54Z</time>
      </trkpt>
      <trkpt lat="42.98384" lon="-0.09693">
        <ele>593.054</ele>
        <time>2012-06-24T07:49:02Z</time>
      </trkpt>
      <trkpt lat="42.98393" lon="-0.09714">
        <ele>595.845</ele>
        <time>2012-06-24T07:49:10Z</time>
      </trkpt>
      <trkpt lat="42.98401" lon="-0.09741">
        <ele>597.675</ele>
        <time>2012-06-24T07:49:19Z</time>
      </trkpt>
      <trkpt lat="42.98409" lon="-0.09764">
        <ele>597.904</ele>
        <time>2012-06-24T07:49:27Z</time>
      </trkpt>
      <trkpt lat="42.98423" lon="-0.0979">
        <ele>598.564</ele>
        <time>2012-06-24T07:49:37Z</time>
      </trkpt>
      <trkpt lat="42.98439" lon="-0.09813">
        <ele>600.695</ele>
        <time>2012-06-24T07:49:46Z</time>
      </trkpt>
      <trkpt lat="42.98458" lon="-0.09838">
        <ele>601.505</ele>
        <time>2012-06-24T07:49:56Z</time>
      </trkpt>
      <trkpt lat="42.98471" lon="-0.09867">
        <ele>601.255</ele>
        <time>2012-06-24T07:50:04Z</time>
      </trkpt>
      <trkpt lat="42.98485" lon="-0.09896">
        <ele>602.385</ele>
        <time>2012-06-24T07:50:11Z</time>
      </trkpt>
      <trkpt lat="42.98508" lon="-0.09937">
        <ele>602.165</ele>
        <time>2012-06-24T07:50:21Z</time>
      </trkpt>
      <trkpt lat="42.9851" lon="-0.0994">
        <ele>602.065</ele>
        <time>2012-06-24T07:50:22Z</time>
      </trkpt>
      <trkpt lat="42.98511" lon="-0.09942">
        <ele>601.425</ele>
        <time>2012-06-24T07:50:24Z</time>
      </trkpt>
      <trkpt lat="42.98511" lon="-0.09944">
        <ele>598.634</ele>
        <time>2012-06-24T07:50:29Z</time>
      </trkpt>
      <trkpt lat="42.9851" lon="-0.09945">
        <ele>597.854</ele>
        <time>2012-06-24T07:50:39Z</time>
      </trkpt>
      <trkpt lat="42.98516" lon="-0.09961">
        <ele>596.065</ele>
        <time>2012-06-24T07:50:45Z</time>
      </trkpt>
      <trkpt lat="42.9853" lon="-0.09983">
        <ele>595.015</ele>
        <time>2012-06-24T07:50:51Z</time>
      </trkpt>
      <trkpt lat="42.98546" lon="-0.10012">
        <ele>597.636</ele>
        <time>2012-06-24T07:50:58Z</time>
      </trkpt>
      <trkpt lat="42.9856" lon="-0.10049">
        <ele>600.435</ele>
        <time>2012-06-24T07:51:07Z</time>
      </trkpt>
      <trkpt lat="42.98571" lon="-0.1008">
        <ele>602.565</ele>
        <time>2012-06-24T07:51:16Z</time>
      </trkpt>
      <trkpt lat="42.98579" lon="-0.10103">
        <ele>604.235</ele>
        <time>2012-06-24T07:51:23Z</time>
      </trkpt>
      <trkpt lat="42.98588" lon="-0.10127">
        <ele>606.045</ele>
        <time>2012-06-24T07:51:31Z</time>
      </trkpt>
      <trkpt lat="42.98598" lon="-0.10151">
        <ele>608.535</ele>
        <time>2012-06-24T07:51:40Z</time>
      </trkpt>
      <trkpt lat="42.98603" lon="-0.1017">
        <ele>610.215</ele>
        <time>2012-06-24T07:51:47Z</time>
      </trkpt>
      <trkpt lat="42.98604" lon="-0.10197">
        <ele>612.525</ele>
        <time>2012-06-24T07:51:56Z</time>
      </trkpt>
      <trkpt lat="42.98607" lon="-0.1022">
        <ele>614.435</ele>
        <time>2012-06-24T07:52:05Z</time>
      </trkpt>
      <trkpt lat="42.98611" lon="-0.10249">
        <ele>616.025</ele>
        <time>2012-06-24T07:52:17Z</time>
      </trkpt>
      <trkpt lat="42.98613" lon="-0.10269">
        <ele>617.305</ele>
        <time>2012-06-24T07:52:25Z</time>
      </trkpt>
      <trkpt lat="42.98613" lon="-0.10295">
        <ele>618.935</ele>
        <time>2012-06-24T07:52:35Z</time>
      </trkpt>
      <trkpt lat="42.98612" lon="-0.10314">
        <ele>620.505</ele>
        <time>2012-06-24T07:52:43Z</time>
      </trkpt>
      <trkpt lat="42.98612" lon="-0.1034">
        <ele>622.555</ele>
        <time>2012-06-24T07:52:53Z</time>
      </trkpt>
      <trkpt lat="42.98612" lon="-0.10363">
        <ele>625.186</ele>
        <time>2012-06-24T07:53:02Z</time>
      </trkpt>
      <trkpt lat="42.98613" lon="-0.10381">
        <ele>627.005</ele>
        <time>2012-06-24T07:53:09Z</time>
      </trkpt>
      <trkpt lat="42.98615" lon="-0.10402">
        <ele>629.695</ele>
        <time>2012-06-24T07:53:18Z</time>
      </trkpt>
      <trkpt lat="42.98619" lon="-0.10425">
        <ele>631.665</ele>
        <time>2012-06-24T07:53:27Z</time>
      </trkpt>
      <trkpt lat="42.98626" lon="-0.10446">
        <ele>632.994</ele>
        <time>2012-06-24T07:53:36Z</time>
      </trkpt>
      <trkpt lat="42.98637" lon="-0.10469">
        <ele>635.455</ele>
        <time>2012-06-24T07:53:46Z</time>
      </trkpt>
      <trkpt lat="42.98652" lon="-0.10491">
        <ele>637.434</ele>
        <time>2012-06-24T07:53:57Z</time>
      </trkpt>
      <trkpt lat="42.98665" lon="-0.10506">
        <ele>638.364</ele>
        <time>2012-06-24T07:54:04Z</time>
      </trkpt>
      <trkpt lat="42.98679" lon="-0.10522">
        <ele>640.305</ele>
        <time>2012-06-24T07:54:12Z</time>
      </trkpt>
      <trkpt lat="42.98694" lon="-0.1054">
        <ele>641.415</ele>
        <time>2012-06-24T07:54:22Z</time>
      </trkpt>
      <trkpt lat="42.98706" lon="-0.1056">
        <ele>641.804</ele>
        <time>2012-06-24T07:54:31Z</time>
      </trkpt>
      <trkpt lat="42.98715" lon="-0.10575">
        <ele>643.905</ele>
        <time>2012-06-24T07:54:38Z</time>
      </trkpt>
      <trkpt lat="42.98725" lon="-0.10599">
        <ele>645.694</ele>
        <time>2012-06-24T07:54:48Z</time>
      </trkpt>
      <trkpt lat="42.9873" lon="-0.10611">
        <ele>647.425</ele>
        <time>2012-06-24T07:54:53Z</time>
      </trkpt>
      <trkpt lat="42.98736" lon="-0.10621">
        <ele>648.254</ele>
        <time>2012-06-24T07:54:59Z</time>
      </trkpt>
      <trkpt lat="42.98739" lon="-0.10622">
        <ele>646.893</ele>
        <time>2012-06-24T07:55:05Z</time>
      </trkpt>
      <trkpt lat="42.9874" lon="-0.1062">
        <ele>639.274</ele>
        <time>2012-06-24T07:57:23Z</time>
      </trkpt>
      <trkpt lat="42.98742" lon="-0.10625">
        <ele>639.814</ele>
        <time>2012-06-24T07:57:27Z</time>
      </trkpt>
      <trkpt lat="42.98743" lon="-0.10629">
        <ele>640.073</ele>
        <time>2012-06-24T07:57:30Z</time>
      </trkpt>
      <trkpt lat="42.98739" lon="-0.1064">
        <ele>641.524</ele>
        <time>2012-06-24T07:57:36Z</time>
      </trkpt>
      <trkpt lat="42.98735" lon="-0.1065">
        <ele>642.864</ele>
        <time>2012-06-24T07:57:42Z</time>
      </trkpt>
      <trkpt lat="42.98728" lon="-0.10658">
        <ele>641.432</ele>
        <time>2012-06-24T07:57:47Z</time>
      </trkpt>
      <trkpt lat="42.98718" lon="-0.10659">
        <ele>642.114</ele>
        <time>2012-06-24T07:57:53Z</time>
      </trkpt>
      <trkpt lat="42.98711" lon="-0.10654">
        <ele>642.745</ele>
        <time>2012-06-24T07:57:57Z</time>
      </trkpt>
      <trkpt lat="42.98699" lon="-0.10643">
        <ele>644.414</ele>
        <time>2012-06-24T07:58:05Z</time>
      </trkpt>
      <trkpt lat="42.98682" lon="-0.10632">
        <ele>645.654</ele>
        <time>2012-06-24T07:58:15Z</time>
      </trkpt>
      <trkpt lat="42.98667" lon="-0.10624">
        <ele>647.314</ele>
        <time>2012-06-24T07:58:25Z</time>
      </trkpt>
      <trkpt lat="42.98656" lon="-0.10617">
        <ele>647.744</ele>
        <time>2012-06-24T07:58:33Z</time>
      </trkpt>
      <trkpt lat="42.98645" lon="-0.10612">
        <ele>649.187</ele>
        <time>2012-06-24T07:58:41Z</time>
      </trkpt>
      <trkpt lat="42.98632" lon="-0.10606">
        <ele>651.004</ele>
        <time>2012-06-24T07:58:51Z</time>
      </trkpt>
      <trkpt lat="42.98613" lon="-0.10601">
        <ele>653.668</ele>
        <time>2012-06-24T07:59:03Z</time>
      </trkpt>
      <trkpt lat="42.98594" lon="-0.10599">
        <ele>655.564</ele>
        <time>2012-06-24T07:59:15Z</time>
      </trkpt>
      <trkpt lat="42.9858" lon="-0.10607">
        <ele>657.644</ele>
        <time>2012-06-24T07:59:24Z</time>
      </trkpt>
      <trkpt lat="42.98565" lon="-0.10618">
        <ele>658.987</ele>
        <time>2012-06-24T07:59:31Z</time>
      </trkpt>
      <trkpt lat="42.98549" lon="-0.10632">
        <ele>659.583</ele>
        <time>2012-06-24T07:59:39Z</time>
      </trkpt>
      <trkpt lat="42.98536" lon="-0.1065">
        <ele>660.773</ele>
        <time>2012-06-24T07:59:47Z</time>
      </trkpt>
      <trkpt lat="42.98525" lon="-0.10671">
        <ele>662.243</ele>
        <time>2012-06-24T07:59:55Z</time>
      </trkpt>
      <trkpt lat="42.98517" lon="-0.10688">
        <ele>664.884</ele>
        <time>2012-06-24T08:00:02Z</time>
      </trkpt>
      <trkpt lat="42.9851" lon="-0.10706">
        <ele>666.323</ele>
        <time>2012-06-24T08:00:10Z</time>
      </trkpt>
      <trkpt lat="42.98504" lon="-0.10719">
        <ele>666.317</ele>
        <time>2012-06-24T08:00:17Z</time>
      </trkpt>
      <trkpt lat="42.98496" lon="-0.10735">
        <ele>667.558</ele>
        <time>2012-06-24T08:00:25Z</time>
      </trkpt>
      <trkpt lat="42.98489" lon="-0.10748">
        <ele>669.394</ele>
        <time>2012-06-24T08:00:33Z</time>
      </trkpt>
      <trkpt lat="42.98487" lon="-0.10754">
        <ele>670.063</ele>
        <time>2012-06-24T08:00:36Z</time>
      </trkpt>
      <trkpt lat="42.98484" lon="-0.10762">
        <ele>672.485</ele>
        <time>2012-06-24T08:00:43Z</time>
      </trkpt>
      <trkpt lat="42.98483" lon="-0.10765">
        <ele>673.013</ele>
        <time>2012-06-24T08:00:47Z</time>
      </trkpt>
      <trkpt lat="42.98481" lon="-0.10769">
        <ele>673.669</ele>
        <time>2012-06-24T08:00:51Z</time>
      </trkpt>
      <trkpt lat="42.98479" lon="-0.10774">
        <ele>674.633</ele>
        <time>2012-06-24T08:00:55Z</time>
      </trkpt>
      <trkpt lat="42.98478" lon="-0.10782">
        <ele>672.974</ele>
        <time>2012-06-24T08:01:02Z</time>
      </trkpt>
      <trkpt lat="42.98476" lon="-0.10786">
        <ele>673.312</ele>
        <time>2012-06-24T08:01:07Z</time>
      </trkpt>
      <trkpt lat="42.98475" lon="-0.1079">
        <ele>673.593</ele>
        <time>2012-06-24T08:01:11Z</time>
      </trkpt>
      <trkpt lat="42.98471" lon="-0.10797">
        <ele>674.844</ele>
        <time>2012-06-24T08:01:17Z</time>
      </trkpt>
      <trkpt lat="42.98465" lon="-0.10806">
        <ele>674.016</ele>
        <time>2012-06-24T08:01:28Z</time>
      </trkpt>
      <trkpt lat="42.98462" lon="-0.10811">
        <ele>673.983</ele>
        <time>2012-06-24T08:01:34Z</time>
      </trkpt>
      <trkpt lat="42.98459" lon="-0.10819">
        <ele>674.992</ele>
        <time>2012-06-24T08:01:41Z</time>
      </trkpt>
      <trkpt lat="42.98458" lon="-0.10824">
        <ele>676.438</ele>
        <time>2012-06-24T08:01:46Z</time>
      </trkpt>
      <trkpt lat="42.98454" lon="-0.1083">
        <ele>674.172</ele>
        <time>2012-06-24T08:01:52Z</time>
      </trkpt>
      <trkpt lat="42.98449" lon="-0.10836">
        <ele>676.492</ele>
        <time>2012-06-24T08:01:59Z</time>
      </trkpt>
      <trkpt lat="42.98443" lon="-0.10846">
        <ele>683.415</ele>
        <time>2012-06-24T08:02:07Z</time>
      </trkpt>
      <trkpt lat="42.98438" lon="-0.10855">
        <ele>688.127</ele>
        <time>2012-06-24T08:02:15Z</time>
      </trkpt>
      <trkpt lat="42.98437" lon="-0.10858">
        <ele>690.27</ele>
        <time>2012-06-24T08:02:20Z</time>
      </trkpt>
      <trkpt lat="42.98436" lon="-0.10856">
        <ele>690.882</ele>
        <time>2012-06-24T08:02:29Z</time>
      </trkpt>
      <trkpt lat="42.98433" lon="-0.10853">
        <ele>691.242</ele>
        <time>2012-06-24T08:02:36Z</time>
      </trkpt>
      <trkpt lat="42.98432" lon="-0.10848">
        <ele>690.022</ele>
        <time>2012-06-24T08:02:43Z</time>
      </trkpt>
      <trkpt lat="42.98431" lon="-0.10837">
        <ele>691.733</ele>
        <time>2012-06-24T08:02:51Z</time>
      </trkpt>
      <trkpt lat="42.98426" lon="-0.10824">
        <ele>690.632</ele>
        <time>2012-06-24T08:02:58Z</time>
      </trkpt>
      <trkpt lat="42.98423" lon="-0.10815">
        <ele>691.232</ele>
        <time>2012-06-24T08:03:04Z</time>
      </trkpt>
      <trkpt lat="42.9842" lon="-0.10802">
        <ele>690.213</ele>
        <time>2012-06-24T08:03:11Z</time>
      </trkpt>
      <trkpt lat="42.98416" lon="-0.10787">
        <ele>689.122</ele>
        <time>2012-06-24T08:03:19Z</time>
      </trkpt>
      <trkpt lat="42.9841" lon="-0.10773">
        <ele>689.662</ele>
        <time>2012-06-24T08:03:27Z</time>
      </trkpt>
      <trkpt lat="42.98402" lon="-0.10757">
        <ele>690.413</ele>
        <time>2012-06-24T08:03:36Z</time>
      </trkpt>
      <trkpt lat="42.98396" lon="-0.10745">
        <ele>691.957</ele>
        <time>2012-06-24T08:03:44Z</time>
      </trkpt>
      <trkpt lat="42.98389" lon="-0.10733">
        <ele>691.872</ele>
        <time>2012-06-24T08:03:52Z</time>
      </trkpt>
      <trkpt lat="42.98383" lon="-0.10721">
        <ele>693.345</ele>
        <time>2012-06-24T08:04:00Z</time>
      </trkpt>
      <trkpt lat="42.9838" lon="-0.10708">
        <ele>697.243</ele>
        <time>2012-06-24T08:04:07Z</time>
      </trkpt>
      <trkpt lat="42.98376" lon="-0.10694">
        <ele>699.383</ele>
        <time>2012-06-24T08:04:15Z</time>
      </trkpt>
      <trkpt lat="42.98374" lon="-0.10684">
        <ele>699.642</ele>
        <time>2012-06-24T08:04:21Z</time>
      </trkpt>
      <trkpt lat="42.98372" lon="-0.10672">
        <ele>698.051</ele>
        <time>2012-06-24T08:04:28Z</time>
      </trkpt>
      <trkpt lat="42.98371" lon="-0.10664">
        <ele>699.153</ele>
        <time>2012-06-24T08:04:32Z</time>
      </trkpt>
      <trkpt lat="42.9837" lon="-0.10656">
        <ele>699.322</ele>
        <time>2012-06-24T08:04:36Z</time>
      </trkpt>
      <trkpt lat="42.98368" lon="-0.10636">
        <ele>701.945</ele>
        <time>2012-06-24T08:04:45Z</time>
      </trkpt>
      <trkpt lat="42.98365" lon="-0.10619">
        <ele>707.363</ele>
        <time>2012-06-24T08:04:53Z</time>
      </trkpt>
      <trkpt lat="42.9836" lon="-0.10604">
        <ele>708.501</ele>
        <time>2012-06-24T08:05:00Z</time>
      </trkpt>
      <trkpt lat="42.98351" lon="-0.1059">
        <ele>707.397</ele>
        <time>2012-06-24T08:05:07Z</time>
      </trkpt>
      <trkpt lat="42.98345" lon="-0.10578">
        <ele>707.562</ele>
        <time>2012-06-24T08:05:14Z</time>
      </trkpt>
      <trkpt lat="42.98341" lon="-0.10564">
        <ele>712.283</ele>
        <time>2012-06-24T08:05:22Z</time>
      </trkpt>
      <trkpt lat="42.98339" lon="-0.10552">
        <ele>714.283</ele>
        <time>2012-06-24T08:05:28Z</time>
      </trkpt>
      <trkpt lat="42.98338" lon="-0.10535">
        <ele>713.203</ele>
        <time>2012-06-24T08:05:36Z</time>
      </trkpt>
      <trkpt lat="42.98335" lon="-0.10518">
        <ele>713.793</ele>
        <time>2012-06-24T08:05:44Z</time>
      </trkpt>
      <trkpt lat="42.98333" lon="-0.10501">
        <ele>714.424</ele>
        <time>2012-06-24T08:05:51Z</time>
      </trkpt>
      <trkpt lat="42.98332" lon="-0.1048">
        <ele>714.078</ele>
        <time>2012-06-24T08:06:00Z</time>
      </trkpt>
      <trkpt lat="42.98332" lon="-0.10463">
        <ele>715.273</ele>
        <time>2012-06-24T08:06:07Z</time>
      </trkpt>
      <trkpt lat="42.98322" lon="-0.10444">
        <ele>714.276</ele>
        <time>2012-06-24T08:06:15Z</time>
      </trkpt>
      <trkpt lat="42.98307" lon="-0.10424">
        <ele>712.08</ele>
        <time>2012-06-24T08:06:25Z</time>
      </trkpt>
      <trkpt lat="42.98292" lon="-0.10408">
        <ele>712.22</ele>
        <time>2012-06-24T08:06:34Z</time>
      </trkpt>
      <trkpt lat="42.98277" lon="-0.10393">
        <ele>712.196</ele>
        <time>2012-06-24T08:06:43Z</time>
      </trkpt>
      <trkpt lat="42.98262" lon="-0.10378">
        <ele>713.573</ele>
        <time>2012-06-24T08:06:53Z</time>
      </trkpt>
      <trkpt lat="42.98252" lon="-0.10369">
        <ele>715.433</ele>
        <time>2012-06-24T08:06:59Z</time>
      </trkpt>
      <trkpt lat="42.98237" lon="-0.10359">
        <ele>717.673</ele>
        <time>2012-06-24T08:07:08Z</time>
      </trkpt>
      <trkpt lat="42.98217" lon="-0.1035">
        <ele>720.004</ele>
        <time>2012-06-24T08:07:18Z</time>
      </trkpt>
      <trkpt lat="42.982" lon="-0.10337">
        <ele>720.562</ele>
        <time>2012-06-24T08:07:28Z</time>
      </trkpt>
      <trkpt lat="42.98189" lon="-0.10321">
        <ele>720.811</ele>
        <time>2012-06-24T08:07:35Z</time>
      </trkpt>
      <trkpt lat="42.98175" lon="-0.10301">
        <ele>721.751</ele>
        <time>2012-06-24T08:07:44Z</time>
      </trkpt>
      <trkpt lat="42.98162" lon="-0.10296">
        <ele>723.323</ele>
        <time>2012-06-24T08:07:50Z</time>
      </trkpt>
      <trkpt lat="42.9816" lon="-0.10297">
        <ele>723.395</ele>
        <time>2012-06-24T08:07:51Z</time>
      </trkpt>
      <trkpt lat="42.9816" lon="-0.10312">
        <ele>724.364</ele>
        <time>2012-06-24T08:07:56Z</time>
      </trkpt>
      <trkpt lat="42.98169" lon="-0.10325">
        <ele>726.603</ele>
        <time>2012-06-24T08:08:02Z</time>
      </trkpt>
      <trkpt lat="42.98184" lon="-0.10349">
        <ele>728.379</ele>
        <time>2012-06-24T08:08:12Z</time>
      </trkpt>
      <trkpt lat="42.98192" lon="-0.10369">
        <ele>731.663</ele>
        <time>2012-06-24T08:08:20Z</time>
      </trkpt>
      <trkpt lat="42.98194" lon="-0.10388">
        <ele>735.942</ele>
        <time>2012-06-24T08:08:28Z</time>
      </trkpt>
      <trkpt lat="42.98196" lon="-0.10408">
        <ele>740.144</ele>
        <time>2012-06-24T08:08:36Z</time>
      </trkpt>
      <trkpt lat="42.98194" lon="-0.10424">
        <ele>742.128</ele>
        <time>2012-06-24T08:08:42Z</time>
      </trkpt>
      <trkpt lat="42.98191" lon="-0.10443">
        <ele>740.973</ele>
        <time>2012-06-24T08:08:49Z</time>
      </trkpt>
      <trkpt lat="42.98189" lon="-0.10463">
        <ele>739.162</ele>
        <time>2012-06-24T08:08:57Z</time>
      </trkpt>
      <trkpt lat="42.9819" lon="-0.10492">
        <ele>740.522</ele>
        <time>2012-06-24T08:09:08Z</time>
      </trkpt>
      <trkpt lat="42.98195" lon="-0.10509">
        <ele>742.545</ele>
        <time>2012-06-24T08:09:15Z</time>
      </trkpt>
      <trkpt lat="42.982" lon="-0.10529">
        <ele>744.842</ele>
        <time>2012-06-24T08:09:23Z</time>
      </trkpt>
      <trkpt lat="42.98203" lon="-0.10549">
        <ele>747.06</ele>
        <time>2012-06-24T08:09:31Z</time>
      </trkpt>
      <trkpt lat="42.98204" lon="-0.10567">
        <ele>748.589</ele>
        <time>2012-06-24T08:09:38Z</time>
      </trkpt>
      <trkpt lat="42.98204" lon="-0.10592">
        <ele>750.25</ele>
        <time>2012-06-24T08:09:48Z</time>
      </trkpt>
      <trkpt lat="42.98201" lon="-0.10613">
        <ele>752.217</ele>
        <time>2012-06-24T08:09:57Z</time>
      </trkpt>
      <trkpt lat="42.98199" lon="-0.10628">
        <ele>752.998</ele>
        <time>2012-06-24T08:10:04Z</time>
      </trkpt>
      <trkpt lat="42.98199" lon="-0.10651">
        <ele>754.816</ele>
        <time>2012-06-24T08:10:14Z</time>
      </trkpt>
      <trkpt lat="42.98207" lon="-0.1067">
        <ele>758.125</ele>
        <time>2012-06-24T08:10:24Z</time>
      </trkpt>
      <trkpt lat="42.98216" lon="-0.10685">
        <ele>759.774</ele>
        <time>2012-06-24T08:10:32Z</time>
      </trkpt>
      <trkpt lat="42.98222" lon="-0.10707">
        <ele>761.574</ele>
        <time>2012-06-24T08:10:42Z</time>
      </trkpt>
      <trkpt lat="42.98224" lon="-0.10722">
        <ele>762.815</ele>
        <time>2012-06-24T08:10:49Z</time>
      </trkpt>
      <trkpt lat="42.98225" lon="-0.10737">
        <ele>763.761</ele>
        <time>2012-06-24T08:10:56Z</time>
      </trkpt>
      <trkpt lat="42.98221" lon="-0.10755">
        <ele>766.009</ele>
        <time>2012-06-24T08:11:04Z</time>
      </trkpt>
      <trkpt lat="42.98214" lon="-0.1077">
        <ele>768.309</ele>
        <time>2012-06-24T08:11:12Z</time>
      </trkpt>
      <trkpt lat="42.98207" lon="-0.10785">
        <ele>769.029</ele>
        <time>2012-06-24T08:11:20Z</time>
      </trkpt>
      <trkpt lat="42.98199" lon="-0.10799">
        <ele>768.442</ele>
        <time>2012-06-24T08:11:28Z</time>
      </trkpt>
      <trkpt lat="42.9819" lon="-0.10814">
        <ele>768.737</ele>
        <time>2012-06-24T08:11:36Z</time>
      </trkpt>
      <trkpt lat="42.9818" lon="-0.10829">
        <ele>767.791</ele>
        <time>2012-06-24T08:11:45Z</time>
      </trkpt>
      <trkpt lat="42.98174" lon="-0.10845">
        <ele>768.924</ele>
        <time>2012-06-24T08:11:53Z</time>
      </trkpt>
      <trkpt lat="42.98174" lon="-0.10862">
        <ele>771.121</ele>
        <time>2012-06-24T08:12:01Z</time>
      </trkpt>
      <trkpt lat="42.98174" lon="-0.10877">
        <ele>771.611</ele>
        <time>2012-06-24T08:12:08Z</time>
      </trkpt>
      <trkpt lat="42.98173" lon="-0.10891">
        <ele>772.177</ele>
        <time>2012-06-24T08:12:16Z</time>
      </trkpt>
      <trkpt lat="42.98171" lon="-0.10908">
        <ele>773.174</ele>
        <time>2012-06-24T08:12:24Z</time>
      </trkpt>
      <trkpt lat="42.98167" lon="-0.10928">
        <ele>774.42</ele>
        <time>2012-06-24T08:12:33Z</time>
      </trkpt>
      <trkpt lat="42.98162" lon="-0.10945">
        <ele>776.441</ele>
        <time>2012-06-24T08:12:41Z</time>
      </trkpt>
      <trkpt lat="42.98157" lon="-0.10961">
        <ele>777.267</ele>
        <time>2012-06-24T08:12:49Z</time>
      </trkpt>
      <trkpt lat="42.9815" lon="-0.10978">
        <ele>779.615</ele>
        <time>2012-06-24T08:12:58Z</time>
      </trkpt>
      <trkpt lat="42.98144" lon="-0.10991">
        <ele>781.571</ele>
        <time>2012-06-24T08:13:06Z</time>
      </trkpt>
      <trkpt lat="42.98139" lon="-0.11004">
        <ele>783.786</ele>
        <time>2012-06-24T08:13:13Z</time>
      </trkpt>
      <trkpt lat="42.98135" lon="-0.11022">
        <ele>787.177</ele>
        <time>2012-06-24T08:13:21Z</time>
      </trkpt>
      <trkpt lat="42.98132" lon="-0.11039">
        <ele>789.777</ele>
        <time>2012-06-24T08:13:29Z</time>
      </trkpt>
      <trkpt lat="42.9813" lon="-0.11056">
        <ele>790.72</ele>
        <time>2012-06-24T08:13:36Z</time>
      </trkpt>
      <trkpt lat="42.98128" lon="-0.11075">
        <ele>789.5</ele>
        <time>2012-06-24T08:13:44Z</time>
      </trkpt>
      <trkpt lat="42.98127" lon="-0.11092">
        <ele>789.732</ele>
        <time>2012-06-24T08:13:51Z</time>
      </trkpt>
      <trkpt lat="42.9813" lon="-0.11114">
        <ele>790.53</ele>
        <time>2012-06-24T08:14:00Z</time>
      </trkpt>
      <trkpt lat="42.98133" lon="-0.11137">
        <ele>792.873</ele>
        <time>2012-06-24T08:14:08Z</time>
      </trkpt>
      <trkpt lat="42.98131" lon="-0.11159">
        <ele>792.912</ele>
        <time>2012-06-24T08:14:15Z</time>
      </trkpt>
      <trkpt lat="42.98122" lon="-0.11176">
        <ele>794.183</ele>
        <time>2012-06-24T08:14:22Z</time>
      </trkpt>
      <trkpt lat="42.98118" lon="-0.11177">
        <ele>794.826</ele>
        <time>2012-06-24T08:14:24Z</time>
      </trkpt>
      <trkpt lat="42.9811" lon="-0.11167">
        <ele>795.948</ele>
        <time>2012-06-24T08:14:29Z</time>
      </trkpt>
      <trkpt lat="42.98111" lon="-0.11149">
        <ele>797.063</ele>
        <time>2012-06-24T08:14:36Z</time>
      </trkpt>
      <trkpt lat="42.98108" lon="-0.11129">
        <ele>798.613</ele>
        <time>2012-06-24T08:14:44Z</time>
      </trkpt>
      <trkpt lat="42.98101" lon="-0.11113">
        <ele>800.237</ele>
        <time>2012-06-24T08:14:52Z</time>
      </trkpt>
      <trkpt lat="42.98094" lon="-0.11099">
        <ele>801.614</ele>
        <time>2012-06-24T08:14:59Z</time>
      </trkpt>
      <trkpt lat="42.9809" lon="-0.11086">
        <ele>802.479</ele>
        <time>2012-06-24T08:15:05Z</time>
      </trkpt>
      <trkpt lat="42.98087" lon="-0.11071">
        <ele>803.333</ele>
        <time>2012-06-24T08:15:11Z</time>
      </trkpt>
      <trkpt lat="42.98083" lon="-0.11058">
        <ele>804.8</ele>
        <time>2012-06-24T08:15:16Z</time>
      </trkpt>
      <trkpt lat="42.98081" lon="-0.11037">
        <ele>803.759</ele>
        <time>2012-06-24T08:15:23Z</time>
      </trkpt>
      <trkpt lat="42.98078" lon="-0.11021">
        <ele>803.403</ele>
        <time>2012-06-24T08:15:29Z</time>
      </trkpt>
      <trkpt lat="42.98074" lon="-0.11006">
        <ele>805.394</ele>
        <time>2012-06-24T08:15:35Z</time>
      </trkpt>
      <trkpt lat="42.98069" lon="-0.10985">
        <ele>807.64</ele>
        <time>2012-06-24T08:15:43Z</time>
      </trkpt>
      <trkpt lat="42.98065" lon="-0.10966">
        <ele>809.398</ele>
        <time>2012-06-24T08:15:50Z</time>
      </trkpt>
      <trkpt lat="42.98062" lon="-0.1095">
        <ele>809.932</ele>
        <time>2012-06-24T08:15:56Z</time>
      </trkpt>
      <trkpt lat="42.98061" lon="-0.10927">
        <ele>809.687</ele>
        <time>2012-06-24T08:16:05Z</time>
      </trkpt>
      <trkpt lat="42.9806" lon="-0.10909">
        <ele>810.474</ele>
        <time>2012-06-24T08:16:12Z</time>
      </trkpt>
      <trkpt lat="42.9806" lon="-0.10894">
        <ele>811.657</ele>
        <time>2012-06-24T08:16:18Z</time>
      </trkpt>
      <trkpt lat="42.98062" lon="-0.1088">
        <ele>815.778</ele>
        <time>2012-06-24T08:16:24Z</time>
      </trkpt>
      <trkpt lat="42.98065" lon="-0.10868">
        <ele>819.39</ele>
        <time>2012-06-24T08:16:29Z</time>
      </trkpt>
      <trkpt lat="42.98066" lon="-0.10851">
        <ele>818.86</ele>
        <time>2012-06-24T08:16:36Z</time>
      </trkpt>
      <trkpt lat="42.98064" lon="-0.10838">
        <ele>818.515</ele>
        <time>2012-06-24T08:16:41Z</time>
      </trkpt>
      <trkpt lat="42.98058" lon="-0.10822">
        <ele>819.371</ele>
        <time>2012-06-24T08:16:47Z</time>
      </trkpt>
      <trkpt lat="42.98047" lon="-0.10804">
        <ele>821.107</ele>
        <time>2012-06-24T08:16:55Z</time>
      </trkpt>
      <trkpt lat="42.98036" lon="-0.10793">
        <ele>821.283</ele>
        <time>2012-06-24T08:17:01Z</time>
      </trkpt>
      <trkpt lat="42.98025" lon="-0.10777">
        <ele>823.896</ele>
        <time>2012-06-24T08:17:08Z</time>
      </trkpt>
      <trkpt lat="42.98019" lon="-0.10764">
        <ele>824.88</ele>
        <time>2012-06-24T08:17:14Z</time>
      </trkpt>
      <trkpt lat="42.9801" lon="-0.1075">
        <ele>826.138</ele>
        <time>2012-06-24T08:17:23Z</time>
      </trkpt>
      <trkpt lat="42.98002" lon="-0.10739">
        <ele>827.128</ele>
        <time>2012-06-24T08:17:30Z</time>
      </trkpt>
      <trkpt lat="42.97994" lon="-0.10728">
        <ele>829.52</ele>
        <time>2012-06-24T08:17:38Z</time>
      </trkpt>
      <trkpt lat="42.97985" lon="-0.10718">
        <ele>831.718</ele>
        <time>2012-06-24T08:17:45Z</time>
      </trkpt>
      <trkpt lat="42.97976" lon="-0.10702">
        <ele>834.5</ele>
        <time>2012-06-24T08:17:54Z</time>
      </trkpt>
      <trkpt lat="42.97969" lon="-0.10685">
        <ele>837.479</ele>
        <time>2012-06-24T08:18:03Z</time>
      </trkpt>
      <trkpt lat="42.97964" lon="-0.10666">
        <ele>843.189</ele>
        <time>2012-06-24T08:18:12Z</time>
      </trkpt>
      <trkpt lat="42.97962" lon="-0.10651">
        <ele>846.88</ele>
        <time>2012-06-24T08:18:19Z</time>
      </trkpt>
      <trkpt lat="42.97959" lon="-0.10636">
        <ele>848.883</ele>
        <time>2012-06-24T08:18:26Z</time>
      </trkpt>
      <trkpt lat="42.97958" lon="-0.10618">
        <ele>850.797</ele>
        <time>2012-06-24T08:18:34Z</time>
      </trkpt>
      <trkpt lat="42.97956" lon="-0.10601">
        <ele>853.769</ele>
        <time>2012-06-24T08:18:42Z</time>
      </trkpt>
      <trkpt lat="42.97952" lon="-0.10582">
        <ele>854.991</ele>
        <time>2012-06-24T08:18:51Z</time>
      </trkpt>
      <trkpt lat="42.97948" lon="-0.10567">
        <ele>855.71</ele>
        <time>2012-06-24T08:18:58Z</time>
      </trkpt>
      <trkpt lat="42.97943" lon="-0.10553">
        <ele>855.092</ele>
        <time>2012-06-24T08:19:05Z</time>
      </trkpt>
      <trkpt lat="42.97935" lon="-0.10537">
        <ele>855.237</ele>
        <time>2012-06-24T08:19:13Z</time>
      </trkpt>
      <trkpt lat="42.97925" lon="-0.10528">
        <ele>855.143</ele>
        <time>2012-06-24T08:19:20Z</time>
      </trkpt>
      <trkpt lat="42.9791" lon="-0.10521">
        <ele>855.72</ele>
        <time>2012-06-24T08:19:29Z</time>
      </trkpt>
      <trkpt lat="42.97898" lon="-0.10512">
        <ele>855.148</ele>
        <time>2012-06-24T08:19:37Z</time>
      </trkpt>
      <trkpt lat="42.97885" lon="-0.10497">
        <ele>855.199</ele>
        <time>2012-06-24T08:19:47Z</time>
      </trkpt>
      <trkpt lat="42.97875" lon="-0.10481">
        <ele>856.285</ele>
        <time>2012-06-24T08:19:56Z</time>
      </trkpt>
      <trkpt lat="42.97865" lon="-0.10465">
        <ele>860.071</ele>
        <time>2012-06-24T08:20:05Z</time>
      </trkpt>
      <trkpt lat="42.97852" lon="-0.10446">
        <ele>863.799</ele>
        <time>2012-06-24T08:20:16Z</time>
      </trkpt>
      <trkpt lat="42.9784" lon="-0.10429">
        <ele>869.241</ele>
        <time>2012-06-24T08:20:26Z</time>
      </trkpt>
      <trkpt lat="42.97831" lon="-0.10418">
        <ele>869.9</ele>
        <time>2012-06-24T08:20:33Z</time>
      </trkpt>
      <trkpt lat="42.97821" lon="-0.10411">
        <ele>870.65</ele>
        <time>2012-06-24T08:20:40Z</time>
      </trkpt>
      <trkpt lat="42.97809" lon="-0.10407">
        <ele>871.419</ele>
        <time>2012-06-24T08:20:48Z</time>
      </trkpt>
      <trkpt lat="42.97799" lon="-0.10405">
        <ele>869.838</ele>
        <time>2012-06-24T08:20:54Z</time>
      </trkpt>
      <trkpt lat="42.97786" lon="-0.104">
        <ele>869.397</ele>
        <time>2012-06-24T08:21:02Z</time>
      </trkpt>
      <trkpt lat="42.97774" lon="-0.10396">
        <ele>868.046</ele>
        <time>2012-06-24T08:21:09Z</time>
      </trkpt>
      <trkpt lat="42.97758" lon="-0.10389">
        <ele>871.106</ele>
        <time>2012-06-24T08:21:18Z</time>
      </trkpt>
      <trkpt lat="42.97747" lon="-0.10378">
        <ele>872.06</ele>
        <time>2012-06-24T08:21:25Z</time>
      </trkpt>
      <trkpt lat="42.97733" lon="-0.10365">
        <ele>871.284</ele>
        <time>2012-06-24T08:21:34Z</time>
      </trkpt>
      <trkpt lat="42.9772" lon="-0.10356">
        <ele>871.908</ele>
        <time>2012-06-24T08:21:41Z</time>
      </trkpt>
      <trkpt lat="42.97707" lon="-0.10344">
        <ele>875.38</ele>
        <time>2012-06-24T08:21:49Z</time>
      </trkpt>
      <trkpt lat="42.9769" lon="-0.10328">
        <ele>877.241</ele>
        <time>2012-06-24T08:21:59Z</time>
      </trkpt>
      <trkpt lat="42.97679" lon="-0.10318">
        <ele>878.831</ele>
        <time>2012-06-24T08:22:06Z</time>
      </trkpt>
      <trkpt lat="42.97674" lon="-0.10319">
        <ele>879.77</ele>
        <time>2012-06-24T08:22:09Z</time>
      </trkpt>
      <trkpt lat="42.97672" lon="-0.1033">
        <ele>882.529</ele>
        <time>2012-06-24T08:22:16Z</time>
      </trkpt>
      <trkpt lat="42.97673" lon="-0.10332">
        <ele>882.73</ele>
        <time>2012-06-24T08:22:17Z</time>
      </trkpt>
      <trkpt lat="42.97685" lon="-0.10345">
        <ele>884.533</ele>
        <time>2012-06-24T08:22:26Z</time>
      </trkpt>
      <trkpt lat="42.97697" lon="-0.10363">
        <ele>886.082</ele>
        <time>2012-06-24T08:22:35Z</time>
      </trkpt>
      <trkpt lat="42.97707" lon="-0.1038">
        <ele>884.746</ele>
        <time>2012-06-24T08:22:43Z</time>
      </trkpt>
      <trkpt lat="42.97713" lon="-0.10399">
        <ele>884.34</ele>
        <time>2012-06-24T08:22:51Z</time>
      </trkpt>
      <trkpt lat="42.97715" lon="-0.10418">
        <ele>886.771</ele>
        <time>2012-06-24T08:22:59Z</time>
      </trkpt>
      <trkpt lat="42.97714" lon="-0.10437">
        <ele>890.271</ele>
        <time>2012-06-24T08:23:07Z</time>
      </trkpt>
      <trkpt lat="42.97713" lon="-0.10454">
        <ele>894.535</ele>
        <time>2012-06-24T08:23:15Z</time>
      </trkpt>
      <trkpt lat="42.97714" lon="-0.10474">
        <ele>896.281</ele>
        <time>2012-06-24T08:23:23Z</time>
      </trkpt>
      <trkpt lat="42.97714" lon="-0.1049">
        <ele>896.098</ele>
        <time>2012-06-24T08:23:30Z</time>
      </trkpt>
      <trkpt lat="42.97715" lon="-0.1051">
        <ele>897.372</ele>
        <time>2012-06-24T08:23:38Z</time>
      </trkpt>
      <trkpt lat="42.97713" lon="-0.10533">
        <ele>900.061</ele>
        <time>2012-06-24T08:23:47Z</time>
      </trkpt>
      <trkpt lat="42.97714" lon="-0.10554">
        <ele>900.675</ele>
        <time>2012-06-24T08:23:55Z</time>
      </trkpt>
      <trkpt lat="42.97717" lon="-0.10575">
        <ele>902.282</ele>
        <time>2012-06-24T08:24:03Z</time>
      </trkpt>
      <trkpt lat="42.97722" lon="-0.10595">
        <ele>902.619</ele>
        <time>2012-06-24T08:24:11Z</time>
      </trkpt>
      <trkpt lat="42.97728" lon="-0.10613">
        <ele>903.948</ele>
        <time>2012-06-24T08:24:19Z</time>
      </trkpt>
      <trkpt lat="42.97735" lon="-0.10629">
        <ele>906.554</ele>
        <time>2012-06-24T08:24:27Z</time>
      </trkpt>
      <trkpt lat="42.97743" lon="-0.10645">
        <ele>907.5</ele>
        <time>2012-06-24T08:24:35Z</time>
      </trkpt>
      <trkpt lat="42.97751" lon="-0.10664">
        <ele>907.73</ele>
        <time>2012-06-24T08:24:43Z</time>
      </trkpt>
      <trkpt lat="42.97759" lon="-0.10686">
        <ele>908.042</ele>
        <time>2012-06-24T08:24:52Z</time>
      </trkpt>
      <trkpt lat="42.97764" lon="-0.10715">
        <ele>909.158</ele>
        <time>2012-06-24T08:25:02Z</time>
      </trkpt>
      <trkpt lat="42.97766" lon="-0.10737">
        <ele>909.869</ele>
        <time>2012-06-24T08:25:09Z</time>
      </trkpt>
      <trkpt lat="42.97767" lon="-0.10762">
        <ele>912.731</ele>
        <time>2012-06-24T08:25:18Z</time>
      </trkpt>
      <trkpt lat="42.97766" lon="-0.10781">
        <ele>914.882</ele>
        <time>2012-06-24T08:25:25Z</time>
      </trkpt>
      <trkpt lat="42.97762" lon="-0.10799">
        <ele>918.882</ele>
        <time>2012-06-24T08:25:32Z</time>
      </trkpt>
      <trkpt lat="42.97758" lon="-0.10813">
        <ele>921.25</ele>
        <time>2012-06-24T08:25:38Z</time>
      </trkpt>
      <trkpt lat="42.97748" lon="-0.10831">
        <ele>923.306</ele>
        <time>2012-06-24T08:25:46Z</time>
      </trkpt>
      <trkpt lat="42.9774" lon="-0.10851">
        <ele>925.089</ele>
        <time>2012-06-24T08:25:54Z</time>
      </trkpt>
      <trkpt lat="42.97736" lon="-0.1087">
        <ele>929.074</ele>
        <time>2012-06-24T08:26:01Z</time>
      </trkpt>
      <trkpt lat="42.9773" lon="-0.10892">
        <ele>929.75</ele>
        <time>2012-06-24T08:26:08Z</time>
      </trkpt>
      <trkpt lat="42.97726" lon="-0.10911">
        <ele>930.1</ele>
        <time>2012-06-24T08:26:14Z</time>
      </trkpt>
      <trkpt lat="42.97717" lon="-0.10927">
        <ele>929.743</ele>
        <time>2012-06-24T08:26:21Z</time>
      </trkpt>
      <trkpt lat="42.97707" lon="-0.1094">
        <ele>929.574</ele>
        <time>2012-06-24T08:26:28Z</time>
      </trkpt>
      <trkpt lat="42.97695" lon="-0.10954">
        <ele>931.77</ele>
        <time>2012-06-24T08:26:36Z</time>
      </trkpt>
      <trkpt lat="42.97692" lon="-0.1096">
        <ele>932.455</ele>
        <time>2012-06-24T08:26:39Z</time>
      </trkpt>
      <trkpt lat="42.97696" lon="-0.10973">
        <ele>934.01</ele>
        <time>2012-06-24T08:26:45Z</time>
      </trkpt>
      <trkpt lat="42.97708" lon="-0.10984">
        <ele>937.475</ele>
        <time>2012-06-24T08:26:53Z</time>
      </trkpt>
      <trkpt lat="42.97721" lon="-0.10992">
        <ele>938.568</ele>
        <time>2012-06-24T08:27:00Z</time>
      </trkpt>
      <trkpt lat="42.97732" lon="-0.11002">
        <ele>939.819</ele>
        <time>2012-06-24T08:27:07Z</time>
      </trkpt>
      <trkpt lat="42.97745" lon="-0.11019">
        <ele>937.788</ele>
        <time>2012-06-24T08:27:16Z</time>
      </trkpt>
      <trkpt lat="42.97752" lon="-0.11038">
        <ele>940.159</ele>
        <time>2012-06-24T08:27:25Z</time>
      </trkpt>
      <trkpt lat="42.97748" lon="-0.11056">
        <ele>943.119</ele>
        <time>2012-06-24T08:27:32Z</time>
      </trkpt>
      <trkpt lat="42.9774" lon="-0.1107">
        <ele>945.299</ele>
        <time>2012-06-24T08:27:39Z</time>
      </trkpt>
      <trkpt lat="42.97733" lon="-0.11081">
        <ele>945.688</ele>
        <time>2012-06-24T08:27:45Z</time>
      </trkpt>
      <trkpt lat="42.97723" lon="-0.11087">
        <ele>946.229</ele>
        <time>2012-06-24T08:27:51Z</time>
      </trkpt>
      <trkpt lat="42.97709" lon="-0.11092">
        <ele>946.938</ele>
        <time>2012-06-24T08:27:58Z</time>
      </trkpt>
      <trkpt lat="42.97694" lon="-0.11101">
        <ele>949.659</ele>
        <time>2012-06-24T08:28:06Z</time>
      </trkpt>
      <trkpt lat="42.97681" lon="-0.11116">
        <ele>953.93</ele>
        <time>2012-06-24T08:28:14Z</time>
      </trkpt>
      <trkpt lat="42.97671" lon="-0.11131">
        <ele>957.391</ele>
        <time>2012-06-24T08:28:21Z</time>
      </trkpt>
      <trkpt lat="42.97664" lon="-0.11151">
        <ele>962.851</ele>
        <time>2012-06-24T08:28:29Z</time>
      </trkpt>
      <trkpt lat="42.97657" lon="-0.11172">
        <ele>962.219</ele>
        <time>2012-06-24T08:28:37Z</time>
      </trkpt>
      <trkpt lat="42.97643" lon="-0.112">
        <ele>958.877</ele>
        <time>2012-06-24T08:28:47Z</time>
      </trkpt>
      <trkpt lat="42.97628" lon="-0.11235">
        <ele>954.277</ele>
        <time>2012-06-24T08:28:58Z</time>
      </trkpt>
      <trkpt lat="42.97625" lon="-0.11258">
        <ele>953.727</ele>
        <time>2012-06-24T08:29:05Z</time>
      </trkpt>
      <trkpt lat="42.97625" lon="-0.11286">
        <ele>955.297</ele>
        <time>2012-06-24T08:29:14Z</time>
      </trkpt>
      <trkpt lat="42.97627" lon="-0.11303">
        <ele>955.047</ele>
        <time>2012-06-24T08:29:20Z</time>
      </trkpt>
      <trkpt lat="42.97632" lon="-0.11322">
        <ele>952.046</ele>
        <time>2012-06-24T08:29:28Z</time>
      </trkpt>
      <trkpt lat="42.97637" lon="-0.11344">
        <ele>953.127</ele>
        <time>2012-06-24T08:29:37Z</time>
      </trkpt>
      <trkpt lat="42.97639" lon="-0.11362">
        <ele>953.167</ele>
        <time>2012-06-24T08:29:45Z</time>
      </trkpt>
      <trkpt lat="42.97644" lon="-0.11378">
        <ele>955.798</ele>
        <time>2012-06-24T08:29:52Z</time>
      </trkpt>
      <trkpt lat="42.97649" lon="-0.11395">
        <ele>956.796</ele>
        <time>2012-06-24T08:30:00Z</time>
      </trkpt>
      <trkpt lat="42.97649" lon="-0.11412">
        <ele>961.358</ele>
        <time>2012-06-24T08:30:07Z</time>
      </trkpt>
      <trkpt lat="42.97644" lon="-0.1143">
        <ele>965.888</ele>
        <time>2012-06-24T08:30:15Z</time>
      </trkpt>
      <trkpt lat="42.97641" lon="-0.11446">
        <ele>969.669</ele>
        <time>2012-06-24T08:30:22Z</time>
      </trkpt>
      <trkpt lat="42.9764" lon="-0.11463">
        <ele>970.688</ele>
        <time>2012-06-24T08:30:28Z</time>
      </trkpt>
      <trkpt lat="42.97643" lon="-0.1148">
        <ele>969.917</ele>
        <time>2012-06-24T08:30:35Z</time>
      </trkpt>
      <trkpt lat="42.97646" lon="-0.11502">
        <ele>968.876</ele>
        <time>2012-06-24T08:30:44Z</time>
      </trkpt>
      <trkpt lat="42.97651" lon="-0.11519">
        <ele>969.937</ele>
        <time>2012-06-24T08:30:52Z</time>
      </trkpt>
      <trkpt lat="42.97658" lon="-0.11532">
        <ele>974.147</ele>
        <time>2012-06-24T08:30:59Z</time>
      </trkpt>
      <trkpt lat="42.97665" lon="-0.11552">
        <ele>976.196</ele>
        <time>2012-06-24T08:31:07Z</time>
      </trkpt>
      <trkpt lat="42.9767" lon="-0.11566">
        <ele>973.785</ele>
        <time>2012-06-24T08:31:13Z</time>
      </trkpt>
      <trkpt lat="42.97677" lon="-0.11582">
        <ele>976.316</ele>
        <time>2012-06-24T08:31:20Z</time>
      </trkpt>
      <trkpt lat="42.97685" lon="-0.11595">
        <ele>978.317</ele>
        <time>2012-06-24T08:31:27Z</time>
      </trkpt>
      <trkpt lat="42.97694" lon="-0.11612">
        <ele>976.776</ele>
        <time>2012-06-24T08:31:35Z</time>
      </trkpt>
      <trkpt lat="42.97697" lon="-0.11634">
        <ele>975.315</ele>
        <time>2012-06-24T08:31:44Z</time>
      </trkpt>
      <trkpt lat="42.97703" lon="-0.1165">
        <ele>975.696</ele>
        <time>2012-06-24T08:31:51Z</time>
      </trkpt>
      <trkpt lat="42.97707" lon="-0.11667">
        <ele>977.896</ele>
        <time>2012-06-24T08:31:57Z</time>
      </trkpt>
      <trkpt lat="42.97702" lon="-0.11674">
        <ele>979.196</ele>
        <time>2012-06-24T08:32:00Z</time>
      </trkpt>
      <trkpt lat="42.9769" lon="-0.11669">
        <ele>980.646</ele>
        <time>2012-06-24T08:32:06Z</time>
      </trkpt>
      <trkpt lat="42.97686" lon="-0.11651">
        <ele>980.805</ele>
        <time>2012-06-24T08:32:12Z</time>
      </trkpt>
      <trkpt lat="42.97685" lon="-0.11645">
        <ele>980.766</ele>
        <time>2012-06-24T08:32:14Z</time>
      </trkpt>
      <trkpt lat="42.97675" lon="-0.11626">
        <ele>980.005</ele>
        <time>2012-06-24T08:32:21Z</time>
      </trkpt>
      <trkpt lat="42.97661" lon="-0.11612">
        <ele>982.305</ele>
        <time>2012-06-24T08:32:28Z</time>
      </trkpt>
      <trkpt lat="42.97648" lon="-0.11595">
        <ele>983.646</ele>
        <time>2012-06-24T08:32:35Z</time>
      </trkpt>
      <trkpt lat="42.97642" lon="-0.1158">
        <ele>987.127</ele>
        <time>2012-06-24T08:32:41Z</time>
      </trkpt>
      <trkpt lat="42.97636" lon="-0.11562">
        <ele>988.827</ele>
        <time>2012-06-24T08:32:47Z</time>
      </trkpt>
      <trkpt lat="42.97627" lon="-0.11543">
        <ele>988.556</ele>
        <time>2012-06-24T08:32:54Z</time>
      </trkpt>
      <trkpt lat="42.97621" lon="-0.11527">
        <ele>988.715</ele>
        <time>2012-06-24T08:33:00Z</time>
      </trkpt>
      <trkpt lat="42.97614" lon="-0.11509">
        <ele>987.975</ele>
        <time>2012-06-24T08:33:06Z</time>
      </trkpt>
      <trkpt lat="42.97606" lon="-0.11489">
        <ele>996.016</ele>
        <time>2012-06-24T08:33:12Z</time>
      </trkpt>
      <trkpt lat="42.97596" lon="-0.11468">
        <ele>999.166</ele>
        <time>2012-06-24T08:33:19Z</time>
      </trkpt>
      <trkpt lat="42.97591" lon="-0.11456">
        <ele>996.224</ele>
        <time>2012-06-24T08:33:24Z</time>
      </trkpt>
      <trkpt lat="42.97581" lon="-0.11438">
        <ele>992.033</ele>
        <time>2012-06-24T08:33:31Z</time>
      </trkpt>
      <trkpt lat="42.97567" lon="-0.11427">
        <ele>990.864</ele>
        <time>2012-06-24T08:33:38Z</time>
      </trkpt>
      <trkpt lat="42.97551" lon="-0.11419">
        <ele>992.126</ele>
        <time>2012-06-24T08:33:45Z</time>
      </trkpt>
      <trkpt lat="42.97533" lon="-0.11411">
        <ele>994.276</ele>
        <time>2012-06-24T08:33:53Z</time>
      </trkpt>
      <trkpt lat="42.97518" lon="-0.11404">
        <ele>995.466</ele>
        <time>2012-06-24T08:34:00Z</time>
      </trkpt>
      <trkpt lat="42.97505" lon="-0.11389">
        <ele>995.925</ele>
        <time>2012-06-24T08:34:08Z</time>
      </trkpt>
      <trkpt lat="42.97492" lon="-0.1137">
        <ele>1001.145</ele>
        <time>2012-06-24T08:34:17Z</time>
      </trkpt>
      <trkpt lat="42.97483" lon="-0.11353">
        <ele>1001.645</ele>
        <time>2012-06-24T08:34:25Z</time>
      </trkpt>
      <trkpt lat="42.97478" lon="-0.11335">
        <ele>1003.155</ele>
        <time>2012-06-24T08:34:32Z</time>
      </trkpt>
      <trkpt lat="42.97474" lon="-0.11315">
        <ele>1005.226</ele>
        <time>2012-06-24T08:34:40Z</time>
      </trkpt>
      <trkpt lat="42.9747" lon="-0.11299">
        <ele>1006.926</ele>
        <time>2012-06-24T08:34:47Z</time>
      </trkpt>
      <trkpt lat="42.97467" lon="-0.11281">
        <ele>1008.446</ele>
        <time>2012-06-24T08:34:55Z</time>
      </trkpt>
      <trkpt lat="42.97463" lon="-0.11266">
        <ele>1010.086</ele>
        <time>2012-06-24T08:35:02Z</time>
      </trkpt>
      <trkpt lat="42.97459" lon="-0.11254">
        <ele>1010.996</ele>
        <time>2012-06-24T08:35:08Z</time>
      </trkpt>
      <trkpt lat="42.97454" lon="-0.1124">
        <ele>1012.715</ele>
        <time>2012-06-24T08:35:15Z</time>
      </trkpt>
      <trkpt lat="42.97446" lon="-0.11224">
        <ele>1013.375</ele>
        <time>2012-06-24T08:35:23Z</time>
      </trkpt>
      <trkpt lat="42.97436" lon="-0.11214">
        <ele>1013.965</ele>
        <time>2012-06-24T08:35:30Z</time>
      </trkpt>
      <trkpt lat="42.97426" lon="-0.11206">
        <ele>1016.625</ele>
        <time>2012-06-24T08:35:37Z</time>
      </trkpt>
      <trkpt lat="42.97415" lon="-0.11196">
        <ele>1016.284</ele>
        <time>2012-06-24T08:35:45Z</time>
      </trkpt>
      <trkpt lat="42.97402" lon="-0.11191">
        <ele>1016.375</ele>
        <time>2012-06-24T08:35:53Z</time>
      </trkpt>
      <trkpt lat="42.97391" lon="-0.11191">
        <ele>1017.545</ele>
        <time>2012-06-24T08:35:59Z</time>
      </trkpt>
      <trkpt lat="42.97377" lon="-0.11189">
        <ele>1019.516</ele>
        <time>2012-06-24T08:36:07Z</time>
      </trkpt>
      <trkpt lat="42.97359" lon="-0.11184">
        <ele>1021.526</ele>
        <time>2012-06-24T08:36:17Z</time>
      </trkpt>
      <trkpt lat="42.97343" lon="-0.11178">
        <ele>1023.306</ele>
        <time>2012-06-24T08:36:27Z</time>
      </trkpt>
      <trkpt lat="42.97333" lon="-0.11172">
        <ele>1024.315</ele>
        <time>2012-06-24T08:36:33Z</time>
      </trkpt>
      <trkpt lat="42.9732" lon="-0.11166">
        <ele>1025.866</ele>
        <time>2012-06-24T08:36:41Z</time>
      </trkpt>
      <trkpt lat="42.9731" lon="-0.11159">
        <ele>1027.015</ele>
        <time>2012-06-24T08:36:48Z</time>
      </trkpt>
      <trkpt lat="42.97301" lon="-0.11153">
        <ele>1027.905</ele>
        <time>2012-06-24T08:36:54Z</time>
      </trkpt>
      <trkpt lat="42.97292" lon="-0.11145">
        <ele>1029.135</ele>
        <time>2012-06-24T08:37:00Z</time>
      </trkpt>
      <trkpt lat="42.97282" lon="-0.11128">
        <ele>1028.153</ele>
        <time>2012-06-24T08:37:09Z</time>
      </trkpt>
      <trkpt lat="42.97277" lon="-0.1111">
        <ele>1033.175</ele>
        <time>2012-06-24T08:37:16Z</time>
      </trkpt>
      <trkpt lat="42.97276" lon="-0.11095">
        <ele>1034.915</ele>
        <time>2012-06-24T08:37:22Z</time>
      </trkpt>
      <trkpt lat="42.97273" lon="-0.11072">
        <ele>1036.465</ele>
        <time>2012-06-24T08:37:31Z</time>
      </trkpt>
      <trkpt lat="42.97274" lon="-0.11049">
        <ele>1037.845</ele>
        <time>2012-06-24T08:37:39Z</time>
      </trkpt>
      <trkpt lat="42.97273" lon="-0.11028">
        <ele>1039.406</ele>
        <time>2012-06-24T08:37:47Z</time>
      </trkpt>
      <trkpt lat="42.97271" lon="-0.11006">
        <ele>1041.816</ele>
        <time>2012-06-24T08:37:56Z</time>
      </trkpt>
      <trkpt lat="42.97268" lon="-0.10988">
        <ele>1043.426</ele>
        <time>2012-06-24T08:38:03Z</time>
      </trkpt>
      <trkpt lat="42.97266" lon="-0.10971">
        <ele>1044.546</ele>
        <time>2012-06-24T08:38:10Z</time>
      </trkpt>
      <trkpt lat="42.97263" lon="-0.10951">
        <ele>1045.816</ele>
        <time>2012-06-24T08:38:18Z</time>
      </trkpt>
      <trkpt lat="42.97259" lon="-0.10935">
        <ele>1045.645</ele>
        <time>2012-06-24T08:38:25Z</time>
      </trkpt>
      <trkpt lat="42.97254" lon="-0.10914">
        <ele>1047.126</ele>
        <time>2012-06-24T08:38:34Z</time>
      </trkpt>
      <trkpt lat="42.9725" lon="-0.10896">
        <ele>1047.725</ele>
        <time>2012-06-24T08:38:42Z</time>
      </trkpt>
      <trkpt lat="42.97246" lon="-0.10879">
        <ele>1049.926</ele>
        <time>2012-06-24T08:38:50Z</time>
      </trkpt>
      <trkpt lat="42.97243" lon="-0.10858">
        <ele>1052.026</ele>
        <time>2012-06-24T08:38:59Z</time>
      </trkpt>
      <trkpt lat="42.9724" lon="-0.10842">
        <ele>1053.406</ele>
        <time>2012-06-24T08:39:06Z</time>
      </trkpt>
      <trkpt lat="42.97238" lon="-0.10823">
        <ele>1054.246</ele>
        <time>2012-06-24T08:39:14Z</time>
      </trkpt>
      <trkpt lat="42.97238" lon="-0.10805">
        <ele>1055.816</ele>
        <time>2012-06-24T08:39:21Z</time>
      </trkpt>
      <trkpt lat="42.9724" lon="-0.10787">
        <ele>1057.136</ele>
        <time>2012-06-24T08:39:28Z</time>
      </trkpt>
      <trkpt lat="42.97239" lon="-0.10766">
        <ele>1058.055</ele>
        <time>2012-06-24T08:39:36Z</time>
      </trkpt>
      <trkpt lat="42.97236" lon="-0.10747">
        <ele>1057.575</ele>
        <time>2012-06-24T08:39:43Z</time>
      </trkpt>
      <trkpt lat="42.97233" lon="-0.10725">
        <ele>1055.394</ele>
        <time>2012-06-24T08:39:51Z</time>
      </trkpt>
      <trkpt lat="42.97234" lon="-0.10698">
        <ele>1055.466</ele>
        <time>2012-06-24T08:40:00Z</time>
      </trkpt>
      <trkpt lat="42.97236" lon="-0.10678">
        <ele>1058.167</ele>
        <time>2012-06-24T08:40:07Z</time>
      </trkpt>
      <trkpt lat="42.97237" lon="-0.10661">
        <ele>1061.377</ele>
        <time>2012-06-24T08:40:14Z</time>
      </trkpt>
      <trkpt lat="42.97239" lon="-0.10651">
        <ele>1062.927</ele>
        <time>2012-06-24T08:40:18Z</time>
      </trkpt>
      <trkpt lat="42.97246" lon="-0.10634">
        <ele>1066.067</ele>
        <time>2012-06-24T08:40:26Z</time>
      </trkpt>
      <trkpt lat="42.97258" lon="-0.10617">
        <ele>1072.927</ele>
        <time>2012-06-24T08:40:34Z</time>
      </trkpt>
      <trkpt lat="42.9727" lon="-0.10602">
        <ele>1077.577</ele>
        <time>2012-06-24T08:40:42Z</time>
      </trkpt>
      <trkpt lat="42.97279" lon="-0.10591">
        <ele>1078.277</ele>
        <time>2012-06-24T08:40:48Z</time>
      </trkpt>
      <trkpt lat="42.97285" lon="-0.10579">
        <ele>1078.697</ele>
        <time>2012-06-24T08:40:54Z</time>
      </trkpt>
      <trkpt lat="42.97288" lon="-0.10559">
        <ele>1078.717</ele>
        <time>2012-06-24T08:41:02Z</time>
      </trkpt>
      <trkpt lat="42.97285" lon="-0.10542">
        <ele>1079.017</ele>
        <time>2012-06-24T08:41:09Z</time>
      </trkpt>
      <trkpt lat="42.97277" lon="-0.10527">
        <ele>1078.166</ele>
        <time>2012-06-24T08:41:16Z</time>
      </trkpt>
      <trkpt lat="42.97267" lon="-0.10511">
        <ele>1079.766</ele>
        <time>2012-06-24T08:41:24Z</time>
      </trkpt>
      <trkpt lat="42.97258" lon="-0.10497">
        <ele>1081.786</ele>
        <time>2012-06-24T08:41:31Z</time>
      </trkpt>
      <trkpt lat="42.97244" lon="-0.10484">
        <ele>1082.237</ele>
        <time>2012-06-24T08:41:40Z</time>
      </trkpt>
      <trkpt lat="42.97233" lon="-0.1047">
        <ele>1082.906</ele>
        <time>2012-06-24T08:41:48Z</time>
      </trkpt>
      <trkpt lat="42.97223" lon="-0.10455">
        <ele>1083.766</ele>
        <time>2012-06-24T08:41:56Z</time>
      </trkpt>
      <trkpt lat="42.97215" lon="-0.10444">
        <ele>1082.706</ele>
        <time>2012-06-24T08:42:03Z</time>
      </trkpt>
      <trkpt lat="42.97206" lon="-0.10432">
        <ele>1083.257</ele>
        <time>2012-06-24T08:42:10Z</time>
      </trkpt>
      <trkpt lat="42.97198" lon="-0.10422">
        <ele>1083.91</ele>
        <time>2012-06-24T08:42:16Z</time>
      </trkpt>
      <trkpt lat="42.97193" lon="-0.10421">
        <ele>1085.757</ele>
        <time>2012-06-24T08:42:21Z</time>
      </trkpt>
      <trkpt lat="42.97189" lon="-0.10427">
        <ele>1103.797</ele>
        <time>2012-06-24T08:44:42Z</time>
      </trkpt>
      <trkpt lat="42.97184" lon="-0.10417">
        <ele>1102.786</ele>
        <time>2012-06-24T08:44:48Z</time>
      </trkpt>
      <trkpt lat="42.97171" lon="-0.10398">
        <ele>1103.587</ele>
        <time>2012-06-24T08:44:59Z</time>
      </trkpt>
      <trkpt lat="42.97161" lon="-0.10385">
        <ele>1103.916</ele>
        <time>2012-06-24T08:45:07Z</time>
      </trkpt>
      <trkpt lat="42.97153" lon="-0.10373">
        <ele>1103.035</ele>
        <time>2012-06-24T08:45:14Z</time>
      </trkpt>
      <trkpt lat="42.97143" lon="-0.10359">
        <ele>1100.185</ele>
        <time>2012-06-24T08:45:23Z</time>
      </trkpt>
      <trkpt lat="42.9713" lon="-0.10344">
        <ele>1098.576</ele>
        <time>2012-06-24T08:45:33Z</time>
      </trkpt>
      <trkpt lat="42.9712" lon="-0.10331">
        <ele>1099.056</ele>
        <time>2012-06-24T08:45:41Z</time>
      </trkpt>
      <trkpt lat="42.97109" lon="-0.10316">
        <ele>1100.926</ele>
        <time>2012-06-24T08:45:50Z</time>
      </trkpt>
      <trkpt lat="42.97096" lon="-0.10301">
        <ele>1101.116</ele>
        <time>2012-06-24T08:46:00Z</time>
      </trkpt>
      <trkpt lat="42.97084" lon="-0.10285">
        <ele>1106.457</ele>
        <time>2012-06-24T08:46:09Z</time>
      </trkpt>
      <trkpt lat="42.97073" lon="-0.10269">
        <ele>1110.347</ele>
        <time>2012-06-24T08:46:18Z</time>
      </trkpt>
      <trkpt lat="42.97065" lon="-0.10258">
        <ele>1109.876</ele>
        <time>2012-06-24T08:46:25Z</time>
      </trkpt>
      <trkpt lat="42.97052" lon="-0.10241">
        <ele>1109.846</ele>
        <time>2012-06-24T08:46:36Z</time>
      </trkpt>
      <trkpt lat="42.97043" lon="-0.10226">
        <ele>1110.856</ele>
        <time>2012-06-24T08:46:44Z</time>
      </trkpt>
      <trkpt lat="42.97041" lon="-0.10223">
        <ele>1110.276</ele>
        <time>2012-06-24T08:46:46Z</time>
      </trkpt>
      <trkpt lat="42.97028" lon="-0.10214">
        <ele>1111.906</ele>
        <time>2012-06-24T08:46:55Z</time>
      </trkpt>
      <trkpt lat="42.97013" lon="-0.10216">
        <ele>1113.837</ele>
        <time>2012-06-24T08:47:03Z</time>
      </trkpt>
      <trkpt lat="42.97" lon="-0.10221">
        <ele>1115.667</ele>
        <time>2012-06-24T08:47:10Z</time>
      </trkpt>
      <trkpt lat="42.96987" lon="-0.10227">
        <ele>1117.057</ele>
        <time>2012-06-24T08:47:17Z</time>
      </trkpt>
      <trkpt lat="42.96972" lon="-0.1023">
        <ele>1117.867</ele>
        <time>2012-06-24T08:47:24Z</time>
      </trkpt>
      <trkpt lat="42.96956" lon="-0.10225">
        <ele>1119.507</ele>
        <time>2012-06-24T08:47:32Z</time>
      </trkpt>
      <trkpt lat="42.96944" lon="-0.10216">
        <ele>1120.087</ele>
        <time>2012-06-24T08:47:39Z</time>
      </trkpt>
      <trkpt lat="42.96928" lon="-0.10196">
        <ele>1119.325</ele>
        <time>2012-06-24T08:47:49Z</time>
      </trkpt>
      <trkpt lat="42.96919" lon="-0.10178">
        <ele>1118.725</ele>
        <time>2012-06-24T08:47:56Z</time>
      </trkpt>
      <trkpt lat="42.9691" lon="-0.10155">
        <ele>1121.536</ele>
        <time>2012-06-24T08:48:05Z</time>
      </trkpt>
      <trkpt lat="42.96899" lon="-0.10147">
        <ele>1124.467</ele>
        <time>2012-06-24T08:48:12Z</time>
      </trkpt>
      <trkpt lat="42.96893" lon="-0.10154">
        <ele>1125.137</ele>
        <time>2012-06-24T08:48:17Z</time>
      </trkpt>
      <trkpt lat="42.96893" lon="-0.10163">
        <ele>1125.387</ele>
        <time>2012-06-24T08:48:21Z</time>
      </trkpt>
      <trkpt lat="42.969" lon="-0.10178">
        <ele>1125.646</ele>
        <time>2012-06-24T08:48:28Z</time>
      </trkpt>
      <trkpt lat="42.96907" lon="-0.10192">
        <ele>1126.277</ele>
        <time>2012-06-24T08:48:34Z</time>
      </trkpt>
      <trkpt lat="42.96916" lon="-0.10208">
        <ele>1127.116</ele>
        <time>2012-06-24T08:48:42Z</time>
      </trkpt>
      <trkpt lat="42.96922" lon="-0.10224">
        <ele>1127.986</ele>
        <time>2012-06-24T08:48:49Z</time>
      </trkpt>
      <trkpt lat="42.9693" lon="-0.10238">
        <ele>1129.227</ele>
        <time>2012-06-24T08:48:56Z</time>
      </trkpt>
      <trkpt lat="42.96935" lon="-0.10249">
        <ele>1130.567</ele>
        <time>2012-06-24T08:49:02Z</time>
      </trkpt>
      <trkpt lat="42.9694" lon="-0.10259">
        <ele>1132.527</ele>
        <time>2012-06-24T08:49:08Z</time>
      </trkpt>
      <trkpt lat="42.96949" lon="-0.10271">
        <ele>1135.808</ele>
        <time>2012-06-24T08:49:16Z</time>
      </trkpt>
      <trkpt lat="42.96961" lon="-0.10281">
        <ele>1135.617</ele>
        <time>2012-06-24T08:49:24Z</time>
      </trkpt>
      <trkpt lat="42.96973" lon="-0.10289">
        <ele>1135.647</ele>
        <time>2012-06-24T08:49:31Z</time>
      </trkpt>
      <trkpt lat="42.96982" lon="-0.10301">
        <ele>1137.727</ele>
        <time>2012-06-24T08:49:38Z</time>
      </trkpt>
      <trkpt lat="42.96991" lon="-0.10321">
        <ele>1141.037</ele>
        <time>2012-06-24T08:49:47Z</time>
      </trkpt>
      <trkpt lat="42.96996" lon="-0.10339">
        <ele>1142.467</ele>
        <time>2012-06-24T08:49:55Z</time>
      </trkpt>
      <trkpt lat="42.96998" lon="-0.10358">
        <ele>1144.447</ele>
        <time>2012-06-24T08:50:03Z</time>
      </trkpt>
      <trkpt lat="42.97" lon="-0.10377">
        <ele>1146.207</ele>
        <time>2012-06-24T08:50:11Z</time>
      </trkpt>
      <trkpt lat="42.97002" lon="-0.10401">
        <ele>1147.806</ele>
        <time>2012-06-24T08:50:21Z</time>
      </trkpt>
      <trkpt lat="42.97001" lon="-0.10424">
        <ele>1149.566</ele>
        <time>2012-06-24T08:50:31Z</time>
      </trkpt>
      <trkpt lat="42.97" lon="-0.10446">
        <ele>1150.787</ele>
        <time>2012-06-24T08:50:40Z</time>
      </trkpt>
      <trkpt lat="42.97003" lon="-0.10461">
        <ele>1152.377</ele>
        <time>2012-06-24T08:50:47Z</time>
      </trkpt>
      <trkpt lat="42.97006" lon="-0.1048">
        <ele>1152.406</ele>
        <time>2012-06-24T08:50:55Z</time>
      </trkpt>
      <trkpt lat="42.97008" lon="-0.105">
        <ele>1152.786</ele>
        <time>2012-06-24T08:51:03Z</time>
      </trkpt>
      <trkpt lat="42.97014" lon="-0.1052">
        <ele>1152.726</ele>
        <time>2012-06-24T08:51:11Z</time>
      </trkpt>
      <trkpt lat="42.97022" lon="-0.10533">
        <ele>1153.086</ele>
        <time>2012-06-24T08:51:18Z</time>
      </trkpt>
      <trkpt lat="42.97031" lon="-0.10543">
        <ele>1152.986</ele>
        <time>2012-06-24T08:51:24Z</time>
      </trkpt>
      <trkpt lat="42.97045" lon="-0.10557">
        <ele>1153.136</ele>
        <time>2012-06-24T08:51:33Z</time>
      </trkpt>
      <trkpt lat="42.97061" lon="-0.10571">
        <ele>1153.286</ele>
        <time>2012-06-24T08:51:43Z</time>
      </trkpt>
      <trkpt lat="42.97068" lon="-0.10587">
        <ele>1153.616</ele>
        <time>2012-06-24T08:51:50Z</time>
      </trkpt>
      <trkpt lat="42.97064" lon="-0.106">
        <ele>1154.216</ele>
        <time>2012-06-24T08:51:56Z</time>
      </trkpt>
      <trkpt lat="42.97061" lon="-0.10601">
        <ele>1154.697</ele>
        <time>2012-06-24T08:51:58Z</time>
      </trkpt>
      <trkpt lat="42.97049" lon="-0.10596">
        <ele>1154.955</ele>
        <time>2012-06-24T08:52:05Z</time>
      </trkpt>
      <trkpt lat="42.97037" lon="-0.10586">
        <ele>1155.186</ele>
        <time>2012-06-24T08:52:13Z</time>
      </trkpt>
      <trkpt lat="42.97027" lon="-0.10578">
        <ele>1156.025</ele>
        <time>2012-06-24T08:52:20Z</time>
      </trkpt>
      <trkpt lat="42.97015" lon="-0.10568">
        <ele>1156.095</ele>
        <time>2012-06-24T08:52:28Z</time>
      </trkpt>
      <trkpt lat="42.97004" lon="-0.10558">
        <ele>1155.945</ele>
        <time>2012-06-24T08:52:35Z</time>
      </trkpt>
      <trkpt lat="42.96996" lon="-0.10549">
        <ele>1155.564</ele>
        <time>2012-06-24T08:52:40Z</time>
      </trkpt>
      <trkpt lat="42.96987" lon="-0.10537">
        <ele>1155.765</ele>
        <time>2012-06-24T08:52:47Z</time>
      </trkpt>
      <trkpt lat="42.96974" lon="-0.10522">
        <ele>1157.636</ele>
        <time>2012-06-24T08:52:56Z</time>
      </trkpt>
      <trkpt lat="42.96964" lon="-0.10508">
        <ele>1158.686</ele>
        <time>2012-06-24T08:53:04Z</time>
      </trkpt>
      <trkpt lat="42.96958" lon="-0.10495">
        <ele>1158.835</ele>
        <time>2012-06-24T08:53:10Z</time>
      </trkpt>
      <trkpt lat="42.96949" lon="-0.10478">
        <ele>1159.285</ele>
        <time>2012-06-24T08:53:19Z</time>
      </trkpt>
      <trkpt lat="42.96942" lon="-0.10463">
        <ele>1160.815</ele>
        <time>2012-06-24T08:53:27Z</time>
      </trkpt>
      <trkpt lat="42.96936" lon="-0.10448">
        <ele>1162.966</ele>
        <time>2012-06-24T08:53:34Z</time>
      </trkpt>
      <trkpt lat="42.96931" lon="-0.10435">
        <ele>1164.985</ele>
        <time>2012-06-24T08:53:41Z</time>
      </trkpt>
      <trkpt lat="42.96926" lon="-0.10421">
        <ele>1167.196</ele>
        <time>2012-06-24T08:53:48Z</time>
      </trkpt>
      <trkpt lat="42.9692" lon="-0.10407">
        <ele>1168.435</ele>
        <time>2012-06-24T08:53:55Z</time>
      </trkpt>
      <trkpt lat="42.96916" lon="-0.10397">
        <ele>1170.085</ele>
        <time>2012-06-24T08:54:01Z</time>
      </trkpt>
      <trkpt lat="42.96907" lon="-0.10383">
        <ele>1171.235</ele>
        <time>2012-06-24T08:54:09Z</time>
      </trkpt>
      <trkpt lat="42.96897" lon="-0.10372">
        <ele>1172.596</ele>
        <time>2012-06-24T08:54:17Z</time>
      </trkpt>
      <trkpt lat="42.96885" lon="-0.10363">
        <ele>1173.816</ele>
        <time>2012-06-24T08:54:25Z</time>
      </trkpt>
      <trkpt lat="42.96874" lon="-0.10355">
        <ele>1175.206</ele>
        <time>2012-06-24T08:54:33Z</time>
      </trkpt>
      <trkpt lat="42.96864" lon="-0.10347">
        <ele>1175.015</ele>
        <time>2012-06-24T08:54:40Z</time>
      </trkpt>
      <trkpt lat="42.9685" lon="-0.10336">
        <ele>1175.065</ele>
        <time>2012-06-24T08:54:49Z</time>
      </trkpt>
      <trkpt lat="42.96839" lon="-0.10322">
        <ele>1174.833</ele>
        <time>2012-06-24T08:54:58Z</time>
      </trkpt>
      <trkpt lat="42.96827" lon="-0.10306">
        <ele>1177.625</ele>
        <time>2012-06-24T08:55:07Z</time>
      </trkpt>
      <trkpt lat="42.96824" lon="-0.10301">
        <ele>1178.446</ele>
        <time>2012-06-24T08:55:10Z</time>
      </trkpt>
      <trkpt lat="42.96815" lon="-0.10285">
        <ele>1179.905</ele>
        <time>2012-06-24T08:55:18Z</time>
      </trkpt>
      <trkpt lat="42.96812" lon="-0.10279">
        <ele>1180.435</ele>
        <time>2012-06-24T08:55:21Z</time>
      </trkpt>
      <trkpt lat="42.96802" lon="-0.1026">
        <ele>1182.135</ele>
        <time>2012-06-24T08:55:31Z</time>
      </trkpt>
      <trkpt lat="42.96795" lon="-0.10243">
        <ele>1183.245</ele>
        <time>2012-06-24T08:55:39Z</time>
      </trkpt>
      <trkpt lat="42.96787" lon="-0.10221">
        <ele>1184.749</ele>
        <time>2012-06-24T08:55:49Z</time>
      </trkpt>
      <trkpt lat="42.96781" lon="-0.10205">
        <ele>1186.326</ele>
        <time>2012-06-24T08:55:57Z</time>
      </trkpt>
      <trkpt lat="42.96774" lon="-0.1019">
        <ele>1187.756</ele>
        <time>2012-06-24T08:56:05Z</time>
      </trkpt>
      <trkpt lat="42.96767" lon="-0.10176">
        <ele>1189.186</ele>
        <time>2012-06-24T08:56:12Z</time>
      </trkpt>
      <trkpt lat="42.96758" lon="-0.10158">
        <ele>1190.866</ele>
        <time>2012-06-24T08:56:21Z</time>
      </trkpt>
      <trkpt lat="42.96749" lon="-0.10142">
        <ele>1192.306</ele>
        <time>2012-06-24T08:56:29Z</time>
      </trkpt>
      <trkpt lat="42.9674" lon="-0.10123">
        <ele>1194.026</ele>
        <time>2012-06-24T08:56:38Z</time>
      </trkpt>
      <trkpt lat="42.96731" lon="-0.10107">
        <ele>1195.246</ele>
        <time>2012-06-24T08:56:46Z</time>
      </trkpt>
      <trkpt lat="42.96725" lon="-0.10095">
        <ele>1196.456</ele>
        <time>2012-06-24T08:56:52Z</time>
      </trkpt>
      <trkpt lat="42.96718" lon="-0.10079">
        <ele>1197.806</ele>
        <time>2012-06-24T08:56:59Z</time>
      </trkpt>
      <trkpt lat="42.9671" lon="-0.10059">
        <ele>1199.156</ele>
        <time>2012-06-24T08:57:08Z</time>
      </trkpt>
      <trkpt lat="42.96699" lon="-0.10041">
        <ele>1200.806</ele>
        <time>2012-06-24T08:57:17Z</time>
      </trkpt>
      <trkpt lat="42.96688" lon="-0.10024">
        <ele>1202.356</ele>
        <time>2012-06-24T08:57:26Z</time>
      </trkpt>
      <trkpt lat="42.96676" lon="-0.10009">
        <ele>1203.516</ele>
        <time>2012-06-24T08:57:34Z</time>
      </trkpt>
      <trkpt lat="42.96663" lon="-0.09994">
        <ele>1204.045</ele>
        <time>2012-06-24T08:57:43Z</time>
      </trkpt>
      <trkpt lat="42.96655" lon="-0.09984">
        <ele>1204.535</ele>
        <time>2012-06-24T08:57:49Z</time>
      </trkpt>
      <trkpt lat="42.9664" lon="-0.09967">
        <ele>1205.886</ele>
        <time>2012-06-24T08:57:59Z</time>
      </trkpt>
      <trkpt lat="42.96627" lon="-0.09954">
        <ele>1207.068</ele>
        <time>2012-06-24T08:58:08Z</time>
      </trkpt>
      <trkpt lat="42.96616" lon="-0.09943">
        <ele>1208.115</ele>
        <time>2012-06-24T08:58:15Z</time>
      </trkpt>
      <trkpt lat="42.96602" lon="-0.09929">
        <ele>1209.145</ele>
        <time>2012-06-24T08:58:24Z</time>
      </trkpt>
      <trkpt lat="42.9659" lon="-0.09915">
        <ele>1210.115</ele>
        <time>2012-06-24T08:58:32Z</time>
      </trkpt>
      <trkpt lat="42.9658" lon="-0.09902">
        <ele>1210.575</ele>
        <time>2012-06-24T08:58:39Z</time>
      </trkpt>
      <trkpt lat="42.96571" lon="-0.09892">
        <ele>1211.705</ele>
        <time>2012-06-24T08:58:45Z</time>
      </trkpt>
      <trkpt lat="42.9657" lon="-0.0989">
        <ele>1211.905</ele>
        <time>2012-06-24T08:58:46Z</time>
      </trkpt>
      <trkpt lat="42.96563" lon="-0.0989">
        <ele>1212.686</ele>
        <time>2012-06-24T08:58:50Z</time>
      </trkpt>
      <trkpt lat="42.9656" lon="-0.09898">
        <ele>1214.056</ele>
        <time>2012-06-24T08:58:55Z</time>
      </trkpt>
      <trkpt lat="42.96567" lon="-0.09912">
        <ele>1215.306</ele>
        <time>2012-06-24T08:59:02Z</time>
      </trkpt>
      <trkpt lat="42.96578" lon="-0.09921">
        <ele>1216.545</ele>
        <time>2012-06-24T08:59:08Z</time>
      </trkpt>
      <trkpt lat="42.96589" lon="-0.09933">
        <ele>1216.945</ele>
        <time>2012-06-24T08:59:15Z</time>
      </trkpt>
      <trkpt lat="42.96602" lon="-0.09956">
        <ele>1218.185</ele>
        <time>2012-06-24T08:59:25Z</time>
      </trkpt>
      <trkpt lat="42.96611" lon="-0.09974">
        <ele>1219.946</ele>
        <time>2012-06-24T08:59:33Z</time>
      </trkpt>
      <trkpt lat="42.96617" lon="-0.0999">
        <ele>1221.666</ele>
        <time>2012-06-24T08:59:40Z</time>
      </trkpt>
      <trkpt lat="42.96626" lon="-0.10007">
        <ele>1223.556</ele>
        <time>2012-06-24T08:59:49Z</time>
      </trkpt>
      <trkpt lat="42.96635" lon="-0.10027">
        <ele>1225.466</ele>
        <time>2012-06-24T08:59:59Z</time>
      </trkpt>
      <trkpt lat="42.96642" lon="-0.10043">
        <ele>1227.066</ele>
        <time>2012-06-24T09:00:07Z</time>
      </trkpt>
      <trkpt lat="42.96647" lon="-0.10057">
        <ele>1228.596</ele>
        <time>2012-06-24T09:00:14Z</time>
      </trkpt>
      <trkpt lat="42.96652" lon="-0.10074">
        <ele>1230.706</ele>
        <time>2012-06-24T09:00:22Z</time>
      </trkpt>
      <trkpt lat="42.96655" lon="-0.10092">
        <ele>1232.576</ele>
        <time>2012-06-24T09:00:30Z</time>
      </trkpt>
      <trkpt lat="42.96657" lon="-0.1011">
        <ele>1234.596</ele>
        <time>2012-06-24T09:00:38Z</time>
      </trkpt>
      <trkpt lat="42.96659" lon="-0.10126">
        <ele>1236.416</ele>
        <time>2012-06-24T09:00:45Z</time>
      </trkpt>
      <trkpt lat="42.96661" lon="-0.10143">
        <ele>1237.796</ele>
        <time>2012-06-24T09:00:52Z</time>
      </trkpt>
      <trkpt lat="42.96662" lon="-0.1016">
        <ele>1239.106</ele>
        <time>2012-06-24T09:00:59Z</time>
      </trkpt>
      <trkpt lat="42.96664" lon="-0.10177">
        <ele>1240.365</ele>
        <time>2012-06-24T09:01:06Z</time>
      </trkpt>
      <trkpt lat="42.96666" lon="-0.10201">
        <ele>1242.046</ele>
        <time>2012-06-24T09:01:15Z</time>
      </trkpt>
      <trkpt lat="42.96667" lon="-0.10223">
        <ele>1243.596</ele>
        <time>2012-06-24T09:01:23Z</time>
      </trkpt>
      <trkpt lat="42.96663" lon="-0.10247">
        <ele>1245.225</ele>
        <time>2012-06-24T09:01:32Z</time>
      </trkpt>
      <trkpt lat="42.96656" lon="-0.10268">
        <ele>1247.396</ele>
        <time>2012-06-24T09:01:40Z</time>
      </trkpt>
      <trkpt lat="42.96653" lon="-0.10284">
        <ele>1249.166</ele>
        <time>2012-06-24T09:01:46Z</time>
      </trkpt>
      <trkpt lat="42.96649" lon="-0.10305">
        <ele>1251.116</ele>
        <time>2012-06-24T09:01:54Z</time>
      </trkpt>
      <trkpt lat="42.96648" lon="-0.10324">
        <ele>1253.215</ele>
        <time>2012-06-24T09:02:01Z</time>
      </trkpt>
      <trkpt lat="42.96649" lon="-0.10344">
        <ele>1253.094</ele>
        <time>2012-06-24T09:02:09Z</time>
      </trkpt>
      <trkpt lat="42.96652" lon="-0.10358">
        <ele>1254.065</ele>
        <time>2012-06-24T09:02:15Z</time>
      </trkpt>
      <trkpt lat="42.96654" lon="-0.10374">
        <ele>1255.755</ele>
        <time>2012-06-24T09:02:22Z</time>
      </trkpt>
      <trkpt lat="42.96657" lon="-0.10391">
        <ele>1257.405</ele>
        <time>2012-06-24T09:02:30Z</time>
      </trkpt>
      <trkpt lat="42.9666" lon="-0.1041">
        <ele>1259.245</ele>
        <time>2012-06-24T09:02:39Z</time>
      </trkpt>
      <trkpt lat="42.96662" lon="-0.10427">
        <ele>1260.695</ele>
        <time>2012-06-24T09:02:47Z</time>
      </trkpt>
      <trkpt lat="42.96666" lon="-0.10442">
        <ele>1262.015</ele>
        <time>2012-06-24T09:02:54Z</time>
      </trkpt>
      <trkpt lat="42.96669" lon="-0.10455">
        <ele>1262.855</ele>
        <time>2012-06-24T09:03:00Z</time>
      </trkpt>
      <trkpt lat="42.96672" lon="-0.10475">
        <ele>1265.775</ele>
        <time>2012-06-24T09:03:08Z</time>
      </trkpt>
      <trkpt lat="42.96674" lon="-0.1049">
        <ele>1269.615</ele>
        <time>2012-06-24T09:03:14Z</time>
      </trkpt>
      <trkpt lat="42.96673" lon="-0.10511">
        <ele>1273.655</ele>
        <time>2012-06-24T09:03:22Z</time>
      </trkpt>
      <trkpt lat="42.96666" lon="-0.10531">
        <ele>1274.394</ele>
        <time>2012-06-24T09:03:30Z</time>
      </trkpt>
      <trkpt lat="42.96656" lon="-0.10547">
        <ele>1273.674</ele>
        <time>2012-06-24T09:03:38Z</time>
      </trkpt>
      <trkpt lat="42.96645" lon="-0.1056">
        <ele>1273.584</ele>
        <time>2012-06-24T09:03:45Z</time>
      </trkpt>
      <trkpt lat="42.96638" lon="-0.10574">
        <ele>1273.244</ele>
        <time>2012-06-24T09:03:53Z</time>
      </trkpt>
      <trkpt lat="42.96637" lon="-0.10575">
        <ele>1273.224</ele>
        <time>2012-06-24T09:03:54Z</time>
      </trkpt>
      <trkpt lat="42.96636" lon="-0.10578">
        <ele>1273.102</ele>
        <time>2012-06-24T09:03:59Z</time>
      </trkpt>
      <trkpt lat="42.96636" lon="-0.10575">
        <ele>1273.053</ele>
        <time>2012-06-24T09:06:36Z</time>
      </trkpt>
      <trkpt lat="42.96636" lon="-0.10577">
        <ele>1273.303</ele>
        <time>2012-06-24T09:06:39Z</time>
      </trkpt>
      <trkpt lat="42.96634" lon="-0.10589">
        <ele>1273.794</ele>
        <time>2012-06-24T09:06:46Z</time>
      </trkpt>
      <trkpt lat="42.96637" lon="-0.10606">
        <ele>1274.187</ele>
        <time>2012-06-24T09:06:53Z</time>
      </trkpt>
      <trkpt lat="42.96646" lon="-0.10623">
        <ele>1274.704</ele>
        <time>2012-06-24T09:07:01Z</time>
      </trkpt>
      <trkpt lat="42.96656" lon="-0.1064">
        <ele>1275.464</ele>
        <time>2012-06-24T09:07:09Z</time>
      </trkpt>
      <trkpt lat="42.96665" lon="-0.10651">
        <ele>1276.274</ele>
        <time>2012-06-24T09:07:15Z</time>
      </trkpt>
      <trkpt lat="42.96679" lon="-0.10665">
        <ele>1276.213</ele>
        <time>2012-06-24T09:07:24Z</time>
      </trkpt>
      <trkpt lat="42.9669" lon="-0.10683">
        <ele>1276.303</ele>
        <time>2012-06-24T09:07:33Z</time>
      </trkpt>
      <trkpt lat="42.96693" lon="-0.10696">
        <ele>1276.874</ele>
        <time>2012-06-24T09:07:39Z</time>
      </trkpt>
      <trkpt lat="42.96689" lon="-0.1071">
        <ele>1277.833</ele>
        <time>2012-06-24T09:07:45Z</time>
      </trkpt>
      <trkpt lat="42.96678" lon="-0.10711">
        <ele>1278.804</ele>
        <time>2012-06-24T09:07:51Z</time>
      </trkpt>
      <trkpt lat="42.96671" lon="-0.10698">
        <ele>1279.433</ele>
        <time>2012-06-24T09:07:57Z</time>
      </trkpt>
      <trkpt lat="42.96667" lon="-0.10686">
        <ele>1280.033</ele>
        <time>2012-06-24T09:08:02Z</time>
      </trkpt>
      <trkpt lat="42.9666" lon="-0.10673">
        <ele>1280.833</ele>
        <time>2012-06-24T09:08:08Z</time>
      </trkpt>
      <trkpt lat="42.96647" lon="-0.10657">
        <ele>1281.944</ele>
        <time>2012-06-24T09:08:17Z</time>
      </trkpt>
      <trkpt lat="42.96634" lon="-0.10645">
        <ele>1283.494</ele>
        <time>2012-06-24T09:08:25Z</time>
      </trkpt>
      <trkpt lat="42.96624" lon="-0.10636">
        <ele>1284.694</ele>
        <time>2012-06-24T09:08:32Z</time>
      </trkpt>
      <trkpt lat="42.96613" lon="-0.10625">
        <ele>1285.954</ele>
        <time>2012-06-24T09:08:39Z</time>
      </trkpt>
      <trkpt lat="42.96602" lon="-0.10616">
        <ele>1286.994</ele>
        <time>2012-06-24T09:08:46Z</time>
      </trkpt>
      <trkpt lat="42.96587" lon="-0.10604">
        <ele>1288.734</ele>
        <time>2012-06-24T09:08:55Z</time>
      </trkpt>
      <trkpt lat="42.96575" lon="-0.10591">
        <ele>1290.314</ele>
        <time>2012-06-24T09:09:03Z</time>
      </trkpt>
      <trkpt lat="42.96566" lon="-0.10582">
        <ele>1291.073</ele>
        <time>2012-06-24T09:09:09Z</time>
      </trkpt>
      <trkpt lat="42.96555" lon="-0.10564">
        <ele>1291.744</ele>
        <time>2012-06-24T09:09:17Z</time>
      </trkpt>
      <trkpt lat="42.96553" lon="-0.10543">
        <ele>1291.873</ele>
        <time>2012-06-24T09:09:24Z</time>
      </trkpt>
      <trkpt lat="42.96558" lon="-0.1052">
        <ele>1292.173</ele>
        <time>2012-06-24T09:09:32Z</time>
      </trkpt>
      <trkpt lat="42.96567" lon="-0.10501">
        <ele>1295.133</ele>
        <time>2012-06-24T09:09:39Z</time>
      </trkpt>
      <trkpt lat="42.96577" lon="-0.10484">
        <ele>1298.213</ele>
        <time>2012-06-24T09:09:46Z</time>
      </trkpt>
      <trkpt lat="42.96584" lon="-0.10465">
        <ele>1301.223</ele>
        <time>2012-06-24T09:09:53Z</time>
      </trkpt>
      <trkpt lat="42.96589" lon="-0.10442">
        <ele>1303.083</ele>
        <time>2012-06-24T09:10:01Z</time>
      </trkpt>
      <trkpt lat="42.96587" lon="-0.10422">
        <ele>1304.724</ele>
        <time>2012-06-24T09:10:08Z</time>
      </trkpt>
      <trkpt lat="42.96583" lon="-0.10402">
        <ele>1305.804</ele>
        <time>2012-06-24T09:10:15Z</time>
      </trkpt>
      <trkpt lat="42.96578" lon="-0.10386">
        <ele>1307.044</ele>
        <time>2012-06-24T09:10:21Z</time>
      </trkpt>
      <trkpt lat="42.96569" lon="-0.1037">
        <ele>1307.894</ele>
        <time>2012-06-24T09:10:28Z</time>
      </trkpt>
      <trkpt lat="42.96559" lon="-0.10361">
        <ele>1307.834</ele>
        <time>2012-06-24T09:10:34Z</time>
      </trkpt>
      <trkpt lat="42.96548" lon="-0.10354">
        <ele>1308.024</ele>
        <time>2012-06-24T09:10:40Z</time>
      </trkpt>
      <trkpt lat="42.96537" lon="-0.10342">
        <ele>1308.184</ele>
        <time>2012-06-24T09:10:47Z</time>
      </trkpt>
      <trkpt lat="42.96524" lon="-0.10323">
        <ele>1308.474</ele>
        <time>2012-06-24T09:10:57Z</time>
      </trkpt>
      <trkpt lat="42.96514" lon="-0.10306">
        <ele>1312.424</ele>
        <time>2012-06-24T09:11:06Z</time>
      </trkpt>
      <trkpt lat="42.96507" lon="-0.10291">
        <ele>1315.024</ele>
        <time>2012-06-24T09:11:13Z</time>
      </trkpt>
      <trkpt lat="42.96497" lon="-0.10267">
        <ele>1318.624</ele>
        <time>2012-06-24T09:11:24Z</time>
      </trkpt>
      <trkpt lat="42.96491" lon="-0.10253">
        <ele>1321.194</ele>
        <time>2012-06-24T09:11:31Z</time>
      </trkpt>
      <trkpt lat="42.96484" lon="-0.10236">
        <ele>1324.464</ele>
        <time>2012-06-24T09:11:39Z</time>
      </trkpt>
      <trkpt lat="42.96476" lon="-0.10219">
        <ele>1327.854</ele>
        <time>2012-06-24T09:11:47Z</time>
      </trkpt>
      <trkpt lat="42.96469" lon="-0.10205">
        <ele>1329.834</ele>
        <time>2012-06-24T09:11:54Z</time>
      </trkpt>
      <trkpt lat="42.96462" lon="-0.10188">
        <ele>1331.534</ele>
        <time>2012-06-24T09:12:02Z</time>
      </trkpt>
      <trkpt lat="42.96455" lon="-0.10171">
        <ele>1333.044</ele>
        <time>2012-06-24T09:12:10Z</time>
      </trkpt>
      <trkpt lat="42.96444" lon="-0.10145">
        <ele>1334.934</ele>
        <time>2012-06-24T09:12:22Z</time>
      </trkpt>
      <trkpt lat="42.96432" lon="-0.10119">
        <ele>1336.674</ele>
        <time>2012-06-24T09:12:34Z</time>
      </trkpt>
      <trkpt lat="42.96421" lon="-0.10099">
        <ele>1338.604</ele>
        <time>2012-06-24T09:12:44Z</time>
      </trkpt>
      <trkpt lat="42.96411" lon="-0.1008">
        <ele>1340.304</ele>
        <time>2012-06-24T09:12:53Z</time>
      </trkpt>
      <trkpt lat="42.96401" lon="-0.10063">
        <ele>1341.734</ele>
        <time>2012-06-24T09:13:01Z</time>
      </trkpt>
      <trkpt lat="42.96388" lon="-0.10041">
        <ele>1343.074</ele>
        <time>2012-06-24T09:13:11Z</time>
      </trkpt>
      <trkpt lat="42.96376" lon="-0.10018">
        <ele>1343.104</ele>
        <time>2012-06-24T09:13:21Z</time>
      </trkpt>
      <trkpt lat="42.96366" lon="-0.09989">
        <ele>1343.614</ele>
        <time>2012-06-24T09:13:32Z</time>
      </trkpt>
      <trkpt lat="42.96361" lon="-0.09964">
        <ele>1344.734</ele>
        <time>2012-06-24T09:13:41Z</time>
      </trkpt>
      <trkpt lat="42.96357" lon="-0.0994">
        <ele>1345.684</ele>
        <time>2012-06-24T09:13:50Z</time>
      </trkpt>
      <trkpt lat="42.9635" lon="-0.09918">
        <ele>1346.654</ele>
        <time>2012-06-24T09:13:58Z</time>
      </trkpt>
      <trkpt lat="42.96338" lon="-0.09894">
        <ele>1347.814</ele>
        <time>2012-06-24T09:14:09Z</time>
      </trkpt>
      <trkpt lat="42.96329" lon="-0.09877">
        <ele>1348.724</ele>
        <time>2012-06-24T09:14:18Z</time>
      </trkpt>
      <trkpt lat="42.96327" lon="-0.09873">
        <ele>1348.063</ele>
        <time>2012-06-24T09:14:24Z</time>
      </trkpt>
      <trkpt lat="42.96327" lon="-0.09871">
        <ele>1347.653</ele>
        <time>2012-06-24T09:14:31Z</time>
      </trkpt>
      <trkpt lat="42.96325" lon="-0.09874">
        <ele>1341.534</ele>
        <time>2012-06-24T09:32:14Z</time>
      </trkpt>
      <trkpt lat="42.96322" lon="-0.09873">
        <ele>1338.064</ele>
        <time>2012-06-24T09:32:47Z</time>
      </trkpt>
      <trkpt lat="42.96314" lon="-0.09868">
        <ele>1338.274</ele>
        <time>2012-06-24T09:32:55Z</time>
      </trkpt>
      <trkpt lat="42.96306" lon="-0.09866">
        <ele>1338.634</ele>
        <time>2012-06-24T09:33:01Z</time>
      </trkpt>
      <trkpt lat="42.96304" lon="-0.09866">
        <ele>1338.654</ele>
        <time>2012-06-24T09:33:02Z</time>
      </trkpt>
      <trkpt lat="42.96297" lon="-0.09866">
        <ele>1338.914</ele>
        <time>2012-06-24T09:33:07Z</time>
      </trkpt>
      <trkpt lat="42.96288" lon="-0.09873">
        <ele>1339.765</ele>
        <time>2012-06-24T09:33:13Z</time>
      </trkpt>
      <trkpt lat="42.96281" lon="-0.09883">
        <ele>1340.714</ele>
        <time>2012-06-24T09:33:19Z</time>
      </trkpt>
      <trkpt lat="42.96275" lon="-0.099">
        <ele>1341.514</ele>
        <time>2012-06-24T09:33:27Z</time>
      </trkpt>
      <trkpt lat="42.96273" lon="-0.09917">
        <ele>1342.154</ele>
        <time>2012-06-24T09:33:34Z</time>
      </trkpt>
      <trkpt lat="42.96275" lon="-0.09932">
        <ele>1343.155</ele>
        <time>2012-06-24T09:33:41Z</time>
      </trkpt>
      <trkpt lat="42.96279" lon="-0.09947">
        <ele>1344.044</ele>
        <time>2012-06-24T09:33:48Z</time>
      </trkpt>
      <trkpt lat="42.96286" lon="-0.09962">
        <ele>1345.174</ele>
        <time>2012-06-24T09:33:55Z</time>
      </trkpt>
      <trkpt lat="42.96293" lon="-0.09978">
        <ele>1346.044</ele>
        <time>2012-06-24T09:34:03Z</time>
      </trkpt>
      <trkpt lat="42.96302" lon="-0.09997">
        <ele>1347.285</ele>
        <time>2012-06-24T09:34:12Z</time>
      </trkpt>
      <trkpt lat="42.96313" lon="-0.10019">
        <ele>1348.534</ele>
        <time>2012-06-24T09:34:23Z</time>
      </trkpt>
      <trkpt lat="42.96322" lon="-0.10037">
        <ele>1348.944</ele>
        <time>2012-06-24T09:34:31Z</time>
      </trkpt>
      <trkpt lat="42.96332" lon="-0.10062">
        <ele>1349.464</ele>
        <time>2012-06-24T09:34:41Z</time>
      </trkpt>
      <trkpt lat="42.96343" lon="-0.10088">
        <ele>1350.224</ele>
        <time>2012-06-24T09:34:51Z</time>
      </trkpt>
      <trkpt lat="42.9635" lon="-0.10108">
        <ele>1351.174</ele>
        <time>2012-06-24T09:34:58Z</time>
      </trkpt>
      <trkpt lat="42.96355" lon="-0.10129">
        <ele>1352.174</ele>
        <time>2012-06-24T09:35:06Z</time>
      </trkpt>
      <trkpt lat="42.96358" lon="-0.10148">
        <ele>1352.824</ele>
        <time>2012-06-24T09:35:13Z</time>
      </trkpt>
      <trkpt lat="42.96362" lon="-0.1017">
        <ele>1353.754</ele>
        <time>2012-06-24T09:35:21Z</time>
      </trkpt>
      <trkpt lat="42.96366" lon="-0.10197">
        <ele>1354.668</ele>
        <time>2012-06-24T09:35:31Z</time>
      </trkpt>
      <trkpt lat="42.96368" lon="-0.10217">
        <ele>1355.604</ele>
        <time>2012-06-24T09:35:39Z</time>
      </trkpt>
      <trkpt lat="42.96372" lon="-0.10244">
        <ele>1356.644</ele>
        <time>2012-06-24T09:35:49Z</time>
      </trkpt>
      <trkpt lat="42.96375" lon="-0.10265">
        <ele>1357.754</ele>
        <time>2012-06-24T09:35:57Z</time>
      </trkpt>
      <trkpt lat="42.96377" lon="-0.10288">
        <ele>1359.074</ele>
        <time>2012-06-24T09:36:06Z</time>
      </trkpt>
      <trkpt lat="42.96376" lon="-0.10313">
        <ele>1360.814</ele>
        <time>2012-06-24T09:36:15Z</time>
      </trkpt>
      <trkpt lat="42.96372" lon="-0.10332">
        <ele>1362.083</ele>
        <time>2012-06-24T09:36:22Z</time>
      </trkpt>
      <trkpt lat="42.96365" lon="-0.10351">
        <ele>1363.194</ele>
        <time>2012-06-24T09:36:29Z</time>
      </trkpt>
      <trkpt lat="42.96355" lon="-0.10377">
        <ele>1364.413</ele>
        <time>2012-06-24T09:36:39Z</time>
      </trkpt>
      <trkpt lat="42.9634" lon="-0.10395">
        <ele>1365.813</ele>
        <time>2012-06-24T09:36:48Z</time>
      </trkpt>
      <trkpt lat="42.96327" lon="-0.10396">
        <ele>1366.883</ele>
        <time>2012-06-24T09:36:54Z</time>
      </trkpt>
      <trkpt lat="42.96307" lon="-0.10387">
        <ele>1367.733</ele>
        <time>2012-06-24T09:37:02Z</time>
      </trkpt>
      <trkpt lat="42.96285" lon="-0.10385">
        <ele>1368.604</ele>
        <time>2012-06-24T09:37:10Z</time>
      </trkpt>
      <trkpt lat="42.96272" lon="-0.10389">
        <ele>1369.233</ele>
        <time>2012-06-24T09:37:15Z</time>
      </trkpt>
      <trkpt lat="42.96261" lon="-0.10402">
        <ele>1370.173</ele>
        <time>2012-06-24T09:37:21Z</time>
      </trkpt>
      <trkpt lat="42.96252" lon="-0.10421">
        <ele>1371.313</ele>
        <time>2012-06-24T09:37:28Z</time>
      </trkpt>
      <trkpt lat="42.96247" lon="-0.10442">
        <ele>1373.303</ele>
        <time>2012-06-24T09:37:35Z</time>
      </trkpt>
      <trkpt lat="42.96243" lon="-0.10469">
        <ele>1375.943</ele>
        <time>2012-06-24T09:37:44Z</time>
      </trkpt>
      <trkpt lat="42.9624" lon="-0.105">
        <ele>1378.253</ele>
        <time>2012-06-24T09:37:54Z</time>
      </trkpt>
      <trkpt lat="42.96238" lon="-0.10522">
        <ele>1380.073</ele>
        <time>2012-06-24T09:38:01Z</time>
      </trkpt>
      <trkpt lat="42.96235" lon="-0.10551">
        <ele>1381.964</ele>
        <time>2012-06-24T09:38:10Z</time>
      </trkpt>
      <trkpt lat="42.96237" lon="-0.10576">
        <ele>1383.983</ele>
        <time>2012-06-24T09:38:18Z</time>
      </trkpt>
      <trkpt lat="42.96242" lon="-0.10599">
        <ele>1385.642</ele>
        <time>2012-06-24T09:38:26Z</time>
      </trkpt>
      <trkpt lat="42.96253" lon="-0.10624">
        <ele>1387.142</ele>
        <time>2012-06-24T09:38:35Z</time>
      </trkpt>
      <trkpt lat="42.96264" lon="-0.10644">
        <ele>1388.172</ele>
        <time>2012-06-24T09:38:43Z</time>
      </trkpt>
      <trkpt lat="42.96276" lon="-0.10665">
        <ele>1389.802</ele>
        <time>2012-06-24T09:38:51Z</time>
      </trkpt>
      <trkpt lat="42.96289" lon="-0.10693">
        <ele>1391.693</ele>
        <time>2012-06-24T09:39:00Z</time>
      </trkpt>
      <trkpt lat="42.96297" lon="-0.10711">
        <ele>1392.402</ele>
        <time>2012-06-24T09:39:06Z</time>
      </trkpt>
      <trkpt lat="42.96306" lon="-0.10733">
        <ele>1393.373</ele>
        <time>2012-06-24T09:39:13Z</time>
      </trkpt>
      <trkpt lat="42.96313" lon="-0.10758">
        <ele>1394.602</ele>
        <time>2012-06-24T09:39:21Z</time>
      </trkpt>
      <trkpt lat="42.96319" lon="-0.10788">
        <ele>1395.932</ele>
        <time>2012-06-24T09:39:30Z</time>
      </trkpt>
      <trkpt lat="42.96321" lon="-0.10815">
        <ele>1397.122</ele>
        <time>2012-06-24T09:39:38Z</time>
      </trkpt>
      <trkpt lat="42.96318" lon="-0.10839">
        <ele>1399.413</ele>
        <time>2012-06-24T09:39:46Z</time>
      </trkpt>
      <trkpt lat="42.96315" lon="-0.10856">
        <ele>1400.812</ele>
        <time>2012-06-24T09:39:52Z</time>
      </trkpt>
      <trkpt lat="42.9631" lon="-0.10879">
        <ele>1402.823</ele>
        <time>2012-06-24T09:40:00Z</time>
      </trkpt>
      <trkpt lat="42.96305" lon="-0.10895">
        <ele>1404.533</ele>
        <time>2012-06-24T09:40:06Z</time>
      </trkpt>
      <trkpt lat="42.96296" lon="-0.1092">
        <ele>1406.822</ele>
        <time>2012-06-24T09:40:15Z</time>
      </trkpt>
      <trkpt lat="42.96287" lon="-0.10945">
        <ele>1409.212</ele>
        <time>2012-06-24T09:40:24Z</time>
      </trkpt>
      <trkpt lat="42.96273" lon="-0.10973">
        <ele>1411.291</ele>
        <time>2012-06-24T09:40:35Z</time>
      </trkpt>
      <trkpt lat="42.96266" lon="-0.1099">
        <ele>1412.592</ele>
        <time>2012-06-24T09:40:42Z</time>
      </trkpt>
      <trkpt lat="42.96263" lon="-0.1101">
        <ele>1414.252</ele>
        <time>2012-06-24T09:40:50Z</time>
      </trkpt>
      <trkpt lat="42.96265" lon="-0.11033">
        <ele>1415.342</ele>
        <time>2012-06-24T09:40:58Z</time>
      </trkpt>
      <trkpt lat="42.96274" lon="-0.11063">
        <ele>1416.512</ele>
        <time>2012-06-24T09:41:08Z</time>
      </trkpt>
      <trkpt lat="42.96284" lon="-0.11096">
        <ele>1418.762</ele>
        <time>2012-06-24T09:41:19Z</time>
      </trkpt>
      <trkpt lat="42.96294" lon="-0.11117">
        <ele>1420.191</ele>
        <time>2012-06-24T09:41:27Z</time>
      </trkpt>
      <trkpt lat="42.96301" lon="-0.11133">
        <ele>1421.331</ele>
        <time>2012-06-24T09:41:33Z</time>
      </trkpt>
      <trkpt lat="42.96314" lon="-0.11154">
        <ele>1422.941</ele>
        <time>2012-06-24T09:41:42Z</time>
      </trkpt>
      <trkpt lat="42.96322" lon="-0.11168">
        <ele>1424.221</ele>
        <time>2012-06-24T09:41:48Z</time>
      </trkpt>
      <trkpt lat="42.96332" lon="-0.11191">
        <ele>1425.601</ele>
        <time>2012-06-24T09:41:57Z</time>
      </trkpt>
      <trkpt lat="42.96342" lon="-0.11211">
        <ele>1426.771</ele>
        <time>2012-06-24T09:42:05Z</time>
      </trkpt>
      <trkpt lat="42.96351" lon="-0.11229">
        <ele>1427.851</ele>
        <time>2012-06-24T09:42:12Z</time>
      </trkpt>
      <trkpt lat="42.96364" lon="-0.11245">
        <ele>1429.011</ele>
        <time>2012-06-24T09:42:20Z</time>
      </trkpt>
      <trkpt lat="42.96377" lon="-0.1125">
        <ele>1430.471</ele>
        <time>2012-06-24T09:42:27Z</time>
      </trkpt>
      <trkpt lat="42.96393" lon="-0.11251">
        <ele>1432.201</ele>
        <time>2012-06-24T09:42:35Z</time>
      </trkpt>
      <trkpt lat="42.96405" lon="-0.11261">
        <ele>1433.401</ele>
        <time>2012-06-24T09:42:42Z</time>
      </trkpt>
      <trkpt lat="42.96415" lon="-0.11272">
        <ele>1434.096</ele>
        <time>2012-06-24T09:42:48Z</time>
      </trkpt>
      <trkpt lat="42.9643" lon="-0.11286">
        <ele>1435.271</ele>
        <time>2012-06-24T09:42:56Z</time>
      </trkpt>
      <trkpt lat="42.96439" lon="-0.11296">
        <ele>1436.121</ele>
        <time>2012-06-24T09:43:01Z</time>
      </trkpt>
      <trkpt lat="42.96448" lon="-0.11311">
        <ele>1437.411</ele>
        <time>2012-06-24T09:43:07Z</time>
      </trkpt>
      <trkpt lat="42.96461" lon="-0.1133">
        <ele>1438.991</ele>
        <time>2012-06-24T09:43:16Z</time>
      </trkpt>
      <trkpt lat="42.96475" lon="-0.11348">
        <ele>1440.861</ele>
        <time>2012-06-24T09:43:27Z</time>
      </trkpt>
      <trkpt lat="42.96489" lon="-0.11363">
        <ele>1442.321</ele>
        <time>2012-06-24T09:43:37Z</time>
      </trkpt>
      <trkpt lat="42.96495" lon="-0.11371">
        <ele>1443.001</ele>
        <time>2012-06-24T09:43:42Z</time>
      </trkpt>
      <trkpt lat="42.96505" lon="-0.11385">
        <ele>1444.291</ele>
        <time>2012-06-24T09:43:51Z</time>
      </trkpt>
      <trkpt lat="42.96516" lon="-0.11395">
        <ele>1445.331</ele>
        <time>2012-06-24T09:43:59Z</time>
      </trkpt>
      <trkpt lat="42.96527" lon="-0.1141">
        <ele>1446.321</ele>
        <time>2012-06-24T09:44:07Z</time>
      </trkpt>
      <trkpt lat="42.96538" lon="-0.11423">
        <ele>1447.281</ele>
        <time>2012-06-24T09:44:14Z</time>
      </trkpt>
      <trkpt lat="42.96553" lon="-0.11441">
        <ele>1448.831</ele>
        <time>2012-06-24T09:44:23Z</time>
      </trkpt>
      <trkpt lat="42.96569" lon="-0.11461">
        <ele>1450.421</ele>
        <time>2012-06-24T09:44:32Z</time>
      </trkpt>
      <trkpt lat="42.96581" lon="-0.11475">
        <ele>1451.041</ele>
        <time>2012-06-24T09:44:38Z</time>
      </trkpt>
      <trkpt lat="42.96595" lon="-0.11494">
        <ele>1451.471</ele>
        <time>2012-06-24T09:44:45Z</time>
      </trkpt>
      <trkpt lat="42.96602" lon="-0.11514">
        <ele>1451.771</ele>
        <time>2012-06-24T09:44:51Z</time>
      </trkpt>
      <trkpt lat="42.96602" lon="-0.11518">
        <ele>1452.011</ele>
        <time>2012-06-24T09:44:52Z</time>
      </trkpt>
      <trkpt lat="42.96592" lon="-0.11526">
        <ele>1453.001</ele>
        <time>2012-06-24T09:44:56Z</time>
      </trkpt>
      <trkpt lat="42.96587" lon="-0.11523">
        <ele>1453.452</ele>
        <time>2012-06-24T09:44:58Z</time>
      </trkpt>
      <trkpt lat="42.96561" lon="-0.11498">
        <ele>1455.371</ele>
        <time>2012-06-24T09:45:08Z</time>
      </trkpt>
      <trkpt lat="42.96543" lon="-0.11486">
        <ele>1456.541</ele>
        <time>2012-06-24T09:45:14Z</time>
      </trkpt>
      <trkpt lat="42.96524" lon="-0.11472">
        <ele>1457.981</ele>
        <time>2012-06-24T09:45:21Z</time>
      </trkpt>
      <trkpt lat="42.965" lon="-0.11456">
        <ele>1459.581</ele>
        <time>2012-06-24T09:45:30Z</time>
      </trkpt>
      <trkpt lat="42.96489" lon="-0.11448">
        <ele>1460.361</ele>
        <time>2012-06-24T09:45:36Z</time>
      </trkpt>
      <trkpt lat="42.96476" lon="-0.11439">
        <ele>1461.201</ele>
        <time>2012-06-24T09:45:42Z</time>
      </trkpt>
      <trkpt lat="42.96461" lon="-0.11426">
        <ele>1462.101</ele>
        <time>2012-06-24T09:45:49Z</time>
      </trkpt>
      <trkpt lat="42.96451" lon="-0.11418">
        <ele>1462.611</ele>
        <time>2012-06-24T09:45:54Z</time>
      </trkpt>
      <trkpt lat="42.96435" lon="-0.11413">
        <ele>1463.962</ele>
        <time>2012-06-24T09:46:00Z</time>
      </trkpt>
      <trkpt lat="42.9642" lon="-0.11414">
        <ele>1464.03</ele>
        <time>2012-06-24T09:46:06Z</time>
      </trkpt>
      <trkpt lat="42.96405" lon="-0.1142">
        <ele>1464.401</ele>
        <time>2012-06-24T09:46:11Z</time>
      </trkpt>
      <trkpt lat="42.96381" lon="-0.11429">
        <ele>1465.421</ele>
        <time>2012-06-24T09:46:19Z</time>
      </trkpt>
      <trkpt lat="42.96362" lon="-0.11436">
        <ele>1465.84</ele>
        <time>2012-06-24T09:46:26Z</time>
      </trkpt>
      <trkpt lat="42.96337" lon="-0.11438">
        <ele>1466.26</ele>
        <time>2012-06-24T09:46:34Z</time>
      </trkpt>
      <trkpt lat="42.96307" lon="-0.11442">
        <ele>1467.19</ele>
        <time>2012-06-24T09:46:43Z</time>
      </trkpt>
      <trkpt lat="42.96271" lon="-0.11447">
        <ele>1468.69</ele>
        <time>2012-06-24T09:46:54Z</time>
      </trkpt>
      <trkpt lat="42.96243" lon="-0.1145">
        <ele>1470.16</ele>
        <time>2012-06-24T09:47:05Z</time>
      </trkpt>
      <trkpt lat="42.96228" lon="-0.11454">
        <ele>1470.8</ele>
        <time>2012-06-24T09:47:12Z</time>
      </trkpt>
      <trkpt lat="42.96219" lon="-0.11458">
        <ele>1471.67</ele>
        <time>2012-06-24T09:47:17Z</time>
      </trkpt>
      <trkpt lat="42.96204" lon="-0.11468">
        <ele>1473.32</ele>
        <time>2012-06-24T09:47:25Z</time>
      </trkpt>
      <trkpt lat="42.96193" lon="-0.11477">
        <ele>1474.82</ele>
        <time>2012-06-24T09:47:31Z</time>
      </trkpt>
      <trkpt lat="42.96177" lon="-0.11492">
        <ele>1476.67</ele>
        <time>2012-06-24T09:47:40Z</time>
      </trkpt>
      <trkpt lat="42.96159" lon="-0.11509">
        <ele>1478.239</ele>
        <time>2012-06-24T09:47:50Z</time>
      </trkpt>
      <trkpt lat="42.96142" lon="-0.11528">
        <ele>1479.509</ele>
        <time>2012-06-24T09:48:00Z</time>
      </trkpt>
      <trkpt lat="42.96125" lon="-0.11549">
        <ele>1481.32</ele>
        <time>2012-06-24T09:48:10Z</time>
      </trkpt>
      <trkpt lat="42.96114" lon="-0.11566">
        <ele>1483.3</ele>
        <time>2012-06-24T09:48:17Z</time>
      </trkpt>
      <trkpt lat="42.96102" lon="-0.11585">
        <ele>1484.889</ele>
        <time>2012-06-24T09:48:25Z</time>
      </trkpt>
      <trkpt lat="42.96094" lon="-0.11595">
        <ele>1486.009</ele>
        <time>2012-06-24T09:48:31Z</time>
      </trkpt>
      <trkpt lat="42.96083" lon="-0.11609">
        <ele>1487.369</ele>
        <time>2012-06-24T09:48:39Z</time>
      </trkpt>
      <trkpt lat="42.96068" lon="-0.11626">
        <ele>1488.818</ele>
        <time>2012-06-24T09:48:48Z</time>
      </trkpt>
      <trkpt lat="42.96057" lon="-0.11637">
        <ele>1490.078</ele>
        <time>2012-06-24T09:48:55Z</time>
      </trkpt>
      <trkpt lat="42.96048" lon="-0.11646">
        <ele>1491.068</ele>
        <time>2012-06-24T09:49:02Z</time>
      </trkpt>
      <trkpt lat="42.96035" lon="-0.11663">
        <ele>1492.028</ele>
        <time>2012-06-24T09:49:13Z</time>
      </trkpt>
      <trkpt lat="42.96028" lon="-0.11677">
        <ele>1492.728</ele>
        <time>2012-06-24T09:49:20Z</time>
      </trkpt>
      <trkpt lat="42.96017" lon="-0.11698">
        <ele>1494.068</ele>
        <time>2012-06-24T09:49:31Z</time>
      </trkpt>
      <trkpt lat="42.96006" lon="-0.11712">
        <ele>1495.508</ele>
        <time>2012-06-24T09:49:40Z</time>
      </trkpt>
      <trkpt lat="42.95997" lon="-0.11713">
        <ele>1496.498</ele>
        <time>2012-06-24T09:49:45Z</time>
      </trkpt>
      <trkpt lat="42.95994" lon="-0.11703">
        <ele>1497.318</ele>
        <time>2012-06-24T09:49:50Z</time>
      </trkpt>
      <trkpt lat="42.96" lon="-0.1168">
        <ele>1498.347</ele>
        <time>2012-06-24T09:49:59Z</time>
      </trkpt>
      <trkpt lat="42.9601" lon="-0.11652">
        <ele>1499.368</ele>
        <time>2012-06-24T09:50:09Z</time>
      </trkpt>
      <trkpt lat="42.96015" lon="-0.11622">
        <ele>1501.028</ele>
        <time>2012-06-24T09:50:19Z</time>
      </trkpt>
      <trkpt lat="42.96016" lon="-0.11597">
        <ele>1502.729</ele>
        <time>2012-06-24T09:50:28Z</time>
      </trkpt>
      <trkpt lat="42.96017" lon="-0.11575">
        <ele>1504.058</ele>
        <time>2012-06-24T09:50:37Z</time>
      </trkpt>
      <trkpt lat="42.96017" lon="-0.11558">
        <ele>1504.868</ele>
        <time>2012-06-24T09:50:45Z</time>
      </trkpt>
      <trkpt lat="42.96016" lon="-0.1154">
        <ele>1505.768</ele>
        <time>2012-06-24T09:50:53Z</time>
      </trkpt>
      <trkpt lat="42.96012" lon="-0.11525">
        <ele>1506.698</ele>
        <time>2012-06-24T09:51:01Z</time>
      </trkpt>
      <trkpt lat="42.96008" lon="-0.11506">
        <ele>1507.728</ele>
        <time>2012-06-24T09:51:11Z</time>
      </trkpt>
      <trkpt lat="42.96004" lon="-0.11493">
        <ele>1508.899</ele>
        <time>2012-06-24T09:51:18Z</time>
      </trkpt>
      <trkpt lat="42.95996" lon="-0.11478">
        <ele>1510.729</ele>
        <time>2012-06-24T09:51:26Z</time>
      </trkpt>
      <trkpt lat="42.95988" lon="-0.11469">
        <ele>1512.029</ele>
        <time>2012-06-24T09:51:33Z</time>
      </trkpt>
      <trkpt lat="42.95978" lon="-0.11458">
        <ele>1513.079</ele>
        <time>2012-06-24T09:51:41Z</time>
      </trkpt>
      <trkpt lat="42.95965" lon="-0.11448">
        <ele>1514.469</ele>
        <time>2012-06-24T09:51:50Z</time>
      </trkpt>
      <trkpt lat="42.95951" lon="-0.1144">
        <ele>1515.75</ele>
        <time>2012-06-24T09:51:59Z</time>
      </trkpt>
      <trkpt lat="42.95935" lon="-0.1144">
        <ele>1515.798</ele>
        <time>2012-06-24T09:52:07Z</time>
      </trkpt>
      <trkpt lat="42.9592" lon="-0.11446">
        <ele>1516.178</ele>
        <time>2012-06-24T09:52:14Z</time>
      </trkpt>
      <trkpt lat="42.95906" lon="-0.11449">
        <ele>1516.598</ele>
        <time>2012-06-24T09:52:21Z</time>
      </trkpt>
      <trkpt lat="42.95891" lon="-0.11456">
        <ele>1517.588</ele>
        <time>2012-06-24T09:52:28Z</time>
      </trkpt>
      <trkpt lat="42.95884" lon="-0.11466">
        <ele>1518.018</ele>
        <time>2012-06-24T09:52:32Z</time>
      </trkpt>
      <trkpt lat="42.95873" lon="-0.1149">
        <ele>1518.858</ele>
        <time>2012-06-24T09:52:39Z</time>
      </trkpt>
      <trkpt lat="42.95865" lon="-0.11519">
        <ele>1520.078</ele>
        <time>2012-06-24T09:52:47Z</time>
      </trkpt>
      <trkpt lat="42.95865" lon="-0.11545">
        <ele>1521.468</ele>
        <time>2012-06-24T09:52:54Z</time>
      </trkpt>
      <trkpt lat="42.95868" lon="-0.11575">
        <ele>1523.168</ele>
        <time>2012-06-24T09:53:02Z</time>
      </trkpt>
      <trkpt lat="42.95875" lon="-0.11611">
        <ele>1524.968</ele>
        <time>2012-06-24T09:53:12Z</time>
      </trkpt>
      <trkpt lat="42.9588" lon="-0.11643">
        <ele>1526.188</ele>
        <time>2012-06-24T09:53:22Z</time>
      </trkpt>
      <trkpt lat="42.95881" lon="-0.11672">
        <ele>1527.728</ele>
        <time>2012-06-24T09:53:31Z</time>
      </trkpt>
      <trkpt lat="42.95881" lon="-0.11704">
        <ele>1529.317</ele>
        <time>2012-06-24T09:53:41Z</time>
      </trkpt>
      <trkpt lat="42.95882" lon="-0.11716">
        <ele>1530.108</ele>
        <time>2012-06-24T09:53:46Z</time>
      </trkpt>
      <trkpt lat="42.95885" lon="-0.11733">
        <ele>1531.247</ele>
        <time>2012-06-24T09:53:54Z</time>
      </trkpt>
      <trkpt lat="42.9589" lon="-0.11748">
        <ele>1532.288</ele>
        <time>2012-06-24T09:54:01Z</time>
      </trkpt>
      <trkpt lat="42.95896" lon="-0.11775">
        <ele>1533.698</ele>
        <time>2012-06-24T09:54:10Z</time>
      </trkpt>
      <trkpt lat="42.95901" lon="-0.11794">
        <ele>1535.017</ele>
        <time>2012-06-24T09:54:17Z</time>
      </trkpt>
      <trkpt lat="42.95907" lon="-0.11812">
        <ele>1536.027</ele>
        <time>2012-06-24T09:54:24Z</time>
      </trkpt>
      <trkpt lat="42.95917" lon="-0.11834">
        <ele>1537.217</ele>
        <time>2012-06-24T09:54:32Z</time>
      </trkpt>
      <trkpt lat="42.95931" lon="-0.11864">
        <ele>1538.567</ele>
        <time>2012-06-24T09:54:41Z</time>
      </trkpt>
      <trkpt lat="42.95941" lon="-0.11884">
        <ele>1539.247</ele>
        <time>2012-06-24T09:54:48Z</time>
      </trkpt>
      <trkpt lat="42.95958" lon="-0.11911">
        <ele>1540.257</ele>
        <time>2012-06-24T09:54:58Z</time>
      </trkpt>
      <trkpt lat="42.95971" lon="-0.11931">
        <ele>1540.877</ele>
        <time>2012-06-24T09:55:05Z</time>
      </trkpt>
      <trkpt lat="42.95985" lon="-0.11956">
        <ele>1541.457</ele>
        <time>2012-06-24T09:55:13Z</time>
      </trkpt>
      <trkpt lat="42.9599" lon="-0.11974">
        <ele>1541.806</ele>
        <time>2012-06-24T09:55:19Z</time>
      </trkpt>
      <trkpt lat="42.95991" lon="-0.11975">
        <ele>1541.206</ele>
        <time>2012-06-24T09:55:23Z</time>
      </trkpt>
      <trkpt lat="42.95991" lon="-0.11978">
        <ele>1544.697</ele>
        <time>2012-06-24T09:57:43Z</time>
      </trkpt>
      <trkpt lat="42.9599" lon="-0.11984">
        <ele>1544.487</ele>
        <time>2012-06-24T09:57:47Z</time>
      </trkpt>
      <trkpt lat="42.95991" lon="-0.12006">
        <ele>1544.257</ele>
        <time>2012-06-24T09:57:54Z</time>
      </trkpt>
      <trkpt lat="42.95989" lon="-0.1204">
        <ele>1544.967</ele>
        <time>2012-06-24T09:58:02Z</time>
      </trkpt>
      <trkpt lat="42.95979" lon="-0.12097">
        <ele>1546.057</ele>
        <time>2012-06-24T09:58:15Z</time>
      </trkpt>
      <trkpt lat="42.9597" lon="-0.12143">
        <ele>1546.957</ele>
        <time>2012-06-24T09:58:26Z</time>
      </trkpt>
      <trkpt lat="42.95959" lon="-0.12176">
        <ele>1547.616</ele>
        <time>2012-06-24T09:58:34Z</time>
      </trkpt>
      <trkpt lat="42.95941" lon="-0.12215">
        <ele>1548.566</ele>
        <time>2012-06-24T09:58:45Z</time>
      </trkpt>
      <trkpt lat="42.95923" lon="-0.12243">
        <ele>1549.136</ele>
        <time>2012-06-24T09:58:54Z</time>
      </trkpt>
      <trkpt lat="42.95901" lon="-0.12258">
        <ele>1549.696</ele>
        <time>2012-06-24T09:59:02Z</time>
      </trkpt>
      <trkpt lat="42.95868" lon="-0.12276">
        <ele>1550.816</ele>
        <time>2012-06-24T09:59:13Z</time>
      </trkpt>
      <trkpt lat="42.95846" lon="-0.12273">
        <ele>1551.436</ele>
        <time>2012-06-24T09:59:20Z</time>
      </trkpt>
      <trkpt lat="42.95832" lon="-0.1226">
        <ele>1551.916</ele>
        <time>2012-06-24T09:59:26Z</time>
      </trkpt>
      <trkpt lat="42.9583" lon="-0.12257">
        <ele>1551.895</ele>
        <time>2012-06-24T09:59:27Z</time>
      </trkpt>
      <trkpt lat="42.95814" lon="-0.12253">
        <ele>1551.434</ele>
        <time>2012-06-24T09:59:33Z</time>
      </trkpt>
      <trkpt lat="42.95809" lon="-0.12251">
        <ele>1551.284</ele>
        <time>2012-06-24T09:59:36Z</time>
      </trkpt>
      <trkpt lat="42.95806" lon="-0.12249">
        <ele>1551.034</ele>
        <time>2012-06-24T09:59:38Z</time>
      </trkpt>
      <trkpt lat="42.95802" lon="-0.1225">
        <ele>1550.904</ele>
        <time>2012-06-24T09:59:42Z</time>
      </trkpt>
      <trkpt lat="42.958" lon="-0.12249">
        <ele>1550.364</ele>
        <time>2012-06-24T09:59:47Z</time>
      </trkpt>
      <trkpt lat="42.95801" lon="-0.12246">
        <ele>1556.254</ele>
        <time>2012-06-24T10:13:34Z</time>
      </trkpt>
      <trkpt lat="42.95801" lon="-0.12249">
        <ele>1554.134</ele>
        <time>2012-06-24T10:13:42Z</time>
      </trkpt>
      <trkpt lat="42.95801" lon="-0.12253">
        <ele>1552.374</ele>
        <time>2012-06-24T10:13:53Z</time>
      </trkpt>
      <trkpt lat="42.95801" lon="-0.12259">
        <ele>1551.874</ele>
        <time>2012-06-24T10:13:57Z</time>
      </trkpt>
      <trkpt lat="42.95801" lon="-0.12266">
        <ele>1551.365</ele>
        <time>2012-06-24T10:14:00Z</time>
      </trkpt>
      <trkpt lat="42.95802" lon="-0.12275">
        <ele>1550.694</ele>
        <time>2012-06-24T10:14:04Z</time>
      </trkpt>
      <trkpt lat="42.95809" lon="-0.12286">
        <ele>1549.714</ele>
        <time>2012-06-24T10:14:10Z</time>
      </trkpt>
      <trkpt lat="42.95809" lon="-0.12297">
        <ele>1549.335</ele>
        <time>2012-06-24T10:14:15Z</time>
      </trkpt>
      <trkpt lat="42.95806" lon="-0.1231">
        <ele>1549.855</ele>
        <time>2012-06-24T10:14:22Z</time>
      </trkpt>
      <trkpt lat="42.95801" lon="-0.12325">
        <ele>1550.805</ele>
        <time>2012-06-24T10:14:29Z</time>
      </trkpt>
      <trkpt lat="42.95797" lon="-0.12344">
        <ele>1552.135</ele>
        <time>2012-06-24T10:14:40Z</time>
      </trkpt>
      <trkpt lat="42.95792" lon="-0.12356">
        <ele>1553.265</ele>
        <time>2012-06-24T10:14:49Z</time>
      </trkpt>
      <trkpt lat="42.95784" lon="-0.12368">
        <ele>1554.835</ele>
        <time>2012-06-24T10:15:00Z</time>
      </trkpt>
      <trkpt lat="42.95778" lon="-0.1238">
        <ele>1556.715</ele>
        <time>2012-06-24T10:15:10Z</time>
      </trkpt>
      <trkpt lat="42.95771" lon="-0.12391">
        <ele>1558.755</ele>
        <time>2012-06-24T10:15:20Z</time>
      </trkpt>
      <trkpt lat="42.95767" lon="-0.12401">
        <ele>1560.485</ele>
        <time>2012-06-24T10:15:28Z</time>
      </trkpt>
      <trkpt lat="42.95765" lon="-0.12412">
        <ele>1562.206</ele>
        <time>2012-06-24T10:15:37Z</time>
      </trkpt>
      <trkpt lat="42.95765" lon="-0.12416">
        <ele>1562.945</ele>
        <time>2012-06-24T10:15:41Z</time>
      </trkpt>
      <trkpt lat="42.95765" lon="-0.1243">
        <ele>1565.295</ele>
        <time>2012-06-24T10:15:53Z</time>
      </trkpt>
      <trkpt lat="42.95764" lon="-0.1244">
        <ele>1567.225</ele>
        <time>2012-06-24T10:16:03Z</time>
      </trkpt>
      <trkpt lat="42.95764" lon="-0.12447">
        <ele>1568.164</ele>
        <time>2012-06-24T10:16:10Z</time>
      </trkpt>
      <trkpt lat="42.95763" lon="-0.12455">
        <ele>1569.815</ele>
        <time>2012-06-24T10:16:19Z</time>
      </trkpt>
      <trkpt lat="42.95763" lon="-0.12462">
        <ele>1570.925</ele>
        <time>2012-06-24T10:16:27Z</time>
      </trkpt>
      <trkpt lat="42.95761" lon="-0.1247">
        <ele>1572.685</ele>
        <time>2012-06-24T10:16:36Z</time>
      </trkpt>
      <trkpt lat="42.95758" lon="-0.12477">
        <ele>1574.435</ele>
        <time>2012-06-24T10:16:46Z</time>
      </trkpt>
      <trkpt lat="42.95755" lon="-0.12487">
        <ele>1576.195</ele>
        <time>2012-06-24T10:16:55Z</time>
      </trkpt>
      <trkpt lat="42.95751" lon="-0.12498">
        <ele>1578.245</ele>
        <time>2012-06-24T10:17:05Z</time>
      </trkpt>
      <trkpt lat="42.95749" lon="-0.12506">
        <ele>1580.525</ele>
        <time>2012-06-24T10:17:14Z</time>
      </trkpt>
      <trkpt lat="42.95746" lon="-0.12518">
        <ele>1583.285</ele>
        <time>2012-06-24T10:17:25Z</time>
      </trkpt>
      <trkpt lat="42.95744" lon="-0.12526">
        <ele>1585.395</ele>
        <time>2012-06-24T10:17:33Z</time>
      </trkpt>
      <trkpt lat="42.95742" lon="-0.12535">
        <ele>1587.215</ele>
        <time>2012-06-24T10:17:43Z</time>
      </trkpt>
      <trkpt lat="42.9574" lon="-0.12544">
        <ele>1589.104</ele>
        <time>2012-06-24T10:17:52Z</time>
      </trkpt>
      <trkpt lat="42.95739" lon="-0.12551">
        <ele>1590.245</ele>
        <time>2012-06-24T10:17:58Z</time>
      </trkpt>
      <trkpt lat="42.95733" lon="-0.12567">
        <ele>1591.574</ele>
        <time>2012-06-24T10:18:11Z</time>
      </trkpt>
      <trkpt lat="42.95728" lon="-0.12579">
        <ele>1592.744</ele>
        <time>2012-06-24T10:18:21Z</time>
      </trkpt>
      <trkpt lat="42.95724" lon="-0.12588">
        <ele>1593.844</ele>
        <time>2012-06-24T10:18:29Z</time>
      </trkpt>
      <trkpt lat="42.95717" lon="-0.126">
        <ele>1595.654</ele>
        <time>2012-06-24T10:18:41Z</time>
      </trkpt>
      <trkpt lat="42.95711" lon="-0.12611">
        <ele>1597.894</ele>
        <time>2012-06-24T10:18:53Z</time>
      </trkpt>
      <trkpt lat="42.95707" lon="-0.12618">
        <ele>1599.704</ele>
        <time>2012-06-24T10:19:02Z</time>
      </trkpt>
      <trkpt lat="42.95703" lon="-0.12625">
        <ele>1601.274</ele>
        <time>2012-06-24T10:19:10Z</time>
      </trkpt>
      <trkpt lat="42.957" lon="-0.12633">
        <ele>1603.064</ele>
        <time>2012-06-24T10:19:19Z</time>
      </trkpt>
      <trkpt lat="42.95694" lon="-0.12643">
        <ele>1604.794</ele>
        <time>2012-06-24T10:19:31Z</time>
      </trkpt>
      <trkpt lat="42.9569" lon="-0.12652">
        <ele>1606.694</ele>
        <time>2012-06-24T10:19:41Z</time>
      </trkpt>
      <trkpt lat="42.95686" lon="-0.1266">
        <ele>1609.114</ele>
        <time>2012-06-24T10:19:52Z</time>
      </trkpt>
      <trkpt lat="42.95682" lon="-0.12669">
        <ele>1611.184</ele>
        <time>2012-06-24T10:20:02Z</time>
      </trkpt>
      <trkpt lat="42.95678" lon="-0.12676">
        <ele>1612.914</ele>
        <time>2012-06-24T10:20:11Z</time>
      </trkpt>
      <trkpt lat="42.95672" lon="-0.12686">
        <ele>1614.874</ele>
        <time>2012-06-24T10:20:22Z</time>
      </trkpt>
      <trkpt lat="42.9567" lon="-0.12691">
        <ele>1616.273</ele>
        <time>2012-06-24T10:20:29Z</time>
      </trkpt>
      <trkpt lat="42.95666" lon="-0.12698">
        <ele>1617.143</ele>
        <time>2012-06-24T10:20:37Z</time>
      </trkpt>
      <trkpt lat="42.95662" lon="-0.12707">
        <ele>1619.033</ele>
        <time>2012-06-24T10:20:46Z</time>
      </trkpt>
      <trkpt lat="42.95657" lon="-0.12717">
        <ele>1620.613</ele>
        <time>2012-06-24T10:20:56Z</time>
      </trkpt>
      <trkpt lat="42.95652" lon="-0.12727">
        <ele>1621.983</ele>
        <time>2012-06-24T10:21:06Z</time>
      </trkpt>
      <trkpt lat="42.95648" lon="-0.12735">
        <ele>1623.203</ele>
        <time>2012-06-24T10:21:14Z</time>
      </trkpt>
      <trkpt lat="42.95642" lon="-0.12744">
        <ele>1625.053</ele>
        <time>2012-06-24T10:21:24Z</time>
      </trkpt>
      <trkpt lat="42.95638" lon="-0.12752">
        <ele>1626.844</ele>
        <time>2012-06-24T10:21:32Z</time>
      </trkpt>
      <trkpt lat="42.95634" lon="-0.12759">
        <ele>1628.493</ele>
        <time>2012-06-24T10:21:40Z</time>
      </trkpt>
      <trkpt lat="42.95629" lon="-0.12768">
        <ele>1629.803</ele>
        <time>2012-06-24T10:21:50Z</time>
      </trkpt>
      <trkpt lat="42.95625" lon="-0.12778">
        <ele>1631.753</ele>
        <time>2012-06-24T10:22:00Z</time>
      </trkpt>
      <trkpt lat="42.95621" lon="-0.12788">
        <ele>1633.363</ele>
        <time>2012-06-24T10:22:10Z</time>
      </trkpt>
      <trkpt lat="42.95618" lon="-0.12795">
        <ele>1634.463</ele>
        <time>2012-06-24T10:22:17Z</time>
      </trkpt>
      <trkpt lat="42.95615" lon="-0.12802">
        <ele>1635.678</ele>
        <time>2012-06-24T10:22:24Z</time>
      </trkpt>
      <trkpt lat="42.9561" lon="-0.12816">
        <ele>1637.573</ele>
        <time>2012-06-24T10:22:36Z</time>
      </trkpt>
      <trkpt lat="42.95605" lon="-0.12828">
        <ele>1638.663</ele>
        <time>2012-06-24T10:22:46Z</time>
      </trkpt>
      <trkpt lat="42.956" lon="-0.12838">
        <ele>1639.023</ele>
        <time>2012-06-24T10:22:55Z</time>
      </trkpt>
      <trkpt lat="42.95595" lon="-0.12847">
        <ele>1640.073</ele>
        <time>2012-06-24T10:23:04Z</time>
      </trkpt>
      <trkpt lat="42.95589" lon="-0.12856">
        <ele>1641.743</ele>
        <time>2012-06-24T10:23:14Z</time>
      </trkpt>
      <trkpt lat="42.95584" lon="-0.12864">
        <ele>1642.993</ele>
        <time>2012-06-24T10:23:23Z</time>
      </trkpt>
      <trkpt lat="42.95578" lon="-0.12877">
        <ele>1644.282</ele>
        <time>2012-06-24T10:23:35Z</time>
      </trkpt>
      <trkpt lat="42.95574" lon="-0.12889">
        <ele>1646.152</ele>
        <time>2012-06-24T10:23:45Z</time>
      </trkpt>
      <trkpt lat="42.95572" lon="-0.129">
        <ele>1647.973</ele>
        <time>2012-06-24T10:23:55Z</time>
      </trkpt>
      <trkpt lat="42.9557" lon="-0.12909">
        <ele>1649.353</ele>
        <time>2012-06-24T10:24:03Z</time>
      </trkpt>
      <trkpt lat="42.95567" lon="-0.12919">
        <ele>1651.032</ele>
        <time>2012-06-24T10:24:12Z</time>
      </trkpt>
      <trkpt lat="42.95562" lon="-0.1293">
        <ele>1652.713</ele>
        <time>2012-06-24T10:24:22Z</time>
      </trkpt>
      <trkpt lat="42.95558" lon="-0.12939">
        <ele>1654.062</ele>
        <time>2012-06-24T10:24:31Z</time>
      </trkpt>
      <trkpt lat="42.95553" lon="-0.12952">
        <ele>1655.852</ele>
        <time>2012-06-24T10:24:42Z</time>
      </trkpt>
      <trkpt lat="42.9555" lon="-0.1296">
        <ele>1657.152</ele>
        <time>2012-06-24T10:24:50Z</time>
      </trkpt>
      <trkpt lat="42.95547" lon="-0.12969">
        <ele>1658.873</ele>
        <time>2012-06-24T10:24:59Z</time>
      </trkpt>
      <trkpt lat="42.95541" lon="-0.1298">
        <ele>1660.092</ele>
        <time>2012-06-24T10:25:09Z</time>
      </trkpt>
      <trkpt lat="42.95536" lon="-0.12989">
        <ele>1661.193</ele>
        <time>2012-06-24T10:25:19Z</time>
      </trkpt>
      <trkpt lat="42.95533" lon="-0.12998">
        <ele>1663.402</ele>
        <time>2012-06-24T10:25:28Z</time>
      </trkpt>
      <trkpt lat="42.9553" lon="-0.13006">
        <ele>1665.862</ele>
        <time>2012-06-24T10:25:38Z</time>
      </trkpt>
      <trkpt lat="42.95524" lon="-0.13015">
        <ele>1667.572</ele>
        <time>2012-06-24T10:25:50Z</time>
      </trkpt>
      <trkpt lat="42.95521" lon="-0.1302">
        <ele>1668.902</ele>
        <time>2012-06-24T10:25:57Z</time>
      </trkpt>
      <trkpt lat="42.95518" lon="-0.13026">
        <ele>1671.382</ele>
        <time>2012-06-24T10:26:07Z</time>
      </trkpt>
      <trkpt lat="42.95515" lon="-0.13034">
        <ele>1673.782</ele>
        <time>2012-06-24T10:26:17Z</time>
      </trkpt>
      <trkpt lat="42.95512" lon="-0.1304">
        <ele>1675.522</ele>
        <time>2012-06-24T10:26:25Z</time>
      </trkpt>
      <trkpt lat="42.95508" lon="-0.13047">
        <ele>1677.662</ele>
        <time>2012-06-24T10:26:35Z</time>
      </trkpt>
      <trkpt lat="42.95504" lon="-0.13054">
        <ele>1679.202</ele>
        <time>2012-06-24T10:26:44Z</time>
      </trkpt>
      <trkpt lat="42.95497" lon="-0.13061">
        <ele>1680.472</ele>
        <time>2012-06-24T10:26:55Z</time>
      </trkpt>
      <trkpt lat="42.9549" lon="-0.1307">
        <ele>1680.682</ele>
        <time>2012-06-24T10:27:07Z</time>
      </trkpt>
      <trkpt lat="42.95484" lon="-0.13077">
        <ele>1680.392</ele>
        <time>2012-06-24T10:27:16Z</time>
      </trkpt>
      <trkpt lat="42.95477" lon="-0.13086">
        <ele>1680.792</ele>
        <time>2012-06-24T10:27:27Z</time>
      </trkpt>
      <trkpt lat="42.95472" lon="-0.13093">
        <ele>1681.472</ele>
        <time>2012-06-24T10:27:37Z</time>
      </trkpt>
      <trkpt lat="42.95466" lon="-0.13101">
        <ele>1682.542</ele>
        <time>2012-06-24T10:27:47Z</time>
      </trkpt>
      <trkpt lat="42.95462" lon="-0.13109">
        <ele>1683.672</ele>
        <time>2012-06-24T10:27:58Z</time>
      </trkpt>
      <trkpt lat="42.95458" lon="-0.13118">
        <ele>1685.081</ele>
        <time>2012-06-24T10:28:08Z</time>
      </trkpt>
      <trkpt lat="42.95453" lon="-0.13126">
        <ele>1686.391</ele>
        <time>2012-06-24T10:28:18Z</time>
      </trkpt>
      <trkpt lat="42.95449" lon="-0.13132">
        <ele>1687.652</ele>
        <time>2012-06-24T10:28:26Z</time>
      </trkpt>
      <trkpt lat="42.95443" lon="-0.13139">
        <ele>1689.561</ele>
        <time>2012-06-24T10:28:37Z</time>
      </trkpt>
      <trkpt lat="42.95439" lon="-0.13145">
        <ele>1691.161</ele>
        <time>2012-06-24T10:28:46Z</time>
      </trkpt>
      <trkpt lat="42.95434" lon="-0.13151">
        <ele>1692.241</ele>
        <time>2012-06-24T10:28:56Z</time>
      </trkpt>
      <trkpt lat="42.95432" lon="-0.13154">
        <ele>1692.11</ele>
        <time>2012-06-24T10:29:02Z</time>
      </trkpt>
      <trkpt lat="42.95429" lon="-0.13157">
        <ele>1691.931</ele>
        <time>2012-06-24T10:30:24Z</time>
      </trkpt>
      <trkpt lat="42.95423" lon="-0.13166">
        <ele>1693.731</ele>
        <time>2012-06-24T10:30:33Z</time>
      </trkpt>
      <trkpt lat="42.95416" lon="-0.13178">
        <ele>1696.001</ele>
        <time>2012-06-24T10:30:45Z</time>
      </trkpt>
      <trkpt lat="42.95411" lon="-0.13187">
        <ele>1697.801</ele>
        <time>2012-06-24T10:30:55Z</time>
      </trkpt>
      <trkpt lat="42.95406" lon="-0.13192">
        <ele>1699.151</ele>
        <time>2012-06-24T10:31:03Z</time>
      </trkpt>
      <trkpt lat="42.95401" lon="-0.13201">
        <ele>1700.321</ele>
        <time>2012-06-24T10:31:13Z</time>
      </trkpt>
      <trkpt lat="42.95395" lon="-0.13209">
        <ele>1701.781</ele>
        <time>2012-06-24T10:31:23Z</time>
      </trkpt>
      <trkpt lat="42.9539" lon="-0.13217">
        <ele>1702.691</ele>
        <time>2012-06-24T10:31:32Z</time>
      </trkpt>
      <trkpt lat="42.95383" lon="-0.13225">
        <ele>1703.461</ele>
        <time>2012-06-24T10:31:41Z</time>
      </trkpt>
      <trkpt lat="42.95377" lon="-0.13233">
        <ele>1704.411</ele>
        <time>2012-06-24T10:31:50Z</time>
      </trkpt>
      <trkpt lat="42.95371" lon="-0.1324">
        <ele>1705.702</ele>
        <time>2012-06-24T10:31:59Z</time>
      </trkpt>
      <trkpt lat="42.95367" lon="-0.13248">
        <ele>1708.91</ele>
        <time>2012-06-24T10:32:08Z</time>
      </trkpt>
      <trkpt lat="42.95362" lon="-0.1326">
        <ele>1711.78</ele>
        <time>2012-06-24T10:32:19Z</time>
      </trkpt>
      <trkpt lat="42.9536" lon="-0.13269">
        <ele>1713.15</ele>
        <time>2012-06-24T10:32:27Z</time>
      </trkpt>
      <trkpt lat="42.95358" lon="-0.13276">
        <ele>1714.09</ele>
        <time>2012-06-24T10:32:33Z</time>
      </trkpt>
      <trkpt lat="42.95355" lon="-0.13287">
        <ele>1715.32</ele>
        <time>2012-06-24T10:32:42Z</time>
      </trkpt>
      <trkpt lat="42.95351" lon="-0.13298">
        <ele>1716.821</ele>
        <time>2012-06-24T10:32:51Z</time>
      </trkpt>
      <trkpt lat="42.9535" lon="-0.13305">
        <ele>1718.74</ele>
        <time>2012-06-24T10:33:16Z</time>
      </trkpt>
      <trkpt lat="42.95345" lon="-0.13316">
        <ele>1719.58</ele>
        <time>2012-06-24T10:33:24Z</time>
      </trkpt>
      <trkpt lat="42.9534" lon="-0.13321">
        <ele>1720.389</ele>
        <time>2012-06-24T10:33:32Z</time>
      </trkpt>
      <trkpt lat="42.95339" lon="-0.13321">
        <ele>1721.59</ele>
        <time>2012-06-24T10:33:57Z</time>
      </trkpt>
      <trkpt lat="42.95333" lon="-0.13329">
        <ele>1721.91</ele>
        <time>2012-06-24T10:34:05Z</time>
      </trkpt>
      <trkpt lat="42.95329" lon="-0.13333">
        <ele>1722.309</ele>
        <time>2012-06-24T10:34:12Z</time>
      </trkpt>
      <trkpt lat="42.95325" lon="-0.13336">
        <ele>1723.509</ele>
        <time>2012-06-24T10:34:25Z</time>
      </trkpt>
      <trkpt lat="42.95318" lon="-0.1334">
        <ele>1722.918</ele>
        <time>2012-06-24T10:34:33Z</time>
      </trkpt>
      <trkpt lat="42.95318" lon="-0.1334">
        <ele>1722.149</ele>
        <time>2012-06-24T10:34:43Z</time>
      </trkpt>
      <trkpt lat="42.95317" lon="-0.13339">
        <ele>1726.049</ele>
        <time>2012-06-24T10:38:32Z</time>
      </trkpt>
      <trkpt lat="42.95315" lon="-0.13338">
        <ele>1723.949</ele>
        <time>2012-06-24T10:39:50Z</time>
      </trkpt>
      <trkpt lat="42.95315" lon="-0.13337">
        <ele>1724.339</ele>
        <time>2012-06-24T10:45:15Z</time>
      </trkpt>
      <trkpt lat="42.95315" lon="-0.13334">
        <ele>1724.55</ele>
        <time>2012-06-24T10:45:25Z</time>
      </trkpt>
      <trkpt lat="42.95314" lon="-0.13331">
        <ele>1724.819</ele>
        <time>2012-06-24T10:45:32Z</time>
      </trkpt>
      <trkpt lat="42.9531" lon="-0.13331">
        <ele>1724.639</ele>
        <time>2012-06-24T10:45:36Z</time>
      </trkpt>
      <trkpt lat="42.95306" lon="-0.13324">
        <ele>1724.569</ele>
        <time>2012-06-24T10:45:43Z</time>
      </trkpt>
      <trkpt lat="42.95303" lon="-0.13314">
        <ele>1724.508</ele>
        <time>2012-06-24T10:45:52Z</time>
      </trkpt>
      <trkpt lat="42.95302" lon="-0.13313">
        <ele>1723.779</ele>
        <time>2012-06-24T10:45:59Z</time>
      </trkpt>
      <trkpt lat="42.95301" lon="-0.13308">
        <ele>1721.669</ele>
        <time>2012-06-24T10:46:50Z</time>
      </trkpt>
      <trkpt lat="42.953" lon="-0.13295">
        <ele>1721.949</ele>
        <time>2012-06-24T10:46:59Z</time>
      </trkpt>
      <trkpt lat="42.95298" lon="-0.13285">
        <ele>1722.239</ele>
        <time>2012-06-24T10:47:06Z</time>
      </trkpt>
      <trkpt lat="42.95291" lon="-0.13275">
        <ele>1722.75</ele>
        <time>2012-06-24T10:47:13Z</time>
      </trkpt>
      <trkpt lat="42.95285" lon="-0.13262">
        <ele>1723.99</ele>
        <time>2012-06-24T10:47:22Z</time>
      </trkpt>
      <trkpt lat="42.95278" lon="-0.13248">
        <ele>1725.59</ele>
        <time>2012-06-24T10:47:33Z</time>
      </trkpt>
      <trkpt lat="42.95269" lon="-0.13238">
        <ele>1727.06</ele>
        <time>2012-06-24T10:47:44Z</time>
      </trkpt>
      <trkpt lat="42.95264" lon="-0.1323">
        <ele>1728.43</ele>
        <time>2012-06-24T10:47:53Z</time>
      </trkpt>
      <trkpt lat="42.95259" lon="-0.13219">
        <ele>1729.95</ele>
        <time>2012-06-24T10:48:03Z</time>
      </trkpt>
      <trkpt lat="42.95256" lon="-0.13209">
        <ele>1731.59</ele>
        <time>2012-06-24T10:48:12Z</time>
      </trkpt>
      <trkpt lat="42.95252" lon="-0.13196">
        <ele>1734.04</ele>
        <time>2012-06-24T10:48:23Z</time>
      </trkpt>
      <trkpt lat="42.95248" lon="-0.13188">
        <ele>1736.11</ele>
        <time>2012-06-24T10:48:33Z</time>
      </trkpt>
      <trkpt lat="42.95245" lon="-0.13177">
        <ele>1737.12</ele>
        <time>2012-06-24T10:48:41Z</time>
      </trkpt>
      <trkpt lat="42.95241" lon="-0.13162">
        <ele>1737.269</ele>
        <time>2012-06-24T10:48:51Z</time>
      </trkpt>
      <trkpt lat="42.95237" lon="-0.1315">
        <ele>1737.54</ele>
        <time>2012-06-24T10:48:59Z</time>
      </trkpt>
      <trkpt lat="42.9523" lon="-0.13145">
        <ele>1739.19</ele>
        <time>2012-06-24T10:49:07Z</time>
      </trkpt>
      <trkpt lat="42.95222" lon="-0.1314">
        <ele>1740.7</ele>
        <time>2012-06-24T10:49:16Z</time>
      </trkpt>
      <trkpt lat="42.95209" lon="-0.13137">
        <ele>1741.259</ele>
        <time>2012-06-24T10:49:28Z</time>
      </trkpt>
      <trkpt lat="42.95196" lon="-0.13135">
        <ele>1741.934</ele>
        <time>2012-06-24T10:49:39Z</time>
      </trkpt>
      <trkpt lat="42.95184" lon="-0.13133">
        <ele>1742.99</ele>
        <time>2012-06-24T10:49:49Z</time>
      </trkpt>
      <trkpt lat="42.95173" lon="-0.1313">
        <ele>1744.08</ele>
        <time>2012-06-24T10:49:58Z</time>
      </trkpt>
      <trkpt lat="42.95162" lon="-0.13127">
        <ele>1745.69</ele>
        <time>2012-06-24T10:50:08Z</time>
      </trkpt>
      <trkpt lat="42.95152" lon="-0.13124">
        <ele>1747.96</ele>
        <time>2012-06-24T10:50:19Z</time>
      </trkpt>
      <trkpt lat="42.95146" lon="-0.13122">
        <ele>1749.269</ele>
        <time>2012-06-24T10:50:28Z</time>
      </trkpt>
      <trkpt lat="42.95141" lon="-0.13119">
        <ele>1750.219</ele>
        <time>2012-06-24T10:50:45Z</time>
      </trkpt>
      <trkpt lat="42.95138" lon="-0.13116">
        <ele>1750.469</ele>
        <time>2012-06-24T10:50:51Z</time>
      </trkpt>
      <trkpt lat="42.95139" lon="-0.13116">
        <ele>1750.648</ele>
        <time>2012-06-24T10:51:13Z</time>
      </trkpt>
      <trkpt lat="42.95134" lon="-0.13119">
        <ele>1751.049</ele>
        <time>2012-06-24T10:51:18Z</time>
      </trkpt>
      <trkpt lat="42.95125" lon="-0.13122">
        <ele>1751.399</ele>
        <time>2012-06-24T10:51:24Z</time>
      </trkpt>
      <trkpt lat="42.95112" lon="-0.13124">
        <ele>1751.739</ele>
        <time>2012-06-24T10:51:32Z</time>
      </trkpt>
      <trkpt lat="42.95098" lon="-0.13125">
        <ele>1752.022</ele>
        <time>2012-06-24T10:51:39Z</time>
      </trkpt>
      <trkpt lat="42.95084" lon="-0.13125">
        <ele>1752.519</ele>
        <time>2012-06-24T10:51:46Z</time>
      </trkpt>
      <trkpt lat="42.95069" lon="-0.13123">
        <ele>1753.029</ele>
        <time>2012-06-24T10:51:54Z</time>
      </trkpt>
      <trkpt lat="42.95058" lon="-0.13118">
        <ele>1753.169</ele>
        <time>2012-06-24T10:52:01Z</time>
      </trkpt>
      <trkpt lat="42.95049" lon="-0.13115">
        <ele>1753.659</ele>
        <time>2012-06-24T10:52:07Z</time>
      </trkpt>
      <trkpt lat="42.95041" lon="-0.1311">
        <ele>1754.429</ele>
        <time>2012-06-24T10:52:13Z</time>
      </trkpt>
      <trkpt lat="42.9504" lon="-0.13109">
        <ele>1754.469</ele>
        <time>2012-06-24T10:52:14Z</time>
      </trkpt>
      <trkpt lat="42.95035" lon="-0.13102">
        <ele>1755.109</ele>
        <time>2012-06-24T10:52:20Z</time>
      </trkpt>
      <trkpt lat="42.95031" lon="-0.13095">
        <ele>1755.459</ele>
        <time>2012-06-24T10:52:25Z</time>
      </trkpt>
      <trkpt lat="42.9502" lon="-0.13085">
        <ele>1756.019</ele>
        <time>2012-06-24T10:52:35Z</time>
      </trkpt>
      <trkpt lat="42.95007" lon="-0.13083">
        <ele>1756.332</ele>
        <time>2012-06-24T10:52:45Z</time>
      </trkpt>
      <trkpt lat="42.94997" lon="-0.13084">
        <ele>1757.179</ele>
        <time>2012-06-24T10:52:53Z</time>
      </trkpt>
      <trkpt lat="42.94989" lon="-0.13085">
        <ele>1757.969</ele>
        <time>2012-06-24T10:52:59Z</time>
      </trkpt>
      <trkpt lat="42.9498" lon="-0.1309">
        <ele>1759.199</ele>
        <time>2012-06-24T10:53:07Z</time>
      </trkpt>
      <trkpt lat="42.9497" lon="-0.13096">
        <ele>1760.849</ele>
        <time>2012-06-24T10:53:17Z</time>
      </trkpt>
      <trkpt lat="42.94959" lon="-0.13098">
        <ele>1762.288</ele>
        <time>2012-06-24T10:53:27Z</time>
      </trkpt>
      <trkpt lat="42.9495" lon="-0.13101">
        <ele>1763.378</ele>
        <time>2012-06-24T10:53:37Z</time>
      </trkpt>
      <trkpt lat="42.9494" lon="-0.13102">
        <ele>1764.779</ele>
        <time>2012-06-24T10:53:45Z</time>
      </trkpt>
      <trkpt lat="42.94933" lon="-0.13104">
        <ele>1765.729</ele>
        <time>2012-06-24T10:53:51Z</time>
      </trkpt>
      <trkpt lat="42.94924" lon="-0.13106">
        <ele>1766.628</ele>
        <time>2012-06-24T10:53:59Z</time>
      </trkpt>
      <trkpt lat="42.94915" lon="-0.13107">
        <ele>1767.678</ele>
        <time>2012-06-24T10:54:07Z</time>
      </trkpt>
      <trkpt lat="42.94905" lon="-0.13106">
        <ele>1769.138</ele>
        <time>2012-06-24T10:54:16Z</time>
      </trkpt>
      <trkpt lat="42.94897" lon="-0.13102">
        <ele>1770.309</ele>
        <time>2012-06-24T10:54:22Z</time>
      </trkpt>
      <trkpt lat="42.94885" lon="-0.13093">
        <ele>1772.318</ele>
        <time>2012-06-24T10:54:31Z</time>
      </trkpt>
      <trkpt lat="42.94878" lon="-0.13083">
        <ele>1773.699</ele>
        <time>2012-06-24T10:54:39Z</time>
      </trkpt>
      <trkpt lat="42.94871" lon="-0.13072">
        <ele>1775.188</ele>
        <time>2012-06-24T10:54:47Z</time>
      </trkpt>
      <trkpt lat="42.94865" lon="-0.13061">
        <ele>1776.438</ele>
        <time>2012-06-24T10:54:55Z</time>
      </trkpt>
      <trkpt lat="42.94859" lon="-0.13049">
        <ele>1777.438</ele>
        <time>2012-06-24T10:55:03Z</time>
      </trkpt>
      <trkpt lat="42.9485" lon="-0.1303">
        <ele>1778.598</ele>
        <time>2012-06-24T10:55:12Z</time>
      </trkpt>
      <trkpt lat="42.94842" lon="-0.13012">
        <ele>1779.598</ele>
        <time>2012-06-24T10:55:20Z</time>
      </trkpt>
      <trkpt lat="42.94835" lon="-0.12996">
        <ele>1780.805</ele>
        <time>2012-06-24T10:55:27Z</time>
      </trkpt>
      <trkpt lat="42.94825" lon="-0.12974">
        <ele>1782.198</ele>
        <time>2012-06-24T10:55:36Z</time>
      </trkpt>
      <trkpt lat="42.94819" lon="-0.1296">
        <ele>1782.158</ele>
        <time>2012-06-24T10:55:42Z</time>
      </trkpt>
      <trkpt lat="42.94811" lon="-0.12946">
        <ele>1782.478</ele>
        <time>2012-06-24T10:55:50Z</time>
      </trkpt>
      <trkpt lat="42.94807" lon="-0.12936">
        <ele>1782.918</ele>
        <time>2012-06-24T10:55:56Z</time>
      </trkpt>
      <trkpt lat="42.94802" lon="-0.12922">
        <ele>1783.708</ele>
        <time>2012-06-24T10:56:05Z</time>
      </trkpt>
      <trkpt lat="42.94798" lon="-0.12909">
        <ele>1784.728</ele>
        <time>2012-06-24T10:56:13Z</time>
      </trkpt>
      <trkpt lat="42.94793" lon="-0.12897">
        <ele>1785.878</ele>
        <time>2012-06-24T10:56:22Z</time>
      </trkpt>
      <trkpt lat="42.94786" lon="-0.12886">
        <ele>1786.778</ele>
        <time>2012-06-24T10:56:31Z</time>
      </trkpt>
      <trkpt lat="42.94779" lon="-0.12876">
        <ele>1787.698</ele>
        <time>2012-06-24T10:56:39Z</time>
      </trkpt>
      <trkpt lat="42.94769" lon="-0.1287">
        <ele>1787.908</ele>
        <time>2012-06-24T10:56:48Z</time>
      </trkpt>
      <trkpt lat="42.94761" lon="-0.12864">
        <ele>1788.198</ele>
        <time>2012-06-24T10:56:56Z</time>
      </trkpt>
      <trkpt lat="42.94753" lon="-0.12857">
        <ele>1789.168</ele>
        <time>2012-06-24T10:57:05Z</time>
      </trkpt>
      <trkpt lat="42.94746" lon="-0.1285">
        <ele>1790.208</ele>
        <time>2012-06-24T10:57:13Z</time>
      </trkpt>
      <trkpt lat="42.94736" lon="-0.12842">
        <ele>1792.059</ele>
        <time>2012-06-24T10:57:22Z</time>
      </trkpt>
      <trkpt lat="42.94735" lon="-0.12841">
        <ele>1792.249</ele>
        <time>2012-06-24T10:57:23Z</time>
      </trkpt>
      <trkpt lat="42.94725" lon="-0.12838">
        <ele>1794.278</ele>
        <time>2012-06-24T10:57:32Z</time>
      </trkpt>
      <trkpt lat="42.94725" lon="-0.12838">
        <ele>1794.458</ele>
        <time>2012-06-24T10:57:34Z</time>
      </trkpt>
      <trkpt lat="42.94724" lon="-0.12836">
        <ele>1793.487</ele>
        <time>2012-06-24T10:57:41Z</time>
      </trkpt>
      <trkpt lat="42.94725" lon="-0.12836">
        <ele>1793.297</ele>
        <time>2012-06-24T10:58:07Z</time>
      </trkpt>
      <trkpt lat="42.94721" lon="-0.12836">
        <ele>1796.948</ele>
        <time>2012-06-24T10:59:05Z</time>
      </trkpt>
      <trkpt lat="42.94713" lon="-0.12837">
        <ele>1798.258</ele>
        <time>2012-06-24T10:59:14Z</time>
      </trkpt>
      <trkpt lat="42.94705" lon="-0.1284">
        <ele>1799.568</ele>
        <time>2012-06-24T10:59:24Z</time>
      </trkpt>
      <trkpt lat="42.94699" lon="-0.12841">
        <ele>1800.978</ele>
        <time>2012-06-24T10:59:31Z</time>
      </trkpt>
      <trkpt lat="42.9469" lon="-0.12844">
        <ele>1804.104</ele>
        <time>2012-06-24T10:59:41Z</time>
      </trkpt>
      <trkpt lat="42.94683" lon="-0.12849">
        <ele>1806.269</ele>
        <time>2012-06-24T10:59:51Z</time>
      </trkpt>
      <trkpt lat="42.94677" lon="-0.12854">
        <ele>1807.768</ele>
        <time>2012-06-24T11:00:01Z</time>
      </trkpt>
      <trkpt lat="42.9467" lon="-0.12858">
        <ele>1808.898</ele>
        <time>2012-06-24T11:00:11Z</time>
      </trkpt>
      <trkpt lat="42.94663" lon="-0.12861">
        <ele>1809.918</ele>
        <time>2012-06-24T11:00:21Z</time>
      </trkpt>
      <trkpt lat="42.94659" lon="-0.12864">
        <ele>1810.998</ele>
        <time>2012-06-24T11:00:28Z</time>
      </trkpt>
      <trkpt lat="42.94651" lon="-0.12868">
        <ele>1813.819</ele>
        <time>2012-06-24T11:00:39Z</time>
      </trkpt>
      <trkpt lat="42.94646" lon="-0.12868">
        <ele>1815.289</ele>
        <time>2012-06-24T11:00:46Z</time>
      </trkpt>
      <trkpt lat="42.94639" lon="-0.12869">
        <ele>1816.908</ele>
        <time>2012-06-24T11:00:55Z</time>
      </trkpt>
      <trkpt lat="42.9463" lon="-0.12868">
        <ele>1818.898</ele>
        <time>2012-06-24T11:01:07Z</time>
      </trkpt>
      <trkpt lat="42.94622" lon="-0.12868">
        <ele>1820.407</ele>
        <time>2012-06-24T11:01:18Z</time>
      </trkpt>
      <trkpt lat="42.94615" lon="-0.12867">
        <ele>1822.268</ele>
        <time>2012-06-24T11:01:28Z</time>
      </trkpt>
      <trkpt lat="42.94611" lon="-0.12864">
        <ele>1823.448</ele>
        <time>2012-06-24T11:01:35Z</time>
      </trkpt>
      <trkpt lat="42.94605" lon="-0.12858">
        <ele>1824.637</ele>
        <time>2012-06-24T11:01:44Z</time>
      </trkpt>
      <trkpt lat="42.94601" lon="-0.12856">
        <ele>1825.067</ele>
        <time>2012-06-24T11:01:52Z</time>
      </trkpt>
      <trkpt lat="42.94597" lon="-0.12853">
        <ele>1825.738</ele>
        <time>2012-06-24T11:01:57Z</time>
      </trkpt>
      <trkpt lat="42.94589" lon="-0.12848">
        <ele>1827.148</ele>
        <time>2012-06-24T11:02:05Z</time>
      </trkpt>
      <trkpt lat="42.94581" lon="-0.12844">
        <ele>1828.317</ele>
        <time>2012-06-24T11:02:15Z</time>
      </trkpt>
      <trkpt lat="42.94575" lon="-0.12842">
        <ele>1829.568</ele>
        <time>2012-06-24T11:02:23Z</time>
      </trkpt>
      <trkpt lat="42.94567" lon="-0.12841">
        <ele>1830.838</ele>
        <time>2012-06-24T11:02:31Z</time>
      </trkpt>
      <trkpt lat="42.94558" lon="-0.12835">
        <ele>1833.198</ele>
        <time>2012-06-24T11:02:41Z</time>
      </trkpt>
      <trkpt lat="42.94549" lon="-0.12833">
        <ele>1835.218</ele>
        <time>2012-06-24T11:02:51Z</time>
      </trkpt>
      <trkpt lat="42.94541" lon="-0.12831">
        <ele>1837.558</ele>
        <time>2012-06-24T11:03:00Z</time>
      </trkpt>
      <trkpt lat="42.94532" lon="-0.12832">
        <ele>1839.448</ele>
        <time>2012-06-24T11:03:09Z</time>
      </trkpt>
      <trkpt lat="42.94524" lon="-0.12834">
        <ele>1841.187</ele>
        <time>2012-06-24T11:03:19Z</time>
      </trkpt>
      <trkpt lat="42.94517" lon="-0.12833">
        <ele>1842.978</ele>
        <time>2012-06-24T11:03:28Z</time>
      </trkpt>
      <trkpt lat="42.94509" lon="-0.12833">
        <ele>1844.747</ele>
        <time>2012-06-24T11:03:37Z</time>
      </trkpt>
      <trkpt lat="42.94501" lon="-0.12832">
        <ele>1846.577</ele>
        <time>2012-06-24T11:03:47Z</time>
      </trkpt>
      <trkpt lat="42.94494" lon="-0.12833">
        <ele>1847.917</ele>
        <time>2012-06-24T11:03:55Z</time>
      </trkpt>
      <trkpt lat="42.9449" lon="-0.12832">
        <ele>1849.007</ele>
        <time>2012-06-24T11:04:01Z</time>
      </trkpt>
      <trkpt lat="42.94482" lon="-0.1283">
        <ele>1851.038</ele>
        <time>2012-06-24T11:04:10Z</time>
      </trkpt>
      <trkpt lat="42.94473" lon="-0.12828">
        <ele>1854.227</ele>
        <time>2012-06-24T11:04:21Z</time>
      </trkpt>
      <trkpt lat="42.94463" lon="-0.12827">
        <ele>1856.677</ele>
        <time>2012-06-24T11:04:33Z</time>
      </trkpt>
      <trkpt lat="42.94455" lon="-0.12824">
        <ele>1858.307</ele>
        <time>2012-06-24T11:04:45Z</time>
      </trkpt>
      <trkpt lat="42.94448" lon="-0.12821">
        <ele>1859.717</ele>
        <time>2012-06-24T11:04:54Z</time>
      </trkpt>
      <trkpt lat="42.94442" lon="-0.1282">
        <ele>1860.747</ele>
        <time>2012-06-24T11:05:02Z</time>
      </trkpt>
      <trkpt lat="42.94435" lon="-0.12819">
        <ele>1861.807</ele>
        <time>2012-06-24T11:05:11Z</time>
      </trkpt>
      <trkpt lat="42.94434" lon="-0.12819">
        <ele>1862.067</ele>
        <time>2012-06-24T11:05:13Z</time>
      </trkpt>
      <trkpt lat="42.94432" lon="-0.12818">
        <ele>1862.337</ele>
        <time>2012-06-24T11:05:15Z</time>
      </trkpt>
      <trkpt lat="42.94424" lon="-0.12816">
        <ele>1863.917</ele>
        <time>2012-06-24T11:05:25Z</time>
      </trkpt>
      <trkpt lat="42.94415" lon="-0.12815">
        <ele>1865.086</ele>
        <time>2012-06-24T11:05:35Z</time>
      </trkpt>
      <trkpt lat="42.94405" lon="-0.12814">
        <ele>1866.306</ele>
        <time>2012-06-24T11:05:46Z</time>
      </trkpt>
      <trkpt lat="42.94401" lon="-0.12813">
        <ele>1866.756</ele>
        <time>2012-06-24T11:05:52Z</time>
      </trkpt>
      <trkpt lat="42.94394" lon="-0.12813">
        <ele>1867.346</ele>
        <time>2012-06-24T11:05:59Z</time>
      </trkpt>
      <trkpt lat="42.94381" lon="-0.1281">
        <ele>1867.936</ele>
        <time>2012-06-24T11:06:08Z</time>
      </trkpt>
      <trkpt lat="42.9437" lon="-0.12805">
        <ele>1868.807</ele>
        <time>2012-06-24T11:06:15Z</time>
      </trkpt>
      <trkpt lat="42.94355" lon="-0.12796">
        <ele>1870.08</ele>
        <time>2012-06-24T11:06:25Z</time>
      </trkpt>
      <trkpt lat="42.94346" lon="-0.12788">
        <ele>1870.826</ele>
        <time>2012-06-24T11:06:32Z</time>
      </trkpt>
      <trkpt lat="42.94335" lon="-0.12781">
        <ele>1870.125</ele>
        <time>2012-06-24T11:06:38Z</time>
      </trkpt>
      <trkpt lat="42.94329" lon="-0.12775">
        <ele>1870.116</ele>
        <time>2012-06-24T11:06:42Z</time>
      </trkpt>
      <trkpt lat="42.94323" lon="-0.12766">
        <ele>1870.746</ele>
        <time>2012-06-24T11:06:48Z</time>
      </trkpt>
      <trkpt lat="42.94319" lon="-0.1276">
        <ele>1870.876</ele>
        <time>2012-06-24T11:06:51Z</time>
      </trkpt>
      <trkpt lat="42.94307" lon="-0.12747">
        <ele>1870.324</ele>
        <time>2012-06-24T11:06:58Z</time>
      </trkpt>
      <trkpt lat="42.94299" lon="-0.12736">
        <ele>1870.836</ele>
        <time>2012-06-24T11:07:02Z</time>
      </trkpt>
      <trkpt lat="42.94293" lon="-0.12727">
        <ele>1871.736</ele>
        <time>2012-06-24T11:07:07Z</time>
      </trkpt>
      <trkpt lat="42.94292" lon="-0.12726">
        <ele>1871.616</ele>
        <time>2012-06-24T11:07:08Z</time>
      </trkpt>
      <trkpt lat="42.94286" lon="-0.12716">
        <ele>1872.227</ele>
        <time>2012-06-24T11:07:13Z</time>
      </trkpt>
      <trkpt lat="42.94285" lon="-0.12715">
        <ele>1873.036</ele>
        <time>2012-06-24T11:07:17Z</time>
      </trkpt>
      <trkpt lat="42.94282" lon="-0.12711">
        <ele>1873.236</ele>
        <time>2012-06-24T11:07:26Z</time>
      </trkpt>
      <trkpt lat="42.94283" lon="-0.12711">
        <ele>1874.346</ele>
        <time>2012-06-24T11:07:31Z</time>
      </trkpt>
      <trkpt lat="42.94283" lon="-0.12711">
        <ele>1877.196</ele>
        <time>2012-06-24T11:08:30Z</time>
      </trkpt>
      <trkpt lat="42.94281" lon="-0.12708">
        <ele>1877.446</ele>
        <time>2012-06-24T11:08:34Z</time>
      </trkpt>
      <trkpt lat="42.9428" lon="-0.12706">
        <ele>1877.786</ele>
        <time>2012-06-24T11:08:36Z</time>
      </trkpt>
      <trkpt lat="42.94278" lon="-0.12698">
        <ele>1879.377</ele>
        <time>2012-06-24T11:08:44Z</time>
      </trkpt>
      <trkpt lat="42.94276" lon="-0.12694">
        <ele>1880.286</ele>
        <time>2012-06-24T11:08:50Z</time>
      </trkpt>
      <trkpt lat="42.94275" lon="-0.12693">
        <ele>1880.175</ele>
        <time>2012-06-24T11:08:53Z</time>
      </trkpt>
      <trkpt lat="42.94269" lon="-0.12689">
        <ele>1880.596</ele>
        <time>2012-06-24T11:09:00Z</time>
      </trkpt>
      <trkpt lat="42.94264" lon="-0.12686">
        <ele>1881.046</ele>
        <time>2012-06-24T11:09:06Z</time>
      </trkpt>
      <trkpt lat="42.94262" lon="-0.12686">
        <ele>1881.246</ele>
        <time>2012-06-24T11:09:12Z</time>
      </trkpt>
      <trkpt lat="42.9426" lon="-0.12685">
        <ele>1881.746</ele>
        <time>2012-06-24T11:09:17Z</time>
      </trkpt>
      <trkpt lat="42.94255" lon="-0.1268">
        <ele>1882.456</ele>
        <time>2012-06-24T11:09:25Z</time>
      </trkpt>
      <trkpt lat="42.94254" lon="-0.12679">
        <ele>1882.536</ele>
        <time>2012-06-24T11:09:26Z</time>
      </trkpt>
      <trkpt lat="42.94248" lon="-0.12672">
        <ele>1883.066</ele>
        <time>2012-06-24T11:09:34Z</time>
      </trkpt>
      <trkpt lat="42.94243" lon="-0.12666">
        <ele>1883.756</ele>
        <time>2012-06-24T11:09:41Z</time>
      </trkpt>
      <trkpt lat="42.94236" lon="-0.12658">
        <ele>1884.486</ele>
        <time>2012-06-24T11:09:50Z</time>
      </trkpt>
      <trkpt lat="42.94229" lon="-0.12655">
        <ele>1885.267</ele>
        <time>2012-06-24T11:09:58Z</time>
      </trkpt>
      <trkpt lat="42.94227" lon="-0.12654">
        <ele>1885.576</ele>
        <time>2012-06-24T11:10:01Z</time>
      </trkpt>
      <trkpt lat="42.94222" lon="-0.12654">
        <ele>1886.606</ele>
        <time>2012-06-24T11:10:08Z</time>
      </trkpt>
      <trkpt lat="42.94221" lon="-0.1265">
        <ele>1887.436</ele>
        <time>2012-06-24T11:10:15Z</time>
      </trkpt>
      <trkpt lat="42.94221" lon="-0.12649">
        <ele>1887.506</ele>
        <time>2012-06-24T11:10:16Z</time>
      </trkpt>
      <trkpt lat="42.94216" lon="-0.12649">
        <ele>1888.217</ele>
        <time>2012-06-24T11:10:21Z</time>
      </trkpt>
      <trkpt lat="42.9421" lon="-0.12645">
        <ele>1889.366</ele>
        <time>2012-06-24T11:10:30Z</time>
      </trkpt>
      <trkpt lat="42.94208" lon="-0.12646">
        <ele>1889.586</ele>
        <time>2012-06-24T11:10:32Z</time>
      </trkpt>
      <trkpt lat="42.94206" lon="-0.12646">
        <ele>1889.765</ele>
        <time>2012-06-24T11:10:40Z</time>
      </trkpt>
      <trkpt lat="42.94202" lon="-0.12645">
        <ele>1890.827</ele>
        <time>2012-06-24T11:10:54Z</time>
      </trkpt>
      <trkpt lat="42.94202" lon="-0.12645">
        <ele>1891.217</ele>
        <time>2012-06-24T11:10:55Z</time>
      </trkpt>
      <trkpt lat="42.94196" lon="-0.12645">
        <ele>1893.076</ele>
        <time>2012-06-24T11:11:03Z</time>
      </trkpt>
      <trkpt lat="42.94189" lon="-0.12646">
        <ele>1896.706</ele>
        <time>2012-06-24T11:11:13Z</time>
      </trkpt>
      <trkpt lat="42.94185" lon="-0.12645">
        <ele>1898.946</ele>
        <time>2012-06-24T11:11:20Z</time>
      </trkpt>
      <trkpt lat="42.94179" lon="-0.12646">
        <ele>1901.446</ele>
        <time>2012-06-24T11:11:29Z</time>
      </trkpt>
      <trkpt lat="42.94173" lon="-0.12647">
        <ele>1903.766</ele>
        <time>2012-06-24T11:11:39Z</time>
      </trkpt>
      <trkpt lat="42.94168" lon="-0.12647">
        <ele>1906.057</ele>
        <time>2012-06-24T11:11:48Z</time>
      </trkpt>
      <trkpt lat="42.94167" lon="-0.12648">
        <ele>1907.445</ele>
        <time>2012-06-24T11:11:55Z</time>
      </trkpt>
      <trkpt lat="42.94162" lon="-0.12649">
        <ele>1905.876</ele>
        <time>2012-06-24T11:12:14Z</time>
      </trkpt>
      <trkpt lat="42.94158" lon="-0.12649">
        <ele>1907.446</ele>
        <time>2012-06-24T11:12:22Z</time>
      </trkpt>
      <trkpt lat="42.94153" lon="-0.12651">
        <ele>1909.116</ele>
        <time>2012-06-24T11:12:29Z</time>
      </trkpt>
      <trkpt lat="42.94151" lon="-0.12653">
        <ele>1910.256</ele>
        <time>2012-06-24T11:12:33Z</time>
      </trkpt>
      <trkpt lat="42.94147" lon="-0.12651">
        <ele>1912.326</ele>
        <time>2012-06-24T11:12:41Z</time>
      </trkpt>
      <trkpt lat="42.94142" lon="-0.12651">
        <ele>1913.306</ele>
        <time>2012-06-24T11:12:48Z</time>
      </trkpt>
      <trkpt lat="42.94137" lon="-0.12652">
        <ele>1914.056</ele>
        <time>2012-06-24T11:12:57Z</time>
      </trkpt>
      <trkpt lat="42.94134" lon="-0.12653">
        <ele>1914.916</ele>
        <time>2012-06-24T11:13:03Z</time>
      </trkpt>
      <trkpt lat="42.94129" lon="-0.12655">
        <ele>1916.076</ele>
        <time>2012-06-24T11:13:11Z</time>
      </trkpt>
      <trkpt lat="42.94123" lon="-0.1266">
        <ele>1918.966</ele>
        <time>2012-06-24T11:13:22Z</time>
      </trkpt>
      <trkpt lat="42.9412" lon="-0.12661">
        <ele>1919.955</ele>
        <time>2012-06-24T11:13:29Z</time>
      </trkpt>
      <trkpt lat="42.94117" lon="-0.12665">
        <ele>1921.376</ele>
        <time>2012-06-24T11:13:36Z</time>
      </trkpt>
      <trkpt lat="42.94113" lon="-0.12673">
        <ele>1922.775</ele>
        <time>2012-06-24T11:13:46Z</time>
      </trkpt>
      <trkpt lat="42.9411" lon="-0.12679">
        <ele>1924.126</ele>
        <time>2012-06-24T11:13:55Z</time>
      </trkpt>
      <trkpt lat="42.94106" lon="-0.12684">
        <ele>1925.796</ele>
        <time>2012-06-24T11:14:04Z</time>
      </trkpt>
      <trkpt lat="42.94103" lon="-0.1269">
        <ele>1927.176</ele>
        <time>2012-06-24T11:14:12Z</time>
      </trkpt>
      <trkpt lat="42.941" lon="-0.12696">
        <ele>1928.385</ele>
        <time>2012-06-24T11:14:21Z</time>
      </trkpt>
      <trkpt lat="42.94096" lon="-0.12701">
        <ele>1929.585</ele>
        <time>2012-06-24T11:14:29Z</time>
      </trkpt>
      <trkpt lat="42.94093" lon="-0.12708">
        <ele>1931.046</ele>
        <time>2012-06-24T11:14:38Z</time>
      </trkpt>
      <trkpt lat="42.94093" lon="-0.1271">
        <ele>1931.325</ele>
        <time>2012-06-24T11:14:40Z</time>
      </trkpt>
      <trkpt lat="42.94092" lon="-0.12712">
        <ele>1930.165</ele>
        <time>2012-06-24T11:14:47Z</time>
      </trkpt>
      <trkpt lat="42.94089" lon="-0.12718">
        <ele>1930.665</ele>
        <time>2012-06-24T11:14:54Z</time>
      </trkpt>
      <trkpt lat="42.94084" lon="-0.12727">
        <ele>1931.955</ele>
        <time>2012-06-24T11:15:04Z</time>
      </trkpt>
      <trkpt lat="42.94082" lon="-0.1273">
        <ele>1932.605</ele>
        <time>2012-06-24T11:15:08Z</time>
      </trkpt>
      <trkpt lat="42.94078" lon="-0.12738">
        <ele>1934.226</ele>
        <time>2012-06-24T11:15:17Z</time>
      </trkpt>
      <trkpt lat="42.94074" lon="-0.12743">
        <ele>1935.765</ele>
        <time>2012-06-24T11:15:25Z</time>
      </trkpt>
      <trkpt lat="42.94071" lon="-0.12751">
        <ele>1937.005</ele>
        <time>2012-06-24T11:15:34Z</time>
      </trkpt>
      <trkpt lat="42.94066" lon="-0.12761">
        <ele>1936.905</ele>
        <time>2012-06-24T11:15:45Z</time>
      </trkpt>
      <trkpt lat="42.94063" lon="-0.12768">
        <ele>1939.315</ele>
        <time>2012-06-24T11:15:54Z</time>
      </trkpt>
      <trkpt lat="42.9406" lon="-0.12775">
        <ele>1940.716</ele>
        <time>2012-06-24T11:16:02Z</time>
      </trkpt>
      <trkpt lat="42.94059" lon="-0.12776">
        <ele>1940.875</ele>
        <time>2012-06-24T11:16:08Z</time>
      </trkpt>
      <trkpt lat="42.94057" lon="-0.12779">
        <ele>1940.205</ele>
        <time>2012-06-24T11:16:18Z</time>
      </trkpt>
      <trkpt lat="42.94054" lon="-0.12781">
        <ele>1940.335</ele>
        <time>2012-06-24T11:16:22Z</time>
      </trkpt>
      <trkpt lat="42.9405" lon="-0.12779">
        <ele>1942.546</ele>
        <time>2012-06-24T11:16:28Z</time>
      </trkpt>
      <trkpt lat="42.94046" lon="-0.12778">
        <ele>1944.355</ele>
        <time>2012-06-24T11:16:35Z</time>
      </trkpt>
      <trkpt lat="42.94041" lon="-0.12781">
        <ele>1945.615</ele>
        <time>2012-06-24T11:16:44Z</time>
      </trkpt>
      <trkpt lat="42.94038" lon="-0.12781">
        <ele>1946.415</ele>
        <time>2012-06-24T11:16:48Z</time>
      </trkpt>
      <trkpt lat="42.94031" lon="-0.12782">
        <ele>1947.625</ele>
        <time>2012-06-24T11:16:56Z</time>
      </trkpt>
      <trkpt lat="42.94021" lon="-0.12783">
        <ele>1948.855</ele>
        <time>2012-06-24T11:17:07Z</time>
      </trkpt>
      <trkpt lat="42.9401" lon="-0.12783">
        <ele>1950.725</ele>
        <time>2012-06-24T11:17:19Z</time>
      </trkpt>
      <trkpt lat="42.94004" lon="-0.12781">
        <ele>1952.395</ele>
        <time>2012-06-24T11:17:26Z</time>
      </trkpt>
      <trkpt lat="42.94002" lon="-0.1278">
        <ele>1952.914</ele>
        <time>2012-06-24T11:17:32Z</time>
      </trkpt>
      <trkpt lat="42.93998" lon="-0.12781">
        <ele>1952.974</ele>
        <time>2012-06-24T11:17:40Z</time>
      </trkpt>
      <trkpt lat="42.9399" lon="-0.12782">
        <ele>1954.105</ele>
        <time>2012-06-24T11:17:51Z</time>
      </trkpt>
      <trkpt lat="42.93984" lon="-0.12783">
        <ele>1955.275</ele>
        <time>2012-06-24T11:17:59Z</time>
      </trkpt>
      <trkpt lat="42.9398" lon="-0.12779">
        <ele>1956.795</ele>
        <time>2012-06-24T11:18:07Z</time>
      </trkpt>
      <trkpt lat="42.93978" lon="-0.12778">
        <ele>1957.165</ele>
        <time>2012-06-24T11:18:09Z</time>
      </trkpt>
      <trkpt lat="42.93973" lon="-0.12774">
        <ele>1957.274</ele>
        <time>2012-06-24T11:18:18Z</time>
      </trkpt>
      <trkpt lat="42.93969" lon="-0.12771">
        <ele>1958.924</ele>
        <time>2012-06-24T11:18:30Z</time>
      </trkpt>
      <trkpt lat="42.93964" lon="-0.12767">
        <ele>1960.995</ele>
        <time>2012-06-24T11:18:37Z</time>
      </trkpt>
      <trkpt lat="42.9396" lon="-0.12765">
        <ele>1962.205</ele>
        <time>2012-06-24T11:18:44Z</time>
      </trkpt>
      <trkpt lat="42.93953" lon="-0.12767">
        <ele>1962.594</ele>
        <time>2012-06-24T11:18:55Z</time>
      </trkpt>
      <trkpt lat="42.93949" lon="-0.1277">
        <ele>1963.635</ele>
        <time>2012-06-24T11:19:03Z</time>
      </trkpt>
      <trkpt lat="42.93947" lon="-0.12775">
        <ele>1963.664</ele>
        <time>2012-06-24T11:19:10Z</time>
      </trkpt>
      <trkpt lat="42.93945" lon="-0.12775">
        <ele>1964.025</ele>
        <time>2012-06-24T11:19:14Z</time>
      </trkpt>
      <trkpt lat="42.9394" lon="-0.12774">
        <ele>1964.954</ele>
        <time>2012-06-24T11:19:21Z</time>
      </trkpt>
      <trkpt lat="42.93938" lon="-0.12775">
        <ele>1964.924</ele>
        <time>2012-06-24T11:19:23Z</time>
      </trkpt>
      <trkpt lat="42.93931" lon="-0.12778">
        <ele>1964.954</ele>
        <time>2012-06-24T11:19:32Z</time>
      </trkpt>
      <trkpt lat="42.93926" lon="-0.12775">
        <ele>1966.905</ele>
        <time>2012-06-24T11:19:39Z</time>
      </trkpt>
      <trkpt lat="42.93918" lon="-0.12776">
        <ele>1967.894</ele>
        <time>2012-06-24T11:19:47Z</time>
      </trkpt>
      <trkpt lat="42.93915" lon="-0.12785">
        <ele>1966.854</ele>
        <time>2012-06-24T11:19:55Z</time>
      </trkpt>
      <trkpt lat="42.93917" lon="-0.12795">
        <ele>1965.484</ele>
        <time>2012-06-24T11:20:04Z</time>
      </trkpt>
      <trkpt lat="42.93917" lon="-0.12797">
        <ele>1965.344</ele>
        <time>2012-06-24T11:20:05Z</time>
      </trkpt>
      <trkpt lat="42.93913" lon="-0.12805">
        <ele>1965.214</ele>
        <time>2012-06-24T11:20:14Z</time>
      </trkpt>
      <trkpt lat="42.9391" lon="-0.12809">
        <ele>1965.324</ele>
        <time>2012-06-24T11:20:19Z</time>
      </trkpt>
      <trkpt lat="42.93903" lon="-0.12814">
        <ele>1966.334</ele>
        <time>2012-06-24T11:20:29Z</time>
      </trkpt>
      <trkpt lat="42.93903" lon="-0.12817">
        <ele>1966.253</ele>
        <time>2012-06-24T11:20:33Z</time>
      </trkpt>
      <trkpt lat="42.93901" lon="-0.12825">
        <ele>1966.124</ele>
        <time>2012-06-24T11:20:40Z</time>
      </trkpt>
      <trkpt lat="42.93899" lon="-0.12828">
        <ele>1967.834</ele>
        <time>2012-06-24T11:20:46Z</time>
      </trkpt>
      <trkpt lat="42.93894" lon="-0.12834">
        <ele>1967.333</ele>
        <time>2012-06-24T11:20:53Z</time>
      </trkpt>
      <trkpt lat="42.93889" lon="-0.12838">
        <ele>1967.235</ele>
        <time>2012-06-24T11:21:02Z</time>
      </trkpt>
      <trkpt lat="42.93887" lon="-0.12839">
        <ele>1967.974</ele>
        <time>2012-06-24T11:21:07Z</time>
      </trkpt>
      <trkpt lat="42.93883" lon="-0.12845">
        <ele>1969.884</ele>
        <time>2012-06-24T11:21:15Z</time>
      </trkpt>
      <trkpt lat="42.93883" lon="-0.12849">
        <ele>1970.234</ele>
        <time>2012-06-24T11:21:21Z</time>
      </trkpt>
      <trkpt lat="42.93881" lon="-0.12857">
        <ele>1970.224</ele>
        <time>2012-06-24T11:21:30Z</time>
      </trkpt>
      <trkpt lat="42.93879" lon="-0.12861">
        <ele>1970.793</ele>
        <time>2012-06-24T11:21:35Z</time>
      </trkpt>
      <trkpt lat="42.93877" lon="-0.12864">
        <ele>1971.174</ele>
        <time>2012-06-24T11:21:38Z</time>
      </trkpt>
      <trkpt lat="42.93873" lon="-0.12869">
        <ele>1971.933</ele>
        <time>2012-06-24T11:21:46Z</time>
      </trkpt>
      <trkpt lat="42.93867" lon="-0.12877">
        <ele>1974.094</ele>
        <time>2012-06-24T11:21:56Z</time>
      </trkpt>
      <trkpt lat="42.93861" lon="-0.12881">
        <ele>1975.784</ele>
        <time>2012-06-24T11:22:06Z</time>
      </trkpt>
      <trkpt lat="42.93858" lon="-0.12883">
        <ele>1977.225</ele>
        <time>2012-06-24T11:22:13Z</time>
      </trkpt>
      <trkpt lat="42.93856" lon="-0.12886">
        <ele>1978.524</ele>
        <time>2012-06-24T11:22:21Z</time>
      </trkpt>
      <trkpt lat="42.93854" lon="-0.12888">
        <ele>1979.034</ele>
        <time>2012-06-24T11:22:26Z</time>
      </trkpt>
      <trkpt lat="42.93854" lon="-0.12887">
        <ele>1980.503</ele>
        <time>2012-06-24T11:22:38Z</time>
      </trkpt>
      <trkpt lat="42.93851" lon="-0.12886">
        <ele>1979.773</ele>
        <time>2012-06-24T11:23:05Z</time>
      </trkpt>
      <trkpt lat="42.93851" lon="-0.12885">
        <ele>1979.853</ele>
        <time>2012-06-24T11:23:41Z</time>
      </trkpt>
      <trkpt lat="42.93849" lon="-0.12885">
        <ele>1979.473</ele>
        <time>2012-06-24T11:23:48Z</time>
      </trkpt>
      <trkpt lat="42.93847" lon="-0.12884">
        <ele>1981.535</ele>
        <time>2012-06-24T11:23:58Z</time>
      </trkpt>
      <trkpt lat="42.93845" lon="-0.12887">
        <ele>1983.064</ele>
        <time>2012-06-24T11:24:06Z</time>
      </trkpt>
      <trkpt lat="42.93845" lon="-0.12889">
        <ele>1983.684</ele>
        <time>2012-06-24T11:24:09Z</time>
      </trkpt>
      <trkpt lat="42.93841" lon="-0.12888">
        <ele>1985.383</ele>
        <time>2012-06-24T11:24:17Z</time>
      </trkpt>
      <trkpt lat="42.93839" lon="-0.12889">
        <ele>1986.224</ele>
        <time>2012-06-24T11:24:22Z</time>
      </trkpt>
      <trkpt lat="42.93837" lon="-0.12891">
        <ele>1987.484</ele>
        <time>2012-06-24T11:24:28Z</time>
      </trkpt>
      <trkpt lat="42.93835" lon="-0.12895">
        <ele>1989.073</ele>
        <time>2012-06-24T11:24:36Z</time>
      </trkpt>
      <trkpt lat="42.93834" lon="-0.12897">
        <ele>1990.933</ele>
        <time>2012-06-24T11:24:46Z</time>
      </trkpt>
      <trkpt lat="42.93832" lon="-0.12899">
        <ele>1991.854</ele>
        <time>2012-06-24T11:24:51Z</time>
      </trkpt>
      <trkpt lat="42.93831" lon="-0.12901">
        <ele>1992.853</ele>
        <time>2012-06-24T11:24:57Z</time>
      </trkpt>
      <trkpt lat="42.93829" lon="-0.12903">
        <ele>1993.403</ele>
        <time>2012-06-24T11:25:05Z</time>
      </trkpt>
      <trkpt lat="42.93828" lon="-0.12903">
        <ele>1993.823</ele>
        <time>2012-06-24T11:25:07Z</time>
      </trkpt>
      <trkpt lat="42.93827" lon="-0.12901">
        <ele>1994.683</ele>
        <time>2012-06-24T11:25:13Z</time>
      </trkpt>
      <trkpt lat="42.93825" lon="-0.12901">
        <ele>1995.904</ele>
        <time>2012-06-24T11:25:18Z</time>
      </trkpt>
      <trkpt lat="42.93821" lon="-0.12901">
        <ele>1997.844</ele>
        <time>2012-06-24T11:25:25Z</time>
      </trkpt>
      <trkpt lat="42.93818" lon="-0.12902">
        <ele>1996.143</ele>
        <time>2012-06-24T11:25:42Z</time>
      </trkpt>
      <trkpt lat="42.93816" lon="-0.12901">
        <ele>1997.283</ele>
        <time>2012-06-24T11:25:47Z</time>
      </trkpt>
      <trkpt lat="42.93814" lon="-0.12899">
        <ele>1999.744</ele>
        <time>2012-06-24T11:25:54Z</time>
      </trkpt>
      <trkpt lat="42.93812" lon="-0.12898">
        <ele>2001.224</ele>
        <time>2012-06-24T11:25:59Z</time>
      </trkpt>
      <trkpt lat="42.9381" lon="-0.12899">
        <ele>2002.843</ele>
        <time>2012-06-24T11:26:09Z</time>
      </trkpt>
      <trkpt lat="42.93809" lon="-0.12897">
        <ele>2004.143</ele>
        <time>2012-06-24T11:26:15Z</time>
      </trkpt>
      <trkpt lat="42.93806" lon="-0.12898">
        <ele>2004.083</ele>
        <time>2012-06-24T11:26:30Z</time>
      </trkpt>
      <trkpt lat="42.93803" lon="-0.12898">
        <ele>2005.164</ele>
        <time>2012-06-24T11:26:36Z</time>
      </trkpt>
      <trkpt lat="42.93802" lon="-0.12893">
        <ele>2005.193</ele>
        <time>2012-06-24T11:26:42Z</time>
      </trkpt>
      <trkpt lat="42.93799" lon="-0.12891">
        <ele>2007.323</ele>
        <time>2012-06-24T11:26:49Z</time>
      </trkpt>
      <trkpt lat="42.93796" lon="-0.1289">
        <ele>2010.094</ele>
        <time>2012-06-24T11:26:54Z</time>
      </trkpt>
      <trkpt lat="42.93792" lon="-0.12892">
        <ele>2012.134</ele>
        <time>2012-06-24T11:27:01Z</time>
      </trkpt>
      <trkpt lat="42.93791" lon="-0.12893">
        <ele>2011.433</ele>
        <time>2012-06-24T11:27:09Z</time>
      </trkpt>
      <trkpt lat="42.9379" lon="-0.12898">
        <ele>2011.403</ele>
        <time>2012-06-24T11:27:15Z</time>
      </trkpt>
      <trkpt lat="42.9379" lon="-0.12899">
        <ele>2011.393</ele>
        <time>2012-06-24T11:27:16Z</time>
      </trkpt>
      <trkpt lat="42.93793" lon="-0.12909">
        <ele>2011.783</ele>
        <time>2012-06-24T11:27:25Z</time>
      </trkpt>
      <trkpt lat="42.93793" lon="-0.12918">
        <ele>2013.024</ele>
        <time>2012-06-24T11:27:33Z</time>
      </trkpt>
      <trkpt lat="42.93797" lon="-0.12925">
        <ele>2013.913</ele>
        <time>2012-06-24T11:27:40Z</time>
      </trkpt>
      <trkpt lat="42.93798" lon="-0.12933">
        <ele>2014.273</ele>
        <time>2012-06-24T11:27:47Z</time>
      </trkpt>
      <trkpt lat="42.93799" lon="-0.12936">
        <ele>2014.293</ele>
        <time>2012-06-24T11:27:50Z</time>
      </trkpt>
      <trkpt lat="42.93794" lon="-0.12946">
        <ele>2014.903</ele>
        <time>2012-06-24T11:28:00Z</time>
      </trkpt>
      <trkpt lat="42.93789" lon="-0.12949">
        <ele>2015.502</ele>
        <time>2012-06-24T11:28:08Z</time>
      </trkpt>
      <trkpt lat="42.93789" lon="-0.1295">
        <ele>2015.062</ele>
        <time>2012-06-24T11:28:17Z</time>
      </trkpt>
      <trkpt lat="42.93787" lon="-0.12952">
        <ele>2015.012</ele>
        <time>2012-06-24T11:28:25Z</time>
      </trkpt>
      <trkpt lat="42.93786" lon="-0.12952">
        <ele>2015.082</ele>
        <time>2012-06-24T11:28:32Z</time>
      </trkpt>
      <trkpt lat="42.93786" lon="-0.12951">
        <ele>2015.692</ele>
        <time>2012-06-24T11:46:33Z</time>
      </trkpt>
      <trkpt lat="42.93782" lon="-0.12956">
        <ele>2014.842</ele>
        <time>2012-06-24T11:46:39Z</time>
      </trkpt>
      <trkpt lat="42.93777" lon="-0.12957">
        <ele>2015.103</ele>
        <time>2012-06-24T11:46:44Z</time>
      </trkpt>
      <trkpt lat="42.93768" lon="-0.12956">
        <ele>2015.193</ele>
        <time>2012-06-24T11:46:54Z</time>
      </trkpt>
      <trkpt lat="42.93764" lon="-0.12954">
        <ele>2015.382</ele>
        <time>2012-06-24T11:47:00Z</time>
      </trkpt>
      <trkpt lat="42.9376" lon="-0.12953">
        <ele>2015.382</ele>
        <time>2012-06-24T11:47:06Z</time>
      </trkpt>
      <trkpt lat="42.93754" lon="-0.1295">
        <ele>2014.802</ele>
        <time>2012-06-24T11:47:13Z</time>
      </trkpt>
      <trkpt lat="42.9375" lon="-0.12947">
        <ele>2014.742</ele>
        <time>2012-06-24T11:47:19Z</time>
      </trkpt>
      <trkpt lat="42.93745" lon="-0.12942">
        <ele>2014.612</ele>
        <time>2012-06-24T11:47:25Z</time>
      </trkpt>
      <trkpt lat="42.93741" lon="-0.12933">
        <ele>2015.783</ele>
        <time>2012-06-24T11:47:33Z</time>
      </trkpt>
      <trkpt lat="42.93734" lon="-0.12924">
        <ele>2016.022</ele>
        <time>2012-06-24T11:47:42Z</time>
      </trkpt>
      <trkpt lat="42.93728" lon="-0.12917">
        <ele>2016.633</ele>
        <time>2012-06-24T11:47:51Z</time>
      </trkpt>
      <trkpt lat="42.93722" lon="-0.12912">
        <ele>2017.422</ele>
        <time>2012-06-24T11:48:00Z</time>
      </trkpt>
      <trkpt lat="42.93718" lon="-0.12908">
        <ele>2017.842</ele>
        <time>2012-06-24T11:48:07Z</time>
      </trkpt>
      <trkpt lat="42.93712" lon="-0.12906">
        <ele>2017.502</ele>
        <time>2012-06-24T11:48:14Z</time>
      </trkpt>
      <trkpt lat="42.93709" lon="-0.12903">
        <ele>2017.222</ele>
        <time>2012-06-24T11:48:19Z</time>
      </trkpt>
      <trkpt lat="42.93703" lon="-0.12896">
        <ele>2017.973</ele>
        <time>2012-06-24T11:48:28Z</time>
      </trkpt>
      <trkpt lat="42.93701" lon="-0.12892">
        <ele>2018.292</ele>
        <time>2012-06-24T11:48:34Z</time>
      </trkpt>
      <trkpt lat="42.93699" lon="-0.12885">
        <ele>2019.342</ele>
        <time>2012-06-24T11:48:41Z</time>
      </trkpt>
      <trkpt lat="42.93696" lon="-0.1288">
        <ele>2020.053</ele>
        <time>2012-06-24T11:48:47Z</time>
      </trkpt>
      <trkpt lat="42.93695" lon="-0.12878">
        <ele>2020.293</ele>
        <time>2012-06-24T11:48:49Z</time>
      </trkpt>
      <trkpt lat="42.93687" lon="-0.12871">
        <ele>2021.013</ele>
        <time>2012-06-24T11:48:59Z</time>
      </trkpt>
      <trkpt lat="42.93682" lon="-0.1286">
        <ele>2022.132</ele>
        <time>2012-06-24T11:49:09Z</time>
      </trkpt>
      <trkpt lat="42.93676" lon="-0.1285">
        <ele>2022.762</ele>
        <time>2012-06-24T11:49:18Z</time>
      </trkpt>
      <trkpt lat="42.93669" lon="-0.12843">
        <ele>2023.312</ele>
        <time>2012-06-24T11:49:27Z</time>
      </trkpt>
      <trkpt lat="42.93663" lon="-0.12833">
        <ele>2024.702</ele>
        <time>2012-06-24T11:49:37Z</time>
      </trkpt>
      <trkpt lat="42.93656" lon="-0.12825">
        <ele>2025.552</ele>
        <time>2012-06-24T11:49:47Z</time>
      </trkpt>
      <trkpt lat="42.93652" lon="-0.12822">
        <ele>2026.052</ele>
        <time>2012-06-24T11:49:53Z</time>
      </trkpt>
      <trkpt lat="42.93647" lon="-0.12818">
        <ele>2026.252</ele>
        <time>2012-06-24T11:49:59Z</time>
      </trkpt>
      <trkpt lat="42.93642" lon="-0.12821">
        <ele>2025.522</ele>
        <time>2012-06-24T11:50:06Z</time>
      </trkpt>
      <trkpt lat="42.9364" lon="-0.12822">
        <ele>2024.101</ele>
        <time>2012-06-24T11:50:11Z</time>
      </trkpt>
      <trkpt lat="42.93637" lon="-0.12824">
        <ele>2023.372</ele>
        <time>2012-06-24T11:50:19Z</time>
      </trkpt>
      <trkpt lat="42.93636" lon="-0.12828">
        <ele>2027.563</ele>
        <time>2012-06-24T11:50:24Z</time>
      </trkpt>
      <trkpt lat="42.93635" lon="-0.12829">
        <ele>2028.103</ele>
        <time>2012-06-24T11:50:25Z</time>
      </trkpt>
      <trkpt lat="42.93628" lon="-0.12825">
        <ele>2028.703</ele>
        <time>2012-06-24T11:50:35Z</time>
      </trkpt>
      <trkpt lat="42.93622" lon="-0.12821">
        <ele>2029.082</ele>
        <time>2012-06-24T11:50:43Z</time>
      </trkpt>
      <trkpt lat="42.93617" lon="-0.12817">
        <ele>2029.593</ele>
        <time>2012-06-24T11:50:51Z</time>
      </trkpt>
      <trkpt lat="42.93612" lon="-0.12815">
        <ele>2030.903</ele>
        <time>2012-06-24T11:50:59Z</time>
      </trkpt>
      <trkpt lat="42.93606" lon="-0.12812">
        <ele>2031.842</ele>
        <time>2012-06-24T11:51:08Z</time>
      </trkpt>
      <trkpt lat="42.93604" lon="-0.12811">
        <ele>2031.422</ele>
        <time>2012-06-24T11:51:15Z</time>
      </trkpt>
      <trkpt lat="42.93603" lon="-0.12811">
        <ele>2031.582</ele>
        <time>2012-06-24T11:51:16Z</time>
      </trkpt>
      <trkpt lat="42.93599" lon="-0.12812">
        <ele>2034.623</ele>
        <time>2012-06-24T11:51:23Z</time>
      </trkpt>
      <trkpt lat="42.93595" lon="-0.12814">
        <ele>2037.923</ele>
        <time>2012-06-24T11:51:31Z</time>
      </trkpt>
      <trkpt lat="42.93592" lon="-0.12816">
        <ele>2040.473</ele>
        <time>2012-06-24T11:51:38Z</time>
      </trkpt>
      <trkpt lat="42.93589" lon="-0.12819">
        <ele>2043.182</ele>
        <time>2012-06-24T11:51:46Z</time>
      </trkpt>
      <trkpt lat="42.93588" lon="-0.12821">
        <ele>2044.002</ele>
        <time>2012-06-24T11:51:51Z</time>
      </trkpt>
      <trkpt lat="42.93584" lon="-0.12823">
        <ele>2045.873</ele>
        <time>2012-06-24T11:51:58Z</time>
      </trkpt>
      <trkpt lat="42.93578" lon="-0.1282">
        <ele>2043.401</ele>
        <time>2012-06-24T11:52:06Z</time>
      </trkpt>
      <trkpt lat="42.93577" lon="-0.12819">
        <ele>2041.891</ele>
        <time>2012-06-24T11:52:09Z</time>
      </trkpt>
      <trkpt lat="42.93576" lon="-0.12816">
        <ele>2040.601</ele>
        <time>2012-06-24T11:52:12Z</time>
      </trkpt>
      <trkpt lat="42.93572" lon="-0.12814">
        <ele>2039.672</ele>
        <time>2012-06-24T11:52:18Z</time>
      </trkpt>
      <trkpt lat="42.93568" lon="-0.12813">
        <ele>2038.031</ele>
        <time>2012-06-24T11:52:26Z</time>
      </trkpt>
      <trkpt lat="42.93565" lon="-0.12808">
        <ele>2034.651</ele>
        <time>2012-06-24T11:52:33Z</time>
      </trkpt>
      <trkpt lat="42.93562" lon="-0.12805">
        <ele>2033.061</ele>
        <time>2012-06-24T11:52:39Z</time>
      </trkpt>
      <trkpt lat="42.93559" lon="-0.12805">
        <ele>2030.691</ele>
        <time>2012-06-24T11:52:59Z</time>
      </trkpt>
      <trkpt lat="42.93561" lon="-0.12804">
        <ele>2032.082</ele>
        <time>2012-06-24T11:53:27Z</time>
      </trkpt>
      <trkpt lat="42.93561" lon="-0.12802">
        <ele>2031.561</ele>
        <time>2012-06-24T11:53:34Z</time>
      </trkpt>
      <trkpt lat="42.9356" lon="-0.12803">
        <ele>2037.621</ele>
        <time>2012-06-24T11:57:07Z</time>
      </trkpt>
      <trkpt lat="42.93559" lon="-0.12804">
        <ele>2037.472</ele>
        <time>2012-06-24T11:57:12Z</time>
      </trkpt>
      <trkpt lat="42.93558" lon="-0.12804">
        <ele>2037.622</ele>
        <time>2012-06-24T11:57:13Z</time>
      </trkpt>
      <trkpt lat="42.93554" lon="-0.12802">
        <ele>2037.562</ele>
        <time>2012-06-24T11:57:19Z</time>
      </trkpt>
      <trkpt lat="42.93553" lon="-0.12805">
        <ele>2040.293</ele>
        <time>2012-06-24T11:57:25Z</time>
      </trkpt>
      <trkpt lat="42.93551" lon="-0.12811">
        <ele>2044.533</ele>
        <time>2012-06-24T11:57:34Z</time>
      </trkpt>
      <trkpt lat="42.93549" lon="-0.12813">
        <ele>2046.163</ele>
        <time>2012-06-24T11:57:39Z</time>
      </trkpt>
      <trkpt lat="42.93547" lon="-0.12814">
        <ele>2046.782</ele>
        <time>2012-06-24T11:57:46Z</time>
      </trkpt>
      <trkpt lat="42.93545" lon="-0.12818">
        <ele>2048.372</ele>
        <time>2012-06-24T11:57:52Z</time>
      </trkpt>
      <trkpt lat="42.93544" lon="-0.12822">
        <ele>2049.472</ele>
        <time>2012-06-24T11:57:57Z</time>
      </trkpt>
      <trkpt lat="42.93546" lon="-0.12827">
        <ele>2052.183</ele>
        <time>2012-06-24T11:58:03Z</time>
      </trkpt>
      <trkpt lat="42.93546" lon="-0.12831">
        <ele>2055.873</ele>
        <time>2012-06-24T11:58:09Z</time>
      </trkpt>
      <trkpt lat="42.93546" lon="-0.12832">
        <ele>2057.923</ele>
        <time>2012-06-24T11:58:16Z</time>
      </trkpt>
      <trkpt lat="42.93544" lon="-0.12834">
        <ele>2059.993</ele>
        <time>2012-06-24T11:58:23Z</time>
      </trkpt>
      <trkpt lat="42.93541" lon="-0.12836">
        <ele>2061.273</ele>
        <time>2012-06-24T11:58:29Z</time>
      </trkpt>
      <trkpt lat="42.93535" lon="-0.12835">
        <ele>2061.652</ele>
        <time>2012-06-24T11:58:37Z</time>
      </trkpt>
      <trkpt lat="42.93531" lon="-0.12834">
        <ele>2061.762</ele>
        <time>2012-06-24T11:58:45Z</time>
      </trkpt>
      <trkpt lat="42.93529" lon="-0.12832">
        <ele>2062.743</ele>
        <time>2012-06-24T11:58:50Z</time>
      </trkpt>
      <trkpt lat="42.93525" lon="-0.12829">
        <ele>2064.513</ele>
        <time>2012-06-24T11:58:57Z</time>
      </trkpt>
      <trkpt lat="42.93522" lon="-0.12827">
        <ele>2066.112</ele>
        <time>2012-06-24T11:59:03Z</time>
      </trkpt>
      <trkpt lat="42.93519" lon="-0.12825">
        <ele>2068.433</ele>
        <time>2012-06-24T11:59:10Z</time>
      </trkpt>
      <trkpt lat="42.93516" lon="-0.12822">
        <ele>2070.683</ele>
        <time>2012-06-24T11:59:17Z</time>
      </trkpt>
      <trkpt lat="42.93514" lon="-0.12821">
        <ele>2071.402</ele>
        <time>2012-06-24T11:59:20Z</time>
      </trkpt>
      <trkpt lat="42.93509" lon="-0.12819">
        <ele>2070.05</ele>
        <time>2012-06-24T11:59:27Z</time>
      </trkpt>
      <trkpt lat="42.93505" lon="-0.12816">
        <ele>2069.251</ele>
        <time>2012-06-24T11:59:33Z</time>
      </trkpt>
      <trkpt lat="42.93497" lon="-0.12808">
        <ele>2068.431</ele>
        <time>2012-06-24T11:59:42Z</time>
      </trkpt>
      <trkpt lat="42.93493" lon="-0.12796">
        <ele>2068.722</ele>
        <time>2012-06-24T11:59:51Z</time>
      </trkpt>
      <trkpt lat="42.93488" lon="-0.12788">
        <ele>2069.633</ele>
        <time>2012-06-24T11:59:59Z</time>
      </trkpt>
      <trkpt lat="42.93483" lon="-0.12784">
        <ele>2070.352</ele>
        <time>2012-06-24T12:00:06Z</time>
      </trkpt>
      <trkpt lat="42.93477" lon="-0.1278">
        <ele>2071.342</ele>
        <time>2012-06-24T12:00:15Z</time>
      </trkpt>
      <trkpt lat="42.93471" lon="-0.12774">
        <ele>2072.643</ele>
        <time>2012-06-24T12:00:25Z</time>
      </trkpt>
      <trkpt lat="42.93466" lon="-0.12769">
        <ele>2073.262</ele>
        <time>2012-06-24T12:00:33Z</time>
      </trkpt>
      <trkpt lat="42.93462" lon="-0.12757">
        <ele>2073.902</ele>
        <time>2012-06-24T12:00:43Z</time>
      </trkpt>
      <trkpt lat="42.93457" lon="-0.12747">
        <ele>2074.922</ele>
        <time>2012-06-24T12:00:52Z</time>
      </trkpt>
      <trkpt lat="42.93452" lon="-0.12738">
        <ele>2075.392</ele>
        <time>2012-06-24T12:01:00Z</time>
      </trkpt>
      <trkpt lat="42.9345" lon="-0.12734">
        <ele>2075.762</ele>
        <time>2012-06-24T12:01:04Z</time>
      </trkpt>
      <trkpt lat="42.93441" lon="-0.12725">
        <ele>2077.232</ele>
        <time>2012-06-24T12:01:14Z</time>
      </trkpt>
      <trkpt lat="42.93435" lon="-0.12718">
        <ele>2078.732</ele>
        <time>2012-06-24T12:01:21Z</time>
      </trkpt>
      <trkpt lat="42.93431" lon="-0.1271">
        <ele>2079.511</ele>
        <time>2012-06-24T12:01:28Z</time>
      </trkpt>
      <trkpt lat="42.93426" lon="-0.127">
        <ele>2080.042</ele>
        <time>2012-06-24T12:01:36Z</time>
      </trkpt>
      <trkpt lat="42.9342" lon="-0.1269">
        <ele>2081.703</ele>
        <time>2012-06-24T12:01:44Z</time>
      </trkpt>
      <trkpt lat="42.93416" lon="-0.12683">
        <ele>2083.653</ele>
        <time>2012-06-24T12:01:51Z</time>
      </trkpt>
      <trkpt lat="42.93414" lon="-0.12676">
        <ele>2084.992</ele>
        <time>2012-06-24T12:01:59Z</time>
      </trkpt>
      <trkpt lat="42.9341" lon="-0.12671">
        <ele>2084.431</ele>
        <time>2012-06-24T12:02:07Z</time>
      </trkpt>
      <trkpt lat="42.93408" lon="-0.12666">
        <ele>2084.101</ele>
        <time>2012-06-24T12:02:12Z</time>
      </trkpt>
      <trkpt lat="42.93406" lon="-0.12648">
        <ele>2083.742</ele>
        <time>2012-06-24T12:02:21Z</time>
      </trkpt>
      <trkpt lat="42.93402" lon="-0.12633">
        <ele>2083.261</ele>
        <time>2012-06-24T12:02:27Z</time>
      </trkpt>
      <trkpt lat="42.93398" lon="-0.12624">
        <ele>2083.412</ele>
        <time>2012-06-24T12:02:31Z</time>
      </trkpt>
      <trkpt lat="42.93395" lon="-0.12615">
        <ele>2083.912</ele>
        <time>2012-06-24T12:02:38Z</time>
      </trkpt>
      <trkpt lat="42.93392" lon="-0.12605">
        <ele>2084.582</ele>
        <time>2012-06-24T12:02:46Z</time>
      </trkpt>
      <trkpt lat="42.93391" lon="-0.12594">
        <ele>2085.972</ele>
        <time>2012-06-24T12:02:55Z</time>
      </trkpt>
      <trkpt lat="42.9339" lon="-0.1259">
        <ele>2086.071</ele>
        <time>2012-06-24T12:03:01Z</time>
      </trkpt>
      <trkpt lat="42.93388" lon="-0.12581">
        <ele>2086.722</ele>
        <time>2012-06-24T12:03:09Z</time>
      </trkpt>
      <trkpt lat="42.93385" lon="-0.12571">
        <ele>2087.522</ele>
        <time>2012-06-24T12:03:17Z</time>
      </trkpt>
      <trkpt lat="42.93384" lon="-0.12566">
        <ele>2087.912</ele>
        <time>2012-06-24T12:03:21Z</time>
      </trkpt>
      <trkpt lat="42.9338" lon="-0.12558">
        <ele>2088.632</ele>
        <time>2012-06-24T12:03:29Z</time>
      </trkpt>
      <trkpt lat="42.93376" lon="-0.12549">
        <ele>2089.462</ele>
        <time>2012-06-24T12:03:37Z</time>
      </trkpt>
      <trkpt lat="42.93372" lon="-0.12539">
        <ele>2090.482</ele>
        <time>2012-06-24T12:03:46Z</time>
      </trkpt>
      <trkpt lat="42.9337" lon="-0.1253">
        <ele>2091.613</ele>
        <time>2012-06-24T12:03:55Z</time>
      </trkpt>
      <trkpt lat="42.93367" lon="-0.12527">
        <ele>2092.242</ele>
        <time>2012-06-24T12:03:59Z</time>
      </trkpt>
      <trkpt lat="42.93365" lon="-0.12516">
        <ele>2093.783</ele>
        <time>2012-06-24T12:04:08Z</time>
      </trkpt>
      <trkpt lat="42.93362" lon="-0.12508">
        <ele>2096.243</ele>
        <time>2012-06-24T12:04:18Z</time>
      </trkpt>
      <trkpt lat="42.9336" lon="-0.12505">
        <ele>2097.942</ele>
        <time>2012-06-24T12:04:26Z</time>
      </trkpt>
      <trkpt lat="42.93358" lon="-0.12503">
        <ele>2099.443</ele>
        <time>2012-06-24T12:04:33Z</time>
      </trkpt>
      <trkpt lat="42.93358" lon="-0.125">
        <ele>2100.411</ele>
        <time>2012-06-24T12:04:40Z</time>
      </trkpt>
      <trkpt lat="42.93357" lon="-0.12498">
        <ele>2101.322</ele>
        <time>2012-06-24T12:04:47Z</time>
      </trkpt>
      <trkpt lat="42.93356" lon="-0.12497">
        <ele>2101.692</ele>
        <time>2012-06-24T12:04:49Z</time>
      </trkpt>
      <trkpt lat="42.93354" lon="-0.1249">
        <ele>2103.773</ele>
        <time>2012-06-24T12:04:58Z</time>
      </trkpt>
      <trkpt lat="42.93352" lon="-0.12484">
        <ele>2104.972</ele>
        <time>2012-06-24T12:05:06Z</time>
      </trkpt>
      <trkpt lat="42.93352" lon="-0.1248">
        <ele>2105.662</ele>
        <time>2012-06-24T12:05:12Z</time>
      </trkpt>
      <trkpt lat="42.93349" lon="-0.12473">
        <ele>2106.682</ele>
        <time>2012-06-24T12:05:20Z</time>
      </trkpt>
      <trkpt lat="42.93344" lon="-0.12466">
        <ele>2107.622</ele>
        <time>2012-06-24T12:05:29Z</time>
      </trkpt>
      <trkpt lat="42.93339" lon="-0.12456">
        <ele>2108.652</ele>
        <time>2012-06-24T12:05:39Z</time>
      </trkpt>
      <trkpt lat="42.93336" lon="-0.12447">
        <ele>2109.352</ele>
        <time>2012-06-24T12:05:47Z</time>
      </trkpt>
      <trkpt lat="42.93336" lon="-0.12435">
        <ele>2109.992</ele>
        <time>2012-06-24T12:05:56Z</time>
      </trkpt>
      <trkpt lat="42.93335" lon="-0.12425">
        <ele>2110.962</ele>
        <time>2012-06-24T12:06:05Z</time>
      </trkpt>
      <trkpt lat="42.93334" lon="-0.1242">
        <ele>2112.062</ele>
        <time>2012-06-24T12:06:35Z</time>
      </trkpt>
      <trkpt lat="42.93334" lon="-0.12418">
        <ele>2112.792</ele>
        <time>2012-06-24T12:06:41Z</time>
      </trkpt>
      <trkpt lat="42.93332" lon="-0.12415">
        <ele>2113.802</ele>
        <time>2012-06-24T12:06:47Z</time>
      </trkpt>
      <trkpt lat="42.93329" lon="-0.12406">
        <ele>2115.932</ele>
        <time>2012-06-24T12:06:57Z</time>
      </trkpt>
      <trkpt lat="42.93326" lon="-0.12401">
        <ele>2116.932</ele>
        <time>2012-06-24T12:07:05Z</time>
      </trkpt>
      <trkpt lat="42.93325" lon="-0.12401">
        <ele>2116.281</ele>
        <time>2012-06-24T12:07:21Z</time>
      </trkpt>
      <trkpt lat="42.93324" lon="-0.12398">
        <ele>2116.812</ele>
        <time>2012-06-24T12:07:28Z</time>
      </trkpt>
      <trkpt lat="42.93321" lon="-0.12397">
        <ele>2117.802</ele>
        <time>2012-06-24T12:07:40Z</time>
      </trkpt>
      <trkpt lat="42.93321" lon="-0.12392">
        <ele>2117.971</ele>
        <time>2012-06-24T12:07:47Z</time>
      </trkpt>
      <trkpt lat="42.9332" lon="-0.12388">
        <ele>2118.012</ele>
        <time>2012-06-24T12:07:54Z</time>
      </trkpt>
      <trkpt lat="42.93319" lon="-0.12388">
        <ele>2117.671</ele>
        <time>2012-06-24T12:08:03Z</time>
      </trkpt>
      <trkpt lat="42.93318" lon="-0.12384">
        <ele>2117.362</ele>
        <time>2012-06-24T12:08:14Z</time>
      </trkpt>
      <trkpt lat="42.93317" lon="-0.1238">
        <ele>2118.272</ele>
        <time>2012-06-24T12:08:19Z</time>
      </trkpt>
      <trkpt lat="42.93317" lon="-0.12376">
        <ele>2119.742</ele>
        <time>2012-06-24T12:08:25Z</time>
      </trkpt>
      <trkpt lat="42.93316" lon="-0.12372">
        <ele>2120.852</ele>
        <time>2012-06-24T12:08:31Z</time>
      </trkpt>
      <trkpt lat="42.93314" lon="-0.1237">
        <ele>2122.813</ele>
        <time>2012-06-24T12:08:38Z</time>
      </trkpt>
      <trkpt lat="42.93314" lon="-0.12371">
        <ele>2123.253</ele>
        <time>2012-06-24T12:08:39Z</time>
      </trkpt>
      <trkpt lat="42.93311" lon="-0.12374">
        <ele>2127.133</ele>
        <time>2012-06-24T12:08:47Z</time>
      </trkpt>
      <trkpt lat="42.93308" lon="-0.12376">
        <ele>2128.862</ele>
        <time>2012-06-24T12:08:54Z</time>
      </trkpt>
      <trkpt lat="42.93305" lon="-0.12381">
        <ele>2131.872</ele>
        <time>2012-06-24T12:09:02Z</time>
      </trkpt>
      <trkpt lat="42.93303" lon="-0.12383">
        <ele>2134.013</ele>
        <time>2012-06-24T12:09:08Z</time>
      </trkpt>
      <trkpt lat="42.93301" lon="-0.12385">
        <ele>2135.713</ele>
        <time>2012-06-24T12:09:13Z</time>
      </trkpt>
      <trkpt lat="42.93299" lon="-0.12387">
        <ele>2137.783</ele>
        <time>2012-06-24T12:09:19Z</time>
      </trkpt>
      <trkpt lat="42.93295" lon="-0.12393">
        <ele>2138.942</ele>
        <time>2012-06-24T12:09:28Z</time>
      </trkpt>
      <trkpt lat="42.93293" lon="-0.12397">
        <ele>2141.493</ele>
        <time>2012-06-24T12:09:35Z</time>
      </trkpt>
      <trkpt lat="42.93291" lon="-0.12399">
        <ele>2142.043</ele>
        <time>2012-06-24T12:09:40Z</time>
      </trkpt>
      <trkpt lat="42.93289" lon="-0.12401">
        <ele>2143.543</ele>
        <time>2012-06-24T12:09:45Z</time>
      </trkpt>
      <trkpt lat="42.93287" lon="-0.12403">
        <ele>2145.912</ele>
        <time>2012-06-24T12:09:52Z</time>
      </trkpt>
      <trkpt lat="42.93285" lon="-0.12404">
        <ele>2147.292</ele>
        <time>2012-06-24T12:09:57Z</time>
      </trkpt>
      <trkpt lat="42.93283" lon="-0.12408">
        <ele>2149.352</ele>
        <time>2012-06-24T12:10:04Z</time>
      </trkpt>
      <trkpt lat="42.93282" lon="-0.1241">
        <ele>2150.532</ele>
        <time>2012-06-24T12:10:09Z</time>
      </trkpt>
      <trkpt lat="42.9328" lon="-0.12413">
        <ele>2152.152</ele>
        <time>2012-06-24T12:10:15Z</time>
      </trkpt>
      <trkpt lat="42.93277" lon="-0.12415">
        <ele>2153.992</ele>
        <time>2012-06-24T12:10:21Z</time>
      </trkpt>
      <trkpt lat="42.93275" lon="-0.12417">
        <ele>2155.112</ele>
        <time>2012-06-24T12:10:26Z</time>
      </trkpt>
      <trkpt lat="42.93273" lon="-0.1242">
        <ele>2156.542</ele>
        <time>2012-06-24T12:10:33Z</time>
      </trkpt>
      <trkpt lat="42.93271" lon="-0.12422">
        <ele>2157.802</ele>
        <time>2012-06-24T12:10:40Z</time>
      </trkpt>
      <trkpt lat="42.93271" lon="-0.12423">
        <ele>2156.851</ele>
        <time>2012-06-24T12:10:47Z</time>
      </trkpt>
      <trkpt lat="42.93269" lon="-0.12427">
        <ele>2158.102</ele>
        <time>2012-06-24T12:10:53Z</time>
      </trkpt>
      <trkpt lat="42.93266" lon="-0.12434">
        <ele>2159.251</ele>
        <time>2012-06-24T12:11:01Z</time>
      </trkpt>
      <trkpt lat="42.93262" lon="-0.12438">
        <ele>2160.711</ele>
        <time>2012-06-24T12:11:09Z</time>
      </trkpt>
      <trkpt lat="42.93259" lon="-0.12445">
        <ele>2162.812</ele>
        <time>2012-06-24T12:11:18Z</time>
      </trkpt>
      <trkpt lat="42.93257" lon="-0.12452">
        <ele>2165.512</ele>
        <time>2012-06-24T12:11:26Z</time>
      </trkpt>
      <trkpt lat="42.93256" lon="-0.12454">
        <ele>2165.601</ele>
        <time>2012-06-24T12:11:33Z</time>
      </trkpt>
      <trkpt lat="42.93252" lon="-0.12459">
        <ele>2166.741</ele>
        <time>2012-06-24T12:11:42Z</time>
      </trkpt>
      <trkpt lat="42.93249" lon="-0.12461">
        <ele>2167.702</ele>
        <time>2012-06-24T12:11:48Z</time>
      </trkpt>
      <trkpt lat="42.93248" lon="-0.12466">
        <ele>2169.362</ele>
        <time>2012-06-24T12:11:56Z</time>
      </trkpt>
      <trkpt lat="42.93246" lon="-0.1247">
        <ele>2171.092</ele>
        <time>2012-06-24T12:12:03Z</time>
      </trkpt>
      <trkpt lat="42.93245" lon="-0.1247">
        <ele>2171.362</ele>
        <time>2012-06-24T12:12:08Z</time>
      </trkpt>
      <trkpt lat="42.93243" lon="-0.12474">
        <ele>2171.661</ele>
        <time>2012-06-24T12:12:17Z</time>
      </trkpt>
      <trkpt lat="42.9324" lon="-0.12475">
        <ele>2172.952</ele>
        <time>2012-06-24T12:12:24Z</time>
      </trkpt>
      <trkpt lat="42.93238" lon="-0.12471">
        <ele>2171.391</ele>
        <time>2012-06-24T12:12:30Z</time>
      </trkpt>
      <trkpt lat="42.93234" lon="-0.12468">
        <ele>2170.692</ele>
        <time>2012-06-24T12:12:38Z</time>
      </trkpt>
      <trkpt lat="42.93233" lon="-0.12465">
        <ele>2170.081</ele>
        <time>2012-06-24T12:12:45Z</time>
      </trkpt>
      <trkpt lat="42.9323" lon="-0.12462">
        <ele>2169.592</ele>
        <time>2012-06-24T12:12:52Z</time>
      </trkpt>
      <trkpt lat="42.93227" lon="-0.12459">
        <ele>2169.682</ele>
        <time>2012-06-24T12:12:58Z</time>
      </trkpt>
      <trkpt lat="42.93225" lon="-0.12457">
        <ele>2169.811</ele>
        <time>2012-06-24T12:13:05Z</time>
      </trkpt>
      <trkpt lat="42.93223" lon="-0.12454">
        <ele>2170.052</ele>
        <time>2012-06-24T12:13:11Z</time>
      </trkpt>
      <trkpt lat="42.9322" lon="-0.12452">
        <ele>2170.401</ele>
        <time>2012-06-24T12:13:19Z</time>
      </trkpt>
      <trkpt lat="42.93217" lon="-0.12451">
        <ele>2171.842</ele>
        <time>2012-06-24T12:13:27Z</time>
      </trkpt>
      <trkpt lat="42.93216" lon="-0.1245">
        <ele>2173.441</ele>
        <time>2012-06-24T12:13:33Z</time>
      </trkpt>
      <trkpt lat="42.93215" lon="-0.12453">
        <ele>2176.042</ele>
        <time>2012-06-24T12:13:42Z</time>
      </trkpt>
      <trkpt lat="42.93215" lon="-0.1246">
        <ele>2179.693</ele>
        <time>2012-06-24T12:13:50Z</time>
      </trkpt>
      <trkpt lat="42.93213" lon="-0.12464">
        <ele>2182.732</ele>
        <time>2012-06-24T12:13:57Z</time>
      </trkpt>
      <trkpt lat="42.93211" lon="-0.12463">
        <ele>2183.122</ele>
        <time>2012-06-24T12:14:02Z</time>
      </trkpt>
      <trkpt lat="42.93208" lon="-0.12461">
        <ele>2182.871</ele>
        <time>2012-06-24T12:14:09Z</time>
      </trkpt>
      <trkpt lat="42.93206" lon="-0.12459">
        <ele>2183.862</ele>
        <time>2012-06-24T12:14:15Z</time>
      </trkpt>
      <trkpt lat="42.93204" lon="-0.12457">
        <ele>2186.222</ele>
        <time>2012-06-24T12:14:21Z</time>
      </trkpt>
      <trkpt lat="42.93203" lon="-0.12456">
        <ele>2186.562</ele>
        <time>2012-06-24T12:14:25Z</time>
      </trkpt>
      <trkpt lat="42.93199" lon="-0.12452">
        <ele>2187.201</ele>
        <time>2012-06-24T12:14:31Z</time>
      </trkpt>
      <trkpt lat="42.93197" lon="-0.12452">
        <ele>2187.872</ele>
        <time>2012-06-24T12:14:35Z</time>
      </trkpt>
      <trkpt lat="42.93194" lon="-0.12447">
        <ele>2186.071</ele>
        <time>2012-06-24T12:14:43Z</time>
      </trkpt>
      <trkpt lat="42.93192" lon="-0.12441">
        <ele>2185.831</ele>
        <time>2012-06-24T12:16:16Z</time>
      </trkpt>
      <trkpt lat="42.93189" lon="-0.12436">
        <ele>2188.192</ele>
        <time>2012-06-24T12:16:24Z</time>
      </trkpt>
      <trkpt lat="42.93187" lon="-0.12432">
        <ele>2189.612</ele>
        <time>2012-06-24T12:16:30Z</time>
      </trkpt>
      <trkpt lat="42.93185" lon="-0.12431">
        <ele>2191.782</ele>
        <time>2012-06-24T12:16:37Z</time>
      </trkpt>
      <trkpt lat="42.93184" lon="-0.12429">
        <ele>2192.782</ele>
        <time>2012-06-24T12:16:43Z</time>
      </trkpt>
      <trkpt lat="42.93183" lon="-0.12427">
        <ele>2193.333</ele>
        <time>2012-06-24T12:16:48Z</time>
      </trkpt>
      <trkpt lat="42.93182" lon="-0.12425">
        <ele>2193.911</ele>
        <time>2012-06-24T12:16:54Z</time>
      </trkpt>
      <trkpt lat="42.9318" lon="-0.12426">
        <ele>2194.482</ele>
        <time>2012-06-24T12:17:00Z</time>
      </trkpt>
      <trkpt lat="42.93179" lon="-0.12422">
        <ele>2196.043</ele>
        <time>2012-06-24T12:17:08Z</time>
      </trkpt>
      <trkpt lat="42.93178" lon="-0.12419">
        <ele>2197.461</ele>
        <time>2012-06-24T12:17:13Z</time>
      </trkpt>
      <trkpt lat="42.93176" lon="-0.12415">
        <ele>2199.014</ele>
        <time>2012-06-24T12:17:21Z</time>
      </trkpt>
      <trkpt lat="42.93174" lon="-0.12411">
        <ele>2200.601</ele>
        <time>2012-06-24T12:17:28Z</time>
      </trkpt>
      <trkpt lat="42.93173" lon="-0.12409">
        <ele>2201.471</ele>
        <time>2012-06-24T12:17:34Z</time>
      </trkpt>
      <trkpt lat="42.93172" lon="-0.12407">
        <ele>2201.612</ele>
        <time>2012-06-24T12:17:36Z</time>
      </trkpt>
      <trkpt lat="42.93171" lon="-0.12401">
        <ele>2203.722</ele>
        <time>2012-06-24T12:17:44Z</time>
      </trkpt>
      <trkpt lat="42.93171" lon="-0.12398">
        <ele>2205.312</ele>
        <time>2012-06-24T12:17:49Z</time>
      </trkpt>
      <trkpt lat="42.9317" lon="-0.12395">
        <ele>2207.753</ele>
        <time>2012-06-24T12:17:56Z</time>
      </trkpt>
      <trkpt lat="42.93168" lon="-0.12395">
        <ele>2209.241</ele>
        <time>2012-06-24T12:18:03Z</time>
      </trkpt>
      <trkpt lat="42.93166" lon="-0.12395">
        <ele>2211.252</ele>
        <time>2012-06-24T12:18:09Z</time>
      </trkpt>
      <trkpt lat="42.93165" lon="-0.12394">
        <ele>2211.521</ele>
        <time>2012-06-24T12:18:12Z</time>
      </trkpt>
      <trkpt lat="42.93165" lon="-0.12392">
        <ele>2209.42</ele>
        <time>2012-06-24T12:18:19Z</time>
      </trkpt>
      <trkpt lat="42.93165" lon="-0.12393">
        <ele>2203.171</ele>
        <time>2012-06-24T12:19:05Z</time>
      </trkpt>
      <trkpt lat="42.93164" lon="-0.12392">
        <ele>2203.821</ele>
        <time>2012-06-24T12:19:14Z</time>
      </trkpt>
      <trkpt lat="42.93163" lon="-0.12389">
        <ele>2204.693</ele>
        <time>2012-06-24T12:19:19Z</time>
      </trkpt>
      <trkpt lat="42.93159" lon="-0.12388">
        <ele>2206.652</ele>
        <time>2012-06-24T12:19:26Z</time>
      </trkpt>
      <trkpt lat="42.93157" lon="-0.12387">
        <ele>2207.542</ele>
        <time>2012-06-24T12:19:31Z</time>
      </trkpt>
      <trkpt lat="42.93154" lon="-0.12385">
        <ele>2208.962</ele>
        <time>2012-06-24T12:19:37Z</time>
      </trkpt>
      <trkpt lat="42.93151" lon="-0.12384">
        <ele>2210.234</ele>
        <time>2012-06-24T12:19:44Z</time>
      </trkpt>
      <trkpt lat="42.93148" lon="-0.12383">
        <ele>2211.775</ele>
        <time>2012-06-24T12:19:50Z</time>
      </trkpt>
      <trkpt lat="42.93144" lon="-0.12384">
        <ele>2213.361</ele>
        <time>2012-06-24T12:19:59Z</time>
      </trkpt>
      <trkpt lat="42.93141" lon="-0.12385">
        <ele>2216.312</ele>
        <time>2012-06-24T12:20:05Z</time>
      </trkpt>
      <trkpt lat="42.9314" lon="-0.12382">
        <ele>2217.001</ele>
        <time>2012-06-24T12:20:11Z</time>
      </trkpt>
      <trkpt lat="42.93137" lon="-0.12379">
        <ele>2216.662</ele>
        <time>2012-06-24T12:20:20Z</time>
      </trkpt>
      <trkpt lat="42.93134" lon="-0.12379">
        <ele>2218.682</ele>
        <time>2012-06-24T12:20:28Z</time>
      </trkpt>
      <trkpt lat="42.93132" lon="-0.12377">
        <ele>2218.762</ele>
        <time>2012-06-24T12:20:35Z</time>
      </trkpt>
      <trkpt lat="42.9313" lon="-0.12379">
        <ele>2222.324</ele>
        <time>2012-06-24T12:20:42Z</time>
      </trkpt>
      <trkpt lat="42.93127" lon="-0.12381">
        <ele>2225.351</ele>
        <time>2012-06-24T12:20:48Z</time>
      </trkpt>
      <trkpt lat="42.93126" lon="-0.12383">
        <ele>2228.28</ele>
        <time>2012-06-24T12:20:59Z</time>
      </trkpt>
      <trkpt lat="42.93125" lon="-0.12385">
        <ele>2229.861</ele>
        <time>2012-06-24T12:21:04Z</time>
      </trkpt>
      <trkpt lat="42.93123" lon="-0.12388">
        <ele>2231.204</ele>
        <time>2012-06-24T12:21:09Z</time>
      </trkpt>
      <trkpt lat="42.93121" lon="-0.12388">
        <ele>2231.152</ele>
        <time>2012-06-24T12:21:18Z</time>
      </trkpt>
      <trkpt lat="42.93119" lon="-0.12389">
        <ele>2231.624</ele>
        <time>2012-06-24T12:21:29Z</time>
      </trkpt>
      <trkpt lat="42.93117" lon="-0.1239">
        <ele>2230.311</ele>
        <time>2012-06-24T12:21:39Z</time>
      </trkpt>
      <trkpt lat="42.93116" lon="-0.12392">
        <ele>2230.553</ele>
        <time>2012-06-24T12:21:51Z</time>
      </trkpt>
      <trkpt lat="42.93116" lon="-0.12393">
        <ele>2232.521</ele>
        <time>2012-06-24T12:22:00Z</time>
      </trkpt>
      <trkpt lat="42.93115" lon="-0.12394">
        <ele>2234.102</ele>
        <time>2012-06-24T12:22:14Z</time>
      </trkpt>
      <trkpt lat="42.93114" lon="-0.12397">
        <ele>2235.525</ele>
        <time>2012-06-24T12:22:20Z</time>
      </trkpt>
      <trkpt lat="42.93112" lon="-0.12398">
        <ele>2236.824</ele>
        <time>2012-06-24T12:22:25Z</time>
      </trkpt>
      <trkpt lat="42.9311" lon="-0.12398">
        <ele>2238.001</ele>
        <time>2012-06-24T12:22:30Z</time>
      </trkpt>
      <trkpt lat="42.93108" lon="-0.12395">
        <ele>2236.048</ele>
        <time>2012-06-24T12:22:37Z</time>
      </trkpt>
      <trkpt lat="42.93111" lon="-0.1239">
        <ele>2234.475</ele>
        <time>2012-06-24T12:25:58Z</time>
      </trkpt>
      <trkpt lat="42.93111" lon="-0.12393">
        <ele>2235.18</ele>
        <time>2012-06-24T12:26:04Z</time>
      </trkpt>
      <trkpt lat="42.93108" lon="-0.12397">
        <ele>2236.343</ele>
        <time>2012-06-24T12:26:09Z</time>
      </trkpt>
      <trkpt lat="42.93107" lon="-0.12404">
        <ele>2237.111</ele>
        <time>2012-06-24T12:26:15Z</time>
      </trkpt>
      <trkpt lat="42.9311" lon="-0.12409">
        <ele>2238.322</ele>
        <time>2012-06-24T12:26:22Z</time>
      </trkpt>
      <trkpt lat="42.93109" lon="-0.12411">
        <ele>2238.661</ele>
        <time>2012-06-24T12:26:31Z</time>
      </trkpt>
      <trkpt lat="42.93107" lon="-0.12416">
        <ele>2240.423</ele>
        <time>2012-06-24T12:26:38Z</time>
      </trkpt>
      <trkpt lat="42.93109" lon="-0.12418">
        <ele>2241.593</ele>
        <time>2012-06-24T12:26:42Z</time>
      </trkpt>
      <trkpt lat="42.93109" lon="-0.12425">
        <ele>2244.174</ele>
        <time>2012-06-24T12:26:50Z</time>
      </trkpt>
      <trkpt lat="42.9311" lon="-0.1243">
        <ele>2245.882</ele>
        <time>2012-06-24T12:26:57Z</time>
      </trkpt>
      <trkpt lat="42.93111" lon="-0.12433">
        <ele>2246.722</ele>
        <time>2012-06-24T12:27:03Z</time>
      </trkpt>
      <trkpt lat="42.93109" lon="-0.12438">
        <ele>2247.314</ele>
        <time>2012-06-24T12:27:11Z</time>
      </trkpt>
      <trkpt lat="42.93108" lon="-0.12442">
        <ele>2248.557</ele>
        <time>2012-06-24T12:27:17Z</time>
      </trkpt>
      <trkpt lat="42.93106" lon="-0.12445">
        <ele>2249.693</ele>
        <time>2012-06-24T12:27:23Z</time>
      </trkpt>
      <trkpt lat="42.93105" lon="-0.12449">
        <ele>2249.482</ele>
        <time>2012-06-24T12:27:29Z</time>
      </trkpt>
      <trkpt lat="42.93103" lon="-0.12453">
        <ele>2251.357</ele>
        <time>2012-06-24T12:27:37Z</time>
      </trkpt>
      <trkpt lat="42.93101" lon="-0.12457">
        <ele>2252.833</ele>
        <time>2012-06-24T12:27:44Z</time>
      </trkpt>
      <trkpt lat="42.93099" lon="-0.12458">
        <ele>2253.711</ele>
        <time>2012-06-24T12:27:50Z</time>
      </trkpt>
      <trkpt lat="42.93098" lon="-0.12461">
        <ele>2254.185</ele>
        <time>2012-06-24T12:27:55Z</time>
      </trkpt>
      <trkpt lat="42.93095" lon="-0.12465">
        <ele>2255.977</ele>
        <time>2012-06-24T12:28:02Z</time>
      </trkpt>
      <trkpt lat="42.93091" lon="-0.12466">
        <ele>2258.084</ele>
        <time>2012-06-24T12:28:08Z</time>
      </trkpt>
      <trkpt lat="42.93089" lon="-0.12466">
        <ele>2260.076</ele>
        <time>2012-06-24T12:28:13Z</time>
      </trkpt>
      <trkpt lat="42.93085" lon="-0.12467">
        <ele>2263.634</ele>
        <time>2012-06-24T12:28:23Z</time>
      </trkpt>
      <trkpt lat="42.93083" lon="-0.12468">
        <ele>2264.745</ele>
        <time>2012-06-24T12:28:30Z</time>
      </trkpt>
      <trkpt lat="42.93081" lon="-0.12467">
        <ele>2265.965</ele>
        <time>2012-06-24T12:28:35Z</time>
      </trkpt>
      <trkpt lat="42.9308" lon="-0.12467">
        <ele>2266.615</ele>
        <time>2012-06-24T12:28:37Z</time>
      </trkpt>
      <trkpt lat="42.93078" lon="-0.12464">
        <ele>2267.313</ele>
        <time>2012-06-24T12:28:43Z</time>
      </trkpt>
      <trkpt lat="42.93076" lon="-0.12459">
        <ele>2264.37</ele>
        <time>2012-06-24T12:28:51Z</time>
      </trkpt>
      <trkpt lat="42.93074" lon="-0.12457">
        <ele>2260.119</ele>
        <time>2012-06-24T12:28:57Z</time>
      </trkpt>
      <trkpt lat="42.93071" lon="-0.12456">
        <ele>2264.282</ele>
        <time>2012-06-24T12:29:09Z</time>
      </trkpt>
      <trkpt lat="42.93069" lon="-0.12453">
        <ele>2264.802</ele>
        <time>2012-06-24T12:29:14Z</time>
      </trkpt>
      <trkpt lat="42.93067" lon="-0.1245">
        <ele>2265.261</ele>
        <time>2012-06-24T12:29:20Z</time>
      </trkpt>
      <trkpt lat="42.93065" lon="-0.12447">
        <ele>2262.58</ele>
        <time>2012-06-24T12:29:26Z</time>
      </trkpt>
      <trkpt lat="42.93063" lon="-0.12443">
        <ele>2261.532</ele>
        <time>2012-06-24T12:29:33Z</time>
      </trkpt>
      <trkpt lat="42.93061" lon="-0.12439">
        <ele>2263.565</ele>
        <time>2012-06-24T12:29:38Z</time>
      </trkpt>
      <trkpt lat="42.9306" lon="-0.12438">
        <ele>2267.558</ele>
        <time>2012-06-24T12:29:43Z</time>
      </trkpt>
      <trkpt lat="42.9306" lon="-0.12441">
        <ele>2270.663</ele>
        <time>2012-06-24T12:29:53Z</time>
      </trkpt>
      <trkpt lat="42.9306" lon="-0.12441">
        <ele>2271.058</ele>
        <time>2012-06-24T12:29:55Z</time>
      </trkpt>
      <trkpt lat="42.93059" lon="-0.12443">
        <ele>2271.963</ele>
        <time>2012-06-24T12:30:00Z</time>
      </trkpt>
      <trkpt lat="42.93058" lon="-0.12445">
        <ele>2272.345</ele>
        <time>2012-06-24T12:30:05Z</time>
      </trkpt>
      <trkpt lat="42.93056" lon="-0.12447">
        <ele>2273.123</ele>
        <time>2012-06-24T12:30:12Z</time>
      </trkpt>
      <trkpt lat="42.93055" lon="-0.12449">
        <ele>2273.875</ele>
        <time>2012-06-24T12:30:18Z</time>
      </trkpt>
      <trkpt lat="42.93054" lon="-0.12448">
        <ele>2271.772</ele>
        <time>2012-06-24T12:30:28Z</time>
      </trkpt>
      <trkpt lat="42.93052" lon="-0.12451">
        <ele>2273.769</ele>
        <time>2012-06-24T12:30:35Z</time>
      </trkpt>
      <trkpt lat="42.9305" lon="-0.12456">
        <ele>2275.714</ele>
        <time>2012-06-24T12:30:42Z</time>
      </trkpt>
      <trkpt lat="42.93049" lon="-0.12459">
        <ele>2276.973</ele>
        <time>2012-06-24T12:30:50Z</time>
      </trkpt>
      <trkpt lat="42.93049" lon="-0.12464">
        <ele>2277.182</ele>
        <time>2012-06-24T12:30:59Z</time>
      </trkpt>
      <trkpt lat="42.93049" lon="-0.12466">
        <ele>2278.902</ele>
        <time>2012-06-24T12:31:05Z</time>
      </trkpt>
      <trkpt lat="42.93049" lon="-0.12466">
        <ele>2279.42</ele>
        <time>2012-06-24T12:31:11Z</time>
      </trkpt>
      <trkpt lat="42.9305" lon="-0.1247">
        <ele>2279.241</ele>
        <time>2012-06-24T12:31:20Z</time>
      </trkpt>
      <trkpt lat="42.93051" lon="-0.12475">
        <ele>2279.823</ele>
        <time>2012-06-24T12:31:28Z</time>
      </trkpt>
      <trkpt lat="42.93051" lon="-0.12476">
        <ele>2280.192</ele>
        <time>2012-06-24T12:31:34Z</time>
      </trkpt>
      <trkpt lat="42.9305" lon="-0.1248">
        <ele>2280.937</ele>
        <time>2012-06-24T12:31:44Z</time>
      </trkpt>
      <trkpt lat="42.93049" lon="-0.12483">
        <ele>2282.768</ele>
        <time>2012-06-24T12:31:51Z</time>
      </trkpt>
      <trkpt lat="42.93049" lon="-0.12483">
        <ele>2283.025</ele>
        <time>2012-06-24T12:31:52Z</time>
      </trkpt>
      <trkpt lat="42.93046" lon="-0.12486">
        <ele>2286.001</ele>
        <time>2012-06-24T12:31:59Z</time>
      </trkpt>
      <trkpt lat="42.93047" lon="-0.12488">
        <ele>2286.675</ele>
        <time>2012-06-24T12:32:04Z</time>
      </trkpt>
      <trkpt lat="42.93047" lon="-0.12492">
        <ele>2287.803</ele>
        <time>2012-06-24T12:32:11Z</time>
      </trkpt>
      <trkpt lat="42.93047" lon="-0.12499">
        <ele>2289.934</ele>
        <time>2012-06-24T12:32:20Z</time>
      </trkpt>
      <trkpt lat="42.93046" lon="-0.12502">
        <ele>2290.653</ele>
        <time>2012-06-24T12:32:25Z</time>
      </trkpt>
      <trkpt lat="42.93045" lon="-0.12504">
        <ele>2291.622</ele>
        <time>2012-06-24T12:32:32Z</time>
      </trkpt>
      <trkpt lat="42.93041" lon="-0.12506">
        <ele>2291.791</ele>
        <time>2012-06-24T12:32:52Z</time>
      </trkpt>
      <trkpt lat="42.93037" lon="-0.12506">
        <ele>2290.697</ele>
        <time>2012-06-24T12:33:01Z</time>
      </trkpt>
      <trkpt lat="42.93037" lon="-0.12508">
        <ele>2291.786</ele>
        <time>2012-06-24T12:33:08Z</time>
      </trkpt>
      <trkpt lat="42.93037" lon="-0.12509">
        <ele>2293.318</ele>
        <time>2012-06-24T12:33:13Z</time>
      </trkpt>
      <trkpt lat="42.93037" lon="-0.12512">
        <ele>2296.437</ele>
        <time>2012-06-24T12:33:28Z</time>
      </trkpt>
      <trkpt lat="42.93036" lon="-0.12514">
        <ele>2298.773</ele>
        <time>2012-06-24T12:33:39Z</time>
      </trkpt>
      <trkpt lat="42.93034" lon="-0.12516">
        <ele>2300.548</ele>
        <time>2012-06-24T12:33:45Z</time>
      </trkpt>
      <trkpt lat="42.93034" lon="-0.12517">
        <ele>2299.671</ele>
        <time>2012-06-24T12:33:55Z</time>
      </trkpt>
      <trkpt lat="42.93037" lon="-0.12519">
        <ele>2299.482</ele>
        <time>2012-06-24T12:34:10Z</time>
      </trkpt>
      <trkpt lat="42.9304" lon="-0.12522">
        <ele>2301.084</ele>
        <time>2012-06-24T12:34:20Z</time>
      </trkpt>
      <trkpt lat="42.93041" lon="-0.12526">
        <ele>2302.603</ele>
        <time>2012-06-24T12:34:31Z</time>
      </trkpt>
      <trkpt lat="42.93039" lon="-0.12527">
        <ele>2303.209</ele>
        <time>2012-06-24T12:34:38Z</time>
      </trkpt>
      <trkpt lat="42.93036" lon="-0.12528">
        <ele>2303.828</ele>
        <time>2012-06-24T12:35:42Z</time>
      </trkpt>
      <trkpt lat="42.93035" lon="-0.1253">
        <ele>2307.079</ele>
        <time>2012-06-24T12:36:22Z</time>
      </trkpt>
      <trkpt lat="42.93035" lon="-0.12528">
        <ele>2303.805</ele>
        <time>2012-06-24T12:36:41Z</time>
      </trkpt>
      <trkpt lat="42.93033" lon="-0.1253">
        <ele>2304.812</ele>
        <time>2012-06-24T12:36:55Z</time>
      </trkpt>
      <trkpt lat="42.93031" lon="-0.12533">
        <ele>2308.031</ele>
        <time>2012-06-24T12:37:02Z</time>
      </trkpt>
      <trkpt lat="42.93031" lon="-0.12535">
        <ele>2309.772</ele>
        <time>2012-06-24T12:37:11Z</time>
      </trkpt>
      <trkpt lat="42.93029" lon="-0.12537">
        <ele>2311.497</ele>
        <time>2012-06-24T12:37:16Z</time>
      </trkpt>
      <trkpt lat="42.93029" lon="-0.12543">
        <ele>2315.62</ele>
        <time>2012-06-24T12:37:28Z</time>
      </trkpt>
      <trkpt lat="42.93029" lon="-0.12546">
        <ele>2316.686</ele>
        <time>2012-06-24T12:37:34Z</time>
      </trkpt>
      <trkpt lat="42.9303" lon="-0.12546">
        <ele>2315.742</ele>
        <time>2012-06-24T12:37:46Z</time>
      </trkpt>
      <trkpt lat="42.93031" lon="-0.12549">
        <ele>2318.02</ele>
        <time>2012-06-24T12:37:53Z</time>
      </trkpt>
      <trkpt lat="42.93033" lon="-0.12553">
        <ele>2320.007</ele>
        <time>2012-06-24T12:38:01Z</time>
      </trkpt>
      <trkpt lat="42.93034" lon="-0.12556">
        <ele>2322.484</ele>
        <time>2012-06-24T12:38:09Z</time>
      </trkpt>
      <trkpt lat="42.93034" lon="-0.12559">
        <ele>2323.944</ele>
        <time>2012-06-24T12:38:17Z</time>
      </trkpt>
      <trkpt lat="42.93033" lon="-0.12561">
        <ele>2325.327</ele>
        <time>2012-06-24T12:38:24Z</time>
      </trkpt>
      <trkpt lat="42.93031" lon="-0.12561">
        <ele>2326.42</ele>
        <time>2012-06-24T12:38:29Z</time>
      </trkpt>
      <trkpt lat="42.93029" lon="-0.12563">
        <ele>2328.409</ele>
        <time>2012-06-24T12:38:35Z</time>
      </trkpt>
      <trkpt lat="42.9303" lon="-0.12566">
        <ele>2329.461</ele>
        <time>2012-06-24T12:38:40Z</time>
      </trkpt>
      <trkpt lat="42.93029" lon="-0.12567">
        <ele>2330.648</ele>
        <time>2012-06-24T12:38:44Z</time>
      </trkpt>
      <trkpt lat="42.93028" lon="-0.12569">
        <ele>2328.906</ele>
        <time>2012-06-24T12:39:01Z</time>
      </trkpt>
      <trkpt lat="42.93028" lon="-0.1257">
        <ele>2328.335</ele>
        <time>2012-06-24T12:39:09Z</time>
      </trkpt>
      <trkpt lat="42.93027" lon="-0.12573">
        <ele>2330.096</ele>
        <time>2012-06-24T12:39:15Z</time>
      </trkpt>
      <trkpt lat="42.93025" lon="-0.12574">
        <ele>2332.905</ele>
        <time>2012-06-24T12:39:20Z</time>
      </trkpt>
      <trkpt lat="42.93023" lon="-0.12578">
        <ele>2334.812</ele>
        <time>2012-06-24T12:39:26Z</time>
      </trkpt>
      <trkpt lat="42.93023" lon="-0.1258">
        <ele>2334.007</ele>
        <time>2012-06-24T12:39:34Z</time>
      </trkpt>
      <trkpt lat="42.93021" lon="-0.12578">
        <ele>2335.892</ele>
        <time>2012-06-24T12:40:00Z</time>
      </trkpt>
      <trkpt lat="42.9302" lon="-0.12578">
        <ele>2334.825</ele>
        <time>2012-06-24T12:40:07Z</time>
      </trkpt>
      <trkpt lat="42.93015" lon="-0.1258">
        <ele>2334.73</ele>
        <time>2012-06-24T12:40:13Z</time>
      </trkpt>
      <trkpt lat="42.93006" lon="-0.12585">
        <ele>2335.641</ele>
        <time>2012-06-24T12:40:22Z</time>
      </trkpt>
      <trkpt lat="42.93004" lon="-0.12587">
        <ele>2336.031</ele>
        <time>2012-06-24T12:40:24Z</time>
      </trkpt>
      <trkpt lat="42.93002" lon="-0.1259">
        <ele>2336.83</ele>
        <time>2012-06-24T12:40:32Z</time>
      </trkpt>
      <trkpt lat="42.92999" lon="-0.12592">
        <ele>2336.74</ele>
        <time>2012-06-24T12:40:38Z</time>
      </trkpt>
      <trkpt lat="42.93001" lon="-0.12599">
        <ele>2336.199</ele>
        <time>2012-06-24T13:04:43Z</time>
      </trkpt>
      <trkpt lat="42.93001" lon="-0.126">
        <ele>2336.129</ele>
        <time>2012-06-24T13:04:44Z</time>
      </trkpt>
      <trkpt lat="42.92998" lon="-0.12604">
        <ele>2336.11</ele>
        <time>2012-06-24T13:04:51Z</time>
      </trkpt>
      <trkpt lat="42.92999" lon="-0.12605">
        <ele>2337.46</ele>
        <time>2012-06-24T13:05:46Z</time>
      </trkpt>
      <trkpt lat="42.92998" lon="-0.12612">
        <ele>2339.848</ele>
        <time>2012-06-24T13:07:24Z</time>
      </trkpt>
      <trkpt lat="42.92997" lon="-0.12631">
        <ele>2336.487</ele>
        <time>2012-06-24T13:07:29Z</time>
      </trkpt>
      <trkpt lat="42.92999" lon="-0.12653">
        <ele>2331.975</ele>
        <time>2012-06-24T13:07:34Z</time>
      </trkpt>
      <trkpt lat="42.92996" lon="-0.12667">
        <ele>2328.656</ele>
        <time>2012-06-24T13:07:38Z</time>
      </trkpt>
      <trkpt lat="42.92993" lon="-0.12688">
        <ele>2324.207</ele>
        <time>2012-06-24T13:07:44Z</time>
      </trkpt>
      <trkpt lat="42.92988" lon="-0.12708">
        <ele>2320.237</ele>
        <time>2012-06-24T13:07:50Z</time>
      </trkpt>
      <trkpt lat="42.92986" lon="-0.12721">
        <ele>2318.186</ele>
        <time>2012-06-24T13:07:54Z</time>
      </trkpt>
      <trkpt lat="42.92983" lon="-0.12744">
        <ele>2314.427</ele>
        <time>2012-06-24T13:08:00Z</time>
      </trkpt>
      <trkpt lat="42.92982" lon="-0.12762">
        <ele>2311.416</ele>
        <time>2012-06-24T13:08:06Z</time>
      </trkpt>
      <trkpt lat="42.92983" lon="-0.1277">
        <ele>2310.488</ele>
        <time>2012-06-24T13:08:09Z</time>
      </trkpt>
      <trkpt lat="42.92983" lon="-0.12779">
        <ele>2308.988</ele>
        <time>2012-06-24T13:08:14Z</time>
      </trkpt>
      <trkpt lat="42.92982" lon="-0.12782">
        <ele>2308.208</ele>
        <time>2012-06-24T13:08:17Z</time>
      </trkpt>
      <trkpt lat="42.9298" lon="-0.12797">
        <ele>2305.427</ele>
        <time>2012-06-24T13:08:24Z</time>
      </trkpt>
      <trkpt lat="42.92979" lon="-0.12816">
        <ele>2302.737</ele>
        <time>2012-06-24T13:08:29Z</time>
      </trkpt>
      <trkpt lat="42.92977" lon="-0.1284">
        <ele>2298.966</ele>
        <time>2012-06-24T13:08:34Z</time>
      </trkpt>
      <trkpt lat="42.92974" lon="-0.12855">
        <ele>2295.555</ele>
        <time>2012-06-24T13:08:38Z</time>
      </trkpt>
      <trkpt lat="42.92973" lon="-0.12875">
        <ele>2290.894</ele>
        <time>2012-06-24T13:08:43Z</time>
      </trkpt>
      <trkpt lat="42.92971" lon="-0.12892">
        <ele>2287.174</ele>
        <time>2012-06-24T13:08:47Z</time>
      </trkpt>
      <trkpt lat="42.92968" lon="-0.1291">
        <ele>2282.774</ele>
        <time>2012-06-24T13:08:52Z</time>
      </trkpt>
      <trkpt lat="42.92967" lon="-0.12923">
        <ele>2279.244</ele>
        <time>2012-06-24T13:08:56Z</time>
      </trkpt>
      <trkpt lat="42.92964" lon="-0.12943">
        <ele>2273.982</ele>
        <time>2012-06-24T13:09:01Z</time>
      </trkpt>
      <trkpt lat="42.9296" lon="-0.12958">
        <ele>2270.754</ele>
        <time>2012-06-24T13:09:04Z</time>
      </trkpt>
      <trkpt lat="42.92949" lon="-0.12985">
        <ele>2265.813</ele>
        <time>2012-06-24T13:09:09Z</time>
      </trkpt>
      <trkpt lat="42.92943" lon="-0.12996">
        <ele>2263.433</ele>
        <time>2012-06-24T13:09:11Z</time>
      </trkpt>
      <trkpt lat="42.92925" lon="-0.13017">
        <ele>2260.856</ele>
        <time>2012-06-24T13:09:15Z</time>
      </trkpt>
      <trkpt lat="42.92905" lon="-0.13048">
        <ele>2258.756</ele>
        <time>2012-06-24T13:09:20Z</time>
      </trkpt>
      <trkpt lat="42.92886" lon="-0.13083">
        <ele>2255.436</ele>
        <time>2012-06-24T13:09:26Z</time>
      </trkpt>
      <trkpt lat="42.92877" lon="-0.13103">
        <ele>2253.154</ele>
        <time>2012-06-24T13:09:29Z</time>
      </trkpt>
      <trkpt lat="42.92859" lon="-0.13139">
        <ele>2249.586</ele>
        <time>2012-06-24T13:09:35Z</time>
      </trkpt>
      <trkpt lat="42.92844" lon="-0.13161">
        <ele>2246.174</ele>
        <time>2012-06-24T13:09:40Z</time>
      </trkpt>
      <trkpt lat="42.9284" lon="-0.13165">
        <ele>2245.294</ele>
        <time>2012-06-24T13:09:41Z</time>
      </trkpt>
      <trkpt lat="42.92822" lon="-0.13188">
        <ele>2242.687</ele>
        <time>2012-06-24T13:09:46Z</time>
      </trkpt>
      <trkpt lat="42.9282" lon="-0.13206">
        <ele>2241.197</ele>
        <time>2012-06-24T13:09:50Z</time>
      </trkpt>
      <trkpt lat="42.92815" lon="-0.13233">
        <ele>2238.185</ele>
        <time>2012-06-24T13:09:56Z</time>
      </trkpt>
      <trkpt lat="42.92809" lon="-0.13244">
        <ele>2237.025</ele>
        <time>2012-06-24T13:10:00Z</time>
      </trkpt>
      <trkpt lat="42.92806" lon="-0.1325">
        <ele>2236.586</ele>
        <time>2012-06-24T13:10:08Z</time>
      </trkpt>
      <trkpt lat="42.92805" lon="-0.13253">
        <ele>2236.105</ele>
        <time>2012-06-24T13:10:09Z</time>
      </trkpt>
      <trkpt lat="42.92796" lon="-0.13261">
        <ele>2234.243</ele>
        <time>2012-06-24T13:10:12Z</time>
      </trkpt>
      <trkpt lat="42.92776" lon="-0.13275">
        <ele>2230.614</ele>
        <time>2012-06-24T13:10:17Z</time>
      </trkpt>
      <trkpt lat="42.92765" lon="-0.13283">
        <ele>2227.963</ele>
        <time>2012-06-24T13:10:21Z</time>
      </trkpt>
      <trkpt lat="42.92751" lon="-0.13292">
        <ele>2224.893</ele>
        <time>2012-06-24T13:10:25Z</time>
      </trkpt>
      <trkpt lat="42.92742" lon="-0.13302">
        <ele>2221.143</ele>
        <time>2012-06-24T13:10:30Z</time>
      </trkpt>
      <trkpt lat="42.92739" lon="-0.13304">
        <ele>2220.403</ele>
        <time>2012-06-24T13:10:31Z</time>
      </trkpt>
      <trkpt lat="42.92731" lon="-0.13314">
        <ele>2216.041</ele>
        <time>2012-06-24T13:10:36Z</time>
      </trkpt>
      <trkpt lat="42.92717" lon="-0.13324">
        <ele>2211.954</ele>
        <time>2012-06-24T13:10:42Z</time>
      </trkpt>
      <trkpt lat="42.92715" lon="-0.13326">
        <ele>2210.996</ele>
        <time>2012-06-24T13:10:46Z</time>
      </trkpt>
      <trkpt lat="42.92713" lon="-0.13327">
        <ele>2210.075</ele>
        <time>2012-06-24T13:10:54Z</time>
      </trkpt>
      <trkpt lat="42.92705" lon="-0.13332">
        <ele>2206.863</ele>
        <time>2012-06-24T13:10:59Z</time>
      </trkpt>
      <trkpt lat="42.92697" lon="-0.13335">
        <ele>2203.463</ele>
        <time>2012-06-24T13:11:05Z</time>
      </trkpt>
      <trkpt lat="42.92695" lon="-0.13338">
        <ele>2201.645</ele>
        <time>2012-06-24T13:11:11Z</time>
      </trkpt>
      <trkpt lat="42.92691" lon="-0.13341">
        <ele>2199.774</ele>
        <time>2012-06-24T13:11:16Z</time>
      </trkpt>
      <trkpt lat="42.92684" lon="-0.13347">
        <ele>2196.872</ele>
        <time>2012-06-24T13:11:20Z</time>
      </trkpt>
      <trkpt lat="42.92675" lon="-0.13355">
        <ele>2192.132</ele>
        <time>2012-06-24T13:11:26Z</time>
      </trkpt>
      <trkpt lat="42.92671" lon="-0.13358">
        <ele>2190.284</ele>
        <time>2012-06-24T13:11:31Z</time>
      </trkpt>
      <trkpt lat="42.92668" lon="-0.13361">
        <ele>2188.333</ele>
        <time>2012-06-24T13:11:40Z</time>
      </trkpt>
      <trkpt lat="42.92665" lon="-0.13364">
        <ele>2186.745</ele>
        <time>2012-06-24T13:11:45Z</time>
      </trkpt>
      <trkpt lat="42.92662" lon="-0.13365">
        <ele>2185.475</ele>
        <time>2012-06-24T13:11:51Z</time>
      </trkpt>
      <trkpt lat="42.92657" lon="-0.13366">
        <ele>2183.484</ele>
        <time>2012-06-24T13:11:58Z</time>
      </trkpt>
      <trkpt lat="42.92656" lon="-0.13367">
        <ele>2182.784</ele>
        <time>2012-06-24T13:12:00Z</time>
      </trkpt>
      <trkpt lat="42.92658" lon="-0.13373">
        <ele>2180.854</ele>
        <time>2012-06-24T13:12:06Z</time>
      </trkpt>
      <trkpt lat="42.92656" lon="-0.13376">
        <ele>2179.234</ele>
        <time>2012-06-24T13:12:12Z</time>
      </trkpt>
      <trkpt lat="42.92654" lon="-0.13377">
        <ele>2178.304</ele>
        <time>2012-06-24T13:12:15Z</time>
      </trkpt>
      <trkpt lat="42.92652" lon="-0.13379">
        <ele>2176.966</ele>
        <time>2012-06-24T13:12:21Z</time>
      </trkpt>
      <trkpt lat="42.92652" lon="-0.1338">
        <ele>2176.866</ele>
        <time>2012-06-24T13:12:27Z</time>
      </trkpt>
      <trkpt lat="42.92648" lon="-0.13389">
        <ele>2173.652</ele>
        <time>2012-06-24T13:12:32Z</time>
      </trkpt>
      <trkpt lat="42.92644" lon="-0.13398">
        <ele>2170.212</ele>
        <time>2012-06-24T13:12:36Z</time>
      </trkpt>
      <trkpt lat="42.92638" lon="-0.13402">
        <ele>2167.622</ele>
        <time>2012-06-24T13:12:39Z</time>
      </trkpt>
      <trkpt lat="42.92628" lon="-0.13414">
        <ele>2161.832</ele>
        <time>2012-06-24T13:12:47Z</time>
      </trkpt>
      <trkpt lat="42.92626" lon="-0.13417">
        <ele>2160.262</ele>
        <time>2012-06-24T13:12:49Z</time>
      </trkpt>
      <trkpt lat="42.92625" lon="-0.13421">
        <ele>2158.892</ele>
        <time>2012-06-24T13:12:51Z</time>
      </trkpt>
      <trkpt lat="42.92617" lon="-0.13427">
        <ele>2155.62</ele>
        <time>2012-06-24T13:12:55Z</time>
      </trkpt>
      <trkpt lat="42.9261" lon="-0.13435">
        <ele>2152.878</ele>
        <time>2012-06-24T13:12:58Z</time>
      </trkpt>
      <trkpt lat="42.92603" lon="-0.13437">
        <ele>2150.891</ele>
        <time>2012-06-24T13:13:00Z</time>
      </trkpt>
      <trkpt lat="42.92583" lon="-0.13448">
        <ele>2147.052</ele>
        <time>2012-06-24T13:13:06Z</time>
      </trkpt>
      <trkpt lat="42.92565" lon="-0.1345">
        <ele>2144.653</ele>
        <time>2012-06-24T13:13:11Z</time>
      </trkpt>
      <trkpt lat="42.92557" lon="-0.13451">
        <ele>2143.904</ele>
        <time>2012-06-24T13:13:13Z</time>
      </trkpt>
      <trkpt lat="42.92549" lon="-0.13452">
        <ele>2142.802</ele>
        <time>2012-06-24T13:13:15Z</time>
      </trkpt>
      <trkpt lat="42.92519" lon="-0.13459">
        <ele>2140.584</ele>
        <time>2012-06-24T13:13:21Z</time>
      </trkpt>
      <trkpt lat="42.92512" lon="-0.1346">
        <ele>2139.734</ele>
        <time>2012-06-24T13:13:23Z</time>
      </trkpt>
      <trkpt lat="42.92489" lon="-0.13467">
        <ele>2136.403</ele>
        <time>2012-06-24T13:13:28Z</time>
      </trkpt>
      <trkpt lat="42.92479" lon="-0.13465">
        <ele>2135.393</ele>
        <time>2012-06-24T13:13:30Z</time>
      </trkpt>
      <trkpt lat="42.92461" lon="-0.13472">
        <ele>2133.673</ele>
        <time>2012-06-24T13:13:34Z</time>
      </trkpt>
      <trkpt lat="42.92457" lon="-0.13476">
        <ele>2133.654</ele>
        <time>2012-06-24T13:13:35Z</time>
      </trkpt>
      <trkpt lat="42.92444" lon="-0.13484">
        <ele>2133.415</ele>
        <time>2012-06-24T13:13:40Z</time>
      </trkpt>
      <trkpt lat="42.92441" lon="-0.13485">
        <ele>2133.446</ele>
        <time>2012-06-24T13:13:44Z</time>
      </trkpt>
      <trkpt lat="42.9244" lon="-0.13486">
        <ele>2133.465</ele>
        <time>2012-06-24T13:13:48Z</time>
      </trkpt>
      <trkpt lat="42.92435" lon="-0.13487">
        <ele>2133.555</ele>
        <time>2012-06-24T13:13:54Z</time>
      </trkpt>
      <trkpt lat="42.9243" lon="-0.13489">
        <ele>2134.305</ele>
        <time>2012-06-24T13:14:01Z</time>
      </trkpt>
      <trkpt lat="42.9243" lon="-0.1349">
        <ele>2134.083</ele>
        <time>2012-06-24T13:14:03Z</time>
      </trkpt>
      <trkpt lat="42.92425" lon="-0.13495">
        <ele>2134.114</ele>
        <time>2012-06-24T13:14:09Z</time>
      </trkpt>
      <trkpt lat="42.92425" lon="-0.13495">
        <ele>2134.044</ele>
        <time>2012-06-24T13:14:10Z</time>
      </trkpt>
      <trkpt lat="42.92422" lon="-0.13497">
        <ele>2133.974</ele>
        <time>2012-06-24T13:14:15Z</time>
      </trkpt>
      <trkpt lat="42.92419" lon="-0.13499">
        <ele>2133.704</ele>
        <time>2012-06-24T13:14:20Z</time>
      </trkpt>
      <trkpt lat="42.92419" lon="-0.13499">
        <ele>2133.694</ele>
        <time>2012-06-24T13:14:21Z</time>
      </trkpt>
      <trkpt lat="42.92407" lon="-0.1351">
        <ele>2132.434</ele>
        <time>2012-06-24T13:14:27Z</time>
      </trkpt>
      <trkpt lat="42.92405" lon="-0.1351">
        <ele>2132.144</ele>
        <time>2012-06-24T13:14:30Z</time>
      </trkpt>
      <trkpt lat="42.92403" lon="-0.13511">
        <ele>2131.463</ele>
        <time>2012-06-24T13:14:35Z</time>
      </trkpt>
      <trkpt lat="42.92396" lon="-0.13514">
        <ele>2130.934</ele>
        <time>2012-06-24T13:14:40Z</time>
      </trkpt>
      <trkpt lat="42.92391" lon="-0.13516">
        <ele>2130.674</ele>
        <time>2012-06-24T13:14:42Z</time>
      </trkpt>
      <trkpt lat="42.92385" lon="-0.13524">
        <ele>2131.225</ele>
        <time>2012-06-24T13:14:47Z</time>
      </trkpt>
      <trkpt lat="42.92385" lon="-0.13524">
        <ele>2131.164</ele>
        <time>2012-06-24T13:14:48Z</time>
      </trkpt>
      <trkpt lat="42.92383" lon="-0.13534">
        <ele>2131.745</ele>
        <time>2012-06-24T13:14:56Z</time>
      </trkpt>
      <trkpt lat="42.92382" lon="-0.13537">
        <ele>2131.894</ele>
        <time>2012-06-24T13:15:00Z</time>
      </trkpt>
      <trkpt lat="42.92382" lon="-0.13536">
        <ele>2131.664</ele>
        <time>2012-06-24T13:15:07Z</time>
      </trkpt>
      <trkpt lat="42.92383" lon="-0.13538">
        <ele>2131.884</ele>
        <time>2012-06-24T13:15:35Z</time>
      </trkpt>
      <trkpt lat="42.92382" lon="-0.13541">
        <ele>2132.275</ele>
        <time>2012-06-24T13:15:41Z</time>
      </trkpt>
      <trkpt lat="42.92381" lon="-0.13546">
        <ele>2132.885</ele>
        <time>2012-06-24T13:15:46Z</time>
      </trkpt>
      <trkpt lat="42.92377" lon="-0.13557">
        <ele>2133.934</ele>
        <time>2012-06-24T13:15:56Z</time>
      </trkpt>
      <trkpt lat="42.92376" lon="-0.13558">
        <ele>2134.314</ele>
        <time>2012-06-24T13:15:58Z</time>
      </trkpt>
      <trkpt lat="42.92372" lon="-0.13564">
        <ele>2136.345</ele>
        <time>2012-06-24T13:16:04Z</time>
      </trkpt>
      <trkpt lat="42.92372" lon="-0.13564">
        <ele>2136.474</ele>
        <time>2012-06-24T13:16:05Z</time>
      </trkpt>
      <trkpt lat="42.92366" lon="-0.13571">
        <ele>2138.064</ele>
        <time>2012-06-24T13:16:13Z</time>
      </trkpt>
      <trkpt lat="42.92365" lon="-0.13572">
        <ele>2138.295</ele>
        <time>2012-06-24T13:16:14Z</time>
      </trkpt>
      <trkpt lat="42.92362" lon="-0.13579">
        <ele>2139.304</ele>
        <time>2012-06-24T13:16:20Z</time>
      </trkpt>
      <trkpt lat="42.92355" lon="-0.13593">
        <ele>2141.334</ele>
        <time>2012-06-24T13:16:30Z</time>
      </trkpt>
      <trkpt lat="42.92347" lon="-0.13606">
        <ele>2143.294</ele>
        <time>2012-06-24T13:16:39Z</time>
      </trkpt>
      <trkpt lat="42.92339" lon="-0.1362">
        <ele>2144.224</ele>
        <time>2012-06-24T13:16:50Z</time>
      </trkpt>
      <trkpt lat="42.92332" lon="-0.13631">
        <ele>2144.354</ele>
        <time>2012-06-24T13:16:59Z</time>
      </trkpt>
      <trkpt lat="42.92327" lon="-0.13643">
        <ele>2144.404</ele>
        <time>2012-06-24T13:17:07Z</time>
      </trkpt>
      <trkpt lat="42.92324" lon="-0.13654">
        <ele>2146.044</ele>
        <time>2012-06-24T13:17:15Z</time>
      </trkpt>
      <trkpt lat="42.92321" lon="-0.13663">
        <ele>2146.914</ele>
        <time>2012-06-24T13:17:22Z</time>
      </trkpt>
      <trkpt lat="42.92318" lon="-0.13667">
        <ele>2146.905</ele>
        <time>2012-06-24T13:17:27Z</time>
      </trkpt>
      <trkpt lat="42.92315" lon="-0.13671">
        <ele>2146.834</ele>
        <time>2012-06-24T13:17:32Z</time>
      </trkpt>
      <trkpt lat="42.92314" lon="-0.13674">
        <ele>2145.823</ele>
        <time>2012-06-24T13:17:36Z</time>
      </trkpt>
      <trkpt lat="42.92309" lon="-0.13687">
        <ele>2146.954</ele>
        <time>2012-06-24T13:17:45Z</time>
      </trkpt>
      <trkpt lat="42.92305" lon="-0.13699">
        <ele>2147.844</ele>
        <time>2012-06-24T13:17:53Z</time>
      </trkpt>
      <trkpt lat="42.92304" lon="-0.13701">
        <ele>2148.105</ele>
        <time>2012-06-24T13:17:54Z</time>
      </trkpt>
      <trkpt lat="42.92299" lon="-0.13711">
        <ele>2149.504</ele>
        <time>2012-06-24T13:18:03Z</time>
      </trkpt>
      <trkpt lat="42.92295" lon="-0.13718">
        <ele>2150.364</ele>
        <time>2012-06-24T13:18:09Z</time>
      </trkpt>
      <trkpt lat="42.92292" lon="-0.1372">
        <ele>2150.644</ele>
        <time>2012-06-24T13:18:14Z</time>
      </trkpt>
      <trkpt lat="42.92293" lon="-0.13722">
        <ele>2150.593</ele>
        <time>2012-06-24T13:18:16Z</time>
      </trkpt>
      <trkpt lat="42.92295" lon="-0.13724">
        <ele>2149.652</ele>
        <time>2012-06-24T13:18:22Z</time>
      </trkpt>
      <trkpt lat="42.92297" lon="-0.13725">
        <ele>2151.194</ele>
        <time>2012-06-24T13:18:45Z</time>
      </trkpt>
      <trkpt lat="42.92298" lon="-0.13732">
        <ele>2151.084</ele>
        <time>2012-06-24T13:18:50Z</time>
      </trkpt>
      <trkpt lat="42.92295" lon="-0.13737">
        <ele>2151.554</ele>
        <time>2012-06-24T13:18:54Z</time>
      </trkpt>
      <trkpt lat="42.92293" lon="-0.13739">
        <ele>2152.115</ele>
        <time>2012-06-24T13:18:56Z</time>
      </trkpt>
      <trkpt lat="42.92286" lon="-0.13741">
        <ele>2153.125</ele>
        <time>2012-06-24T13:19:04Z</time>
      </trkpt>
      <trkpt lat="42.92279" lon="-0.13743">
        <ele>2154.264</ele>
        <time>2012-06-24T13:19:12Z</time>
      </trkpt>
      <trkpt lat="42.92273" lon="-0.1375">
        <ele>2155.295</ele>
        <time>2012-06-24T13:19:21Z</time>
      </trkpt>
      <trkpt lat="42.92272" lon="-0.13752">
        <ele>2155.564</ele>
        <time>2012-06-24T13:19:25Z</time>
      </trkpt>
      <trkpt lat="42.92271" lon="-0.13753">
        <ele>2155.654</ele>
        <time>2012-06-24T13:19:26Z</time>
      </trkpt>
      <trkpt lat="42.92267" lon="-0.13759">
        <ele>2156.754</ele>
        <time>2012-06-24T13:19:34Z</time>
      </trkpt>
      <trkpt lat="42.92266" lon="-0.1376">
        <ele>2156.934</ele>
        <time>2012-06-24T13:19:36Z</time>
      </trkpt>
      <trkpt lat="42.92265" lon="-0.13764">
        <ele>2156.923</ele>
        <time>2012-06-24T13:19:41Z</time>
      </trkpt>
      <trkpt lat="42.92265" lon="-0.13768">
        <ele>2156.193</ele>
        <time>2012-06-24T13:19:49Z</time>
      </trkpt>
      <trkpt lat="42.92266" lon="-0.13771">
        <ele>2156.113</ele>
        <time>2012-06-24T13:20:07Z</time>
      </trkpt>
      <trkpt lat="42.9227" lon="-0.13782">
        <ele>2155.761</ele>
        <time>2012-06-24T13:22:22Z</time>
      </trkpt>
      <trkpt lat="42.92271" lon="-0.13792">
        <ele>2154.59</ele>
        <time>2012-06-24T13:22:24Z</time>
      </trkpt>
      <trkpt lat="42.9227" lon="-0.13817">
        <ele>2151.751</ele>
        <time>2012-06-24T13:22:29Z</time>
      </trkpt>
      <trkpt lat="42.92263" lon="-0.13839">
        <ele>2150.071</ele>
        <time>2012-06-24T13:22:33Z</time>
      </trkpt>
      <trkpt lat="42.92253" lon="-0.13875">
        <ele>2147.05</ele>
        <time>2012-06-24T13:22:40Z</time>
      </trkpt>
      <trkpt lat="42.92247" lon="-0.13897">
        <ele>2144.77</ele>
        <time>2012-06-24T13:22:44Z</time>
      </trkpt>
      <trkpt lat="42.92243" lon="-0.1391">
        <ele>2143.319</ele>
        <time>2012-06-24T13:22:46Z</time>
      </trkpt>
      <trkpt lat="42.92235" lon="-0.13934">
        <ele>2140.839</ele>
        <time>2012-06-24T13:22:50Z</time>
      </trkpt>
      <trkpt lat="42.92231" lon="-0.13948">
        <ele>2139.359</ele>
        <time>2012-06-24T13:22:52Z</time>
      </trkpt>
      <trkpt lat="42.92223" lon="-0.13971">
        <ele>2136.537</ele>
        <time>2012-06-24T13:22:55Z</time>
      </trkpt>
      <trkpt lat="42.92214" lon="-0.13997">
        <ele>2133.489</ele>
        <time>2012-06-24T13:22:59Z</time>
      </trkpt>
      <trkpt lat="42.92211" lon="-0.14002">
        <ele>2132.699</ele>
        <time>2012-06-24T13:23:00Z</time>
      </trkpt>
      <trkpt lat="42.92204" lon="-0.14017">
        <ele>2130.509</ele>
        <time>2012-06-24T13:23:03Z</time>
      </trkpt>
      <trkpt lat="42.92197" lon="-0.14046">
        <ele>2127.429</ele>
        <time>2012-06-24T13:23:08Z</time>
      </trkpt>
      <trkpt lat="42.92191" lon="-0.1407">
        <ele>2125.291</ele>
        <time>2012-06-24T13:23:13Z</time>
      </trkpt>
      <trkpt lat="42.9219" lon="-0.14071">
        <ele>2125.332</ele>
        <time>2012-06-24T13:23:17Z</time>
      </trkpt>
      <trkpt lat="42.9219" lon="-0.1407">
        <ele>2125.672</ele>
        <time>2012-06-24T13:23:25Z</time>
      </trkpt>
      <trkpt lat="42.92184" lon="-0.14078">
        <ele>2124.13</ele>
        <time>2012-06-24T13:23:29Z</time>
      </trkpt>
      <trkpt lat="42.92168" lon="-0.14098">
        <ele>2121.16</ele>
        <time>2012-06-24T13:23:35Z</time>
      </trkpt>
      <trkpt lat="42.92157" lon="-0.14112">
        <ele>2118.6</ele>
        <time>2012-06-24T13:23:40Z</time>
      </trkpt>
      <trkpt lat="42.92155" lon="-0.14114">
        <ele>2118.18</ele>
        <time>2012-06-24T13:23:41Z</time>
      </trkpt>
      <trkpt lat="42.92151" lon="-0.14112">
        <ele>2116.61</ele>
        <time>2012-06-24T13:23:45Z</time>
      </trkpt>
      <trkpt lat="42.9215" lon="-0.14107">
        <ele>2115.978</ele>
        <time>2012-06-24T13:23:46Z</time>
      </trkpt>
      <trkpt lat="42.9214" lon="-0.1407">
        <ele>2111.609</ele>
        <time>2012-06-24T13:23:52Z</time>
      </trkpt>
      <trkpt lat="42.92137" lon="-0.14063">
        <ele>2110.319</ele>
        <time>2012-06-24T13:23:54Z</time>
      </trkpt>
      <trkpt lat="42.92133" lon="-0.14068">
        <ele>2108.308</ele>
        <time>2012-06-24T13:23:58Z</time>
      </trkpt>
      <trkpt lat="42.92123" lon="-0.14104">
        <ele>2103.568</ele>
        <time>2012-06-24T13:24:06Z</time>
      </trkpt>
      <trkpt lat="42.92122" lon="-0.14107">
        <ele>2103.149</ele>
        <time>2012-06-24T13:24:07Z</time>
      </trkpt>
      <trkpt lat="42.92124" lon="-0.14112">
        <ele>2102.151</ele>
        <time>2012-06-24T13:24:12Z</time>
      </trkpt>
      <trkpt lat="42.92124" lon="-0.14113">
        <ele>2102.001</ele>
        <time>2012-06-24T13:24:13Z</time>
      </trkpt>
      <trkpt lat="42.9212" lon="-0.14113">
        <ele>2101.37</ele>
        <time>2012-06-24T13:24:17Z</time>
      </trkpt>
      <trkpt lat="42.92119" lon="-0.1411">
        <ele>2101.07</ele>
        <time>2012-06-24T13:24:18Z</time>
      </trkpt>
      <trkpt lat="42.92106" lon="-0.14086">
        <ele>2097.948</ele>
        <time>2012-06-24T13:24:24Z</time>
      </trkpt>
      <trkpt lat="42.92099" lon="-0.14065">
        <ele>2095.548</ele>
        <time>2012-06-24T13:24:29Z</time>
      </trkpt>
      <trkpt lat="42.92104" lon="-0.14046">
        <ele>2092.949</ele>
        <time>2012-06-24T13:24:33Z</time>
      </trkpt>
      <trkpt lat="42.9211" lon="-0.14027">
        <ele>2089.977</ele>
        <time>2012-06-24T13:24:37Z</time>
      </trkpt>
      <trkpt lat="42.92119" lon="-0.1401">
        <ele>2087.948</ele>
        <time>2012-06-24T13:24:41Z</time>
      </trkpt>
      <trkpt lat="42.92125" lon="-0.13985">
        <ele>2087.782</ele>
        <time>2012-06-24T13:24:45Z</time>
      </trkpt>
      <trkpt lat="42.92125" lon="-0.13976">
        <ele>2088.233</ele>
        <time>2012-06-24T13:24:47Z</time>
      </trkpt>
      <trkpt lat="42.92134" lon="-0.13959">
        <ele>2084.618</ele>
        <time>2012-06-24T13:24:53Z</time>
      </trkpt>
      <trkpt lat="42.92136" lon="-0.13957">
        <ele>2083.928</ele>
        <time>2012-06-24T13:24:54Z</time>
      </trkpt>
      <trkpt lat="42.92139" lon="-0.13953">
        <ele>2082.979</ele>
        <time>2012-06-24T13:24:56Z</time>
      </trkpt>
      <trkpt lat="42.92144" lon="-0.13943">
        <ele>2079.708</ele>
        <time>2012-06-24T13:25:02Z</time>
      </trkpt>
      <trkpt lat="42.92148" lon="-0.13933">
        <ele>2077.528</ele>
        <time>2012-06-24T13:25:06Z</time>
      </trkpt>
      <trkpt lat="42.92153" lon="-0.13922">
        <ele>2074.269</ele>
        <time>2012-06-24T13:25:11Z</time>
      </trkpt>
      <trkpt lat="42.92156" lon="-0.13908">
        <ele>2071.588</ele>
        <time>2012-06-24T13:25:15Z</time>
      </trkpt>
      <trkpt lat="42.92158" lon="-0.13894">
        <ele>2068.958</ele>
        <time>2012-06-24T13:25:19Z</time>
      </trkpt>
      <trkpt lat="42.92159" lon="-0.13879">
        <ele>2066.708</ele>
        <time>2012-06-24T13:25:22Z</time>
      </trkpt>
      <trkpt lat="42.92161" lon="-0.13855">
        <ele>2063.708</ele>
        <time>2012-06-24T13:25:27Z</time>
      </trkpt>
      <trkpt lat="42.92162" lon="-0.13849">
        <ele>2062.589</ele>
        <time>2012-06-24T13:25:30Z</time>
      </trkpt>
      <trkpt lat="42.92163" lon="-0.13849">
        <ele>2061.882</ele>
        <time>2012-06-24T13:25:39Z</time>
      </trkpt>
      <trkpt lat="42.92159" lon="-0.13843">
        <ele>2059.57</ele>
        <time>2012-06-24T13:25:45Z</time>
      </trkpt>
      <trkpt lat="42.92153" lon="-0.13855">
        <ele>2056.678</ele>
        <time>2012-06-24T13:25:49Z</time>
      </trkpt>
      <trkpt lat="42.92149" lon="-0.13867">
        <ele>2055.249</ele>
        <time>2012-06-24T13:25:52Z</time>
      </trkpt>
      <trkpt lat="42.92137" lon="-0.13894">
        <ele>2052.027</ele>
        <time>2012-06-24T13:25:58Z</time>
      </trkpt>
      <trkpt lat="42.92133" lon="-0.13894">
        <ele>2049.399</ele>
        <time>2012-06-24T13:26:02Z</time>
      </trkpt>
      <trkpt lat="42.92133" lon="-0.13891">
        <ele>2048.648</ele>
        <time>2012-06-24T13:26:03Z</time>
      </trkpt>
      <trkpt lat="42.92134" lon="-0.1388">
        <ele>2046.708</ele>
        <time>2012-06-24T13:26:06Z</time>
      </trkpt>
      <trkpt lat="42.92136" lon="-0.13874">
        <ele>2045.318</ele>
        <time>2012-06-24T13:26:08Z</time>
      </trkpt>
      <trkpt lat="42.92136" lon="-0.13852">
        <ele>2042.259</ele>
        <time>2012-06-24T13:26:14Z</time>
      </trkpt>
      <trkpt lat="42.92136" lon="-0.13852">
        <ele>2042.072</ele>
        <time>2012-06-24T13:26:19Z</time>
      </trkpt>
      <trkpt lat="42.92136" lon="-0.13852">
        <ele>2042.972</ele>
        <time>2012-06-24T13:27:00Z</time>
      </trkpt>
      <trkpt lat="42.92136" lon="-0.13853">
        <ele>2047.292</ele>
        <time>2012-06-24T13:29:09Z</time>
      </trkpt>
      <trkpt lat="42.92136" lon="-0.13849">
        <ele>2046.772</ele>
        <time>2012-06-24T13:30:31Z</time>
      </trkpt>
      <trkpt lat="42.92136" lon="-0.13833">
        <ele>2045.59</ele>
        <time>2012-06-24T13:30:36Z</time>
      </trkpt>
      <trkpt lat="42.92138" lon="-0.13802">
        <ele>2044.591</ele>
        <time>2012-06-24T13:30:41Z</time>
      </trkpt>
      <trkpt lat="42.92134" lon="-0.13772">
        <ele>2042.921</ele>
        <time>2012-06-24T13:30:46Z</time>
      </trkpt>
      <trkpt lat="42.92126" lon="-0.13738">
        <ele>2039.659</ele>
        <time>2012-06-24T13:30:52Z</time>
      </trkpt>
      <trkpt lat="42.92122" lon="-0.1374">
        <ele>2037.64</ele>
        <time>2012-06-24T13:30:56Z</time>
      </trkpt>
      <trkpt lat="42.92123" lon="-0.13756">
        <ele>2035.269</ele>
        <time>2012-06-24T13:30:59Z</time>
      </trkpt>
      <trkpt lat="42.92121" lon="-0.13785">
        <ele>2030.257</ele>
        <time>2012-06-24T13:31:04Z</time>
      </trkpt>
      <trkpt lat="42.92114" lon="-0.13816">
        <ele>2025.589</ele>
        <time>2012-06-24T13:31:10Z</time>
      </trkpt>
      <trkpt lat="42.92104" lon="-0.1384">
        <ele>2020.938</ele>
        <time>2012-06-24T13:31:16Z</time>
      </trkpt>
      <trkpt lat="42.92101" lon="-0.13847">
        <ele>2019.388</ele>
        <time>2012-06-24T13:31:18Z</time>
      </trkpt>
      <trkpt lat="42.92096" lon="-0.13846">
        <ele>2016.729</ele>
        <time>2012-06-24T13:31:22Z</time>
      </trkpt>
      <trkpt lat="42.92095" lon="-0.13823">
        <ele>2013.918</ele>
        <time>2012-06-24T13:31:26Z</time>
      </trkpt>
      <trkpt lat="42.92091" lon="-0.13803">
        <ele>2010.907</ele>
        <time>2012-06-24T13:31:29Z</time>
      </trkpt>
      <trkpt lat="42.92082" lon="-0.13772">
        <ele>2005.067</ele>
        <time>2012-06-24T13:31:35Z</time>
      </trkpt>
      <trkpt lat="42.92075" lon="-0.13756">
        <ele>2001.597</ele>
        <time>2012-06-24T13:31:39Z</time>
      </trkpt>
      <trkpt lat="42.92062" lon="-0.13723">
        <ele>1996.727</ele>
        <time>2012-06-24T13:31:45Z</time>
      </trkpt>
      <trkpt lat="42.92059" lon="-0.13721">
        <ele>1995.618</ele>
        <time>2012-06-24T13:31:47Z</time>
      </trkpt>
      <trkpt lat="42.9206" lon="-0.13732">
        <ele>1993.908</ele>
        <time>2012-06-24T13:31:50Z</time>
      </trkpt>
      <trkpt lat="42.92057" lon="-0.13757">
        <ele>1989.746</ele>
        <time>2012-06-24T13:31:54Z</time>
      </trkpt>
      <trkpt lat="42.92055" lon="-0.13772">
        <ele>1987.296</ele>
        <time>2012-06-24T13:31:56Z</time>
      </trkpt>
      <trkpt lat="42.92047" lon="-0.13806">
        <ele>1980.687</ele>
        <time>2012-06-24T13:32:02Z</time>
      </trkpt>
      <trkpt lat="42.92037" lon="-0.13834">
        <ele>1975.858</ele>
        <time>2012-06-24T13:32:07Z</time>
      </trkpt>
      <trkpt lat="42.92032" lon="-0.13855">
        <ele>1973.388</ele>
        <time>2012-06-24T13:32:11Z</time>
      </trkpt>
      <trkpt lat="42.92025" lon="-0.13877">
        <ele>1970.098</ele>
        <time>2012-06-24T13:32:15Z</time>
      </trkpt>
      <trkpt lat="42.92016" lon="-0.13896">
        <ele>1969.221</ele>
        <time>2012-06-24T13:32:20Z</time>
      </trkpt>
      <trkpt lat="42.92012" lon="-0.13919">
        <ele>1970.423</ele>
        <time>2012-06-24T13:32:25Z</time>
      </trkpt>
      <trkpt lat="42.92009" lon="-0.13933">
        <ele>1969.851</ele>
        <time>2012-06-24T13:32:28Z</time>
      </trkpt>
      <trkpt lat="42.91999" lon="-0.1395">
        <ele>1968.651</ele>
        <time>2012-06-24T13:32:32Z</time>
      </trkpt>
      <trkpt lat="42.91995" lon="-0.13959">
        <ele>1967.92</ele>
        <time>2012-06-24T13:32:34Z</time>
      </trkpt>
      <trkpt lat="42.91981" lon="-0.13981">
        <ele>1965.899</ele>
        <time>2012-06-24T13:32:39Z</time>
      </trkpt>
      <trkpt lat="42.91974" lon="-0.1399">
        <ele>1964.909</ele>
        <time>2012-06-24T13:32:41Z</time>
      </trkpt>
      <trkpt lat="42.91967" lon="-0.14001">
        <ele>1964.24</ele>
        <time>2012-06-24T13:32:43Z</time>
      </trkpt>
      <trkpt lat="42.91953" lon="-0.14024">
        <ele>1962.361</ele>
        <time>2012-06-24T13:32:48Z</time>
      </trkpt>
      <trkpt lat="42.91937" lon="-0.14056">
        <ele>1959.989</ele>
        <time>2012-06-24T13:32:54Z</time>
      </trkpt>
      <trkpt lat="42.91925" lon="-0.1409">
        <ele>1956.959</ele>
        <time>2012-06-24T13:32:59Z</time>
      </trkpt>
      <trkpt lat="42.91919" lon="-0.14113">
        <ele>1954.46</ele>
        <time>2012-06-24T13:33:04Z</time>
      </trkpt>
      <trkpt lat="42.9192" lon="-0.14123">
        <ele>1953.74</ele>
        <time>2012-06-24T13:33:06Z</time>
      </trkpt>
      <trkpt lat="42.91911" lon="-0.14139">
        <ele>1953.301</ele>
        <time>2012-06-24T13:33:10Z</time>
      </trkpt>
      <trkpt lat="42.91902" lon="-0.14146">
        <ele>1951.306</ele>
        <time>2012-06-24T13:33:13Z</time>
      </trkpt>
      <trkpt lat="42.91899" lon="-0.14149">
        <ele>1950.968</ele>
        <time>2012-06-24T13:33:14Z</time>
      </trkpt>
      <trkpt lat="42.91882" lon="-0.14172">
        <ele>1949.969</ele>
        <time>2012-06-24T13:33:19Z</time>
      </trkpt>
      <trkpt lat="42.91871" lon="-0.14185">
        <ele>1949.059</ele>
        <time>2012-06-24T13:33:22Z</time>
      </trkpt>
      <trkpt lat="42.9186" lon="-0.14196">
        <ele>1948.24</ele>
        <time>2012-06-24T13:33:25Z</time>
      </trkpt>
      <trkpt lat="42.91849" lon="-0.1421">
        <ele>1946.017</ele>
        <time>2012-06-24T13:33:29Z</time>
      </trkpt>
      <trkpt lat="42.91843" lon="-0.14218">
        <ele>1944.015</ele>
        <time>2012-06-24T13:33:31Z</time>
      </trkpt>
      <trkpt lat="42.91834" lon="-0.14229">
        <ele>1942.176</ele>
        <time>2012-06-24T13:33:33Z</time>
      </trkpt>
      <trkpt lat="42.91817" lon="-0.14249">
        <ele>1941.74</ele>
        <time>2012-06-24T13:33:37Z</time>
      </trkpt>
      <trkpt lat="42.91807" lon="-0.14264">
        <ele>1941.379</ele>
        <time>2012-06-24T13:33:41Z</time>
      </trkpt>
      <trkpt lat="42.91805" lon="-0.14266">
        <ele>1941.07</ele>
        <time>2012-06-24T13:33:44Z</time>
      </trkpt>
      <trkpt lat="42.91802" lon="-0.14269">
        <ele>1940.55</ele>
        <time>2012-06-24T13:33:49Z</time>
      </trkpt>
      <trkpt lat="42.918" lon="-0.14273">
        <ele>1940.36</ele>
        <time>2012-06-24T13:33:54Z</time>
      </trkpt>
      <trkpt lat="42.91799" lon="-0.14275">
        <ele>1940.581</ele>
        <time>2012-06-24T13:33:55Z</time>
      </trkpt>
      <trkpt lat="42.91789" lon="-0.1428">
        <ele>1940.69</ele>
        <time>2012-06-24T13:34:01Z</time>
      </trkpt>
      <trkpt lat="42.91789" lon="-0.14281">
        <ele>1940.76</ele>
        <time>2012-06-24T13:34:09Z</time>
      </trkpt>
      <trkpt lat="42.91788" lon="-0.14281">
        <ele>1941.169</ele>
        <time>2012-06-24T13:34:16Z</time>
      </trkpt>
      <trkpt lat="42.91786" lon="-0.14285">
        <ele>1937.229</ele>
        <time>2012-06-24T13:37:51Z</time>
      </trkpt>
      <trkpt lat="42.91771" lon="-0.14292">
        <ele>1934.476</ele>
        <time>2012-06-24T13:37:56Z</time>
      </trkpt>
      <trkpt lat="42.91762" lon="-0.14285">
        <ele>1933.467</ele>
        <time>2012-06-24T13:37:59Z</time>
      </trkpt>
      <trkpt lat="42.91759" lon="-0.14282">
        <ele>1932.802</ele>
        <time>2012-06-24T13:38:00Z</time>
      </trkpt>
      <trkpt lat="42.91751" lon="-0.14277">
        <ele>1931.067</ele>
        <time>2012-06-24T13:38:02Z</time>
      </trkpt>
      <trkpt lat="42.91728" lon="-0.14275">
        <ele>1925.818</ele>
        <time>2012-06-24T13:38:07Z</time>
      </trkpt>
      <trkpt lat="42.91723" lon="-0.14275">
        <ele>1924.697</ele>
        <time>2012-06-24T13:38:08Z</time>
      </trkpt>
      <trkpt lat="42.91709" lon="-0.14272">
        <ele>1921.365</ele>
        <time>2012-06-24T13:38:12Z</time>
      </trkpt>
      <trkpt lat="42.91706" lon="-0.1427">
        <ele>1919.766</ele>
        <time>2012-06-24T13:38:14Z</time>
      </trkpt>
      <trkpt lat="42.917" lon="-0.14268">
        <ele>1916.957</ele>
        <time>2012-06-24T13:38:18Z</time>
      </trkpt>
      <trkpt lat="42.9171" lon="-0.14258">
        <ele>1914.748</ele>
        <time>2012-06-24T13:38:24Z</time>
      </trkpt>
      <trkpt lat="42.91712" lon="-0.14256">
        <ele>1914.165</ele>
        <time>2012-06-24T13:38:25Z</time>
      </trkpt>
      <trkpt lat="42.91709" lon="-0.14248">
        <ele>1910.551</ele>
        <time>2012-06-24T13:38:30Z</time>
      </trkpt>
      <trkpt lat="42.91696" lon="-0.1425">
        <ele>1907.736</ele>
        <time>2012-06-24T13:38:34Z</time>
      </trkpt>
      <trkpt lat="42.91686" lon="-0.14252">
        <ele>1905.086</ele>
        <time>2012-06-24T13:38:37Z</time>
      </trkpt>
      <trkpt lat="42.91679" lon="-0.1425">
        <ele>1904.901</ele>
        <time>2012-06-24T13:38:39Z</time>
      </trkpt>
      <trkpt lat="42.91678" lon="-0.14249">
        <ele>1904.617</ele>
        <time>2012-06-24T13:38:42Z</time>
      </trkpt>
      <trkpt lat="42.91676" lon="-0.14245">
        <ele>1903.527</ele>
        <time>2012-06-24T13:38:47Z</time>
      </trkpt>
      <trkpt lat="42.91671" lon="-0.14234">
        <ele>1902.396</ele>
        <time>2012-06-24T13:38:50Z</time>
      </trkpt>
      <trkpt lat="42.91657" lon="-0.14226">
        <ele>1898.164</ele>
        <time>2012-06-24T13:38:54Z</time>
      </trkpt>
      <trkpt lat="42.91652" lon="-0.14227">
        <ele>1896.555</ele>
        <time>2012-06-24T13:38:55Z</time>
      </trkpt>
      <trkpt lat="42.91619" lon="-0.14223">
        <ele>1887.846</ele>
        <time>2012-06-24T13:39:01Z</time>
      </trkpt>
      <trkpt lat="42.91602" lon="-0.14222">
        <ele>1884.706</ele>
        <time>2012-06-24T13:39:05Z</time>
      </trkpt>
      <trkpt lat="42.91584" lon="-0.1422">
        <ele>1883.18</ele>
        <time>2012-06-24T13:39:09Z</time>
      </trkpt>
      <trkpt lat="42.91577" lon="-0.1422">
        <ele>1882.792</ele>
        <time>2012-06-24T13:39:12Z</time>
      </trkpt>
      <trkpt lat="42.91575" lon="-0.14218">
        <ele>1882.477</ele>
        <time>2012-06-24T13:39:16Z</time>
      </trkpt>
      <trkpt lat="42.91576" lon="-0.14214">
        <ele>1882.381</ele>
        <time>2012-06-24T13:41:10Z</time>
      </trkpt>
      <trkpt lat="42.91576" lon="-0.14213">
        <ele>1885.303</ele>
        <time>2012-06-24T13:42:13Z</time>
      </trkpt>
      <trkpt lat="42.9157" lon="-0.14206">
        <ele>1885.555</ele>
        <time>2012-06-24T13:42:17Z</time>
      </trkpt>
      <trkpt lat="42.91557" lon="-0.14192">
        <ele>1882.916</ele>
        <time>2012-06-24T13:42:21Z</time>
      </trkpt>
      <trkpt lat="42.91543" lon="-0.14183">
        <ele>1881.113</ele>
        <time>2012-06-24T13:42:24Z</time>
      </trkpt>
      <trkpt lat="42.91521" lon="-0.14173">
        <ele>1877.67</ele>
        <time>2012-06-24T13:42:29Z</time>
      </trkpt>
      <trkpt lat="42.91526" lon="-0.14164">
        <ele>1875.345</ele>
        <time>2012-06-24T13:42:33Z</time>
      </trkpt>
      <trkpt lat="42.91536" lon="-0.14153">
        <ele>1873.236</ele>
        <time>2012-06-24T13:42:36Z</time>
      </trkpt>
      <trkpt lat="42.9153" lon="-0.14144">
        <ele>1870.611</ele>
        <time>2012-06-24T13:42:40Z</time>
      </trkpt>
      <trkpt lat="42.91519" lon="-0.14147">
        <ele>1867.567</ele>
        <time>2012-06-24T13:42:44Z</time>
      </trkpt>
      <trkpt lat="42.91508" lon="-0.14151">
        <ele>1865.724</ele>
        <time>2012-06-24T13:42:48Z</time>
      </trkpt>
      <trkpt lat="42.91496" lon="-0.14153">
        <ele>1863.45</ele>
        <time>2012-06-24T13:42:53Z</time>
      </trkpt>
      <trkpt lat="42.91484" lon="-0.14162">
        <ele>1861.619</ele>
        <time>2012-06-24T13:42:57Z</time>
      </trkpt>
      <trkpt lat="42.91483" lon="-0.14159">
        <ele>1860.219</ele>
        <time>2012-06-24T13:43:00Z</time>
      </trkpt>
      <trkpt lat="42.91492" lon="-0.14142">
        <ele>1857.003</ele>
        <time>2012-06-24T13:43:05Z</time>
      </trkpt>
      <trkpt lat="42.91502" lon="-0.1413">
        <ele>1854.503</ele>
        <time>2012-06-24T13:43:09Z</time>
      </trkpt>
      <trkpt lat="42.91501" lon="-0.14125">
        <ele>1852.434</ele>
        <time>2012-06-24T13:43:13Z</time>
      </trkpt>
      <trkpt lat="42.91495" lon="-0.14125">
        <ele>1851.206</ele>
        <time>2012-06-24T13:43:15Z</time>
      </trkpt>
      <trkpt lat="42.91487" lon="-0.14124">
        <ele>1849.566</ele>
        <time>2012-06-24T13:43:17Z</time>
      </trkpt>
      <trkpt lat="42.91475" lon="-0.14124">
        <ele>1847.042</ele>
        <time>2012-06-24T13:43:21Z</time>
      </trkpt>
      <trkpt lat="42.91479" lon="-0.14117">
        <ele>1845.689</ele>
        <time>2012-06-24T13:43:24Z</time>
      </trkpt>
      <trkpt lat="42.91483" lon="-0.14114">
        <ele>1845.146</ele>
        <time>2012-06-24T13:43:25Z</time>
      </trkpt>
      <trkpt lat="42.91493" lon="-0.14107">
        <ele>1842.99</ele>
        <time>2012-06-24T13:43:28Z</time>
      </trkpt>
      <trkpt lat="42.91491" lon="-0.14102">
        <ele>1841.059</ele>
        <time>2012-06-24T13:43:32Z</time>
      </trkpt>
      <trkpt lat="42.91474" lon="-0.14093">
        <ele>1837.148</ele>
        <time>2012-06-24T13:43:37Z</time>
      </trkpt>
      <trkpt lat="42.91461" lon="-0.14096">
        <ele>1834.175</ele>
        <time>2012-06-24T13:43:41Z</time>
      </trkpt>
      <trkpt lat="42.91464" lon="-0.14086">
        <ele>1831.545</ele>
        <time>2012-06-24T13:43:45Z</time>
      </trkpt>
      <trkpt lat="42.91477" lon="-0.14074">
        <ele>1829.024</ele>
        <time>2012-06-24T13:43:49Z</time>
      </trkpt>
      <trkpt lat="42.91483" lon="-0.14072">
        <ele>1827.736</ele>
        <time>2012-06-24T13:43:51Z</time>
      </trkpt>
      <trkpt lat="42.91478" lon="-0.14066">
        <ele>1825.371</ele>
        <time>2012-06-24T13:43:55Z</time>
      </trkpt>
      <trkpt lat="42.91473" lon="-0.14063">
        <ele>1824.217</ele>
        <time>2012-06-24T13:43:57Z</time>
      </trkpt>
      <trkpt lat="42.91464" lon="-0.14061">
        <ele>1821.99</ele>
        <time>2012-06-24T13:44:01Z</time>
      </trkpt>
      <trkpt lat="42.9146" lon="-0.14063">
        <ele>1821.313</ele>
        <time>2012-06-24T13:44:02Z</time>
      </trkpt>
      <trkpt lat="42.91447" lon="-0.14075">
        <ele>1818.887</ele>
        <time>2012-06-24T13:44:06Z</time>
      </trkpt>
      <trkpt lat="42.91438" lon="-0.14092">
        <ele>1817.057</ele>
        <time>2012-06-24T13:44:11Z</time>
      </trkpt>
      <trkpt lat="42.91433" lon="-0.14104">
        <ele>1815.18</ele>
        <time>2012-06-24T13:44:15Z</time>
      </trkpt>
      <trkpt lat="42.9143" lon="-0.14119">
        <ele>1812.479</ele>
        <time>2012-06-24T13:44:19Z</time>
      </trkpt>
      <trkpt lat="42.9143" lon="-0.14123">
        <ele>1811.767</ele>
        <time>2012-06-24T13:44:20Z</time>
      </trkpt>
      <trkpt lat="42.91428" lon="-0.14125">
        <ele>1810.108</ele>
        <time>2012-06-24T13:44:25Z</time>
      </trkpt>
      <trkpt lat="42.91429" lon="-0.14122">
        <ele>1809.495</ele>
        <time>2012-06-24T13:44:31Z</time>
      </trkpt>
      <trkpt lat="42.91429" lon="-0.14122">
        <ele>1809.416</ele>
        <time>2012-06-24T13:44:34Z</time>
      </trkpt>
      <trkpt lat="42.91424" lon="-0.1411">
        <ele>1806.824</ele>
        <time>2012-06-24T13:44:39Z</time>
      </trkpt>
      <trkpt lat="42.91424" lon="-0.14098">
        <ele>1805.486</ele>
        <time>2012-06-24T13:44:42Z</time>
      </trkpt>
      <trkpt lat="42.91423" lon="-0.1409">
        <ele>1804.24</ele>
        <time>2012-06-24T13:44:44Z</time>
      </trkpt>
      <trkpt lat="42.91423" lon="-0.14077">
        <ele>1802.597</ele>
        <time>2012-06-24T13:44:47Z</time>
      </trkpt>
      <trkpt lat="42.9142" lon="-0.14076">
        <ele>1800.966</ele>
        <time>2012-06-24T13:44:51Z</time>
      </trkpt>
      <trkpt lat="42.9142" lon="-0.14077">
        <ele>1800.868</ele>
        <time>2012-06-24T13:44:55Z</time>
      </trkpt>
      <trkpt lat="42.91418" lon="-0.1408">
        <ele>1800.769</ele>
        <time>2012-06-24T13:45:01Z</time>
      </trkpt>
      <trkpt lat="42.91418" lon="-0.14082">
        <ele>1801.062</ele>
        <time>2012-06-24T13:45:11Z</time>
      </trkpt>
      <trkpt lat="42.91416" lon="-0.14086">
        <ele>1801.021</ele>
        <time>2012-06-24T13:45:28Z</time>
      </trkpt>
      <trkpt lat="42.91416" lon="-0.1409">
        <ele>1799.306</ele>
        <time>2012-06-24T13:46:25Z</time>
      </trkpt>
      <trkpt lat="42.91414" lon="-0.14098">
        <ele>1799.454</ele>
        <time>2012-06-24T13:47:06Z</time>
      </trkpt>
      <trkpt lat="42.9141" lon="-0.14114">
        <ele>1797.848</ele>
        <time>2012-06-24T13:47:11Z</time>
      </trkpt>
      <trkpt lat="42.91409" lon="-0.14124">
        <ele>1797.245</ele>
        <time>2012-06-24T13:47:13Z</time>
      </trkpt>
      <trkpt lat="42.914" lon="-0.14153">
        <ele>1794.43</ele>
        <time>2012-06-24T13:47:18Z</time>
      </trkpt>
      <trkpt lat="42.91397" lon="-0.14165">
        <ele>1793.311</ele>
        <time>2012-06-24T13:47:21Z</time>
      </trkpt>
      <trkpt lat="42.91394" lon="-0.14174">
        <ele>1792.599</ele>
        <time>2012-06-24T13:47:24Z</time>
      </trkpt>
      <trkpt lat="42.91388" lon="-0.14196">
        <ele>1790.635</ele>
        <time>2012-06-24T13:47:28Z</time>
      </trkpt>
      <trkpt lat="42.91385" lon="-0.14212">
        <ele>1788.382</ele>
        <time>2012-06-24T13:47:32Z</time>
      </trkpt>
      <trkpt lat="42.91378" lon="-0.14232">
        <ele>1786.491</ele>
        <time>2012-06-24T13:47:36Z</time>
      </trkpt>
      <trkpt lat="42.91367" lon="-0.14248">
        <ele>1784.371</ele>
        <time>2012-06-24T13:47:40Z</time>
      </trkpt>
      <trkpt lat="42.91358" lon="-0.14263">
        <ele>1782.525</ele>
        <time>2012-06-24T13:47:44Z</time>
      </trkpt>
      <trkpt lat="42.91348" lon="-0.14277">
        <ele>1780.899</ele>
        <time>2012-06-24T13:47:49Z</time>
      </trkpt>
      <trkpt lat="42.91348" lon="-0.14279">
        <ele>1780.851</ele>
        <time>2012-06-24T13:47:55Z</time>
      </trkpt>
      <trkpt lat="42.91348" lon="-0.14276">
        <ele>1781.411</ele>
        <time>2012-06-24T13:48:11Z</time>
      </trkpt>
      <trkpt lat="42.91353" lon="-0.14267">
        <ele>1781.391</ele>
        <time>2012-06-24T13:48:18Z</time>
      </trkpt>
      <trkpt lat="42.91354" lon="-0.14265">
        <ele>1781.638</ele>
        <time>2012-06-24T13:48:19Z</time>
      </trkpt>
      <trkpt lat="42.91356" lon="-0.14259">
        <ele>1781.233</ele>
        <time>2012-06-24T13:48:25Z</time>
      </trkpt>
      <trkpt lat="42.91358" lon="-0.14239">
        <ele>1778.543</ele>
        <time>2012-06-24T13:48:30Z</time>
      </trkpt>
      <trkpt lat="42.9136" lon="-0.14206">
        <ele>1774.62</ele>
        <time>2012-06-24T13:48:35Z</time>
      </trkpt>
      <trkpt lat="42.91359" lon="-0.14191">
        <ele>1773.188</ele>
        <time>2012-06-24T13:48:37Z</time>
      </trkpt>
      <trkpt lat="42.91358" lon="-0.14167">
        <ele>1771.182</ele>
        <time>2012-06-24T13:48:40Z</time>
      </trkpt>
      <trkpt lat="42.91357" lon="-0.14153">
        <ele>1770.012</ele>
        <time>2012-06-24T13:48:42Z</time>
      </trkpt>
      <trkpt lat="42.9136" lon="-0.14136">
        <ele>1767.666</ele>
        <time>2012-06-24T13:48:46Z</time>
      </trkpt>
      <trkpt lat="42.91361" lon="-0.14123">
        <ele>1766.806</ele>
        <time>2012-06-24T13:48:50Z</time>
      </trkpt>
      <trkpt lat="42.91362" lon="-0.14109">
        <ele>1765.164</ele>
        <time>2012-06-24T13:48:54Z</time>
      </trkpt>
      <trkpt lat="42.91359" lon="-0.14099">
        <ele>1764.302</ele>
        <time>2012-06-24T13:48:57Z</time>
      </trkpt>
      <trkpt lat="42.91354" lon="-0.14092">
        <ele>1763.138</ele>
        <time>2012-06-24T13:49:01Z</time>
      </trkpt>
      <trkpt lat="42.91354" lon="-0.14092">
        <ele>1762.885</ele>
        <time>2012-06-24T13:49:04Z</time>
      </trkpt>
      <trkpt lat="42.91354" lon="-0.14085">
        <ele>1761.718</ele>
        <time>2012-06-24T13:49:10Z</time>
      </trkpt>
      <trkpt lat="42.91356" lon="-0.14071">
        <ele>1759.836</ele>
        <time>2012-06-24T13:49:14Z</time>
      </trkpt>
      <trkpt lat="42.91361" lon="-0.14032">
        <ele>1754.158</ele>
        <time>2012-06-24T13:49:21Z</time>
      </trkpt>
      <trkpt lat="42.91368" lon="-0.14">
        <ele>1748.5</ele>
        <time>2012-06-24T13:49:27Z</time>
      </trkpt>
      <trkpt lat="42.91373" lon="-0.13986">
        <ele>1746.088</ele>
        <time>2012-06-24T13:49:30Z</time>
      </trkpt>
      <trkpt lat="42.91368" lon="-0.13986">
        <ele>1743.668</ele>
        <time>2012-06-24T13:49:34Z</time>
      </trkpt>
      <trkpt lat="42.91361" lon="-0.13994">
        <ele>1742.014</ele>
        <time>2012-06-24T13:49:36Z</time>
      </trkpt>
      <trkpt lat="42.91342" lon="-0.1401">
        <ele>1739.211</ele>
        <time>2012-06-24T13:49:40Z</time>
      </trkpt>
      <trkpt lat="42.9133" lon="-0.14023">
        <ele>1737.057</ele>
        <time>2012-06-24T13:49:43Z</time>
      </trkpt>
      <trkpt lat="42.91313" lon="-0.14046">
        <ele>1733.342</ele>
        <time>2012-06-24T13:49:48Z</time>
      </trkpt>
      <trkpt lat="42.91303" lon="-0.14067">
        <ele>1730.761</ele>
        <time>2012-06-24T13:49:53Z</time>
      </trkpt>
      <trkpt lat="42.91301" lon="-0.14064">
        <ele>1729.957</ele>
        <time>2012-06-24T13:49:55Z</time>
      </trkpt>
      <trkpt lat="42.91301" lon="-0.14027">
        <ele>1724.429</ele>
        <time>2012-06-24T13:50:01Z</time>
      </trkpt>
      <trkpt lat="42.91303" lon="-0.14005">
        <ele>1720.854</ele>
        <time>2012-06-24T13:50:04Z</time>
      </trkpt>
      <trkpt lat="42.91306" lon="-0.13985">
        <ele>1717.36</ele>
        <time>2012-06-24T13:50:07Z</time>
      </trkpt>
      <trkpt lat="42.91308" lon="-0.13973">
        <ele>1715.286</ele>
        <time>2012-06-24T13:50:09Z</time>
      </trkpt>
      <trkpt lat="42.91318" lon="-0.1394">
        <ele>1709.297</ele>
        <time>2012-06-24T13:50:15Z</time>
      </trkpt>
      <trkpt lat="42.91321" lon="-0.13932">
        <ele>1707.761</ele>
        <time>2012-06-24T13:50:18Z</time>
      </trkpt>
      <trkpt lat="42.91325" lon="-0.13924">
        <ele>1707.002</ele>
        <time>2012-06-24T13:50:22Z</time>
      </trkpt>
      <trkpt lat="42.91325" lon="-0.13924">
        <ele>1707.085</ele>
        <time>2012-06-24T13:50:24Z</time>
      </trkpt>
      <trkpt lat="42.91325" lon="-0.13921">
        <ele>1706.979</ele>
        <time>2012-06-24T13:50:30Z</time>
      </trkpt>
      <trkpt lat="42.91325" lon="-0.13917">
        <ele>1708.238</ele>
        <time>2012-06-24T13:50:56Z</time>
      </trkpt>
      <trkpt lat="42.91326" lon="-0.13913">
        <ele>1708.056</ele>
        <time>2012-06-24T13:51:02Z</time>
      </trkpt>
      <trkpt lat="42.91325" lon="-0.13914">
        <ele>1707.403</ele>
        <time>2012-06-24T13:51:14Z</time>
      </trkpt>
      <trkpt lat="42.91323" lon="-0.13914">
        <ele>1706.361</ele>
        <time>2012-06-24T13:51:20Z</time>
      </trkpt>
      <trkpt lat="42.91322" lon="-0.13909">
        <ele>1704.899</ele>
        <time>2012-06-24T13:51:25Z</time>
      </trkpt>
      <trkpt lat="42.91324" lon="-0.13904">
        <ele>1704.237</ele>
        <time>2012-06-24T13:51:30Z</time>
      </trkpt>
      <trkpt lat="42.91325" lon="-0.13902">
        <ele>1703.979</ele>
        <time>2012-06-24T13:51:33Z</time>
      </trkpt>
      <trkpt lat="42.91323" lon="-0.13895">
        <ele>1703.375</ele>
        <time>2012-06-24T13:51:40Z</time>
      </trkpt>
      <trkpt lat="42.91322" lon="-0.1389">
        <ele>1702.452</ele>
        <time>2012-06-24T13:51:45Z</time>
      </trkpt>
      <trkpt lat="42.91321" lon="-0.13887">
        <ele>1702.194</ele>
        <time>2012-06-24T13:51:47Z</time>
      </trkpt>
      <trkpt lat="42.91321" lon="-0.13883">
        <ele>1701.924</ele>
        <time>2012-06-24T13:51:49Z</time>
      </trkpt>
      <trkpt lat="42.91317" lon="-0.1387">
        <ele>1699.616</ele>
        <time>2012-06-24T13:51:55Z</time>
      </trkpt>
      <trkpt lat="42.91314" lon="-0.13854">
        <ele>1697.368</ele>
        <time>2012-06-24T13:51:58Z</time>
      </trkpt>
      <trkpt lat="42.91309" lon="-0.13823">
        <ele>1692.455</ele>
        <time>2012-06-24T13:52:04Z</time>
      </trkpt>
      <trkpt lat="42.91308" lon="-0.13801">
        <ele>1689.192</ele>
        <time>2012-06-24T13:52:08Z</time>
      </trkpt>
      <trkpt lat="42.91308" lon="-0.1378">
        <ele>1686.061</ele>
        <time>2012-06-24T13:52:13Z</time>
      </trkpt>
      <trkpt lat="42.91308" lon="-0.13755">
        <ele>1682.603</ele>
        <time>2012-06-24T13:52:18Z</time>
      </trkpt>
      <trkpt lat="42.91312" lon="-0.13726">
        <ele>1678.358</ele>
        <time>2012-06-24T13:52:23Z</time>
      </trkpt>
      <trkpt lat="42.91313" lon="-0.13719">
        <ele>1677.614</ele>
        <time>2012-06-24T13:52:24Z</time>
      </trkpt>
      <trkpt lat="42.91316" lon="-0.13702">
        <ele>1674.78</ele>
        <time>2012-06-24T13:52:27Z</time>
      </trkpt>
      <trkpt lat="42.91323" lon="-0.13677">
        <ele>1671.283</ele>
        <time>2012-06-24T13:52:32Z</time>
      </trkpt>
      <trkpt lat="42.91324" lon="-0.13675">
        <ele>1670.814</ele>
        <time>2012-06-24T13:52:33Z</time>
      </trkpt>
      <trkpt lat="42.91318" lon="-0.13677">
        <ele>1669.095</ele>
        <time>2012-06-24T13:52:37Z</time>
      </trkpt>
      <trkpt lat="42.91311" lon="-0.13683">
        <ele>1667.91</ele>
        <time>2012-06-24T13:52:39Z</time>
      </trkpt>
      <trkpt lat="42.91295" lon="-0.13701">
        <ele>1664.901</ele>
        <time>2012-06-24T13:52:43Z</time>
      </trkpt>
      <trkpt lat="42.91276" lon="-0.13731">
        <ele>1661.088</ele>
        <time>2012-06-24T13:52:48Z</time>
      </trkpt>
      <trkpt lat="42.91267" lon="-0.13755">
        <ele>1657.905</ele>
        <time>2012-06-24T13:52:52Z</time>
      </trkpt>
      <trkpt lat="42.91254" lon="-0.13779">
        <ele>1655.334</ele>
        <time>2012-06-24T13:52:57Z</time>
      </trkpt>
      <trkpt lat="42.91244" lon="-0.13805">
        <ele>1652.428</ele>
        <time>2012-06-24T13:53:02Z</time>
      </trkpt>
      <trkpt lat="42.91236" lon="-0.13822">
        <ele>1650.129</ele>
        <time>2012-06-24T13:53:06Z</time>
      </trkpt>
      <trkpt lat="42.9123" lon="-0.13839">
        <ele>1648.067</ele>
        <time>2012-06-24T13:53:10Z</time>
      </trkpt>
      <trkpt lat="42.91228" lon="-0.13852">
        <ele>1646.27</ele>
        <time>2012-06-24T13:53:14Z</time>
      </trkpt>
      <trkpt lat="42.91229" lon="-0.13855">
        <ele>1645.826</ele>
        <time>2012-06-24T13:53:15Z</time>
      </trkpt>
      <trkpt lat="42.91224" lon="-0.13866">
        <ele>1644.893</ele>
        <time>2012-06-24T13:53:20Z</time>
      </trkpt>
      <trkpt lat="42.91221" lon="-0.1387">
        <ele>1645.814</ele>
        <time>2012-06-24T13:53:29Z</time>
      </trkpt>
      <trkpt lat="42.91216" lon="-0.13876">
        <ele>1645.931</ele>
        <time>2012-06-24T13:53:34Z</time>
      </trkpt>
      <trkpt lat="42.91208" lon="-0.1389">
        <ele>1645.478</ele>
        <time>2012-06-24T13:53:38Z</time>
      </trkpt>
      <trkpt lat="42.91206" lon="-0.13895">
        <ele>1645.295</ele>
        <time>2012-06-24T13:53:39Z</time>
      </trkpt>
      <trkpt lat="42.91196" lon="-0.1393">
        <ele>1642.407</ele>
        <time>2012-06-24T13:53:45Z</time>
      </trkpt>
      <trkpt lat="42.91182" lon="-0.13961">
        <ele>1638.954</ele>
        <time>2012-06-24T13:53:50Z</time>
      </trkpt>
      <trkpt lat="42.9117" lon="-0.13992">
        <ele>1636.752</ele>
        <time>2012-06-24T13:53:55Z</time>
      </trkpt>
      <trkpt lat="42.91168" lon="-0.13997">
        <ele>1636.266</ele>
        <time>2012-06-24T13:53:56Z</time>
      </trkpt>
      <trkpt lat="42.91159" lon="-0.14022">
        <ele>1634.039</ele>
        <time>2012-06-24T13:54:01Z</time>
      </trkpt>
      <trkpt lat="42.91158" lon="-0.14024">
        <ele>1633.737</ele>
        <time>2012-06-24T13:54:02Z</time>
      </trkpt>
      <trkpt lat="42.91156" lon="-0.14017">
        <ele>1632.875</ele>
        <time>2012-06-24T13:54:06Z</time>
      </trkpt>
      <trkpt lat="42.91157" lon="-0.14">
        <ele>1631.672</ele>
        <time>2012-06-24T13:54:09Z</time>
      </trkpt>
      <trkpt lat="42.91159" lon="-0.13967">
        <ele>1628.26</ele>
        <time>2012-06-24T13:54:14Z</time>
      </trkpt>
      <trkpt lat="42.91159" lon="-0.13964">
        <ele>1627.569</ele>
        <time>2012-06-24T13:54:15Z</time>
      </trkpt>
      <trkpt lat="42.91155" lon="-0.13963">
        <ele>1624.442</ele>
        <time>2012-06-24T13:54:19Z</time>
      </trkpt>
      <trkpt lat="42.91147" lon="-0.13975">
        <ele>1622.058</ele>
        <time>2012-06-24T13:54:22Z</time>
      </trkpt>
      <trkpt lat="42.91144" lon="-0.13981">
        <ele>1621.28</ele>
        <time>2012-06-24T13:54:23Z</time>
      </trkpt>
      <trkpt lat="42.91127" lon="-0.14022">
        <ele>1615.742</ele>
        <time>2012-06-24T13:54:29Z</time>
      </trkpt>
      <trkpt lat="42.91126" lon="-0.14026">
        <ele>1615.3</ele>
        <time>2012-06-24T13:54:30Z</time>
      </trkpt>
      <trkpt lat="42.91123" lon="-0.14023">
        <ele>1614.04</ele>
        <time>2012-06-24T13:54:34Z</time>
      </trkpt>
      <trkpt lat="42.91119" lon="-0.1398">
        <ele>1609.953</ele>
        <time>2012-06-24T13:54:41Z</time>
      </trkpt>
      <trkpt lat="42.91118" lon="-0.13972">
        <ele>1609.275</ele>
        <time>2012-06-24T13:54:42Z</time>
      </trkpt>
      <trkpt lat="42.91118" lon="-0.13935">
        <ele>1604.886</ele>
        <time>2012-06-24T13:54:48Z</time>
      </trkpt>
      <trkpt lat="42.91119" lon="-0.1393">
        <ele>1603.836</ele>
        <time>2012-06-24T13:54:51Z</time>
      </trkpt>
      <trkpt lat="42.91121" lon="-0.13928">
        <ele>1601.848</ele>
        <time>2012-06-24T13:55:09Z</time>
      </trkpt>
      <trkpt lat="42.91113" lon="-0.13932">
        <ele>1599.039</ele>
        <time>2012-06-24T13:55:14Z</time>
      </trkpt>
      <trkpt lat="42.91102" lon="-0.13948">
        <ele>1595.651</ele>
        <time>2012-06-24T13:55:18Z</time>
      </trkpt>
      <trkpt lat="42.91087" lon="-0.13965">
        <ele>1592.913</ele>
        <time>2012-06-24T13:55:22Z</time>
      </trkpt>
      <trkpt lat="42.91081" lon="-0.13964">
        <ele>1591.472</ele>
        <time>2012-06-24T13:55:24Z</time>
      </trkpt>
      <trkpt lat="42.91078" lon="-0.13958">
        <ele>1589.769</ele>
        <time>2012-06-24T13:55:27Z</time>
      </trkpt>
      <trkpt lat="42.91077" lon="-0.13949">
        <ele>1588.034</ele>
        <time>2012-06-24T13:55:29Z</time>
      </trkpt>
      <trkpt lat="42.91076" lon="-0.13941">
        <ele>1585.972</ele>
        <time>2012-06-24T13:55:31Z</time>
      </trkpt>
      <trkpt lat="42.91063" lon="-0.13926">
        <ele>1577.91</ele>
        <time>2012-06-24T13:55:37Z</time>
      </trkpt>
      <trkpt lat="42.91057" lon="-0.13905">
        <ele>1571.711</ele>
        <time>2012-06-24T13:55:42Z</time>
      </trkpt>
      <trkpt lat="42.91055" lon="-0.13892">
        <ele>1568.888</ele>
        <time>2012-06-24T13:55:45Z</time>
      </trkpt>
      <trkpt lat="42.91053" lon="-0.1388">
        <ele>1565.991</ele>
        <time>2012-06-24T13:55:50Z</time>
      </trkpt>
      <trkpt lat="42.91052" lon="-0.13876">
        <ele>1563.163</ele>
        <time>2012-06-24T13:55:54Z</time>
      </trkpt>
      <trkpt lat="42.91052" lon="-0.13876">
        <ele>1563.307</ele>
        <time>2012-06-24T13:56:04Z</time>
      </trkpt>
      <trkpt lat="42.91053" lon="-0.13877">
        <ele>1565.046</ele>
        <time>2012-06-24T13:56:19Z</time>
      </trkpt>
      <trkpt lat="42.91048" lon="-0.13882">
        <ele>1564.646</ele>
        <time>2012-06-24T13:56:24Z</time>
      </trkpt>
      <trkpt lat="42.91046" lon="-0.13879">
        <ele>1564.586</ele>
        <time>2012-06-24T13:56:26Z</time>
      </trkpt>
      <trkpt lat="42.91041" lon="-0.13864">
        <ele>1565.076</ele>
        <time>2012-06-24T13:56:31Z</time>
      </trkpt>
      <trkpt lat="42.91042" lon="-0.13862">
        <ele>1567.281</ele>
        <time>2012-06-24T13:56:37Z</time>
      </trkpt>
      <trkpt lat="42.91042" lon="-0.13862">
        <ele>1566.187</ele>
        <time>2012-06-24T13:59:05Z</time>
      </trkpt>
      <trkpt lat="42.9104" lon="-0.13846">
        <ele>1564.585</ele>
        <time>2012-06-24T13:59:10Z</time>
      </trkpt>
      <trkpt lat="42.91034" lon="-0.13832">
        <ele>1563.044</ele>
        <time>2012-06-24T13:59:13Z</time>
      </trkpt>
      <trkpt lat="42.91029" lon="-0.13813">
        <ele>1560.833</ele>
        <time>2012-06-24T13:59:17Z</time>
      </trkpt>
      <trkpt lat="42.91027" lon="-0.13808">
        <ele>1559.873</ele>
        <time>2012-06-24T13:59:18Z</time>
      </trkpt>
      <trkpt lat="42.91017" lon="-0.13776">
        <ele>1554.813</ele>
        <time>2012-06-24T13:59:25Z</time>
      </trkpt>
      <trkpt lat="42.91014" lon="-0.13763">
        <ele>1553.563</ele>
        <time>2012-06-24T13:59:27Z</time>
      </trkpt>
      <trkpt lat="42.91005" lon="-0.13733">
        <ele>1549.854</ele>
        <time>2012-06-24T13:59:32Z</time>
      </trkpt>
      <trkpt lat="42.91004" lon="-0.13729">
        <ele>1549.213</ele>
        <time>2012-06-24T13:59:33Z</time>
      </trkpt>
      <trkpt lat="42.90989" lon="-0.13694">
        <ele>1544.973</ele>
        <time>2012-06-24T13:59:39Z</time>
      </trkpt>
      <trkpt lat="42.90986" lon="-0.13687">
        <ele>1544.984</ele>
        <time>2012-06-24T13:59:40Z</time>
      </trkpt>
      <trkpt lat="42.90964" lon="-0.13647">
        <ele>1543.173</ele>
        <time>2012-06-24T13:59:46Z</time>
      </trkpt>
      <trkpt lat="42.90958" lon="-0.13631">
        <ele>1544.615</ele>
        <time>2012-06-24T13:59:48Z</time>
      </trkpt>
      <trkpt lat="42.90947" lon="-0.136">
        <ele>1542.544</ele>
        <time>2012-06-24T13:59:52Z</time>
      </trkpt>
      <trkpt lat="42.90939" lon="-0.13578">
        <ele>1541.425</ele>
        <time>2012-06-24T13:59:55Z</time>
      </trkpt>
      <trkpt lat="42.90934" lon="-0.13565">
        <ele>1541.145</ele>
        <time>2012-06-24T13:59:57Z</time>
      </trkpt>
      <trkpt lat="42.90924" lon="-0.13542">
        <ele>1538.005</ele>
        <time>2012-06-24T14:00:02Z</time>
      </trkpt>
      <trkpt lat="42.90916" lon="-0.13522">
        <ele>1536.365</ele>
        <time>2012-06-24T14:00:06Z</time>
      </trkpt>
      <trkpt lat="42.90902" lon="-0.13498">
        <ele>1531.943</ele>
        <time>2012-06-24T14:00:10Z</time>
      </trkpt>
      <trkpt lat="42.90897" lon="-0.13485">
        <ele>1530.434</ele>
        <time>2012-06-24T14:00:12Z</time>
      </trkpt>
      <trkpt lat="42.90882" lon="-0.13458">
        <ele>1526.303</ele>
        <time>2012-06-24T14:00:17Z</time>
      </trkpt>
      <trkpt lat="42.90866" lon="-0.13432">
        <ele>1524.165</ele>
        <time>2012-06-24T14:00:22Z</time>
      </trkpt>
      <trkpt lat="42.90855" lon="-0.13414">
        <ele>1523.655</ele>
        <time>2012-06-24T14:00:25Z</time>
      </trkpt>
      <trkpt lat="42.90842" lon="-0.13388">
        <ele>1518.783</ele>
        <time>2012-06-24T14:00:29Z</time>
      </trkpt>
      <trkpt lat="42.90833" lon="-0.13378">
        <ele>1516.514</ele>
        <time>2012-06-24T14:00:31Z</time>
      </trkpt>
      <trkpt lat="42.90818" lon="-0.1336">
        <ele>1509.352</ele>
        <time>2012-06-24T14:00:36Z</time>
      </trkpt>
      <trkpt lat="42.90808" lon="-0.13351">
        <ele>1504.392</ele>
        <time>2012-06-24T14:00:40Z</time>
      </trkpt>
      <trkpt lat="42.90797" lon="-0.13343">
        <ele>1499.803</ele>
        <time>2012-06-24T14:00:44Z</time>
      </trkpt>
      <trkpt lat="42.90794" lon="-0.1334">
        <ele>1498.483</ele>
        <time>2012-06-24T14:00:45Z</time>
      </trkpt>
      <trkpt lat="42.90771" lon="-0.1333">
        <ele>1494.335</ele>
        <time>2012-06-24T14:00:51Z</time>
      </trkpt>
      <trkpt lat="42.90767" lon="-0.13329">
        <ele>1493.535</ele>
        <time>2012-06-24T14:00:52Z</time>
      </trkpt>
      <trkpt lat="42.90744" lon="-0.13323">
        <ele>1488.101</ele>
        <time>2012-06-24T14:00:58Z</time>
      </trkpt>
      <trkpt lat="42.9074" lon="-0.13324">
        <ele>1487.203</ele>
        <time>2012-06-24T14:00:59Z</time>
      </trkpt>
      <trkpt lat="42.90722" lon="-0.13326">
        <ele>1483.554</ele>
        <time>2012-06-24T14:01:03Z</time>
      </trkpt>
      <trkpt lat="42.90711" lon="-0.13324">
        <ele>1481.534</ele>
        <time>2012-06-24T14:01:06Z</time>
      </trkpt>
      <trkpt lat="42.90705" lon="-0.13323">
        <ele>1480.054</ele>
        <time>2012-06-24T14:01:08Z</time>
      </trkpt>
      <trkpt lat="42.90692" lon="-0.1332">
        <ele>1478.245</ele>
        <time>2012-06-24T14:01:12Z</time>
      </trkpt>
      <trkpt lat="42.90675" lon="-0.13318">
        <ele>1475.221</ele>
        <time>2012-06-24T14:01:16Z</time>
      </trkpt>
      <trkpt lat="42.90658" lon="-0.13317">
        <ele>1472.395</ele>
        <time>2012-06-24T14:01:20Z</time>
      </trkpt>
      <trkpt lat="42.90642" lon="-0.13318">
        <ele>1469.013</ele>
        <time>2012-06-24T14:01:25Z</time>
      </trkpt>
      <trkpt lat="42.9062" lon="-0.13312">
        <ele>1464.903</ele>
        <time>2012-06-24T14:01:31Z</time>
      </trkpt>
      <trkpt lat="42.90615" lon="-0.13308">
        <ele>1463.743</ele>
        <time>2012-06-24T14:01:33Z</time>
      </trkpt>
      <trkpt lat="42.90595" lon="-0.13302">
        <ele>1460.292</ele>
        <time>2012-06-24T14:01:38Z</time>
      </trkpt>
      <trkpt lat="42.90587" lon="-0.13298">
        <ele>1459.214</ele>
        <time>2012-06-24T14:01:41Z</time>
      </trkpt>
      <trkpt lat="42.90577" lon="-0.13296">
        <ele>1458.164</ele>
        <time>2012-06-24T14:01:45Z</time>
      </trkpt>
      <trkpt lat="42.90564" lon="-0.13291">
        <ele>1457.055</ele>
        <time>2012-06-24T14:01:49Z</time>
      </trkpt>
      <trkpt lat="42.90547" lon="-0.13285">
        <ele>1456.345</ele>
        <time>2012-06-24T14:01:55Z</time>
      </trkpt>
      <trkpt lat="42.90545" lon="-0.13283">
        <ele>1456.105</ele>
        <time>2012-06-24T14:01:56Z</time>
      </trkpt>
      <trkpt lat="42.90533" lon="-0.13287">
        <ele>1453.665</ele>
        <time>2012-06-24T14:02:01Z</time>
      </trkpt>
      <trkpt lat="42.90531" lon="-0.13288">
        <ele>1453.456</ele>
        <time>2012-06-24T14:02:07Z</time>
      </trkpt>
      <trkpt lat="42.90531" lon="-0.13288">
        <ele>1453.556</ele>
        <time>2012-06-24T14:02:12Z</time>
      </trkpt>
      <trkpt lat="42.90527" lon="-0.13288">
        <ele>1453.186</ele>
        <time>2012-06-24T14:02:17Z</time>
      </trkpt>
      <trkpt lat="42.90527" lon="-0.13288">
        <ele>1453.526</ele>
        <time>2012-06-24T14:02:20Z</time>
      </trkpt>
      <trkpt lat="42.9052" lon="-0.13279">
        <ele>1453.567</ele>
        <time>2012-06-24T14:02:25Z</time>
      </trkpt>
      <trkpt lat="42.90513" lon="-0.1326">
        <ele>1454.337</ele>
        <time>2012-06-24T14:02:32Z</time>
      </trkpt>
      <trkpt lat="42.90513" lon="-0.13247">
        <ele>1455.918</ele>
        <time>2012-06-24T14:02:37Z</time>
      </trkpt>
      <trkpt lat="42.90507" lon="-0.1324">
        <ele>1456.496</ele>
        <time>2012-06-24T14:02:43Z</time>
      </trkpt>
      <trkpt lat="42.90497" lon="-0.1323">
        <ele>1456.166</ele>
        <time>2012-06-24T14:02:48Z</time>
      </trkpt>
      <trkpt lat="42.9049" lon="-0.13219">
        <ele>1456.296</ele>
        <time>2012-06-24T14:02:53Z</time>
      </trkpt>
      <trkpt lat="42.90488" lon="-0.13215">
        <ele>1456.556</ele>
        <time>2012-06-24T14:02:57Z</time>
      </trkpt>
      <trkpt lat="42.90485" lon="-0.1321">
        <ele>1457.216</ele>
        <time>2012-06-24T14:03:02Z</time>
      </trkpt>
      <trkpt lat="42.90483" lon="-0.13201">
        <ele>1458.697</ele>
        <time>2012-06-24T14:03:10Z</time>
      </trkpt>
      <trkpt lat="42.90487" lon="-0.13188">
        <ele>1460.677</ele>
        <time>2012-06-24T14:03:19Z</time>
      </trkpt>
      <trkpt lat="42.90488" lon="-0.1318">
        <ele>1461.997</ele>
        <time>2012-06-24T14:03:25Z</time>
      </trkpt>
      <trkpt lat="42.90489" lon="-0.1317">
        <ele>1464.027</ele>
        <time>2012-06-24T14:03:33Z</time>
      </trkpt>
      <trkpt lat="42.90493" lon="-0.13165">
        <ele>1462.835</ele>
        <time>2012-06-24T14:03:40Z</time>
      </trkpt>
      <trkpt lat="42.90495" lon="-0.13165">
        <ele>1462.125</ele>
        <time>2012-06-24T14:03:46Z</time>
      </trkpt>
      <trkpt lat="42.90496" lon="-0.13161">
        <ele>1461.406</ele>
        <time>2012-06-24T14:04:33Z</time>
      </trkpt>
      <trkpt lat="42.905" lon="-0.1316">
        <ele>1460.156</ele>
        <time>2012-06-24T14:04:38Z</time>
      </trkpt>
      <trkpt lat="42.90499" lon="-0.13146">
        <ele>1461.016</ele>
        <time>2012-06-24T14:04:43Z</time>
      </trkpt>
      <trkpt lat="42.90498" lon="-0.1314">
        <ele>1461.667</ele>
        <time>2012-06-24T14:04:45Z</time>
      </trkpt>
      <trkpt lat="42.90494" lon="-0.13134">
        <ele>1463.777</ele>
        <time>2012-06-24T14:04:49Z</time>
      </trkpt>
      <trkpt lat="42.90492" lon="-0.13123">
        <ele>1465.087</ele>
        <time>2012-06-24T14:04:55Z</time>
      </trkpt>
      <trkpt lat="42.90488" lon="-0.13104">
        <ele>1465.606</ele>
        <time>2012-06-24T14:05:03Z</time>
      </trkpt>
      <trkpt lat="42.90483" lon="-0.13087">
        <ele>1466.366</ele>
        <time>2012-06-24T14:05:10Z</time>
      </trkpt>
      <trkpt lat="42.90477" lon="-0.13062">
        <ele>1465.716</ele>
        <time>2012-06-24T14:05:18Z</time>
      </trkpt>
      <trkpt lat="42.90472" lon="-0.13039">
        <ele>1465.726</ele>
        <time>2012-06-24T14:05:24Z</time>
      </trkpt>
      <trkpt lat="42.90464" lon="-0.13006">
        <ele>1465.536</ele>
        <time>2012-06-24T14:05:31Z</time>
      </trkpt>
      <trkpt lat="42.90463" lon="-0.13001">
        <ele>1465.456</ele>
        <time>2012-06-24T14:05:32Z</time>
      </trkpt>
      <trkpt lat="42.90451" lon="-0.12987">
        <ele>1463.795</ele>
        <time>2012-06-24T14:05:35Z</time>
      </trkpt>
      <trkpt lat="42.9044" lon="-0.12968">
        <ele>1460.293</ele>
        <time>2012-06-24T14:05:38Z</time>
      </trkpt>
      <trkpt lat="42.90421" lon="-0.12926">
        <ele>1453.852</ele>
        <time>2012-06-24T14:05:43Z</time>
      </trkpt>
      <trkpt lat="42.90408" lon="-0.12893">
        <ele>1449.042</ele>
        <time>2012-06-24T14:05:47Z</time>
      </trkpt>
      <trkpt lat="42.90396" lon="-0.12872">
        <ele>1446.822</ele>
        <time>2012-06-24T14:05:50Z</time>
      </trkpt>
      <trkpt lat="42.90379" lon="-0.12847">
        <ele>1443.552</ele>
        <time>2012-06-24T14:05:54Z</time>
      </trkpt>
      <trkpt lat="42.90369" lon="-0.1283">
        <ele>1441.803</ele>
        <time>2012-06-24T14:05:57Z</time>
      </trkpt>
      <trkpt lat="42.90358" lon="-0.12803">
        <ele>1438.482</ele>
        <time>2012-06-24T14:06:01Z</time>
      </trkpt>
      <trkpt lat="42.90354" lon="-0.12795">
        <ele>1436.493</ele>
        <time>2012-06-24T14:06:04Z</time>
      </trkpt>
      <trkpt lat="42.90362" lon="-0.12799">
        <ele>1433.413</ele>
        <time>2012-06-24T14:06:08Z</time>
      </trkpt>
      <trkpt lat="42.90394" lon="-0.1283">
        <ele>1427.403</ele>
        <time>2012-06-24T14:06:16Z</time>
      </trkpt>
      <trkpt lat="42.90398" lon="-0.12834">
        <ele>1427.094</ele>
        <time>2012-06-24T14:06:17Z</time>
      </trkpt>
      <trkpt lat="42.90417" lon="-0.12846">
        <ele>1424.983</ele>
        <time>2012-06-24T14:06:22Z</time>
      </trkpt>
      <trkpt lat="42.90417" lon="-0.1284">
        <ele>1424.504</ele>
        <time>2012-06-24T14:06:26Z</time>
      </trkpt>
      <trkpt lat="42.90407" lon="-0.12817">
        <ele>1422.134</ele>
        <time>2012-06-24T14:06:31Z</time>
      </trkpt>
      <trkpt lat="42.90401" lon="-0.12799">
        <ele>1419.595</ele>
        <time>2012-06-24T14:06:36Z</time>
      </trkpt>
      <trkpt lat="42.90394" lon="-0.12785">
        <ele>1419.436</ele>
        <time>2012-06-24T14:06:42Z</time>
      </trkpt>
      <trkpt lat="42.90388" lon="-0.12767">
        <ele>1418.024</ele>
        <time>2012-06-24T14:06:47Z</time>
      </trkpt>
      <trkpt lat="42.90382" lon="-0.12753">
        <ele>1416.785</ele>
        <time>2012-06-24T14:06:51Z</time>
      </trkpt>
      <trkpt lat="42.90385" lon="-0.12752">
        <ele>1414.574</ele>
        <time>2012-06-24T14:06:55Z</time>
      </trkpt>
      <trkpt lat="42.90392" lon="-0.12759">
        <ele>1413.185</ele>
        <time>2012-06-24T14:06:59Z</time>
      </trkpt>
      <trkpt lat="42.90392" lon="-0.12752">
        <ele>1412.135</ele>
        <time>2012-06-24T14:07:03Z</time>
      </trkpt>
      <trkpt lat="42.90385" lon="-0.1274">
        <ele>1410.175</ele>
        <time>2012-06-24T14:07:07Z</time>
      </trkpt>
      <trkpt lat="42.90389" lon="-0.12742">
        <ele>1408.985</ele>
        <time>2012-06-24T14:07:09Z</time>
      </trkpt>
      <trkpt lat="42.90393" lon="-0.12736">
        <ele>1405.674</ele>
        <time>2012-06-24T14:07:14Z</time>
      </trkpt>
      <trkpt lat="42.90394" lon="-0.1273">
        <ele>1402.823</ele>
        <time>2012-06-24T14:07:18Z</time>
      </trkpt>
      <trkpt lat="42.90399" lon="-0.12732">
        <ele>1401.374</ele>
        <time>2012-06-24T14:07:21Z</time>
      </trkpt>
      <trkpt lat="42.904" lon="-0.12722">
        <ele>1398.172</ele>
        <time>2012-06-24T14:07:24Z</time>
      </trkpt>
      <trkpt lat="42.90399" lon="-0.12715">
        <ele>1395.883</ele>
        <time>2012-06-24T14:07:27Z</time>
      </trkpt>
      <trkpt lat="42.90405" lon="-0.12718">
        <ele>1393.902</ele>
        <time>2012-06-24T14:07:30Z</time>
      </trkpt>
      <trkpt lat="42.90403" lon="-0.12708">
        <ele>1392.542</ele>
        <time>2012-06-24T14:07:33Z</time>
      </trkpt>
      <trkpt lat="42.90405" lon="-0.12706">
        <ele>1391.103</ele>
        <time>2012-06-24T14:07:36Z</time>
      </trkpt>
      <trkpt lat="42.90409" lon="-0.12702">
        <ele>1389.353</ele>
        <time>2012-06-24T14:07:39Z</time>
      </trkpt>
      <trkpt lat="42.90414" lon="-0.12694">
        <ele>1387.563</ele>
        <time>2012-06-24T14:07:43Z</time>
      </trkpt>
      <trkpt lat="42.90418" lon="-0.1269">
        <ele>1386.634</ele>
        <time>2012-06-24T14:07:45Z</time>
      </trkpt>
      <trkpt lat="42.90432" lon="-0.12671">
        <ele>1383.624</ele>
        <time>2012-06-24T14:07:51Z</time>
      </trkpt>
      <trkpt lat="42.90436" lon="-0.12665">
        <ele>1382.784</ele>
        <time>2012-06-24T14:07:53Z</time>
      </trkpt>
      <trkpt lat="42.90429" lon="-0.12664">
        <ele>1381.254</ele>
        <time>2012-06-24T14:07:57Z</time>
      </trkpt>
      <trkpt lat="42.9042" lon="-0.12669">
        <ele>1379.894</ele>
        <time>2012-06-24T14:08:03Z</time>
      </trkpt>
      <trkpt lat="42.90415" lon="-0.12671">
        <ele>1384.497</ele>
        <time>2012-06-24T14:08:42Z</time>
      </trkpt>
      <trkpt lat="42.90405" lon="-0.1267">
        <ele>1383.506</ele>
        <time>2012-06-24T14:08:44Z</time>
      </trkpt>
      <trkpt lat="42.90391" lon="-0.12672">
        <ele>1382.656</ele>
        <time>2012-06-24T14:08:48Z</time>
      </trkpt>
      <trkpt lat="42.904" lon="-0.12666">
        <ele>1382.387</ele>
        <time>2012-06-24T14:08:52Z</time>
      </trkpt>
      <trkpt lat="42.9041" lon="-0.12649">
        <ele>1380.587</ele>
        <time>2012-06-24T14:08:55Z</time>
      </trkpt>
      <trkpt lat="42.90421" lon="-0.12627">
        <ele>1376.083</ele>
        <time>2012-06-24T14:08:58Z</time>
      </trkpt>
      <trkpt lat="42.90444" lon="-0.126">
        <ele>1370.114</ele>
        <time>2012-06-24T14:09:03Z</time>
      </trkpt>
      <trkpt lat="42.90457" lon="-0.126">
        <ele>1365.252</ele>
        <time>2012-06-24T14:09:06Z</time>
      </trkpt>
      <trkpt lat="42.9046" lon="-0.12598">
        <ele>1363.782</ele>
        <time>2012-06-24T14:09:07Z</time>
      </trkpt>
      <trkpt lat="42.90443" lon="-0.12586">
        <ele>1351.54</ele>
        <time>2012-06-24T14:09:13Z</time>
      </trkpt>
      <trkpt lat="42.90436" lon="-0.12578">
        <ele>1347.98</ele>
        <time>2012-06-24T14:09:16Z</time>
      </trkpt>
      <trkpt lat="42.90424" lon="-0.12589">
        <ele>1339.339</ele>
        <time>2012-06-24T14:09:20Z</time>
      </trkpt>
      <trkpt lat="42.90417" lon="-0.12594">
        <ele>1336.968</ele>
        <time>2012-06-24T14:09:22Z</time>
      </trkpt>
      <trkpt lat="42.90413" lon="-0.12596">
        <ele>1334.65</ele>
        <time>2012-06-24T14:09:24Z</time>
      </trkpt>
      <trkpt lat="42.90409" lon="-0.12579">
        <ele>1331.981</ele>
        <time>2012-06-24T14:09:28Z</time>
      </trkpt>
      <trkpt lat="42.90408" lon="-0.12571">
        <ele>1332.481</ele>
        <time>2012-06-24T14:09:29Z</time>
      </trkpt>
      <trkpt lat="42.90393" lon="-0.1252">
        <ele>1327.952</ele>
        <time>2012-06-24T14:09:35Z</time>
      </trkpt>
      <trkpt lat="42.90369" lon="-0.12479">
        <ele>1323.613</ele>
        <time>2012-06-24T14:09:40Z</time>
      </trkpt>
      <trkpt lat="42.90349" lon="-0.1245">
        <ele>1318.051</ele>
        <time>2012-06-24T14:09:44Z</time>
      </trkpt>
      <trkpt lat="42.90342" lon="-0.12433">
        <ele>1315.382</ele>
        <time>2012-06-24T14:09:46Z</time>
      </trkpt>
      <trkpt lat="42.90344" lon="-0.12428">
        <ele>1307.651</ele>
        <time>2012-06-24T14:09:50Z</time>
      </trkpt>
      <trkpt lat="42.90348" lon="-0.12436">
        <ele>1305.471</ele>
        <time>2012-06-24T14:09:51Z</time>
      </trkpt>
      <trkpt lat="42.90373" lon="-0.12457">
        <ele>1300.932</ele>
        <time>2012-06-24T14:09:56Z</time>
      </trkpt>
      <trkpt lat="42.90399" lon="-0.12464">
        <ele>1297.531</ele>
        <time>2012-06-24T14:09:59Z</time>
      </trkpt>
      <trkpt lat="42.90415" lon="-0.12471">
        <ele>1295.082</ele>
        <time>2012-06-24T14:10:02Z</time>
      </trkpt>
      <trkpt lat="42.90406" lon="-0.12455">
        <ele>1292.522</ele>
        <time>2012-06-24T14:10:06Z</time>
      </trkpt>
      <trkpt lat="42.90391" lon="-0.12444">
        <ele>1289.083</ele>
        <time>2012-06-24T14:10:10Z</time>
      </trkpt>
      <trkpt lat="42.90382" lon="-0.1243">
        <ele>1287.355</ele>
        <time>2012-06-24T14:10:17Z</time>
      </trkpt>
      <trkpt lat="42.90377" lon="-0.12423">
        <ele>1288.156</ele>
        <time>2012-06-24T14:10:22Z</time>
      </trkpt>
      <trkpt lat="42.90379" lon="-0.12419">
        <ele>1289.937</ele>
        <time>2012-06-24T14:10:29Z</time>
      </trkpt>
      <trkpt lat="42.90378" lon="-0.12415">
        <ele>1286.017</ele>
        <time>2012-06-24T14:11:02Z</time>
      </trkpt>
      <trkpt lat="42.90372" lon="-0.124">
        <ele>1284.746</ele>
        <time>2012-06-24T14:11:07Z</time>
      </trkpt>
      <trkpt lat="42.90367" lon="-0.12384">
        <ele>1283.317</ele>
        <time>2012-06-24T14:11:12Z</time>
      </trkpt>
      <trkpt lat="42.9036" lon="-0.12365">
        <ele>1282.756</ele>
        <time>2012-06-24T14:11:16Z</time>
      </trkpt>
      <trkpt lat="42.90354" lon="-0.12356">
        <ele>1283.537</ele>
        <time>2012-06-24T14:11:19Z</time>
      </trkpt>
      <trkpt lat="42.90339" lon="-0.12323">
        <ele>1283.177</ele>
        <time>2012-06-24T14:11:26Z</time>
      </trkpt>
      <trkpt lat="42.90332" lon="-0.12308">
        <ele>1283.037</ele>
        <time>2012-06-24T14:11:30Z</time>
      </trkpt>
      <trkpt lat="42.90322" lon="-0.12293">
        <ele>1277.855</ele>
        <time>2012-06-24T14:11:35Z</time>
      </trkpt>
      <trkpt lat="42.90305" lon="-0.12274">
        <ele>1272.623</ele>
        <time>2012-06-24T14:11:39Z</time>
      </trkpt>
      <trkpt lat="42.90274" lon="-0.12231">
        <ele>1264.673</ele>
        <time>2012-06-24T14:11:45Z</time>
      </trkpt>
      <trkpt lat="42.90267" lon="-0.12224">
        <ele>1263.682</ele>
        <time>2012-06-24T14:11:46Z</time>
      </trkpt>
      <trkpt lat="42.9024" lon="-0.12216">
        <ele>1260.383</ele>
        <time>2012-06-24T14:11:50Z</time>
      </trkpt>
      <trkpt lat="42.90212" lon="-0.12207">
        <ele>1256.292</ele>
        <time>2012-06-24T14:11:54Z</time>
      </trkpt>
      <trkpt lat="42.90191" lon="-0.12159">
        <ele>1250.578</ele>
        <time>2012-06-24T14:11:59Z</time>
      </trkpt>
      <trkpt lat="42.90185" lon="-0.12139">
        <ele>1248.182</ele>
        <time>2012-06-24T14:12:01Z</time>
      </trkpt>
      <trkpt lat="42.90179" lon="-0.12101">
        <ele>1241.562</ele>
        <time>2012-06-24T14:12:05Z</time>
      </trkpt>
      <trkpt lat="42.9016" lon="-0.12067">
        <ele>1238.291</ele>
        <time>2012-06-24T14:12:09Z</time>
      </trkpt>
      <trkpt lat="42.90152" lon="-0.12062">
        <ele>1237.261</ele>
        <time>2012-06-24T14:12:10Z</time>
      </trkpt>
      <trkpt lat="42.90118" lon="-0.12032">
        <ele>1230.541</ele>
        <time>2012-06-24T14:12:15Z</time>
      </trkpt>
      <trkpt lat="42.90068" lon="-0.12001">
        <ele>1220.161</ele>
        <time>2012-06-24T14:12:22Z</time>
      </trkpt>
      <trkpt lat="42.90045" lon="-0.11987">
        <ele>1215.361</ele>
        <time>2012-06-24T14:12:25Z</time>
      </trkpt>
      <trkpt lat="42.90021" lon="-0.11986">
        <ele>1209.842</ele>
        <time>2012-06-24T14:12:29Z</time>
      </trkpt>
      <trkpt lat="42.90014" lon="-0.11986">
        <ele>1207.923</ele>
        <time>2012-06-24T14:12:31Z</time>
      </trkpt>
      <trkpt lat="42.90015" lon="-0.1198">
        <ele>1206.524</ele>
        <time>2012-06-24T14:12:33Z</time>
      </trkpt>
      <trkpt lat="42.90025" lon="-0.11975">
        <ele>1204.402</ele>
        <time>2012-06-24T14:12:35Z</time>
      </trkpt>
      <trkpt lat="42.90063" lon="-0.11972">
        <ele>1199.433</ele>
        <time>2012-06-24T14:12:40Z</time>
      </trkpt>
      <trkpt lat="42.9011" lon="-0.11981">
        <ele>1193.221</ele>
        <time>2012-06-24T14:12:45Z</time>
      </trkpt>
      <trkpt lat="42.90157" lon="-0.11989">
        <ele>1187.961</ele>
        <time>2012-06-24T14:12:50Z</time>
      </trkpt>
      <trkpt lat="42.90165" lon="-0.11991">
        <ele>1187.241</ele>
        <time>2012-06-24T14:12:51Z</time>
      </trkpt>
      <trkpt lat="42.90208" lon="-0.1201">
        <ele>1183.163</ele>
        <time>2012-06-24T14:12:56Z</time>
      </trkpt>
      <trkpt lat="42.90228" lon="-0.12022">
        <ele>1180.833</ele>
        <time>2012-06-24T14:13:00Z</time>
      </trkpt>
      <trkpt lat="42.90228" lon="-0.12012">
        <ele>1179.144</ele>
        <time>2012-06-24T14:13:03Z</time>
      </trkpt>
      <trkpt lat="42.90221" lon="-0.12006">
        <ele>1179.255</ele>
        <time>2012-06-24T14:13:05Z</time>
      </trkpt>
      <trkpt lat="42.90194" lon="-0.11973">
        <ele>1176.455</ele>
        <time>2012-06-24T14:13:10Z</time>
      </trkpt>
      <trkpt lat="42.90175" lon="-0.11948">
        <ele>1174.355</ele>
        <time>2012-06-24T14:13:14Z</time>
      </trkpt>
      <trkpt lat="42.9017" lon="-0.11944">
        <ele>1174.556</ele>
        <time>2012-06-24T14:13:17Z</time>
      </trkpt>
      <trkpt lat="42.9017" lon="-0.1195">
        <ele>1172.616</ele>
        <time>2012-06-24T14:13:27Z</time>
      </trkpt>
      <trkpt lat="42.9017" lon="-0.1195">
        <ele>1172.178</ele>
        <time>2012-06-24T14:13:39Z</time>
      </trkpt>
      <trkpt lat="42.90179" lon="-0.11948">
        <ele>1172.588</ele>
        <time>2012-06-24T14:13:43Z</time>
      </trkpt>
      <trkpt lat="42.90194" lon="-0.11948">
        <ele>1170.617</ele>
        <time>2012-06-24T14:13:46Z</time>
      </trkpt>
      <trkpt lat="42.90217" lon="-0.11955">
        <ele>1164.535</ele>
        <time>2012-06-24T14:13:50Z</time>
      </trkpt>
      <trkpt lat="42.90255" lon="-0.11965">
        <ele>1154.863</ele>
        <time>2012-06-24T14:13:56Z</time>
      </trkpt>
      <trkpt lat="42.90267" lon="-0.11971">
        <ele>1150.84</ele>
        <time>2012-06-24T14:13:58Z</time>
      </trkpt>
      <trkpt lat="42.90271" lon="-0.11965">
        <ele>1145.223</ele>
        <time>2012-06-24T14:14:02Z</time>
      </trkpt>
      <trkpt lat="42.90273" lon="-0.11951">
        <ele>1140.242</ele>
        <time>2012-06-24T14:14:06Z</time>
      </trkpt>
      <trkpt lat="42.9028" lon="-0.11947">
        <ele>1137.003</ele>
        <time>2012-06-24T14:14:10Z</time>
      </trkpt>
      <trkpt lat="42.90279" lon="-0.11941">
        <ele>1136.333</ele>
        <time>2012-06-24T14:14:12Z</time>
      </trkpt>
      <trkpt lat="42.90276" lon="-0.11933">
        <ele>1133.603</ele>
        <time>2012-06-24T14:14:14Z</time>
      </trkpt>
      <trkpt lat="42.90284" lon="-0.1192">
        <ele>1130.203</ele>
        <time>2012-06-24T14:14:18Z</time>
      </trkpt>
      <trkpt lat="42.90286" lon="-0.11912">
        <ele>1125.902</ele>
        <time>2012-06-24T14:14:21Z</time>
      </trkpt>
      <trkpt lat="42.90282" lon="-0.11904">
        <ele>1121.912</ele>
        <time>2012-06-24T14:14:24Z</time>
      </trkpt>
      <trkpt lat="42.90292" lon="-0.11901">
        <ele>1115.362</ele>
        <time>2012-06-24T14:14:29Z</time>
      </trkpt>
      <trkpt lat="42.90287" lon="-0.11887">
        <ele>1110.521</ele>
        <time>2012-06-24T14:14:33Z</time>
      </trkpt>
      <trkpt lat="42.90284" lon="-0.11879">
        <ele>1107.851</ele>
        <time>2012-06-24T14:14:35Z</time>
      </trkpt>
      <trkpt lat="42.9029" lon="-0.11881">
        <ele>1105.724</ele>
        <time>2012-06-24T14:14:38Z</time>
      </trkpt>
      <trkpt lat="42.90299" lon="-0.11888">
        <ele>1102.463</ele>
        <time>2012-06-24T14:14:41Z</time>
      </trkpt>
      <trkpt lat="42.90307" lon="-0.11895">
        <ele>1100.525</ele>
        <time>2012-06-24T14:14:43Z</time>
      </trkpt>
      <trkpt lat="42.90313" lon="-0.11906">
        <ele>1098.194</ele>
        <time>2012-06-24T14:14:47Z</time>
      </trkpt>
      <trkpt lat="42.90314" lon="-0.11908">
        <ele>1096.257</ele>
        <time>2012-06-24T14:14:52Z</time>
      </trkpt>
      <trkpt lat="42.90317" lon="-0.11923">
        <ele>1092.746</ele>
        <time>2012-06-24T14:14:58Z</time>
      </trkpt>
      <trkpt lat="42.90318" lon="-0.11928">
        <ele>1092.457</ele>
        <time>2012-06-24T14:14:59Z</time>
      </trkpt>
      <trkpt lat="42.90326" lon="-0.11945">
        <ele>1094.098</ele>
        <time>2012-06-24T14:15:04Z</time>
      </trkpt>
      <trkpt lat="42.90328" lon="-0.11943">
        <ele>1094.138</ele>
        <time>2012-06-24T14:15:05Z</time>
      </trkpt>
      <trkpt lat="42.90341" lon="-0.11921">
        <ele>1091.187</ele>
        <time>2012-06-24T14:15:09Z</time>
      </trkpt>
      <trkpt lat="42.90352" lon="-0.11901">
        <ele>1089.045</ele>
        <time>2012-06-24T14:15:13Z</time>
      </trkpt>
      <trkpt lat="42.90359" lon="-0.11892">
        <ele>1087.345</ele>
        <time>2012-06-24T14:15:16Z</time>
      </trkpt>
      <trkpt lat="42.90353" lon="-0.11892">
        <ele>1085.136</ele>
        <time>2012-06-24T14:15:19Z</time>
      </trkpt>
      <trkpt lat="42.90344" lon="-0.11892">
        <ele>1084.876</ele>
        <time>2012-06-24T14:15:21Z</time>
      </trkpt>
      <trkpt lat="42.90349" lon="-0.11882">
        <ele>1083.306</ele>
        <time>2012-06-24T14:15:24Z</time>
      </trkpt>
      <trkpt lat="42.90363" lon="-0.11867">
        <ele>1080.845</ele>
        <time>2012-06-24T14:15:28Z</time>
      </trkpt>
      <trkpt lat="42.90366" lon="-0.11864">
        <ele>1080.466</ele>
        <time>2012-06-24T14:15:29Z</time>
      </trkpt>
      <trkpt lat="42.90366" lon="-0.1186">
        <ele>1077.414</ele>
        <time>2012-06-24T14:15:33Z</time>
      </trkpt>
      <trkpt lat="42.90371" lon="-0.11853">
        <ele>1072.215</ele>
        <time>2012-06-24T14:15:39Z</time>
      </trkpt>
      <trkpt lat="42.90366" lon="-0.11849">
        <ele>1070.836</ele>
        <time>2012-06-24T14:15:42Z</time>
      </trkpt>
      <trkpt lat="42.9037" lon="-0.11847">
        <ele>1069.066</ele>
        <time>2012-06-24T14:15:44Z</time>
      </trkpt>
      <trkpt lat="42.90378" lon="-0.11845">
        <ele>1064.695</ele>
        <time>2012-06-24T14:15:49Z</time>
      </trkpt>
      <trkpt lat="42.90375" lon="-0.1184">
        <ele>1060.645</ele>
        <time>2012-06-24T14:15:52Z</time>
      </trkpt>
      <trkpt lat="42.90387" lon="-0.11842">
        <ele>1058.845</ele>
        <time>2012-06-24T14:15:55Z</time>
      </trkpt>
      <trkpt lat="42.90394" lon="-0.11863">
        <ele>1053.901</ele>
        <time>2012-06-24T14:15:58Z</time>
      </trkpt>
      <trkpt lat="42.90403" lon="-0.11876">
        <ele>1048.87</ele>
        <time>2012-06-24T14:16:03Z</time>
      </trkpt>
      <trkpt lat="42.90403" lon="-0.11873">
        <ele>1048.604</ele>
        <time>2012-06-24T14:16:04Z</time>
      </trkpt>
      <trkpt lat="42.9041" lon="-0.11854">
        <ele>1044.395</ele>
        <time>2012-06-24T14:16:09Z</time>
      </trkpt>
      <trkpt lat="42.90411" lon="-0.11836">
        <ele>1040.315</ele>
        <time>2012-06-24T14:16:13Z</time>
      </trkpt>
      <trkpt lat="42.90423" lon="-0.11813">
        <ele>1035.245</ele>
        <time>2012-06-24T14:16:19Z</time>
      </trkpt>
      <trkpt lat="42.90425" lon="-0.11811">
        <ele>1034.747</ele>
        <time>2012-06-24T14:16:23Z</time>
      </trkpt>
      <trkpt lat="42.90425" lon="-0.11809">
        <ele>1037.669</ele>
        <time>2012-06-24T14:16:32Z</time>
      </trkpt>
      <trkpt lat="42.90423" lon="-0.11804">
        <ele>1039.24</ele>
        <time>2012-06-24T14:16:38Z</time>
      </trkpt>
      <trkpt lat="42.90415" lon="-0.11796">
        <ele>1062.489</ele>
        <time>2012-06-24T14:21:41Z</time>
      </trkpt>
      <trkpt lat="42.90416" lon="-0.11798">
        <ele>1058.568</ele>
        <time>2012-06-24T14:21:48Z</time>
      </trkpt>
      <trkpt lat="42.90417" lon="-0.11798">
        <ele>1055.638</ele>
        <time>2012-06-24T14:21:53Z</time>
      </trkpt>
      <trkpt lat="42.90412" lon="-0.11787">
        <ele>1049.966</ele>
        <time>2012-06-24T14:21:58Z</time>
      </trkpt>
      <trkpt lat="42.90403" lon="-0.11773">
        <ele>1043.665</ele>
        <time>2012-06-24T14:22:02Z</time>
      </trkpt>
      <trkpt lat="42.90401" lon="-0.11765">
        <ele>1037.894</ele>
        <time>2012-06-24T14:22:05Z</time>
      </trkpt>
      <trkpt lat="42.90391" lon="-0.11746">
        <ele>1029.884</ele>
        <time>2012-06-24T14:22:10Z</time>
      </trkpt>
      <trkpt lat="42.90381" lon="-0.11738">
        <ele>1024.074</ele>
        <time>2012-06-24T14:22:13Z</time>
      </trkpt>
      <trkpt lat="42.90385" lon="-0.11727">
        <ele>1022.395</ele>
        <time>2012-06-24T14:22:16Z</time>
      </trkpt>
      <trkpt lat="42.90385" lon="-0.11708">
        <ele>1019.595</ele>
        <time>2012-06-24T14:22:19Z</time>
      </trkpt>
      <trkpt lat="42.90376" lon="-0.1169">
        <ele>1010.624</ele>
        <time>2012-06-24T14:22:24Z</time>
      </trkpt>
      <trkpt lat="42.90365" lon="-0.11669">
        <ele>1004.934</ele>
        <time>2012-06-24T14:22:28Z</time>
      </trkpt>
      <trkpt lat="42.90361" lon="-0.11663">
        <ele>1004.115</ele>
        <time>2012-06-24T14:22:29Z</time>
      </trkpt>
      <trkpt lat="42.90347" lon="-0.11618">
        <ele>998.556</ele>
        <time>2012-06-24T14:22:35Z</time>
      </trkpt>
      <trkpt lat="42.90338" lon="-0.1158">
        <ele>994.196</ele>
        <time>2012-06-24T14:22:40Z</time>
      </trkpt>
      <trkpt lat="42.90327" lon="-0.11541">
        <ele>988.725</ele>
        <time>2012-06-24T14:22:45Z</time>
      </trkpt>
      <trkpt lat="42.90322" lon="-0.11505">
        <ele>982.884</ele>
        <time>2012-06-24T14:22:49Z</time>
      </trkpt>
      <trkpt lat="42.90325" lon="-0.1145">
        <ele>974.333</ele>
        <time>2012-06-24T14:22:54Z</time>
      </trkpt>
      <trkpt lat="42.90325" lon="-0.11418">
        <ele>968.292</ele>
        <time>2012-06-24T14:22:57Z</time>
      </trkpt>
      <trkpt lat="42.90328" lon="-0.11398">
        <ele>962.63</ele>
        <time>2012-06-24T14:22:59Z</time>
      </trkpt>
      <trkpt lat="42.90329" lon="-0.1137">
        <ele>954.932</ele>
        <time>2012-06-24T14:23:03Z</time>
      </trkpt>
      <trkpt lat="42.9033" lon="-0.11368">
        <ele>952.845</ele>
        <time>2012-06-24T14:23:06Z</time>
      </trkpt>
      <trkpt lat="42.90327" lon="-0.11368">
        <ele>950.539</ele>
        <time>2012-06-24T14:23:13Z</time>
      </trkpt>
      <trkpt lat="42.90327" lon="-0.1137">
        <ele>947.469</ele>
        <time>2012-06-24T14:23:32Z</time>
      </trkpt>
      <trkpt lat="42.9033" lon="-0.11375">
        <ele>947.39</ele>
        <time>2012-06-24T14:23:39Z</time>
      </trkpt>
      <trkpt lat="42.90331" lon="-0.11377">
        <ele>945.1</ele>
        <time>2012-06-24T14:23:50Z</time>
      </trkpt>
      <trkpt lat="42.90331" lon="-0.11378">
        <ele>944.169</ele>
        <time>2012-06-24T14:23:56Z</time>
      </trkpt>
      <trkpt lat="42.90324" lon="-0.11368">
        <ele>942.438</ele>
        <time>2012-06-24T14:24:01Z</time>
      </trkpt>
      <trkpt lat="42.90314" lon="-0.11353">
        <ele>940.587</ele>
        <time>2012-06-24T14:24:04Z</time>
      </trkpt>
      <trkpt lat="42.90308" lon="-0.11349">
        <ele>939.627</ele>
        <time>2012-06-24T14:24:05Z</time>
      </trkpt>
      <trkpt lat="42.90278" lon="-0.11332">
        <ele>934.336</ele>
        <time>2012-06-24T14:24:10Z</time>
      </trkpt>
      <trkpt lat="42.90276" lon="-0.11332">
        <ele>933.379</ele>
        <time>2012-06-24T14:24:13Z</time>
      </trkpt>
      <trkpt lat="42.90276" lon="-0.11332">
        <ele>932.788</ele>
        <time>2012-06-24T14:24:16Z</time>
      </trkpt>
      <trkpt lat="42.90281" lon="-0.11329">
        <ele>932.039</ele>
        <time>2012-06-24T14:24:21Z</time>
      </trkpt>
      <trkpt lat="42.90283" lon="-0.11331">
        <ele>931.189</ele>
        <time>2012-06-24T14:24:26Z</time>
      </trkpt>
      <trkpt lat="42.90288" lon="-0.11328">
        <ele>930.409</ele>
        <time>2012-06-24T14:24:30Z</time>
      </trkpt>
      <trkpt lat="42.90279" lon="-0.11313">
        <ele>929.659</ele>
        <time>2012-06-24T14:24:35Z</time>
      </trkpt>
      <trkpt lat="42.90269" lon="-0.11306">
        <ele>929.159</ele>
        <time>2012-06-24T14:24:37Z</time>
      </trkpt>
      <trkpt lat="42.90259" lon="-0.11298">
        <ele>928.158</ele>
        <time>2012-06-24T14:24:39Z</time>
      </trkpt>
      <trkpt lat="42.90244" lon="-0.11281">
        <ele>926.088</ele>
        <time>2012-06-24T14:24:43Z</time>
      </trkpt>
      <trkpt lat="42.90236" lon="-0.11263">
        <ele>925.579</ele>
        <time>2012-06-24T14:24:48Z</time>
      </trkpt>
      <trkpt lat="42.9022" lon="-0.11226">
        <ele>918.886</ele>
        <time>2012-06-24T14:24:53Z</time>
      </trkpt>
      <trkpt lat="42.90205" lon="-0.1118">
        <ele>910.112</ele>
        <time>2012-06-24T14:24:58Z</time>
      </trkpt>
      <trkpt lat="42.90198" lon="-0.11163">
        <ele>907.496</ele>
        <time>2012-06-24T14:25:01Z</time>
      </trkpt>
      <trkpt lat="42.90175" lon="-0.11153">
        <ele>904.506</ele>
        <time>2012-06-24T14:25:05Z</time>
      </trkpt>
      <trkpt lat="42.90167" lon="-0.11157">
        <ele>903.836</ele>
        <time>2012-06-24T14:25:06Z</time>
      </trkpt>
      <trkpt lat="42.90117" lon="-0.11188">
        <ele>896.865</ele>
        <time>2012-06-24T14:25:12Z</time>
      </trkpt>
      <trkpt lat="42.90078" lon="-0.11218">
        <ele>893.505</ele>
        <time>2012-06-24T14:25:17Z</time>
      </trkpt>
      <trkpt lat="42.90063" lon="-0.11228">
        <ele>892.236</ele>
        <time>2012-06-24T14:25:19Z</time>
      </trkpt>
      <trkpt lat="42.90045" lon="-0.11227">
        <ele>891.287</ele>
        <time>2012-06-24T14:25:22Z</time>
      </trkpt>
      <trkpt lat="42.90042" lon="-0.11222">
        <ele>891.067</ele>
        <time>2012-06-24T14:25:23Z</time>
      </trkpt>
      <trkpt lat="42.9004" lon="-0.11216">
        <ele>890.519</ele>
        <time>2012-06-24T14:25:27Z</time>
      </trkpt>
      <trkpt lat="42.90042" lon="-0.11214">
        <ele>890.7</ele>
        <time>2012-06-24T14:25:39Z</time>
      </trkpt>
      <trkpt lat="42.90038" lon="-0.11202">
        <ele>890.119</ele>
        <time>2012-06-24T14:25:45Z</time>
      </trkpt>
      <trkpt lat="42.90037" lon="-0.11201">
        <ele>890.509</ele>
        <time>2012-06-24T14:25:52Z</time>
      </trkpt>
      <trkpt lat="42.90036" lon="-0.11191">
        <ele>890.248</ele>
        <time>2012-06-24T14:25:56Z</time>
      </trkpt>
      <trkpt lat="42.90039" lon="-0.11166">
        <ele>889.128</ele>
        <time>2012-06-24T14:26:00Z</time>
      </trkpt>
      <trkpt lat="42.90047" lon="-0.11154">
        <ele>889.148</ele>
        <time>2012-06-24T14:26:02Z</time>
      </trkpt>
      <trkpt lat="42.90063" lon="-0.11137">
        <ele>888.156</ele>
        <time>2012-06-24T14:26:05Z</time>
      </trkpt>
      <trkpt lat="42.90077" lon="-0.11105">
        <ele>886.946</ele>
        <time>2012-06-24T14:26:09Z</time>
      </trkpt>
      <trkpt lat="42.90081" lon="-0.11089">
        <ele>886.266</ele>
        <time>2012-06-24T14:26:11Z</time>
      </trkpt>
      <trkpt lat="42.90093" lon="-0.11054">
        <ele>884.676</ele>
        <time>2012-06-24T14:26:16Z</time>
      </trkpt>
      <trkpt lat="42.90097" lon="-0.11048">
        <ele>884.106</ele>
        <time>2012-06-24T14:26:17Z</time>
      </trkpt>
      <trkpt lat="42.90108" lon="-0.11035">
        <ele>883.106</ele>
        <time>2012-06-24T14:26:19Z</time>
      </trkpt>
      <trkpt lat="42.90125" lon="-0.10999">
        <ele>881.076</ele>
        <time>2012-06-24T14:26:23Z</time>
      </trkpt>
      <trkpt lat="42.90148" lon="-0.10917">
        <ele>876.086</ele>
        <time>2012-06-24T14:26:31Z</time>
      </trkpt>
      <trkpt lat="42.90154" lon="-0.10896">
        <ele>874.936</ele>
        <time>2012-06-24T14:26:33Z</time>
      </trkpt>
      <trkpt lat="42.90176" lon="-0.10863">
        <ele>874.226</ele>
        <time>2012-06-24T14:26:37Z</time>
      </trkpt>
      <trkpt lat="42.90193" lon="-0.10855">
        <ele>872.777</ele>
        <time>2012-06-24T14:26:39Z</time>
      </trkpt>
      <trkpt lat="42.90218" lon="-0.10849">
        <ele>869.925</ele>
        <time>2012-06-24T14:26:42Z</time>
      </trkpt>
      <trkpt lat="42.90247" lon="-0.10826">
        <ele>866.847</ele>
        <time>2012-06-24T14:26:46Z</time>
      </trkpt>
      <trkpt lat="42.90253" lon="-0.10817">
        <ele>866.317</ele>
        <time>2012-06-24T14:26:47Z</time>
      </trkpt>
      <trkpt lat="42.90296" lon="-0.10748">
        <ele>861.027</ele>
        <time>2012-06-24T14:26:54Z</time>
      </trkpt>
      <trkpt lat="42.90308" lon="-0.10728">
        <ele>859.717</ele>
        <time>2012-06-24T14:26:56Z</time>
      </trkpt>
      <trkpt lat="42.90317" lon="-0.10686">
        <ele>857.287</ele>
        <time>2012-06-24T14:27:00Z</time>
      </trkpt>
      <trkpt lat="42.90313" lon="-0.10664">
        <ele>856.578</ele>
        <time>2012-06-24T14:27:02Z</time>
      </trkpt>
      <trkpt lat="42.90301" lon="-0.10633">
        <ele>856.128</ele>
        <time>2012-06-24T14:27:05Z</time>
      </trkpt>
      <trkpt lat="42.90293" lon="-0.10594">
        <ele>855.889</ele>
        <time>2012-06-24T14:27:09Z</time>
      </trkpt>
      <trkpt lat="42.90289" lon="-0.10583">
        <ele>858.31</ele>
        <time>2012-06-24T14:27:11Z</time>
      </trkpt>
      <trkpt lat="42.90284" lon="-0.10579">
        <ele>862.272</ele>
        <time>2012-06-24T14:27:16Z</time>
      </trkpt>
      <trkpt lat="42.90275" lon="-0.10571">
        <ele>886.028</ele>
        <time>2012-06-24T14:27:27Z</time>
      </trkpt>
      <trkpt lat="42.90268" lon="-0.10562">
        <ele>888.677</ele>
        <time>2012-06-24T14:27:31Z</time>
      </trkpt>
      <trkpt lat="42.90261" lon="-0.10562">
        <ele>882.093</ele>
        <time>2012-06-24T14:27:34Z</time>
      </trkpt>
      <trkpt lat="42.90252" lon="-0.10563">
        <ele>874.321</ele>
        <time>2012-06-24T14:27:38Z</time>
      </trkpt>
      <trkpt lat="42.90254" lon="-0.10558">
        <ele>869.52</ele>
        <time>2012-06-24T14:27:41Z</time>
      </trkpt>
      <trkpt lat="42.90266" lon="-0.10555">
        <ele>863.059</ele>
        <time>2012-06-24T14:27:45Z</time>
      </trkpt>
      <trkpt lat="42.9027" lon="-0.10555">
        <ele>861.949</ele>
        <time>2012-06-24T14:27:46Z</time>
      </trkpt>
      <trkpt lat="42.90303" lon="-0.10554">
        <ele>852.63</ele>
        <time>2012-06-24T14:27:54Z</time>
      </trkpt>
      <trkpt lat="42.90326" lon="-0.10549">
        <ele>845.249</ele>
        <time>2012-06-24T14:27:59Z</time>
      </trkpt>
      <trkpt lat="42.90359" lon="-0.10542">
        <ele>840.729</ele>
        <time>2012-06-24T14:28:04Z</time>
      </trkpt>
      <trkpt lat="42.90403" lon="-0.10534">
        <ele>836.828</ele>
        <time>2012-06-24T14:28:10Z</time>
      </trkpt>
      <trkpt lat="42.90439" lon="-0.10527">
        <ele>833.719</ele>
        <time>2012-06-24T14:28:16Z</time>
      </trkpt>
      <trkpt lat="42.90467" lon="-0.1052">
        <ele>829.439</ele>
        <time>2012-06-24T14:28:21Z</time>
      </trkpt>
      <trkpt lat="42.90497" lon="-0.10513">
        <ele>826.349</ele>
        <time>2012-06-24T14:28:26Z</time>
      </trkpt>
      <trkpt lat="42.90532" lon="-0.105">
        <ele>824.61</ele>
        <time>2012-06-24T14:28:31Z</time>
      </trkpt>
      <trkpt lat="42.90573" lon="-0.10481">
        <ele>822.39</ele>
        <time>2012-06-24T14:28:37Z</time>
      </trkpt>
      <trkpt lat="42.90658" lon="-0.10406">
        <ele>822.884</ele>
        <time>2012-06-24T14:28:53Z</time>
      </trkpt>
      <trkpt lat="42.90673" lon="-0.10372">
        <ele>823.713</ele>
        <time>2012-06-24T14:28:57Z</time>
      </trkpt>
      <trkpt lat="42.90712" lon="-0.10319">
        <ele>816.323</ele>
        <time>2012-06-24T14:29:03Z</time>
      </trkpt>
      <trkpt lat="42.90726" lon="-0.10293">
        <ele>815.123</ele>
        <time>2012-06-24T14:29:07Z</time>
      </trkpt>
      <trkpt lat="42.90733" lon="-0.10278">
        <ele>814.443</ele>
        <time>2012-06-24T14:29:10Z</time>
      </trkpt>
      <trkpt lat="42.90756" lon="-0.1024">
        <ele>812.753</ele>
        <time>2012-06-24T14:29:18Z</time>
      </trkpt>
      <trkpt lat="42.90778" lon="-0.10205">
        <ele>810.663</ele>
        <time>2012-06-24T14:29:25Z</time>
      </trkpt>
      <trkpt lat="42.90786" lon="-0.10195">
        <ele>810.022</ele>
        <time>2012-06-24T14:29:27Z</time>
      </trkpt>
      <trkpt lat="42.90803" lon="-0.10173">
        <ele>809.013</ele>
        <time>2012-06-24T14:29:32Z</time>
      </trkpt>
      <trkpt lat="42.90835" lon="-0.10144">
        <ele>807.943</ele>
        <time>2012-06-24T14:29:39Z</time>
      </trkpt>
      <trkpt lat="42.90848" lon="-0.10124">
        <ele>816.036</ele>
        <time>2012-06-24T14:29:45Z</time>
      </trkpt>
      <trkpt lat="42.90864" lon="-0.1011">
        <ele>818.407</ele>
        <time>2012-06-24T14:29:52Z</time>
      </trkpt>
      <trkpt lat="42.90881" lon="-0.101">
        <ele>817.086</ele>
        <time>2012-06-24T14:29:57Z</time>
      </trkpt>
      <trkpt lat="42.90902" lon="-0.10092">
        <ele>817.627</ele>
        <time>2012-06-24T14:30:01Z</time>
      </trkpt>
      <trkpt lat="42.90923" lon="-0.10085">
        <ele>813.915</ele>
        <time>2012-06-24T14:30:05Z</time>
      </trkpt>
      <trkpt lat="42.90927" lon="-0.10074">
        <ele>813.155</ele>
        <time>2012-06-24T14:30:08Z</time>
      </trkpt>
      <trkpt lat="42.90921" lon="-0.10062">
        <ele>812.845</ele>
        <time>2012-06-24T14:30:14Z</time>
      </trkpt>
      <trkpt lat="42.90916" lon="-0.10059">
        <ele>813.896</ele>
        <time>2012-06-24T14:30:17Z</time>
      </trkpt>
      <trkpt lat="42.90898" lon="-0.10048">
        <ele>819.527</ele>
        <time>2012-06-24T14:30:26Z</time>
      </trkpt>
      <trkpt lat="42.90888" lon="-0.10041">
        <ele>817.245</ele>
        <time>2012-06-24T14:30:33Z</time>
      </trkpt>
      <trkpt lat="42.90881" lon="-0.10033">
        <ele>819.576</ele>
        <time>2012-06-24T14:30:39Z</time>
      </trkpt>
      <trkpt lat="42.9088" lon="-0.10032">
        <ele>819.856</ele>
        <time>2012-06-24T14:30:40Z</time>
      </trkpt>
      <trkpt lat="42.90875" lon="-0.10028">
        <ele>822.477</ele>
        <time>2012-06-24T14:30:45Z</time>
      </trkpt>
      <trkpt lat="42.90862" lon="-0.10019">
        <ele>824.857</ele>
        <time>2012-06-24T14:30:52Z</time>
      </trkpt>
      <trkpt lat="42.90856" lon="-0.1001">
        <ele>824.045</ele>
        <time>2012-06-24T14:30:58Z</time>
      </trkpt>
      <trkpt lat="42.90843" lon="-0.1">
        <ele>826.397</ele>
        <time>2012-06-24T14:31:04Z</time>
      </trkpt>
      <trkpt lat="42.9083" lon="-0.09984">
        <ele>830.347</ele>
        <time>2012-06-24T14:31:09Z</time>
      </trkpt>
      <trkpt lat="42.90825" lon="-0.0996">
        <ele>831.417</ele>
        <time>2012-06-24T14:31:13Z</time>
      </trkpt>
      <trkpt lat="42.90834" lon="-0.09934">
        <ele>829.956</ele>
        <time>2012-06-24T14:31:17Z</time>
      </trkpt>
      <trkpt lat="42.90849" lon="-0.09906">
        <ele>826.755</ele>
        <time>2012-06-24T14:31:22Z</time>
      </trkpt>
      <trkpt lat="42.90884" lon="-0.09862">
        <ele>822.194</ele>
        <time>2012-06-24T14:31:30Z</time>
      </trkpt>
      <trkpt lat="42.9089" lon="-0.09856">
        <ele>822.265</ele>
        <time>2012-06-24T14:31:31Z</time>
      </trkpt>
      <trkpt lat="42.90914" lon="-0.09849">
        <ele>820.835</ele>
        <time>2012-06-24T14:31:35Z</time>
      </trkpt>
      <trkpt lat="42.90941" lon="-0.09837">
        <ele>815.532</ele>
        <time>2012-06-24T14:31:39Z</time>
      </trkpt>
      <trkpt lat="42.90986" lon="-0.0981">
        <ele>810.041</ele>
        <time>2012-06-24T14:31:44Z</time>
      </trkpt>
      <trkpt lat="42.91021" lon="-0.09786">
        <ele>800.978</ele>
        <time>2012-06-24T14:31:47Z</time>
      </trkpt>
      <trkpt lat="42.91045" lon="-0.09767">
        <ele>796.928</ele>
        <time>2012-06-24T14:31:50Z</time>
      </trkpt>
      <trkpt lat="42.91057" lon="-0.0976">
        <ele>796.451</ele>
        <time>2012-06-24T14:31:52Z</time>
      </trkpt>
      <trkpt lat="42.9109" lon="-0.09757">
        <ele>795.014</ele>
        <time>2012-06-24T14:31:57Z</time>
      </trkpt>
      <trkpt lat="42.91114" lon="-0.0975">
        <ele>797.057</ele>
        <time>2012-06-24T14:32:02Z</time>
      </trkpt>
      <trkpt lat="42.91119" lon="-0.09749">
        <ele>797.127</ele>
        <time>2012-06-24T14:32:03Z</time>
      </trkpt>
      <trkpt lat="42.91142" lon="-0.09742">
        <ele>793.095</ele>
        <time>2012-06-24T14:32:07Z</time>
      </trkpt>
      <trkpt lat="42.91154" lon="-0.09741">
        <ele>791.975</ele>
        <time>2012-06-24T14:32:09Z</time>
      </trkpt>
      <trkpt lat="42.91182" lon="-0.09728">
        <ele>793.387</ele>
        <time>2012-06-24T14:32:15Z</time>
      </trkpt>
      <trkpt lat="42.91194" lon="-0.09724">
        <ele>792.708</ele>
        <time>2012-06-24T14:32:17Z</time>
      </trkpt>
      <trkpt lat="42.91224" lon="-0.09706">
        <ele>786.785</ele>
        <time>2012-06-24T14:32:22Z</time>
      </trkpt>
      <trkpt lat="42.91296" lon="-0.09635">
        <ele>778.815</ele>
        <time>2012-06-24T14:32:36Z</time>
      </trkpt>
      <trkpt lat="42.9133" lon="-0.09605">
        <ele>780.467</ele>
        <time>2012-06-24T14:32:42Z</time>
      </trkpt>
      <trkpt lat="42.91368" lon="-0.09575">
        <ele>782.608</ele>
        <time>2012-06-24T14:32:49Z</time>
      </trkpt>
      <trkpt lat="42.91377" lon="-0.09566">
        <ele>782.66</ele>
        <time>2012-06-24T14:32:51Z</time>
      </trkpt>
      <trkpt lat="42.91396" lon="-0.09539">
        <ele>784.87</ele>
        <time>2012-06-24T14:32:56Z</time>
      </trkpt>
      <trkpt lat="42.91408" lon="-0.09527">
        <ele>785.851</ele>
        <time>2012-06-24T14:32:59Z</time>
      </trkpt>
      <trkpt lat="42.9142" lon="-0.09518">
        <ele>785.961</ele>
        <time>2012-06-24T14:33:02Z</time>
      </trkpt>
      <trkpt lat="42.91439" lon="-0.09509">
        <ele>785.81</ele>
        <time>2012-06-24T14:33:06Z</time>
      </trkpt>
      <trkpt lat="42.91473" lon="-0.09494">
        <ele>788.981</ele>
        <time>2012-06-24T14:33:13Z</time>
      </trkpt>
      <trkpt lat="42.915" lon="-0.09484">
        <ele>794.202</ele>
        <time>2012-06-24T14:33:20Z</time>
      </trkpt>
      <trkpt lat="42.9152" lon="-0.09483">
        <ele>798.934</ele>
        <time>2012-06-24T14:33:26Z</time>
      </trkpt>
      <trkpt lat="42.9154" lon="-0.09486">
        <ele>799.172</ele>
        <time>2012-06-24T14:33:31Z</time>
      </trkpt>
      <trkpt lat="42.91565" lon="-0.09488">
        <ele>799.883</ele>
        <time>2012-06-24T14:33:38Z</time>
      </trkpt>
      <trkpt lat="42.91583" lon="-0.09492">
        <ele>799.032</ele>
        <time>2012-06-24T14:33:43Z</time>
      </trkpt>
      <trkpt lat="42.91602" lon="-0.09499">
        <ele>798.481</ele>
        <time>2012-06-24T14:33:49Z</time>
      </trkpt>
      <trkpt lat="42.91622" lon="-0.09503">
        <ele>797.622</ele>
        <time>2012-06-24T14:33:55Z</time>
      </trkpt>
      <trkpt lat="42.91635" lon="-0.09505">
        <ele>796.38</ele>
        <time>2012-06-24T14:33:59Z</time>
      </trkpt>
      <trkpt lat="42.91656" lon="-0.09513">
        <ele>794.229</ele>
        <time>2012-06-24T14:34:03Z</time>
      </trkpt>
      <trkpt lat="42.91695" lon="-0.09524">
        <ele>790.348</ele>
        <time>2012-06-24T14:34:09Z</time>
      </trkpt>
      <trkpt lat="42.9173" lon="-0.09516">
        <ele>788.099</ele>
        <time>2012-06-24T14:34:14Z</time>
      </trkpt>
      <trkpt lat="42.91744" lon="-0.09512">
        <ele>786.068</ele>
        <time>2012-06-24T14:34:16Z</time>
      </trkpt>
      <trkpt lat="42.9176" lon="-0.09507">
        <ele>784.868</ele>
        <time>2012-06-24T14:34:20Z</time>
      </trkpt>
      <trkpt lat="42.91766" lon="-0.09505">
        <ele>786.079</ele>
        <time>2012-06-24T14:34:23Z</time>
      </trkpt>
      <trkpt lat="42.91769" lon="-0.09497">
        <ele>785.369</ele>
        <time>2012-06-24T14:34:26Z</time>
      </trkpt>
      <trkpt lat="42.9177" lon="-0.0948">
        <ele>785.71</ele>
        <time>2012-06-24T14:34:30Z</time>
      </trkpt>
      <trkpt lat="42.91767" lon="-0.09475">
        <ele>786.789</ele>
        <time>2012-06-24T14:34:31Z</time>
      </trkpt>
      <trkpt lat="42.91758" lon="-0.0946">
        <ele>788.011</ele>
        <time>2012-06-24T14:34:35Z</time>
      </trkpt>
      <trkpt lat="42.91754" lon="-0.0943">
        <ele>792.832</ele>
        <time>2012-06-24T14:34:41Z</time>
      </trkpt>
      <trkpt lat="42.91756" lon="-0.09413">
        <ele>796.893</ele>
        <time>2012-06-24T14:34:46Z</time>
      </trkpt>
      <trkpt lat="42.91762" lon="-0.09395">
        <ele>798.813</ele>
        <time>2012-06-24T14:34:51Z</time>
      </trkpt>
      <trkpt lat="42.91768" lon="-0.09381">
        <ele>798.183</ele>
        <time>2012-06-24T14:34:55Z</time>
      </trkpt>
      <trkpt lat="42.91777" lon="-0.09365">
        <ele>797.182</ele>
        <time>2012-06-24T14:34:59Z</time>
      </trkpt>
      <trkpt lat="42.91799" lon="-0.0935">
        <ele>795.762</ele>
        <time>2012-06-24T14:35:05Z</time>
      </trkpt>
      <trkpt lat="42.91807" lon="-0.09333">
        <ele>798.392</ele>
        <time>2012-06-24T14:35:09Z</time>
      </trkpt>
      <trkpt lat="42.91822" lon="-0.09307">
        <ele>797.812</ele>
        <time>2012-06-24T14:35:15Z</time>
      </trkpt>
      <trkpt lat="42.91831" lon="-0.09288">
        <ele>797.031</ele>
        <time>2012-06-24T14:35:20Z</time>
      </trkpt>
      <trkpt lat="42.91838" lon="-0.09305">
        <ele>790.218</ele>
        <time>2012-06-24T14:35:24Z</time>
      </trkpt>
      <trkpt lat="42.91844" lon="-0.09315">
        <ele>786.608</ele>
        <time>2012-06-24T14:35:27Z</time>
      </trkpt>
      <trkpt lat="42.91851" lon="-0.09306">
        <ele>784.338</ele>
        <time>2012-06-24T14:35:30Z</time>
      </trkpt>
      <trkpt lat="42.91855" lon="-0.09293">
        <ele>783.868</ele>
        <time>2012-06-24T14:35:32Z</time>
      </trkpt>
      <trkpt lat="42.91862" lon="-0.09267">
        <ele>782.258</ele>
        <time>2012-06-24T14:35:35Z</time>
      </trkpt>
      <trkpt lat="42.9189" lon="-0.09226">
        <ele>776.728</ele>
        <time>2012-06-24T14:35:40Z</time>
      </trkpt>
      <trkpt lat="42.91912" lon="-0.09211">
        <ele>770.917</ele>
        <time>2012-06-24T14:35:44Z</time>
      </trkpt>
      <trkpt lat="42.91918" lon="-0.09213">
        <ele>768.548</ele>
        <time>2012-06-24T14:35:47Z</time>
      </trkpt>
      <trkpt lat="42.91918" lon="-0.09232">
        <ele>765.877</ele>
        <time>2012-06-24T14:35:50Z</time>
      </trkpt>
      <trkpt lat="42.91917" lon="-0.09241">
        <ele>765.867</ele>
        <time>2012-06-24T14:35:51Z</time>
      </trkpt>
      <trkpt lat="42.91914" lon="-0.09269">
        <ele>765.279</ele>
        <time>2012-06-24T14:35:54Z</time>
      </trkpt>
      <trkpt lat="42.9191" lon="-0.09291">
        <ele>764.098</ele>
        <time>2012-06-24T14:35:58Z</time>
      </trkpt>
      <trkpt lat="42.91914" lon="-0.0929">
        <ele>763.501</ele>
        <time>2012-06-24T14:36:00Z</time>
      </trkpt>
      <trkpt lat="42.91917" lon="-0.09282">
        <ele>763.271</ele>
        <time>2012-06-24T14:36:02Z</time>
      </trkpt>
      <trkpt lat="42.91926" lon="-0.09244">
        <ele>768.492</ele>
        <time>2012-06-24T14:36:07Z</time>
      </trkpt>
      <trkpt lat="42.91935" lon="-0.09204">
        <ele>767.972</ele>
        <time>2012-06-24T14:36:11Z</time>
      </trkpt>
      <trkpt lat="42.91958" lon="-0.09176">
        <ele>763.441</ele>
        <time>2012-06-24T14:36:15Z</time>
      </trkpt>
      <trkpt lat="42.91977" lon="-0.09173">
        <ele>760.73</ele>
        <time>2012-06-24T14:36:17Z</time>
      </trkpt>
      <trkpt lat="42.92048" lon="-0.09123">
        <ele>753.01</ele>
        <time>2012-06-24T14:36:26Z</time>
      </trkpt>
      <trkpt lat="42.92096" lon="-0.09106">
        <ele>745.229</ele>
        <time>2012-06-24T14:36:31Z</time>
      </trkpt>
      <trkpt lat="42.9214" lon="-0.09093">
        <ele>738.498</ele>
        <time>2012-06-24T14:36:35Z</time>
      </trkpt>
      <trkpt lat="42.92176" lon="-0.09075">
        <ele>736.349</ele>
        <time>2012-06-24T14:36:39Z</time>
      </trkpt>
      <trkpt lat="42.92222" lon="-0.09059">
        <ele>731.489</ele>
        <time>2012-06-24T14:36:44Z</time>
      </trkpt>
      <trkpt lat="42.92253" lon="-0.09036">
        <ele>726.709</ele>
        <time>2012-06-24T14:36:48Z</time>
      </trkpt>
      <trkpt lat="42.92307" lon="-0.09005">
        <ele>723.153</ele>
        <time>2012-06-24T14:36:55Z</time>
      </trkpt>
      <trkpt lat="42.92345" lon="-0.08986">
        <ele>719.533</ele>
        <time>2012-06-24T14:36:59Z</time>
      </trkpt>
      <trkpt lat="42.92371" lon="-0.08968">
        <ele>717.763</ele>
        <time>2012-06-24T14:37:02Z</time>
      </trkpt>
      <trkpt lat="42.924" lon="-0.08964">
        <ele>715.323</ele>
        <time>2012-06-24T14:37:06Z</time>
      </trkpt>
      <trkpt lat="42.92422" lon="-0.08965">
        <ele>710.19</ele>
        <time>2012-06-24T14:37:09Z</time>
      </trkpt>
      <trkpt lat="42.92466" lon="-0.08966">
        <ele>707.502</ele>
        <time>2012-06-24T14:37:15Z</time>
      </trkpt>
      <trkpt lat="42.92478" lon="-0.08968">
        <ele>707.653</ele>
        <time>2012-06-24T14:37:17Z</time>
      </trkpt>
      <trkpt lat="42.92492" lon="-0.0897">
        <ele>708.044</ele>
        <time>2012-06-24T14:37:19Z</time>
      </trkpt>
      <trkpt lat="42.92522" lon="-0.08966">
        <ele>708.195</ele>
        <time>2012-06-24T14:37:23Z</time>
      </trkpt>
      <trkpt lat="42.92571" lon="-0.08948">
        <ele>707.065</ele>
        <time>2012-06-24T14:37:29Z</time>
      </trkpt>
      <trkpt lat="42.92603" lon="-0.08948">
        <ele>701.003</ele>
        <time>2012-06-24T14:37:33Z</time>
      </trkpt>
      <trkpt lat="42.92654" lon="-0.08963">
        <ele>694.583</ele>
        <time>2012-06-24T14:37:39Z</time>
      </trkpt>
      <trkpt lat="42.92708" lon="-0.08978">
        <ele>691.003</ele>
        <time>2012-06-24T14:37:45Z</time>
      </trkpt>
      <trkpt lat="42.92755" lon="-0.08985">
        <ele>698.587</ele>
        <time>2012-06-24T14:37:50Z</time>
      </trkpt>
      <trkpt lat="42.92795" lon="-0.0898">
        <ele>706.029</ele>
        <time>2012-06-24T14:37:54Z</time>
      </trkpt>
      <trkpt lat="42.92831" lon="-0.08974">
        <ele>711.455</ele>
        <time>2012-06-24T14:37:58Z</time>
      </trkpt>
      <trkpt lat="42.92858" lon="-0.08953">
        <ele>717.253</ele>
        <time>2012-06-24T14:38:02Z</time>
      </trkpt>
      <trkpt lat="42.92896" lon="-0.08898">
        <ele>713.941</ele>
        <time>2012-06-24T14:38:08Z</time>
      </trkpt>
      <trkpt lat="42.92913" lon="-0.08845">
        <ele>704.088</ele>
        <time>2012-06-24T14:38:13Z</time>
      </trkpt>
      <trkpt lat="42.92928" lon="-0.08823">
        <ele>694.206</ele>
        <time>2012-06-24T14:38:18Z</time>
      </trkpt>
      <trkpt lat="42.92954" lon="-0.08805">
        <ele>681.984</ele>
        <time>2012-06-24T14:38:24Z</time>
      </trkpt>
      <trkpt lat="42.92957" lon="-0.08804">
        <ele>680.345</ele>
        <time>2012-06-24T14:38:25Z</time>
      </trkpt>
      <trkpt lat="42.92983" lon="-0.08801">
        <ele>672.706</ele>
        <time>2012-06-24T14:38:33Z</time>
      </trkpt>
      <trkpt lat="42.93006" lon="-0.08795">
        <ele>669.367</ele>
        <time>2012-06-24T14:38:41Z</time>
      </trkpt>
      <trkpt lat="42.93024" lon="-0.08791">
        <ele>667.007</ele>
        <time>2012-06-24T14:38:47Z</time>
      </trkpt>
      <trkpt lat="42.93043" lon="-0.08787">
        <ele>664.597</ele>
        <time>2012-06-24T14:38:53Z</time>
      </trkpt>
      <trkpt lat="42.93062" lon="-0.08785">
        <ele>664.439</ele>
        <time>2012-06-24T14:38:59Z</time>
      </trkpt>
      <trkpt lat="42.93085" lon="-0.08781">
        <ele>663.78</ele>
        <time>2012-06-24T14:39:06Z</time>
      </trkpt>
      <trkpt lat="42.93102" lon="-0.08777">
        <ele>662.599</ele>
        <time>2012-06-24T14:39:12Z</time>
      </trkpt>
      <trkpt lat="42.9311" lon="-0.08773">
        <ele>662.099</ele>
        <time>2012-06-24T14:39:17Z</time>
      </trkpt>
      <trkpt lat="42.93109" lon="-0.0877">
        <ele>672.462</ele>
        <time>2012-06-24T14:39:29Z</time>
      </trkpt>
      <trkpt lat="42.93121" lon="-0.0876">
        <ele>671.301</ele>
        <time>2012-06-24T14:39:34Z</time>
      </trkpt>
      <trkpt lat="42.93125" lon="-0.08755">
        <ele>671.021</ele>
        <time>2012-06-24T14:39:35Z</time>
      </trkpt>
      <trkpt lat="42.93155" lon="-0.0874">
        <ele>666.329</ele>
        <time>2012-06-24T14:39:39Z</time>
      </trkpt>
      <trkpt lat="42.93192" lon="-0.08733">
        <ele>660.716</ele>
        <time>2012-06-24T14:39:43Z</time>
      </trkpt>
      <trkpt lat="42.93219" lon="-0.08745">
        <ele>655.936</ele>
        <time>2012-06-24T14:39:46Z</time>
      </trkpt>
      <trkpt lat="42.93256" lon="-0.08769">
        <ele>651.365</ele>
        <time>2012-06-24T14:39:50Z</time>
      </trkpt>
      <trkpt lat="42.93283" lon="-0.08804">
        <ele>647.346</ele>
        <time>2012-06-24T14:39:54Z</time>
      </trkpt>
      <trkpt lat="42.933" lon="-0.08849">
        <ele>647.666</ele>
        <time>2012-06-24T14:39:58Z</time>
      </trkpt>
      <trkpt lat="42.93329" lon="-0.08875">
        <ele>646.819</ele>
        <time>2012-06-24T14:40:02Z</time>
      </trkpt>
      <trkpt lat="42.93368" lon="-0.0889">
        <ele>649.33</ele>
        <time>2012-06-24T14:40:06Z</time>
      </trkpt>
      <trkpt lat="42.93404" lon="-0.08915">
        <ele>652.701</ele>
        <time>2012-06-24T14:40:10Z</time>
      </trkpt>
      <trkpt lat="42.93437" lon="-0.08925">
        <ele>654.932</ele>
        <time>2012-06-24T14:40:14Z</time>
      </trkpt>
      <trkpt lat="42.93585" lon="-0.08911">
        <ele>668.972</ele>
        <time>2012-06-24T14:40:32Z</time>
      </trkpt>
      <trkpt lat="42.93632" lon="-0.08915">
        <ele>673.693</ele>
        <time>2012-06-24T14:40:37Z</time>
      </trkpt>
      <trkpt lat="42.93684" lon="-0.08928">
        <ele>670.622</ele>
        <time>2012-06-24T14:40:42Z</time>
      </trkpt>
      <trkpt lat="42.93712" lon="-0.08937">
        <ele>675.683</ele>
        <time>2012-06-24T14:40:45Z</time>
      </trkpt>
      <trkpt lat="42.93851" lon="-0.08891">
        <ele>688.325</ele>
        <time>2012-06-24T14:41:06Z</time>
      </trkpt>
      <trkpt lat="42.93873" lon="-0.08873">
        <ele>673.336</ele>
        <time>2012-06-24T14:41:10Z</time>
      </trkpt>
      <trkpt lat="42.93913" lon="-0.08856">
        <ele>648.938</ele>
        <time>2012-06-24T14:41:15Z</time>
      </trkpt>
      <trkpt lat="42.93964" lon="-0.0883">
        <ele>631.475</ele>
        <time>2012-06-24T14:41:21Z</time>
      </trkpt>
      <trkpt lat="42.93988" lon="-0.08813">
        <ele>630.117</ele>
        <time>2012-06-24T14:41:24Z</time>
      </trkpt>
      <trkpt lat="42.94019" lon="-0.08813">
        <ele>626.098</ele>
        <time>2012-06-24T14:41:28Z</time>
      </trkpt>
      <trkpt lat="42.94041" lon="-0.08826">
        <ele>624.758</ele>
        <time>2012-06-24T14:41:31Z</time>
      </trkpt>
      <trkpt lat="42.94047" lon="-0.08827">
        <ele>629.369</ele>
        <time>2012-06-24T14:41:32Z</time>
      </trkpt>
      <trkpt lat="42.94072" lon="-0.08826">
        <ele>643.404</ele>
        <time>2012-06-24T14:41:37Z</time>
      </trkpt>
      <trkpt lat="42.94108" lon="-0.0882">
        <ele>646.615</ele>
        <time>2012-06-24T14:41:43Z</time>
      </trkpt>
      <trkpt lat="42.94133" lon="-0.08805">
        <ele>636.401</ele>
        <time>2012-06-24T14:41:48Z</time>
      </trkpt>
      <trkpt lat="42.94169" lon="-0.08791">
        <ele>630.892</ele>
        <time>2012-06-24T14:41:54Z</time>
      </trkpt>
      <trkpt lat="42.94197" lon="-0.08776">
        <ele>626.554</ele>
        <time>2012-06-24T14:42:00Z</time>
      </trkpt>
      <trkpt lat="42.9423" lon="-0.08758">
        <ele>622.534</ele>
        <time>2012-06-24T14:42:09Z</time>
      </trkpt>
      <trkpt lat="42.94248" lon="-0.08744">
        <ele>623.774</ele>
        <time>2012-06-24T14:42:14Z</time>
      </trkpt>
      <trkpt lat="42.94277" lon="-0.0872">
        <ele>625.115</ele>
        <time>2012-06-24T14:42:21Z</time>
      </trkpt>
      <trkpt lat="42.94306" lon="-0.08702">
        <ele>624.966</ele>
        <time>2012-06-24T14:42:27Z</time>
      </trkpt>
      <trkpt lat="42.94343" lon="-0.08677">
        <ele>631.688</ele>
        <time>2012-06-24T14:42:34Z</time>
      </trkpt>
      <trkpt lat="42.94371" lon="-0.08663">
        <ele>631.138</ele>
        <time>2012-06-24T14:42:39Z</time>
      </trkpt>
      <trkpt lat="42.94385" lon="-0.0866">
        <ele>629.047</ele>
        <time>2012-06-24T14:42:42Z</time>
      </trkpt>
      <trkpt lat="42.94407" lon="-0.08663">
        <ele>633.979</ele>
        <time>2012-06-24T14:42:47Z</time>
      </trkpt>
      <trkpt lat="42.94411" lon="-0.08666">
        <ele>634.539</ele>
        <time>2012-06-24T14:42:48Z</time>
      </trkpt>
      <trkpt lat="42.94444" lon="-0.08687">
        <ele>631.738</ele>
        <time>2012-06-24T14:42:55Z</time>
      </trkpt>
      <trkpt lat="42.94471" lon="-0.08686">
        <ele>634.47</ele>
        <time>2012-06-24T14:43:00Z</time>
      </trkpt>
      <trkpt lat="42.94478" lon="-0.08682">
        <ele>633.68</ele>
        <time>2012-06-24T14:43:02Z</time>
      </trkpt>
      <trkpt lat="42.94492" lon="-0.08671">
        <ele>629.387</ele>
        <time>2012-06-24T14:43:08Z</time>
      </trkpt>
      <trkpt lat="42.94504" lon="-0.08656">
        <ele>628.777</ele>
        <time>2012-06-24T14:43:14Z</time>
      </trkpt>
      <trkpt lat="42.94506" lon="-0.08651">
        <ele>628.327</ele>
        <time>2012-06-24T14:43:17Z</time>
      </trkpt>
      <trkpt lat="42.9451" lon="-0.08646">
        <ele>625.677</ele>
        <time>2012-06-24T14:43:22Z</time>
      </trkpt>
      <trkpt lat="42.94512" lon="-0.0864">
        <ele>624.678</ele>
        <time>2012-06-24T14:43:28Z</time>
      </trkpt>
      <trkpt lat="42.94512" lon="-0.0864">
        <ele>619.747</ele>
        <time>2012-06-24T14:43:49Z</time>
      </trkpt>
      <trkpt lat="42.94513" lon="-0.08638">
        <ele>619.228</ele>
        <time>2012-06-24T14:43:53Z</time>
      </trkpt>
      <trkpt lat="42.94516" lon="-0.08631">
        <ele>620.319</ele>
        <time>2012-06-24T14:43:58Z</time>
      </trkpt>
      <trkpt lat="42.9452" lon="-0.08625">
        <ele>621.679</ele>
        <time>2012-06-24T14:44:01Z</time>
      </trkpt>
      <trkpt lat="42.94529" lon="-0.08611">
        <ele>624.33</ele>
        <time>2012-06-24T14:44:08Z</time>
      </trkpt>
      <trkpt lat="42.94534" lon="-0.08593">
        <ele>626.239</ele>
        <time>2012-06-24T14:44:15Z</time>
      </trkpt>
      <trkpt lat="42.94533" lon="-0.08591">
        <ele>631.579</ele>
        <time>2012-06-24T14:44:21Z</time>
      </trkpt>
      <trkpt lat="42.94537" lon="-0.08587">
        <ele>629.639</ele>
        <time>2012-06-24T14:44:36Z</time>
      </trkpt>
      <trkpt lat="42.94547" lon="-0.08582">
        <ele>630.99</ele>
        <time>2012-06-24T14:44:44Z</time>
      </trkpt>
      <trkpt lat="42.94549" lon="-0.08581">
        <ele>631.951</ele>
        <time>2012-06-24T14:44:46Z</time>
      </trkpt>
      <trkpt lat="42.94554" lon="-0.08581">
        <ele>633.18</ele>
        <time>2012-06-24T14:44:50Z</time>
      </trkpt>
      <trkpt lat="42.94562" lon="-0.08586">
        <ele>634.66</ele>
        <time>2012-06-24T14:44:57Z</time>
      </trkpt>
      <trkpt lat="42.94571" lon="-0.08587">
        <ele>634.209</ele>
        <time>2012-06-24T14:45:04Z</time>
      </trkpt>
      <trkpt lat="42.94581" lon="-0.08585">
        <ele>634.299</ele>
        <time>2012-06-24T14:45:11Z</time>
      </trkpt>
      <trkpt lat="42.9459" lon="-0.08581">
        <ele>633.448</ele>
        <time>2012-06-24T14:45:16Z</time>
      </trkpt>
      <trkpt lat="42.94593" lon="-0.0858">
        <ele>632.947</ele>
        <time>2012-06-24T14:45:17Z</time>
      </trkpt>
      <trkpt lat="42.94612" lon="-0.08558">
        <ele>629.665</ele>
        <time>2012-06-24T14:45:22Z</time>
      </trkpt>
      <trkpt lat="42.9462" lon="-0.08538">
        <ele>626.925</ele>
        <time>2012-06-24T14:45:26Z</time>
      </trkpt>
      <trkpt lat="42.94622" lon="-0.08533">
        <ele>626.164</ele>
        <time>2012-06-24T14:45:27Z</time>
      </trkpt>
      <trkpt lat="42.94638" lon="-0.08505">
        <ele>623.646</ele>
        <time>2012-06-24T14:45:33Z</time>
      </trkpt>
      <trkpt lat="42.94648" lon="-0.08488">
        <ele>625.348</ele>
        <time>2012-06-24T14:45:39Z</time>
      </trkpt>
      <trkpt lat="42.94653" lon="-0.08477">
        <ele>624.077</ele>
        <time>2012-06-24T14:45:41Z</time>
      </trkpt>
      <trkpt lat="42.94665" lon="-0.08455">
        <ele>622.867</ele>
        <time>2012-06-24T14:45:45Z</time>
      </trkpt>
      <trkpt lat="42.94668" lon="-0.08454">
        <ele>622.978</ele>
        <time>2012-06-24T14:45:46Z</time>
      </trkpt>
      <trkpt lat="42.94678" lon="-0.08448">
        <ele>622.078</ele>
        <time>2012-06-24T14:45:51Z</time>
      </trkpt>
      <trkpt lat="42.94689" lon="-0.08425">
        <ele>622.828</ele>
        <time>2012-06-24T14:45:55Z</time>
      </trkpt>
      <trkpt lat="42.94692" lon="-0.08419">
        <ele>622.838</ele>
        <time>2012-06-24T14:45:56Z</time>
      </trkpt>
      <trkpt lat="42.94705" lon="-0.08398">
        <ele>622.258</ele>
        <time>2012-06-24T14:46:00Z</time>
      </trkpt>
      <trkpt lat="42.94719" lon="-0.0837">
        <ele>621.648</ele>
        <time>2012-06-24T14:46:04Z</time>
      </trkpt>
      <trkpt lat="42.94739" lon="-0.08361">
        <ele>619.768</ele>
        <time>2012-06-24T14:46:07Z</time>
      </trkpt>
      <trkpt lat="42.94763" lon="-0.08373">
        <ele>616.757</ele>
        <time>2012-06-24T14:46:10Z</time>
      </trkpt>
      <trkpt lat="42.94803" lon="-0.08385">
        <ele>614.268</ele>
        <time>2012-06-24T14:46:15Z</time>
      </trkpt>
      <trkpt lat="42.94818" lon="-0.08382">
        <ele>614.168</ele>
        <time>2012-06-24T14:46:17Z</time>
      </trkpt>
      <trkpt lat="42.94842" lon="-0.08381">
        <ele>614.178</ele>
        <time>2012-06-24T14:46:20Z</time>
      </trkpt>
      <trkpt lat="42.94869" lon="-0.08362">
        <ele>612.588</ele>
        <time>2012-06-24T14:46:24Z</time>
      </trkpt>
      <trkpt lat="42.94882" lon="-0.08319">
        <ele>610.978</ele>
        <time>2012-06-24T14:46:28Z</time>
      </trkpt>
      <trkpt lat="42.94892" lon="-0.08296">
        <ele>607.786</ele>
        <time>2012-06-24T14:46:31Z</time>
      </trkpt>
      <trkpt lat="42.94907" lon="-0.08293">
        <ele>604.896</ele>
        <time>2012-06-24T14:46:33Z</time>
      </trkpt>
      <trkpt lat="42.94935" lon="-0.08291">
        <ele>601.635</ele>
        <time>2012-06-24T14:46:36Z</time>
      </trkpt>
      <trkpt lat="42.94979" lon="-0.08268">
        <ele>598.845</ele>
        <time>2012-06-24T14:46:41Z</time>
      </trkpt>
      <trkpt lat="42.94987" lon="-0.08264">
        <ele>598.365</ele>
        <time>2012-06-24T14:46:42Z</time>
      </trkpt>
      <trkpt lat="42.95033" lon="-0.08253">
        <ele>594.956</ele>
        <time>2012-06-24T14:46:47Z</time>
      </trkpt>
      <trkpt lat="42.95068" lon="-0.08242">
        <ele>592.877</ele>
        <time>2012-06-24T14:46:51Z</time>
      </trkpt>
      <trkpt lat="42.95112" lon="-0.08236">
        <ele>590.707</ele>
        <time>2012-06-24T14:46:56Z</time>
      </trkpt>
      <trkpt lat="42.9517" lon="-0.08229">
        <ele>589.98</ele>
        <time>2012-06-24T14:47:02Z</time>
      </trkpt>
      <trkpt lat="42.95179" lon="-0.08228">
        <ele>589.931</ele>
        <time>2012-06-24T14:47:03Z</time>
      </trkpt>
      <trkpt lat="42.95221" lon="-0.08234">
        <ele>589.321</ele>
        <time>2012-06-24T14:47:08Z</time>
      </trkpt>
      <trkpt lat="42.95247" lon="-0.08241">
        <ele>591.954</ele>
        <time>2012-06-24T14:47:12Z</time>
      </trkpt>
      <trkpt lat="42.95275" lon="-0.08246">
        <ele>595.424</ele>
        <time>2012-06-24T14:47:16Z</time>
      </trkpt>
      <trkpt lat="42.95306" lon="-0.08242">
        <ele>600.605</ele>
        <time>2012-06-24T14:47:21Z</time>
      </trkpt>
      <trkpt lat="42.95338" lon="-0.08239">
        <ele>604.593</ele>
        <time>2012-06-24T14:48:15Z</time>
      </trkpt>
      <trkpt lat="42.95338" lon="-0.08239">
        <ele>604.243</ele>
        <time>2012-06-24T14:48:17Z</time>
      </trkpt>
      <trkpt lat="42.95333" lon="-0.08231">
        <ele>604.292</ele>
        <time>2012-06-24T14:48:22Z</time>
      </trkpt>
      <trkpt lat="42.9533" lon="-0.08222">
        <ele>604.212</ele>
        <time>2012-06-24T14:48:25Z</time>
      </trkpt>
      <trkpt lat="42.95334" lon="-0.08216">
        <ele>601.271</ele>
        <time>2012-06-24T14:48:29Z</time>
      </trkpt>
      <trkpt lat="42.95336" lon="-0.08216">
        <ele>600.761</ele>
        <time>2012-06-24T14:48:30Z</time>
      </trkpt>
      <trkpt lat="42.95354" lon="-0.08211">
        <ele>596.72</ele>
        <time>2012-06-24T14:48:35Z</time>
      </trkpt>
      <trkpt lat="42.95365" lon="-0.08206">
        <ele>592.59</ele>
        <time>2012-06-24T14:48:39Z</time>
      </trkpt>
      <trkpt lat="42.95363" lon="-0.08202">
        <ele>589.079</ele>
        <time>2012-06-24T14:48:43Z</time>
      </trkpt>
      <trkpt lat="42.95358" lon="-0.08201">
        <ele>587.769</ele>
        <time>2012-06-24T14:48:45Z</time>
      </trkpt>
      <trkpt lat="42.9534" lon="-0.08199">
        <ele>583.94</ele>
        <time>2012-06-24T14:48:51Z</time>
      </trkpt>
      <trkpt lat="42.95339" lon="-0.08198">
        <ele>583.122</ele>
        <time>2012-06-24T14:48:56Z</time>
      </trkpt>
      <trkpt lat="42.95339" lon="-0.08198">
        <ele>583.162</ele>
        <time>2012-06-24T14:48:57Z</time>
      </trkpt>
      <trkpt lat="42.95332" lon="-0.08193">
        <ele>583.033</ele>
        <time>2012-06-24T14:49:03Z</time>
      </trkpt>
      <trkpt lat="42.95326" lon="-0.08193">
        <ele>582.513</ele>
        <time>2012-06-24T14:49:07Z</time>
      </trkpt>
      <trkpt lat="42.95325" lon="-0.08191">
        <ele>582.653</ele>
        <time>2012-06-24T14:49:12Z</time>
      </trkpt>
      <trkpt lat="42.95324" lon="-0.08189">
        <ele>581.933</ele>
        <time>2012-06-24T14:49:19Z</time>
      </trkpt>
      <trkpt lat="42.95329" lon="-0.08184">
        <ele>580.942</ele>
        <time>2012-06-24T14:49:23Z</time>
      </trkpt>
      <trkpt lat="42.95347" lon="-0.0818">
        <ele>579.362</ele>
        <time>2012-06-24T14:49:28Z</time>
      </trkpt>
      <trkpt lat="42.95378" lon="-0.08173">
        <ele>574.14</ele>
        <time>2012-06-24T14:49:34Z</time>
      </trkpt>
      <trkpt lat="42.9539" lon="-0.0817">
        <ele>572.01</ele>
        <time>2012-06-24T14:49:36Z</time>
      </trkpt>
      <trkpt lat="42.95435" lon="-0.08146">
        <ele>564.057</ele>
        <time>2012-06-24T14:49:42Z</time>
      </trkpt>
      <trkpt lat="42.9546" lon="-0.08116">
        <ele>559.457</ele>
        <time>2012-06-24T14:49:46Z</time>
      </trkpt>
      <trkpt lat="42.95488" lon="-0.08067">
        <ele>550.807</ele>
        <time>2012-06-24T14:49:52Z</time>
      </trkpt>
      <trkpt lat="42.95494" lon="-0.08042">
        <ele>545.486</ele>
        <time>2012-06-24T14:49:56Z</time>
      </trkpt>
      <trkpt lat="42.95502" lon="-0.08036">
        <ele>542.697</ele>
        <time>2012-06-24T14:49:59Z</time>
      </trkpt>
      <trkpt lat="42.95516" lon="-0.08036">
        <ele>538.907</ele>
        <time>2012-06-24T14:50:02Z</time>
      </trkpt>
      <trkpt lat="42.9552" lon="-0.08032">
        <ele>537.847</ele>
        <time>2012-06-24T14:50:03Z</time>
      </trkpt>
      <trkpt lat="42.95545" lon="-0.08006">
        <ele>530.538</ele>
        <time>2012-06-24T14:50:09Z</time>
      </trkpt>
      <trkpt lat="42.95565" lon="-0.07994">
        <ele>526.238</ele>
        <time>2012-06-24T14:50:13Z</time>
      </trkpt>
      <trkpt lat="42.9557" lon="-0.07991">
        <ele>524.819</ele>
        <time>2012-06-24T14:50:14Z</time>
      </trkpt>
      <trkpt lat="42.95587" lon="-0.0798">
        <ele>520.827</ele>
        <time>2012-06-24T14:50:17Z</time>
      </trkpt>
      <trkpt lat="42.95604" lon="-0.0797">
        <ele>518.678</ele>
        <time>2012-06-24T14:50:19Z</time>
      </trkpt>
      <trkpt lat="42.95629" lon="-0.07941">
        <ele>514.368</ele>
        <time>2012-06-24T14:50:23Z</time>
      </trkpt>
      <trkpt lat="42.9565" lon="-0.07897">
        <ele>510.929</ele>
        <time>2012-06-24T14:50:27Z</time>
      </trkpt>
      <trkpt lat="42.95684" lon="-0.07817">
        <ele>506.729</ele>
        <time>2012-06-24T14:50:33Z</time>
      </trkpt>
      <trkpt lat="42.95719" lon="-0.07742">
        <ele>499.969</ele>
        <time>2012-06-24T14:50:39Z</time>
      </trkpt>
      <trkpt lat="42.95752" lon="-0.07677">
        <ele>498.221</ele>
        <time>2012-06-24T14:50:45Z</time>
      </trkpt>
      <trkpt lat="42.95757" lon="-0.07668">
        <ele>499.012</ele>
        <time>2012-06-24T14:50:46Z</time>
      </trkpt>
      <trkpt lat="42.95765" lon="-0.07653">
        <ele>496.812</ele>
        <time>2012-06-24T14:50:48Z</time>
      </trkpt>
      <trkpt lat="42.95769" lon="-0.07633">
        <ele>492.014</ele>
        <time>2012-06-24T14:50:52Z</time>
      </trkpt>
      <trkpt lat="42.95769" lon="-0.07628">
        <ele>492.054</ele>
        <time>2012-06-24T14:50:56Z</time>
      </trkpt>
      <trkpt lat="42.95769" lon="-0.07618">
        <ele>495.006</ele>
        <time>2012-06-24T14:51:08Z</time>
      </trkpt>
      <trkpt lat="42.9578" lon="-0.076">
        <ele>494.486</ele>
        <time>2012-06-24T14:51:12Z</time>
      </trkpt>
      <trkpt lat="42.95788" lon="-0.07581">
        <ele>493.397</ele>
        <time>2012-06-24T14:51:15Z</time>
      </trkpt>
      <trkpt lat="42.9581" lon="-0.07526">
        <ele>486.205</ele>
        <time>2012-06-24T14:51:22Z</time>
      </trkpt>
      <trkpt lat="42.95811" lon="-0.07517">
        <ele>486.545</ele>
        <time>2012-06-24T14:51:23Z</time>
      </trkpt>
      <trkpt lat="42.95786" lon="-0.07505">
        <ele>487.985</ele>
        <time>2012-06-24T14:51:26Z</time>
      </trkpt>
      <trkpt lat="42.95774" lon="-0.07511">
        <ele>489.106</ele>
        <time>2012-06-24T14:51:28Z</time>
      </trkpt>
      <trkpt lat="42.95738" lon="-0.07522">
        <ele>493.288</ele>
        <time>2012-06-24T14:51:35Z</time>
      </trkpt>
      <trkpt lat="42.95742" lon="-0.0755">
        <ele>450.876</ele>
        <time>2012-06-24T14:51:39Z</time>
      </trkpt>
      <trkpt lat="42.95744" lon="-0.07559">
        <ele>437.576</ele>
        <time>2012-06-24T14:51:40Z</time>
      </trkpt>
      <trkpt lat="42.95728" lon="-0.07561">
        <ele>425.366</ele>
        <time>2012-06-24T14:51:44Z</time>
      </trkpt>
      <trkpt lat="42.95706" lon="-0.0753">
        <ele>428.406</ele>
        <time>2012-06-24T14:51:49Z</time>
      </trkpt>
      <trkpt lat="42.95701" lon="-0.07513">
        <ele>429.366</ele>
        <time>2012-06-24T14:51:51Z</time>
      </trkpt>
      <trkpt lat="42.95688" lon="-0.07463">
        <ele>432.595</ele>
        <time>2012-06-24T14:51:56Z</time>
      </trkpt>
      <trkpt lat="42.95652" lon="-0.07392">
        <ele>437.355</ele>
        <time>2012-06-24T14:52:03Z</time>
      </trkpt>
      <trkpt lat="42.9561" lon="-0.07322">
        <ele>442.696</ele>
        <time>2012-06-24T14:52:10Z</time>
      </trkpt>
      <trkpt lat="42.95605" lon="-0.07314">
        <ele>443.436</ele>
        <time>2012-06-24T14:52:11Z</time>
      </trkpt>
      <trkpt lat="42.95607" lon="-0.07289">
        <ele>420.035</ele>
        <time>2012-06-24T14:52:15Z</time>
      </trkpt>
      <trkpt lat="42.95617" lon="-0.07279">
        <ele>395.435</ele>
        <time>2012-06-24T14:52:18Z</time>
      </trkpt>
      <trkpt lat="42.95616" lon="-0.07274">
        <ele>397.907</ele>
        <time>2012-06-24T14:52:21Z</time>
      </trkpt>
      <trkpt lat="42.95614" lon="-0.07271">
        <ele>405.268</ele>
        <time>2012-06-24T14:52:28Z</time>
      </trkpt>
      <trkpt lat="42.95617" lon="-0.07275">
        <ele>399.205</ele>
        <time>2012-06-24T14:52:38Z</time>
      </trkpt>
    </trkseg>
  </trk>
</gpx>